<?xml version="1.0" encoding="UTF-8" standalone="no" ?>
<gpx xmlns="http://www.topografix.com/GPX/1/1" xmlns:xsi="http://www.w3.org/2001/XMLSchema-instance" xsi:schemaLocation="http://www.topografix.com/GPX/1/1 http://www.topografix.com/GPX/1/1/gpx.xsd" version="1.1" creator="VisuGPX - https://www.visugpx.com">
  <metadata>
    <name>Sortie Charbonnière - Fontrijolle - Marcy 32km - 031211</name>
    <desc><![CDATA[La fameuse DH de Larny...]]></desc>
  </metadata>
  <trk>
    <name><![CDATA[TracÃ© actuel: 03 DEC 2011 08:01]]></name>
    <trkseg>
      <trkpt lat="45.78532" lon="4.73452">
        <ele>231</ele>
        <time>2011-12-03T07:01:03Z</time>
      </trkpt>
      <trkpt lat="45.78532" lon="4.73453">
        <ele>231</ele>
        <time>2011-12-03T07:01:19Z</time>
      </trkpt>
      <trkpt lat="45.78532" lon="4.73453">
        <ele>231</ele>
        <time>2011-12-03T07:01:32Z</time>
      </trkpt>
      <trkpt lat="45.78532" lon="4.73453">
        <ele>232</ele>
        <time>2011-12-03T07:01:46Z</time>
      </trkpt>
      <trkpt lat="45.78532" lon="4.73453">
        <ele>231</ele>
        <time>2011-12-03T07:01:47Z</time>
      </trkpt>
      <trkpt lat="45.7853" lon="4.73467">
        <ele>231</ele>
        <time>2011-12-03T07:01:53Z</time>
      </trkpt>
      <trkpt lat="45.78524" lon="4.73492">
        <ele>231</ele>
        <time>2011-12-03T07:02:01Z</time>
      </trkpt>
      <trkpt lat="45.78518" lon="4.73515">
        <ele>231</ele>
        <time>2011-12-03T07:02:07Z</time>
      </trkpt>
      <trkpt lat="45.78511" lon="4.73538">
        <ele>230</ele>
        <time>2011-12-03T07:02:13Z</time>
      </trkpt>
      <trkpt lat="45.78498" lon="4.73554">
        <ele>232</ele>
        <time>2011-12-03T07:02:19Z</time>
      </trkpt>
      <trkpt lat="45.78495" lon="4.73557">
        <ele>231</ele>
        <time>2011-12-03T07:02:21Z</time>
      </trkpt>
      <trkpt lat="45.78492" lon="4.73557">
        <ele>231</ele>
        <time>2011-12-03T07:02:24Z</time>
      </trkpt>
      <trkpt lat="45.78477" lon="4.73567">
        <ele>233</ele>
        <time>2011-12-03T07:02:31Z</time>
      </trkpt>
      <trkpt lat="45.78457" lon="4.73573">
        <ele>234</ele>
        <time>2011-12-03T07:02:38Z</time>
      </trkpt>
      <trkpt lat="45.78437" lon="4.73574">
        <ele>234</ele>
        <time>2011-12-03T07:02:46Z</time>
      </trkpt>
      <trkpt lat="45.78418" lon="4.73576">
        <ele>235</ele>
        <time>2011-12-03T07:02:53Z</time>
      </trkpt>
      <trkpt lat="45.78402" lon="4.73578">
        <ele>235</ele>
        <time>2011-12-03T07:02:58Z</time>
      </trkpt>
      <trkpt lat="45.78383" lon="4.73583">
        <ele>235</ele>
        <time>2011-12-03T07:03:04Z</time>
      </trkpt>
      <trkpt lat="45.78365" lon="4.73589">
        <ele>235</ele>
        <time>2011-12-03T07:03:10Z</time>
      </trkpt>
      <trkpt lat="45.78346" lon="4.73593">
        <ele>235</ele>
        <time>2011-12-03T07:03:16Z</time>
      </trkpt>
      <trkpt lat="45.78336" lon="4.7359">
        <ele>235</ele>
        <time>2011-12-03T07:03:19Z</time>
      </trkpt>
      <trkpt lat="45.78321" lon="4.7359">
        <ele>235</ele>
        <time>2011-12-03T07:03:24Z</time>
      </trkpt>
      <trkpt lat="45.78316" lon="4.7359">
        <ele>235</ele>
        <time>2011-12-03T07:03:25Z</time>
      </trkpt>
      <trkpt lat="45.78304" lon="4.73591">
        <ele>235</ele>
        <time>2011-12-03T07:03:30Z</time>
      </trkpt>
      <trkpt lat="45.78286" lon="4.73601">
        <ele>235</ele>
        <time>2011-12-03T07:03:36Z</time>
      </trkpt>
      <trkpt lat="45.78265" lon="4.73623">
        <ele>234</ele>
        <time>2011-12-03T07:03:42Z</time>
      </trkpt>
      <trkpt lat="45.78261" lon="4.73628">
        <ele>233</ele>
        <time>2011-12-03T07:03:43Z</time>
      </trkpt>
      <trkpt lat="45.78257" lon="4.73632">
        <ele>233</ele>
        <time>2011-12-03T07:03:44Z</time>
      </trkpt>
      <trkpt lat="45.78253" lon="4.73637">
        <ele>233</ele>
        <time>2011-12-03T07:03:45Z</time>
      </trkpt>
      <trkpt lat="45.78249" lon="4.73642">
        <ele>233</ele>
        <time>2011-12-03T07:03:46Z</time>
      </trkpt>
      <trkpt lat="45.78246" lon="4.73648">
        <ele>233</ele>
        <time>2011-12-03T07:03:47Z</time>
      </trkpt>
      <trkpt lat="45.78243" lon="4.73655">
        <ele>232</ele>
        <time>2011-12-03T07:03:48Z</time>
      </trkpt>
      <trkpt lat="45.7824" lon="4.73662">
        <ele>232</ele>
        <time>2011-12-03T07:03:49Z</time>
      </trkpt>
      <trkpt lat="45.78218" lon="4.73724">
        <ele>230</ele>
        <time>2011-12-03T07:03:57Z</time>
      </trkpt>
      <trkpt lat="45.78209" lon="4.73748">
        <ele>229</ele>
        <time>2011-12-03T07:04:00Z</time>
      </trkpt>
      <trkpt lat="45.78195" lon="4.73788">
        <ele>228</ele>
        <time>2011-12-03T07:04:05Z</time>
      </trkpt>
      <trkpt lat="45.78175" lon="4.73841">
        <ele>228</ele>
        <time>2011-12-03T07:04:13Z</time>
      </trkpt>
      <trkpt lat="45.78173" lon="4.73847">
        <ele>228</ele>
        <time>2011-12-03T07:04:14Z</time>
      </trkpt>
      <trkpt lat="45.78167" lon="4.73871">
        <ele>228</ele>
        <time>2011-12-03T07:04:18Z</time>
      </trkpt>
      <trkpt lat="45.78166" lon="4.73876">
        <ele>228</ele>
        <time>2011-12-03T07:04:19Z</time>
      </trkpt>
      <trkpt lat="45.78164" lon="4.73883">
        <ele>228</ele>
        <time>2011-12-03T07:04:20Z</time>
      </trkpt>
      <trkpt lat="45.78161" lon="4.73894">
        <ele>228</ele>
        <time>2011-12-03T07:04:22Z</time>
      </trkpt>
      <trkpt lat="45.78146" lon="4.73941">
        <ele>227</ele>
        <time>2011-12-03T07:04:30Z</time>
      </trkpt>
      <trkpt lat="45.78143" lon="4.73946">
        <ele>227</ele>
        <time>2011-12-03T07:04:31Z</time>
      </trkpt>
      <trkpt lat="45.7814" lon="4.73951">
        <ele>227</ele>
        <time>2011-12-03T07:04:32Z</time>
      </trkpt>
      <trkpt lat="45.78137" lon="4.73956">
        <ele>228</ele>
        <time>2011-12-03T07:04:33Z</time>
      </trkpt>
      <trkpt lat="45.78133" lon="4.7396">
        <ele>228</ele>
        <time>2011-12-03T07:04:34Z</time>
      </trkpt>
      <trkpt lat="45.78129" lon="4.73962">
        <ele>227</ele>
        <time>2011-12-03T07:04:35Z</time>
      </trkpt>
      <trkpt lat="45.78125" lon="4.73964">
        <ele>227</ele>
        <time>2011-12-03T07:04:36Z</time>
      </trkpt>
      <trkpt lat="45.78121" lon="4.73967">
        <ele>228</ele>
        <time>2011-12-03T07:04:37Z</time>
      </trkpt>
      <trkpt lat="45.78096" lon="4.73986">
        <ele>227</ele>
        <time>2011-12-03T07:04:43Z</time>
      </trkpt>
      <trkpt lat="45.78059" lon="4.74013">
        <ele>227</ele>
        <time>2011-12-03T07:04:51Z</time>
      </trkpt>
      <trkpt lat="45.78031" lon="4.74029">
        <ele>227</ele>
        <time>2011-12-03T07:04:57Z</time>
      </trkpt>
      <trkpt lat="45.77992" lon="4.74059">
        <ele>227</ele>
        <time>2011-12-03T07:05:06Z</time>
      </trkpt>
      <trkpt lat="45.77958" lon="4.74088">
        <ele>227</ele>
        <time>2011-12-03T07:05:14Z</time>
      </trkpt>
      <trkpt lat="45.77926" lon="4.74117">
        <ele>226</ele>
        <time>2011-12-03T07:05:22Z</time>
      </trkpt>
      <trkpt lat="45.77904" lon="4.74144">
        <ele>226</ele>
        <time>2011-12-03T07:05:28Z</time>
      </trkpt>
      <trkpt lat="45.77882" lon="4.74168">
        <ele>227</ele>
        <time>2011-12-03T07:05:34Z</time>
      </trkpt>
      <trkpt lat="45.77879" lon="4.74172">
        <ele>227</ele>
        <time>2011-12-03T07:05:35Z</time>
      </trkpt>
      <trkpt lat="45.77876" lon="4.74175">
        <ele>227</ele>
        <time>2011-12-03T07:05:36Z</time>
      </trkpt>
      <trkpt lat="45.77874" lon="4.7418">
        <ele>227</ele>
        <time>2011-12-03T07:05:37Z</time>
      </trkpt>
      <trkpt lat="45.77873" lon="4.74185">
        <ele>227</ele>
        <time>2011-12-03T07:05:38Z</time>
      </trkpt>
      <trkpt lat="45.77873" lon="4.74191">
        <ele>227</ele>
        <time>2011-12-03T07:05:39Z</time>
      </trkpt>
      <trkpt lat="45.77874" lon="4.74197">
        <ele>227</ele>
        <time>2011-12-03T07:05:40Z</time>
      </trkpt>
      <trkpt lat="45.77877" lon="4.74202">
        <ele>227</ele>
        <time>2011-12-03T07:05:41Z</time>
      </trkpt>
      <trkpt lat="45.77879" lon="4.74206">
        <ele>227</ele>
        <time>2011-12-03T07:05:42Z</time>
      </trkpt>
      <trkpt lat="45.77889" lon="4.74233">
        <ele>229</ele>
        <time>2011-12-03T07:05:49Z</time>
      </trkpt>
      <trkpt lat="45.77895" lon="4.74263">
        <ele>231</ele>
        <time>2011-12-03T07:05:57Z</time>
      </trkpt>
      <trkpt lat="45.77896" lon="4.74298">
        <ele>233</ele>
        <time>2011-12-03T07:06:06Z</time>
      </trkpt>
      <trkpt lat="45.77884" lon="4.74322">
        <ele>234</ele>
        <time>2011-12-03T07:06:13Z</time>
      </trkpt>
      <trkpt lat="45.77869" lon="4.74336">
        <ele>235</ele>
        <time>2011-12-03T07:06:20Z</time>
      </trkpt>
      <trkpt lat="45.77853" lon="4.7435">
        <ele>235</ele>
        <time>2011-12-03T07:06:27Z</time>
      </trkpt>
      <trkpt lat="45.77836" lon="4.74373">
        <ele>238</ele>
        <time>2011-12-03T07:06:36Z</time>
      </trkpt>
      <trkpt lat="45.77824" lon="4.74398">
        <ele>239</ele>
        <time>2011-12-03T07:06:45Z</time>
      </trkpt>
      <trkpt lat="45.77813" lon="4.74425">
        <ele>241</ele>
        <time>2011-12-03T07:06:54Z</time>
      </trkpt>
      <trkpt lat="45.77803" lon="4.74443">
        <ele>242</ele>
        <time>2011-12-03T07:07:01Z</time>
      </trkpt>
      <trkpt lat="45.77791" lon="4.74464">
        <ele>243</ele>
        <time>2011-12-03T07:07:09Z</time>
      </trkpt>
      <trkpt lat="45.77782" lon="4.74485">
        <ele>245</ele>
        <time>2011-12-03T07:07:16Z</time>
      </trkpt>
      <trkpt lat="45.77777" lon="4.74511">
        <ele>246</ele>
        <time>2011-12-03T07:07:24Z</time>
      </trkpt>
      <trkpt lat="45.77774" lon="4.74541">
        <ele>248</ele>
        <time>2011-12-03T07:07:33Z</time>
      </trkpt>
      <trkpt lat="45.7777" lon="4.74558">
        <ele>249</ele>
        <time>2011-12-03T07:07:38Z</time>
      </trkpt>
      <trkpt lat="45.77769" lon="4.74561">
        <ele>249</ele>
        <time>2011-12-03T07:07:39Z</time>
      </trkpt>
      <trkpt lat="45.77768" lon="4.74564">
        <ele>250</ele>
        <time>2011-12-03T07:07:40Z</time>
      </trkpt>
      <trkpt lat="45.77767" lon="4.74567">
        <ele>250</ele>
        <time>2011-12-03T07:07:41Z</time>
      </trkpt>
      <trkpt lat="45.77767" lon="4.74571">
        <ele>251</ele>
        <time>2011-12-03T07:07:42Z</time>
      </trkpt>
      <trkpt lat="45.77766" lon="4.74574">
        <ele>250</ele>
        <time>2011-12-03T07:07:43Z</time>
      </trkpt>
      <trkpt lat="45.77759" lon="4.746">
        <ele>252</ele>
        <time>2011-12-03T07:07:51Z</time>
      </trkpt>
      <trkpt lat="45.7775" lon="4.74625">
        <ele>253</ele>
        <time>2011-12-03T07:07:59Z</time>
      </trkpt>
      <trkpt lat="45.77737" lon="4.7465">
        <ele>254</ele>
        <time>2011-12-03T07:08:08Z</time>
      </trkpt>
      <trkpt lat="45.77728" lon="4.74668">
        <ele>255</ele>
        <time>2011-12-03T07:08:15Z</time>
      </trkpt>
      <trkpt lat="45.77717" lon="4.74696">
        <ele>258</ele>
        <time>2011-12-03T07:08:24Z</time>
      </trkpt>
      <trkpt lat="45.77712" lon="4.74708">
        <ele>259</ele>
        <time>2011-12-03T07:08:30Z</time>
      </trkpt>
      <trkpt lat="45.77707" lon="4.74719">
        <ele>260</ele>
        <time>2011-12-03T07:08:35Z</time>
      </trkpt>
      <trkpt lat="45.77706" lon="4.74722">
        <ele>260</ele>
        <time>2011-12-03T07:08:36Z</time>
      </trkpt>
      <trkpt lat="45.77698" lon="4.74746">
        <ele>263</ele>
        <time>2011-12-03T07:08:45Z</time>
      </trkpt>
      <trkpt lat="45.77695" lon="4.74754">
        <ele>263</ele>
        <time>2011-12-03T07:08:48Z</time>
      </trkpt>
      <trkpt lat="45.77693" lon="4.74756">
        <ele>264</ele>
        <time>2011-12-03T07:08:49Z</time>
      </trkpt>
      <trkpt lat="45.77692" lon="4.74758">
        <ele>263</ele>
        <time>2011-12-03T07:08:50Z</time>
      </trkpt>
      <trkpt lat="45.77683" lon="4.7478">
        <ele>265</ele>
        <time>2011-12-03T07:08:59Z</time>
      </trkpt>
      <trkpt lat="45.77677" lon="4.74796">
        <ele>265</ele>
        <time>2011-12-03T07:09:05Z</time>
      </trkpt>
      <trkpt lat="45.77669" lon="4.74826">
        <ele>266</ele>
        <time>2011-12-03T07:09:13Z</time>
      </trkpt>
      <trkpt lat="45.77665" lon="4.74847">
        <ele>266</ele>
        <time>2011-12-03T07:09:19Z</time>
      </trkpt>
      <trkpt lat="45.77659" lon="4.74868">
        <ele>266</ele>
        <time>2011-12-03T07:09:25Z</time>
      </trkpt>
      <trkpt lat="45.77647" lon="4.74905">
        <ele>265</ele>
        <time>2011-12-03T07:09:34Z</time>
      </trkpt>
      <trkpt lat="45.77629" lon="4.74939">
        <ele>266</ele>
        <time>2011-12-03T07:09:43Z</time>
      </trkpt>
      <trkpt lat="45.77617" lon="4.7496">
        <ele>267</ele>
        <time>2011-12-03T07:09:50Z</time>
      </trkpt>
      <trkpt lat="45.77603" lon="4.74985">
        <ele>269</ele>
        <time>2011-12-03T07:09:58Z</time>
      </trkpt>
      <trkpt lat="45.77602" lon="4.74988">
        <ele>269</ele>
        <time>2011-12-03T07:09:59Z</time>
      </trkpt>
      <trkpt lat="45.77602" lon="4.74992">
        <ele>269</ele>
        <time>2011-12-03T07:10:00Z</time>
      </trkpt>
      <trkpt lat="45.77602" lon="4.74996">
        <ele>269</ele>
        <time>2011-12-03T07:10:01Z</time>
      </trkpt>
      <trkpt lat="45.77602" lon="4.75022">
        <ele>271</ele>
        <time>2011-12-03T07:10:08Z</time>
      </trkpt>
      <trkpt lat="45.77598" lon="4.75055">
        <ele>272</ele>
        <time>2011-12-03T07:10:17Z</time>
      </trkpt>
      <trkpt lat="45.77595" lon="4.75088">
        <ele>272</ele>
        <time>2011-12-03T07:10:26Z</time>
      </trkpt>
      <trkpt lat="45.77591" lon="4.75114">
        <ele>272</ele>
        <time>2011-12-03T07:10:33Z</time>
      </trkpt>
      <trkpt lat="45.77589" lon="4.75137">
        <ele>272</ele>
        <time>2011-12-03T07:10:40Z</time>
      </trkpt>
      <trkpt lat="45.77585" lon="4.75169">
        <ele>271</ele>
        <time>2011-12-03T07:10:49Z</time>
      </trkpt>
      <trkpt lat="45.77583" lon="4.75187">
        <ele>270</ele>
        <time>2011-12-03T07:10:55Z</time>
      </trkpt>
      <trkpt lat="45.77581" lon="4.75189">
        <ele>270</ele>
        <time>2011-12-03T07:11:00Z</time>
      </trkpt>
      <trkpt lat="45.77581" lon="4.75189">
        <ele>269</ele>
        <time>2011-12-03T07:11:17Z</time>
      </trkpt>
      <trkpt lat="45.77581" lon="4.75189">
        <ele>270</ele>
        <time>2011-12-03T07:11:36Z</time>
      </trkpt>
      <trkpt lat="45.77581" lon="4.75189">
        <ele>270</ele>
        <time>2011-12-03T07:11:43Z</time>
      </trkpt>
      <trkpt lat="45.7758" lon="4.75204">
        <ele>270</ele>
        <time>2011-12-03T07:11:50Z</time>
      </trkpt>
      <trkpt lat="45.77578" lon="4.75205">
        <ele>270</ele>
        <time>2011-12-03T07:11:53Z</time>
      </trkpt>
      <trkpt lat="45.77577" lon="4.75212">
        <ele>269</ele>
        <time>2011-12-03T07:11:57Z</time>
      </trkpt>
      <trkpt lat="45.77585" lon="4.75253">
        <ele>269</ele>
        <time>2011-12-03T07:12:05Z</time>
      </trkpt>
      <trkpt lat="45.77594" lon="4.75283">
        <ele>268</ele>
        <time>2011-12-03T07:12:11Z</time>
      </trkpt>
      <trkpt lat="45.77599" lon="4.75293">
        <ele>267</ele>
        <time>2011-12-03T07:12:13Z</time>
      </trkpt>
      <trkpt lat="45.77602" lon="4.75297">
        <ele>267</ele>
        <time>2011-12-03T07:12:14Z</time>
      </trkpt>
      <trkpt lat="45.77621" lon="4.75321">
        <ele>264</ele>
        <time>2011-12-03T07:12:19Z</time>
      </trkpt>
      <trkpt lat="45.77648" lon="4.75348">
        <ele>261</ele>
        <time>2011-12-03T07:12:24Z</time>
      </trkpt>
      <trkpt lat="45.77655" lon="4.75351">
        <ele>260</ele>
        <time>2011-12-03T07:12:25Z</time>
      </trkpt>
      <trkpt lat="45.77662" lon="4.75352">
        <ele>259</ele>
        <time>2011-12-03T07:12:26Z</time>
      </trkpt>
      <trkpt lat="45.77669" lon="4.75351">
        <ele>258</ele>
        <time>2011-12-03T07:12:27Z</time>
      </trkpt>
      <trkpt lat="45.77677" lon="4.75349">
        <ele>257</ele>
        <time>2011-12-03T07:12:28Z</time>
      </trkpt>
      <trkpt lat="45.77705" lon="4.75346">
        <ele>253</ele>
        <time>2011-12-03T07:12:32Z</time>
      </trkpt>
      <trkpt lat="45.77711" lon="4.75349">
        <ele>252</ele>
        <time>2011-12-03T07:12:33Z</time>
      </trkpt>
      <trkpt lat="45.77715" lon="4.75354">
        <ele>252</ele>
        <time>2011-12-03T07:12:34Z</time>
      </trkpt>
      <trkpt lat="45.77717" lon="4.7536">
        <ele>250</ele>
        <time>2011-12-03T07:12:35Z</time>
      </trkpt>
      <trkpt lat="45.77719" lon="4.75368">
        <ele>250</ele>
        <time>2011-12-03T07:12:36Z</time>
      </trkpt>
      <trkpt lat="45.77718" lon="4.75377">
        <ele>250</ele>
        <time>2011-12-03T07:12:37Z</time>
      </trkpt>
      <trkpt lat="45.77718" lon="4.75386">
        <ele>248</ele>
        <time>2011-12-03T07:12:38Z</time>
      </trkpt>
      <trkpt lat="45.77718" lon="4.75395">
        <ele>248</ele>
        <time>2011-12-03T07:12:39Z</time>
      </trkpt>
      <trkpt lat="45.77717" lon="4.75417">
        <ele>247</ele>
        <time>2011-12-03T07:12:42Z</time>
      </trkpt>
      <trkpt lat="45.77718" lon="4.75423">
        <ele>247</ele>
        <time>2011-12-03T07:12:43Z</time>
      </trkpt>
      <trkpt lat="45.77719" lon="4.75428">
        <ele>247</ele>
        <time>2011-12-03T07:12:44Z</time>
      </trkpt>
      <trkpt lat="45.77722" lon="4.75432">
        <ele>246</ele>
        <time>2011-12-03T07:12:45Z</time>
      </trkpt>
      <trkpt lat="45.77725" lon="4.75435">
        <ele>246</ele>
        <time>2011-12-03T07:12:46Z</time>
      </trkpt>
      <trkpt lat="45.77729" lon="4.75439">
        <ele>246</ele>
        <time>2011-12-03T07:12:47Z</time>
      </trkpt>
      <trkpt lat="45.77734" lon="4.75443">
        <ele>245</ele>
        <time>2011-12-03T07:12:48Z</time>
      </trkpt>
      <trkpt lat="45.7774" lon="4.75446">
        <ele>244</ele>
        <time>2011-12-03T07:12:49Z</time>
      </trkpt>
      <trkpt lat="45.77759" lon="4.75459">
        <ele>241</ele>
        <time>2011-12-03T07:12:52Z</time>
      </trkpt>
      <trkpt lat="45.77778" lon="4.75473">
        <ele>237</ele>
        <time>2011-12-03T07:12:55Z</time>
      </trkpt>
      <trkpt lat="45.778" lon="4.75485">
        <ele>234</ele>
        <time>2011-12-03T07:12:58Z</time>
      </trkpt>
      <trkpt lat="45.77828" lon="4.75495">
        <ele>230</ele>
        <time>2011-12-03T07:13:02Z</time>
      </trkpt>
      <trkpt lat="45.7784" lon="4.75499">
        <ele>229</ele>
        <time>2011-12-03T07:13:04Z</time>
      </trkpt>
      <trkpt lat="45.77845" lon="4.75502">
        <ele>229</ele>
        <time>2011-12-03T07:13:05Z</time>
      </trkpt>
      <trkpt lat="45.7785" lon="4.75504">
        <ele>228</ele>
        <time>2011-12-03T07:13:06Z</time>
      </trkpt>
      <trkpt lat="45.77854" lon="4.75505">
        <ele>228</ele>
        <time>2011-12-03T07:13:07Z</time>
      </trkpt>
      <trkpt lat="45.77859" lon="4.75506">
        <ele>228</ele>
        <time>2011-12-03T07:13:08Z</time>
      </trkpt>
      <trkpt lat="45.77863" lon="4.75505">
        <ele>228</ele>
        <time>2011-12-03T07:13:09Z</time>
      </trkpt>
      <trkpt lat="45.77866" lon="4.75504">
        <ele>228</ele>
        <time>2011-12-03T07:13:10Z</time>
      </trkpt>
      <trkpt lat="45.77868" lon="4.75502">
        <ele>228</ele>
        <time>2011-12-03T07:13:11Z</time>
      </trkpt>
      <trkpt lat="45.77872" lon="4.75499">
        <ele>229</ele>
        <time>2011-12-03T07:13:13Z</time>
      </trkpt>
      <trkpt lat="45.77874" lon="4.75499">
        <ele>228</ele>
        <time>2011-12-03T07:13:14Z</time>
      </trkpt>
      <trkpt lat="45.77876" lon="4.755">
        <ele>228</ele>
        <time>2011-12-03T07:13:15Z</time>
      </trkpt>
      <trkpt lat="45.77886" lon="4.755">
        <ele>229</ele>
        <time>2011-12-03T07:13:20Z</time>
      </trkpt>
      <trkpt lat="45.77888" lon="4.75499">
        <ele>230</ele>
        <time>2011-12-03T07:13:21Z</time>
      </trkpt>
      <trkpt lat="45.77894" lon="4.75496">
        <ele>230</ele>
        <time>2011-12-03T07:13:26Z</time>
      </trkpt>
      <trkpt lat="45.77897" lon="4.75495">
        <ele>231</ele>
        <time>2011-12-03T07:13:28Z</time>
      </trkpt>
      <trkpt lat="45.77908" lon="4.75494">
        <ele>233</ele>
        <time>2011-12-03T07:13:35Z</time>
      </trkpt>
      <trkpt lat="45.77921" lon="4.75496">
        <ele>233</ele>
        <time>2011-12-03T07:13:43Z</time>
      </trkpt>
      <trkpt lat="45.77936" lon="4.75504">
        <ele>232</ele>
        <time>2011-12-03T07:13:48Z</time>
      </trkpt>
      <trkpt lat="45.77955" lon="4.75516">
        <ele>231</ele>
        <time>2011-12-03T07:13:53Z</time>
      </trkpt>
      <trkpt lat="45.77973" lon="4.75526">
        <ele>231</ele>
        <time>2011-12-03T07:13:58Z</time>
      </trkpt>
      <trkpt lat="45.77988" lon="4.75536">
        <ele>231</ele>
        <time>2011-12-03T07:14:03Z</time>
      </trkpt>
      <trkpt lat="45.78004" lon="4.75545">
        <ele>231</ele>
        <time>2011-12-03T07:14:09Z</time>
      </trkpt>
      <trkpt lat="45.78021" lon="4.75553">
        <ele>231</ele>
        <time>2011-12-03T07:14:14Z</time>
      </trkpt>
      <trkpt lat="45.78037" lon="4.75557">
        <ele>231</ele>
        <time>2011-12-03T07:14:20Z</time>
      </trkpt>
      <trkpt lat="45.78059" lon="4.75561">
        <ele>231</ele>
        <time>2011-12-03T07:14:27Z</time>
      </trkpt>
      <trkpt lat="45.78068" lon="4.7556">
        <ele>231</ele>
        <time>2011-12-03T07:14:30Z</time>
      </trkpt>
      <trkpt lat="45.78071" lon="4.7556">
        <ele>231</ele>
        <time>2011-12-03T07:14:31Z</time>
      </trkpt>
      <trkpt lat="45.78088" lon="4.75553">
        <ele>232</ele>
        <time>2011-12-03T07:14:37Z</time>
      </trkpt>
      <trkpt lat="45.78104" lon="4.75551">
        <ele>232</ele>
        <time>2011-12-03T07:14:43Z</time>
      </trkpt>
      <trkpt lat="45.7812" lon="4.75551">
        <ele>232</ele>
        <time>2011-12-03T07:14:50Z</time>
      </trkpt>
      <trkpt lat="45.78134" lon="4.75548">
        <ele>232</ele>
        <time>2011-12-03T07:14:55Z</time>
      </trkpt>
      <trkpt lat="45.78154" lon="4.75551">
        <ele>233</ele>
        <time>2011-12-03T07:15:02Z</time>
      </trkpt>
      <trkpt lat="45.7817" lon="4.75546">
        <ele>234</ele>
        <time>2011-12-03T07:15:07Z</time>
      </trkpt>
      <trkpt lat="45.78171" lon="4.75543">
        <ele>235</ele>
        <time>2011-12-03T07:15:08Z</time>
      </trkpt>
      <trkpt lat="45.78173" lon="4.75541">
        <ele>236</ele>
        <time>2011-12-03T07:15:09Z</time>
      </trkpt>
      <trkpt lat="45.78176" lon="4.75538">
        <ele>236</ele>
        <time>2011-12-03T07:15:10Z</time>
      </trkpt>
      <trkpt lat="45.78178" lon="4.75536">
        <ele>237</ele>
        <time>2011-12-03T07:15:11Z</time>
      </trkpt>
      <trkpt lat="45.78181" lon="4.75534">
        <ele>237</ele>
        <time>2011-12-03T07:15:12Z</time>
      </trkpt>
      <trkpt lat="45.78182" lon="4.75534">
        <ele>238</ele>
        <time>2011-12-03T07:15:13Z</time>
      </trkpt>
      <trkpt lat="45.78184" lon="4.75534">
        <ele>238</ele>
        <time>2011-12-03T07:15:14Z</time>
      </trkpt>
      <trkpt lat="45.78193" lon="4.75532">
        <ele>240</ele>
        <time>2011-12-03T07:15:18Z</time>
      </trkpt>
      <trkpt lat="45.78196" lon="4.75529">
        <ele>241</ele>
        <time>2011-12-03T07:15:21Z</time>
      </trkpt>
      <trkpt lat="45.78199" lon="4.75526">
        <ele>243</ele>
        <time>2011-12-03T07:15:23Z</time>
      </trkpt>
      <trkpt lat="45.782" lon="4.75525">
        <ele>242</ele>
        <time>2011-12-03T07:15:24Z</time>
      </trkpt>
      <trkpt lat="45.78202" lon="4.75523">
        <ele>243</ele>
        <time>2011-12-03T07:15:25Z</time>
      </trkpt>
      <trkpt lat="45.78203" lon="4.75521">
        <ele>243</ele>
        <time>2011-12-03T07:15:26Z</time>
      </trkpt>
      <trkpt lat="45.78211" lon="4.75516">
        <ele>244</ele>
        <time>2011-12-03T07:15:31Z</time>
      </trkpt>
      <trkpt lat="45.78218" lon="4.75508">
        <ele>245</ele>
        <time>2011-12-03T07:15:36Z</time>
      </trkpt>
      <trkpt lat="45.78219" lon="4.75505">
        <ele>245</ele>
        <time>2011-12-03T07:15:37Z</time>
      </trkpt>
      <trkpt lat="45.78221" lon="4.75504">
        <ele>245</ele>
        <time>2011-12-03T07:15:38Z</time>
      </trkpt>
      <trkpt lat="45.78223" lon="4.75503">
        <ele>245</ele>
        <time>2011-12-03T07:15:39Z</time>
      </trkpt>
      <trkpt lat="45.78225" lon="4.75502">
        <ele>246</ele>
        <time>2011-12-03T07:15:40Z</time>
      </trkpt>
      <trkpt lat="45.78226" lon="4.75501">
        <ele>246</ele>
        <time>2011-12-03T07:15:41Z</time>
      </trkpt>
      <trkpt lat="45.78227" lon="4.75499">
        <ele>247</ele>
        <time>2011-12-03T07:15:42Z</time>
      </trkpt>
      <trkpt lat="45.78228" lon="4.75498">
        <ele>247</ele>
        <time>2011-12-03T07:15:43Z</time>
      </trkpt>
      <trkpt lat="45.7823" lon="4.75496">
        <ele>247</ele>
        <time>2011-12-03T07:15:44Z</time>
      </trkpt>
      <trkpt lat="45.78231" lon="4.75495">
        <ele>246</ele>
        <time>2011-12-03T07:15:45Z</time>
      </trkpt>
      <trkpt lat="45.7824" lon="4.75491">
        <ele>246</ele>
        <time>2011-12-03T07:15:50Z</time>
      </trkpt>
      <trkpt lat="45.78242" lon="4.7549">
        <ele>245</ele>
        <time>2011-12-03T07:15:51Z</time>
      </trkpt>
      <trkpt lat="45.78244" lon="4.75488">
        <ele>246</ele>
        <time>2011-12-03T07:15:52Z</time>
      </trkpt>
      <trkpt lat="45.78257" lon="4.75482">
        <ele>245</ele>
        <time>2011-12-03T07:15:57Z</time>
      </trkpt>
      <trkpt lat="45.7826" lon="4.7548">
        <ele>245</ele>
        <time>2011-12-03T07:15:58Z</time>
      </trkpt>
      <trkpt lat="45.78282" lon="4.75468">
        <ele>244</ele>
        <time>2011-12-03T07:16:05Z</time>
      </trkpt>
      <trkpt lat="45.78307" lon="4.75464">
        <ele>242</ele>
        <time>2011-12-03T07:16:12Z</time>
      </trkpt>
      <trkpt lat="45.78312" lon="4.75464">
        <ele>242</ele>
        <time>2011-12-03T07:16:14Z</time>
      </trkpt>
      <trkpt lat="45.78318" lon="4.75469">
        <ele>239</ele>
        <time>2011-12-03T07:16:17Z</time>
      </trkpt>
      <trkpt lat="45.7832" lon="4.7547">
        <ele>238</ele>
        <time>2011-12-03T07:16:18Z</time>
      </trkpt>
      <trkpt lat="45.78331" lon="4.75476">
        <ele>237</ele>
        <time>2011-12-03T07:16:21Z</time>
      </trkpt>
      <trkpt lat="45.78334" lon="4.75475">
        <ele>237</ele>
        <time>2011-12-03T07:16:22Z</time>
      </trkpt>
      <trkpt lat="45.78338" lon="4.75474">
        <ele>237</ele>
        <time>2011-12-03T07:16:23Z</time>
      </trkpt>
      <trkpt lat="45.7834" lon="4.75472">
        <ele>237</ele>
        <time>2011-12-03T07:16:24Z</time>
      </trkpt>
      <trkpt lat="45.78341" lon="4.75471">
        <ele>237</ele>
        <time>2011-12-03T07:16:25Z</time>
      </trkpt>
      <trkpt lat="45.78343" lon="4.75469">
        <ele>237</ele>
        <time>2011-12-03T07:16:26Z</time>
      </trkpt>
      <trkpt lat="45.78345" lon="4.75469">
        <ele>237</ele>
        <time>2011-12-03T07:16:27Z</time>
      </trkpt>
      <trkpt lat="45.78347" lon="4.7547">
        <ele>237</ele>
        <time>2011-12-03T07:16:28Z</time>
      </trkpt>
      <trkpt lat="45.78348" lon="4.75472">
        <ele>237</ele>
        <time>2011-12-03T07:16:29Z</time>
      </trkpt>
      <trkpt lat="45.78348" lon="4.75475">
        <ele>237</ele>
        <time>2011-12-03T07:16:30Z</time>
      </trkpt>
      <trkpt lat="45.78347" lon="4.75497">
        <ele>237</ele>
        <time>2011-12-03T07:16:35Z</time>
      </trkpt>
      <trkpt lat="45.78346" lon="4.7552">
        <ele>237</ele>
        <time>2011-12-03T07:16:40Z</time>
      </trkpt>
      <trkpt lat="45.78348" lon="4.75522">
        <ele>237</ele>
        <time>2011-12-03T07:16:41Z</time>
      </trkpt>
      <trkpt lat="45.78351" lon="4.75522">
        <ele>236</ele>
        <time>2011-12-03T07:16:42Z</time>
      </trkpt>
      <trkpt lat="45.78354" lon="4.7552">
        <ele>236</ele>
        <time>2011-12-03T07:16:43Z</time>
      </trkpt>
      <trkpt lat="45.78359" lon="4.7552">
        <ele>236</ele>
        <time>2011-12-03T07:16:44Z</time>
      </trkpt>
      <trkpt lat="45.78363" lon="4.75521">
        <ele>236</ele>
        <time>2011-12-03T07:16:45Z</time>
      </trkpt>
      <trkpt lat="45.78367" lon="4.75522">
        <ele>236</ele>
        <time>2011-12-03T07:16:46Z</time>
      </trkpt>
      <trkpt lat="45.78371" lon="4.75523">
        <ele>236</ele>
        <time>2011-12-03T07:16:47Z</time>
      </trkpt>
      <trkpt lat="45.78375" lon="4.75525">
        <ele>236</ele>
        <time>2011-12-03T07:16:48Z</time>
      </trkpt>
      <trkpt lat="45.78392" lon="4.75527">
        <ele>235</ele>
        <time>2011-12-03T07:16:53Z</time>
      </trkpt>
      <trkpt lat="45.7842" lon="4.75523">
        <ele>237</ele>
        <time>2011-12-03T07:17:00Z</time>
      </trkpt>
      <trkpt lat="45.78443" lon="4.75517">
        <ele>238</ele>
        <time>2011-12-03T07:17:08Z</time>
      </trkpt>
      <trkpt lat="45.7846" lon="4.75512">
        <ele>239</ele>
        <time>2011-12-03T07:17:15Z</time>
      </trkpt>
      <trkpt lat="45.78472" lon="4.75513">
        <ele>240</ele>
        <time>2011-12-03T07:17:21Z</time>
      </trkpt>
      <trkpt lat="45.7849" lon="4.7551">
        <ele>242</ele>
        <time>2011-12-03T07:17:29Z</time>
      </trkpt>
      <trkpt lat="45.78501" lon="4.75513">
        <ele>243</ele>
        <time>2011-12-03T07:17:35Z</time>
      </trkpt>
      <trkpt lat="45.78517" lon="4.75518">
        <ele>244</ele>
        <time>2011-12-03T07:17:42Z</time>
      </trkpt>
      <trkpt lat="45.78523" lon="4.75521">
        <ele>244</ele>
        <time>2011-12-03T07:17:45Z</time>
      </trkpt>
      <trkpt lat="45.7853" lon="4.75525">
        <ele>245</ele>
        <time>2011-12-03T07:17:50Z</time>
      </trkpt>
      <trkpt lat="45.78547" lon="4.75525">
        <ele>246</ele>
        <time>2011-12-03T07:17:57Z</time>
      </trkpt>
      <trkpt lat="45.7856" lon="4.75525">
        <ele>246</ele>
        <time>2011-12-03T07:18:03Z</time>
      </trkpt>
      <trkpt lat="45.78563" lon="4.75525">
        <ele>247</ele>
        <time>2011-12-03T07:18:05Z</time>
      </trkpt>
      <trkpt lat="45.78565" lon="4.75524">
        <ele>247</ele>
        <time>2011-12-03T07:18:06Z</time>
      </trkpt>
      <trkpt lat="45.78567" lon="4.75523">
        <ele>247</ele>
        <time>2011-12-03T07:18:07Z</time>
      </trkpt>
      <trkpt lat="45.78569" lon="4.75521">
        <ele>247</ele>
        <time>2011-12-03T07:18:08Z</time>
      </trkpt>
      <trkpt lat="45.78571" lon="4.75521">
        <ele>247</ele>
        <time>2011-12-03T07:18:09Z</time>
      </trkpt>
      <trkpt lat="45.78585" lon="4.75515">
        <ele>249</ele>
        <time>2011-12-03T07:18:16Z</time>
      </trkpt>
      <trkpt lat="45.78595" lon="4.75512">
        <ele>250</ele>
        <time>2011-12-03T07:18:21Z</time>
      </trkpt>
      <trkpt lat="45.78608" lon="4.75505">
        <ele>251</ele>
        <time>2011-12-03T07:18:28Z</time>
      </trkpt>
      <trkpt lat="45.78609" lon="4.75505">
        <ele>250</ele>
        <time>2011-12-03T07:18:29Z</time>
      </trkpt>
      <trkpt lat="45.7861" lon="4.75504">
        <ele>251</ele>
        <time>2011-12-03T07:18:30Z</time>
      </trkpt>
      <trkpt lat="45.78612" lon="4.75504">
        <ele>251</ele>
        <time>2011-12-03T07:18:31Z</time>
      </trkpt>
      <trkpt lat="45.78615" lon="4.75503">
        <ele>251</ele>
        <time>2011-12-03T07:18:32Z</time>
      </trkpt>
      <trkpt lat="45.78616" lon="4.75503">
        <ele>251</ele>
        <time>2011-12-03T07:18:33Z</time>
      </trkpt>
      <trkpt lat="45.78618" lon="4.75503">
        <ele>251</ele>
        <time>2011-12-03T07:18:34Z</time>
      </trkpt>
      <trkpt lat="45.7862" lon="4.75503">
        <ele>252</ele>
        <time>2011-12-03T07:18:35Z</time>
      </trkpt>
      <trkpt lat="45.78622" lon="4.75504">
        <ele>252</ele>
        <time>2011-12-03T07:18:36Z</time>
      </trkpt>
      <trkpt lat="45.78624" lon="4.75504">
        <ele>252</ele>
        <time>2011-12-03T07:18:37Z</time>
      </trkpt>
      <trkpt lat="45.78625" lon="4.75504">
        <ele>252</ele>
        <time>2011-12-03T07:18:38Z</time>
      </trkpt>
      <trkpt lat="45.78631" lon="4.75505">
        <ele>253</ele>
        <time>2011-12-03T07:18:43Z</time>
      </trkpt>
      <trkpt lat="45.78632" lon="4.75505">
        <ele>253</ele>
        <time>2011-12-03T07:18:44Z</time>
      </trkpt>
      <trkpt lat="45.78634" lon="4.75505">
        <ele>253</ele>
        <time>2011-12-03T07:18:45Z</time>
      </trkpt>
      <trkpt lat="45.78636" lon="4.75505">
        <ele>253</ele>
        <time>2011-12-03T07:18:46Z</time>
      </trkpt>
      <trkpt lat="45.78638" lon="4.75505">
        <ele>253</ele>
        <time>2011-12-03T07:18:47Z</time>
      </trkpt>
      <trkpt lat="45.78652" lon="4.75498">
        <ele>254</ele>
        <time>2011-12-03T07:18:54Z</time>
      </trkpt>
      <trkpt lat="45.78654" lon="4.75497">
        <ele>255</ele>
        <time>2011-12-03T07:18:55Z</time>
      </trkpt>
      <trkpt lat="45.78668" lon="4.75491">
        <ele>256</ele>
        <time>2011-12-03T07:19:02Z</time>
      </trkpt>
      <trkpt lat="45.78674" lon="4.75489">
        <ele>257</ele>
        <time>2011-12-03T07:19:05Z</time>
      </trkpt>
      <trkpt lat="45.78687" lon="4.75484">
        <ele>258</ele>
        <time>2011-12-03T07:19:12Z</time>
      </trkpt>
      <trkpt lat="45.78699" lon="4.75478">
        <ele>259</ele>
        <time>2011-12-03T07:19:19Z</time>
      </trkpt>
      <trkpt lat="45.787" lon="4.75477">
        <ele>259</ele>
        <time>2011-12-03T07:19:20Z</time>
      </trkpt>
      <trkpt lat="45.78702" lon="4.75476">
        <ele>260</ele>
        <time>2011-12-03T07:19:21Z</time>
      </trkpt>
      <trkpt lat="45.78704" lon="4.75476">
        <ele>260</ele>
        <time>2011-12-03T07:19:22Z</time>
      </trkpt>
      <trkpt lat="45.78706" lon="4.75477">
        <ele>260</ele>
        <time>2011-12-03T07:19:23Z</time>
      </trkpt>
      <trkpt lat="45.78708" lon="4.75477">
        <ele>260</ele>
        <time>2011-12-03T07:19:24Z</time>
      </trkpt>
      <trkpt lat="45.78711" lon="4.75476">
        <ele>260</ele>
        <time>2011-12-03T07:19:25Z</time>
      </trkpt>
      <trkpt lat="45.78714" lon="4.75475">
        <ele>260</ele>
        <time>2011-12-03T07:19:26Z</time>
      </trkpt>
      <trkpt lat="45.78716" lon="4.75474">
        <ele>260</ele>
        <time>2011-12-03T07:19:27Z</time>
      </trkpt>
      <trkpt lat="45.78718" lon="4.75473">
        <ele>261</ele>
        <time>2011-12-03T07:19:28Z</time>
      </trkpt>
      <trkpt lat="45.7872" lon="4.75472">
        <ele>261</ele>
        <time>2011-12-03T07:19:29Z</time>
      </trkpt>
      <trkpt lat="45.78722" lon="4.75472">
        <ele>261</ele>
        <time>2011-12-03T07:19:30Z</time>
      </trkpt>
      <trkpt lat="45.78726" lon="4.75471">
        <ele>262</ele>
        <time>2011-12-03T07:19:32Z</time>
      </trkpt>
      <trkpt lat="45.78728" lon="4.7547">
        <ele>262</ele>
        <time>2011-12-03T07:19:33Z</time>
      </trkpt>
      <trkpt lat="45.78731" lon="4.75468">
        <ele>262</ele>
        <time>2011-12-03T07:19:35Z</time>
      </trkpt>
      <trkpt lat="45.78733" lon="4.75468">
        <ele>262</ele>
        <time>2011-12-03T07:19:36Z</time>
      </trkpt>
      <trkpt lat="45.78734" lon="4.75468">
        <ele>262</ele>
        <time>2011-12-03T07:19:37Z</time>
      </trkpt>
      <trkpt lat="45.78736" lon="4.75467">
        <ele>263</ele>
        <time>2011-12-03T07:19:38Z</time>
      </trkpt>
      <trkpt lat="45.78738" lon="4.75467">
        <ele>263</ele>
        <time>2011-12-03T07:19:39Z</time>
      </trkpt>
      <trkpt lat="45.7874" lon="4.75466">
        <ele>263</ele>
        <time>2011-12-03T07:19:40Z</time>
      </trkpt>
      <trkpt lat="45.78742" lon="4.75466">
        <ele>264</ele>
        <time>2011-12-03T07:19:41Z</time>
      </trkpt>
      <trkpt lat="45.78744" lon="4.75465">
        <ele>263</ele>
        <time>2011-12-03T07:19:42Z</time>
      </trkpt>
      <trkpt lat="45.78746" lon="4.75465">
        <ele>263</ele>
        <time>2011-12-03T07:19:43Z</time>
      </trkpt>
      <trkpt lat="45.78748" lon="4.75465">
        <ele>264</ele>
        <time>2011-12-03T07:19:44Z</time>
      </trkpt>
      <trkpt lat="45.78749" lon="4.75465">
        <ele>264</ele>
        <time>2011-12-03T07:19:45Z</time>
      </trkpt>
      <trkpt lat="45.7875" lon="4.75465">
        <ele>264</ele>
        <time>2011-12-03T07:19:46Z</time>
      </trkpt>
      <trkpt lat="45.78763" lon="4.75462">
        <ele>265</ele>
        <time>2011-12-03T07:19:52Z</time>
      </trkpt>
      <trkpt lat="45.78777" lon="4.75461">
        <ele>266</ele>
        <time>2011-12-03T07:19:58Z</time>
      </trkpt>
      <trkpt lat="45.78786" lon="4.7546">
        <ele>267</ele>
        <time>2011-12-03T07:20:03Z</time>
      </trkpt>
      <trkpt lat="45.78787" lon="4.75459">
        <ele>267</ele>
        <time>2011-12-03T07:20:04Z</time>
      </trkpt>
      <trkpt lat="45.788" lon="4.75442">
        <ele>268</ele>
        <time>2011-12-03T07:20:10Z</time>
      </trkpt>
      <trkpt lat="45.7881" lon="4.75438">
        <ele>269</ele>
        <time>2011-12-03T07:20:15Z</time>
      </trkpt>
      <trkpt lat="45.78814" lon="4.75439">
        <ele>269</ele>
        <time>2011-12-03T07:20:19Z</time>
      </trkpt>
      <trkpt lat="45.78816" lon="4.75441">
        <ele>270</ele>
        <time>2011-12-03T07:20:20Z</time>
      </trkpt>
      <trkpt lat="45.78817" lon="4.75442">
        <ele>270</ele>
        <time>2011-12-03T07:20:21Z</time>
      </trkpt>
      <trkpt lat="45.78819" lon="4.75444">
        <ele>269</ele>
        <time>2011-12-03T07:20:22Z</time>
      </trkpt>
      <trkpt lat="45.7882" lon="4.75445">
        <ele>270</ele>
        <time>2011-12-03T07:20:23Z</time>
      </trkpt>
      <trkpt lat="45.78823" lon="4.75447">
        <ele>270</ele>
        <time>2011-12-03T07:20:25Z</time>
      </trkpt>
      <trkpt lat="45.78826" lon="4.75448">
        <ele>270</ele>
        <time>2011-12-03T07:20:26Z</time>
      </trkpt>
      <trkpt lat="45.78828" lon="4.75449">
        <ele>270</ele>
        <time>2011-12-03T07:20:27Z</time>
      </trkpt>
      <trkpt lat="45.7883" lon="4.75449">
        <ele>271</ele>
        <time>2011-12-03T07:20:28Z</time>
      </trkpt>
      <trkpt lat="45.78832" lon="4.75449">
        <ele>270</ele>
        <time>2011-12-03T07:20:29Z</time>
      </trkpt>
      <trkpt lat="45.78833" lon="4.75449">
        <ele>271</ele>
        <time>2011-12-03T07:20:30Z</time>
      </trkpt>
      <trkpt lat="45.78835" lon="4.75448">
        <ele>271</ele>
        <time>2011-12-03T07:20:31Z</time>
      </trkpt>
      <trkpt lat="45.78837" lon="4.75447">
        <ele>272</ele>
        <time>2011-12-03T07:20:32Z</time>
      </trkpt>
      <trkpt lat="45.7884" lon="4.75447">
        <ele>272</ele>
        <time>2011-12-03T07:20:33Z</time>
      </trkpt>
      <trkpt lat="45.78842" lon="4.75447">
        <ele>272</ele>
        <time>2011-12-03T07:20:34Z</time>
      </trkpt>
      <trkpt lat="45.78853" lon="4.75447">
        <ele>273</ele>
        <time>2011-12-03T07:20:39Z</time>
      </trkpt>
      <trkpt lat="45.78856" lon="4.75447">
        <ele>273</ele>
        <time>2011-12-03T07:20:40Z</time>
      </trkpt>
      <trkpt lat="45.78858" lon="4.75448">
        <ele>273</ele>
        <time>2011-12-03T07:20:41Z</time>
      </trkpt>
      <trkpt lat="45.7886" lon="4.75448">
        <ele>274</ele>
        <time>2011-12-03T07:20:42Z</time>
      </trkpt>
      <trkpt lat="45.78862" lon="4.75449">
        <ele>274</ele>
        <time>2011-12-03T07:20:43Z</time>
      </trkpt>
      <trkpt lat="45.78864" lon="4.75449">
        <ele>275</ele>
        <time>2011-12-03T07:20:44Z</time>
      </trkpt>
      <trkpt lat="45.78866" lon="4.7545">
        <ele>275</ele>
        <time>2011-12-03T07:20:45Z</time>
      </trkpt>
      <trkpt lat="45.78868" lon="4.7545">
        <ele>275</ele>
        <time>2011-12-03T07:20:46Z</time>
      </trkpt>
      <trkpt lat="45.7887" lon="4.7545">
        <ele>276</ele>
        <time>2011-12-03T07:20:47Z</time>
      </trkpt>
      <trkpt lat="45.78871" lon="4.75451">
        <ele>276</ele>
        <time>2011-12-03T07:20:48Z</time>
      </trkpt>
      <trkpt lat="45.78873" lon="4.75451">
        <ele>275</ele>
        <time>2011-12-03T07:20:49Z</time>
      </trkpt>
      <trkpt lat="45.78885" lon="4.75456">
        <ele>277</ele>
        <time>2011-12-03T07:20:56Z</time>
      </trkpt>
      <trkpt lat="45.78893" lon="4.7546">
        <ele>279</ele>
        <time>2011-12-03T07:21:01Z</time>
      </trkpt>
      <trkpt lat="45.78904" lon="4.75465">
        <ele>281</ele>
        <time>2011-12-03T07:21:09Z</time>
      </trkpt>
      <trkpt lat="45.78905" lon="4.75466">
        <ele>281</ele>
        <time>2011-12-03T07:21:10Z</time>
      </trkpt>
      <trkpt lat="45.78914" lon="4.7547">
        <ele>283</ele>
        <time>2011-12-03T07:21:16Z</time>
      </trkpt>
      <trkpt lat="45.78924" lon="4.75475">
        <ele>285</ele>
        <time>2011-12-03T07:21:23Z</time>
      </trkpt>
      <trkpt lat="45.78939" lon="4.75481">
        <ele>287</ele>
        <time>2011-12-03T07:21:30Z</time>
      </trkpt>
      <trkpt lat="45.78943" lon="4.75482">
        <ele>287</ele>
        <time>2011-12-03T07:21:32Z</time>
      </trkpt>
      <trkpt lat="45.78945" lon="4.75482">
        <ele>287</ele>
        <time>2011-12-03T07:21:33Z</time>
      </trkpt>
      <trkpt lat="45.78948" lon="4.75483">
        <ele>287</ele>
        <time>2011-12-03T07:21:34Z</time>
      </trkpt>
      <trkpt lat="45.78953" lon="4.75483">
        <ele>288</ele>
        <time>2011-12-03T07:21:38Z</time>
      </trkpt>
      <trkpt lat="45.78965" lon="4.75485">
        <ele>289</ele>
        <time>2011-12-03T07:21:45Z</time>
      </trkpt>
      <trkpt lat="45.78968" lon="4.75484">
        <ele>289</ele>
        <time>2011-12-03T07:21:47Z</time>
      </trkpt>
      <trkpt lat="45.7897" lon="4.75484">
        <ele>289</ele>
        <time>2011-12-03T07:21:48Z</time>
      </trkpt>
      <trkpt lat="45.78971" lon="4.75484">
        <ele>289</ele>
        <time>2011-12-03T07:21:49Z</time>
      </trkpt>
      <trkpt lat="45.78973" lon="4.75484">
        <ele>289</ele>
        <time>2011-12-03T07:21:50Z</time>
      </trkpt>
      <trkpt lat="45.78975" lon="4.75484">
        <ele>289</ele>
        <time>2011-12-03T07:21:51Z</time>
      </trkpt>
      <trkpt lat="45.78977" lon="4.75483">
        <ele>289</ele>
        <time>2011-12-03T07:21:52Z</time>
      </trkpt>
      <trkpt lat="45.78979" lon="4.75484">
        <ele>289</ele>
        <time>2011-12-03T07:21:53Z</time>
      </trkpt>
      <trkpt lat="45.78981" lon="4.75483">
        <ele>290</ele>
        <time>2011-12-03T07:21:54Z</time>
      </trkpt>
      <trkpt lat="45.78983" lon="4.75483">
        <ele>290</ele>
        <time>2011-12-03T07:21:55Z</time>
      </trkpt>
      <trkpt lat="45.78985" lon="4.75483">
        <ele>290</ele>
        <time>2011-12-03T07:21:56Z</time>
      </trkpt>
      <trkpt lat="45.78986" lon="4.75483">
        <ele>290</ele>
        <time>2011-12-03T07:21:57Z</time>
      </trkpt>
      <trkpt lat="45.78988" lon="4.75484">
        <ele>290</ele>
        <time>2011-12-03T07:21:58Z</time>
      </trkpt>
      <trkpt lat="45.79002" lon="4.75485">
        <ele>292</ele>
        <time>2011-12-03T07:22:05Z</time>
      </trkpt>
      <trkpt lat="45.79005" lon="4.75485">
        <ele>292</ele>
        <time>2011-12-03T07:22:06Z</time>
      </trkpt>
      <trkpt lat="45.79021" lon="4.75491">
        <ele>294</ele>
        <time>2011-12-03T07:22:14Z</time>
      </trkpt>
      <trkpt lat="45.79036" lon="4.75495">
        <ele>295</ele>
        <time>2011-12-03T07:22:22Z</time>
      </trkpt>
      <trkpt lat="45.79055" lon="4.75499">
        <ele>296</ele>
        <time>2011-12-03T07:22:30Z</time>
      </trkpt>
      <trkpt lat="45.79073" lon="4.75504">
        <ele>297</ele>
        <time>2011-12-03T07:22:38Z</time>
      </trkpt>
      <trkpt lat="45.79075" lon="4.75507">
        <ele>297</ele>
        <time>2011-12-03T07:22:43Z</time>
      </trkpt>
      <trkpt lat="45.79075" lon="4.75507">
        <ele>297</ele>
        <time>2011-12-03T07:22:53Z</time>
      </trkpt>
      <trkpt lat="45.79075" lon="4.75507">
        <ele>297</ele>
        <time>2011-12-03T07:23:10Z</time>
      </trkpt>
      <trkpt lat="45.79075" lon="4.75506">
        <ele>297</ele>
        <time>2011-12-03T07:23:25Z</time>
      </trkpt>
      <trkpt lat="45.79081" lon="4.75508">
        <ele>297</ele>
        <time>2011-12-03T07:23:31Z</time>
      </trkpt>
      <trkpt lat="45.79085" lon="4.7551">
        <ele>298</ele>
        <time>2011-12-03T07:23:34Z</time>
      </trkpt>
      <trkpt lat="45.79087" lon="4.7551">
        <ele>298</ele>
        <time>2011-12-03T07:23:35Z</time>
      </trkpt>
      <trkpt lat="45.79089" lon="4.75511">
        <ele>298</ele>
        <time>2011-12-03T07:23:36Z</time>
      </trkpt>
      <trkpt lat="45.79091" lon="4.75511">
        <ele>298</ele>
        <time>2011-12-03T07:23:37Z</time>
      </trkpt>
      <trkpt lat="45.79093" lon="4.75511">
        <ele>298</ele>
        <time>2011-12-03T07:23:38Z</time>
      </trkpt>
      <trkpt lat="45.79094" lon="4.75512">
        <ele>297</ele>
        <time>2011-12-03T07:23:39Z</time>
      </trkpt>
      <trkpt lat="45.79096" lon="4.75513">
        <ele>298</ele>
        <time>2011-12-03T07:23:40Z</time>
      </trkpt>
      <trkpt lat="45.79109" lon="4.75521">
        <ele>298</ele>
        <time>2011-12-03T07:23:48Z</time>
      </trkpt>
      <trkpt lat="45.79122" lon="4.7553">
        <ele>298</ele>
        <time>2011-12-03T07:23:54Z</time>
      </trkpt>
      <trkpt lat="45.79126" lon="4.75533">
        <ele>298</ele>
        <time>2011-12-03T07:23:59Z</time>
      </trkpt>
      <trkpt lat="45.79128" lon="4.75534">
        <ele>299</ele>
        <time>2011-12-03T07:24:00Z</time>
      </trkpt>
      <trkpt lat="45.7913" lon="4.75535">
        <ele>299</ele>
        <time>2011-12-03T07:24:01Z</time>
      </trkpt>
      <trkpt lat="45.79132" lon="4.75537">
        <ele>298</ele>
        <time>2011-12-03T07:24:02Z</time>
      </trkpt>
      <trkpt lat="45.79135" lon="4.75538">
        <ele>298</ele>
        <time>2011-12-03T07:24:03Z</time>
      </trkpt>
      <trkpt lat="45.79138" lon="4.7554">
        <ele>298</ele>
        <time>2011-12-03T07:24:04Z</time>
      </trkpt>
      <trkpt lat="45.7914" lon="4.75542">
        <ele>298</ele>
        <time>2011-12-03T07:24:05Z</time>
      </trkpt>
      <trkpt lat="45.79142" lon="4.75545">
        <ele>298</ele>
        <time>2011-12-03T07:24:06Z</time>
      </trkpt>
      <trkpt lat="45.79144" lon="4.75546">
        <ele>298</ele>
        <time>2011-12-03T07:24:07Z</time>
      </trkpt>
      <trkpt lat="45.79147" lon="4.75548">
        <ele>298</ele>
        <time>2011-12-03T07:24:08Z</time>
      </trkpt>
      <trkpt lat="45.79149" lon="4.75549">
        <ele>298</ele>
        <time>2011-12-03T07:24:09Z</time>
      </trkpt>
      <trkpt lat="45.79152" lon="4.75551">
        <ele>298</ele>
        <time>2011-12-03T07:24:10Z</time>
      </trkpt>
      <trkpt lat="45.7917" lon="4.75566">
        <ele>298</ele>
        <time>2011-12-03T07:24:17Z</time>
      </trkpt>
      <trkpt lat="45.79184" lon="4.75571">
        <ele>299</ele>
        <time>2011-12-03T07:24:23Z</time>
      </trkpt>
      <trkpt lat="45.79203" lon="4.75572">
        <ele>299</ele>
        <time>2011-12-03T07:24:28Z</time>
      </trkpt>
      <trkpt lat="45.79221" lon="4.75576">
        <ele>299</ele>
        <time>2011-12-03T07:24:33Z</time>
      </trkpt>
      <trkpt lat="45.79237" lon="4.75577">
        <ele>299</ele>
        <time>2011-12-03T07:24:38Z</time>
      </trkpt>
      <trkpt lat="45.79254" lon="4.75579">
        <ele>299</ele>
        <time>2011-12-03T07:24:43Z</time>
      </trkpt>
      <trkpt lat="45.79265" lon="4.75581">
        <ele>299</ele>
        <time>2011-12-03T07:24:46Z</time>
      </trkpt>
      <trkpt lat="45.79269" lon="4.75582">
        <ele>299</ele>
        <time>2011-12-03T07:24:47Z</time>
      </trkpt>
      <trkpt lat="45.79291" lon="4.75586">
        <ele>299</ele>
        <time>2011-12-03T07:24:53Z</time>
      </trkpt>
      <trkpt lat="45.79297" lon="4.75588">
        <ele>299</ele>
        <time>2011-12-03T07:24:55Z</time>
      </trkpt>
      <trkpt lat="45.79299" lon="4.7559">
        <ele>300</ele>
        <time>2011-12-03T07:24:56Z</time>
      </trkpt>
      <trkpt lat="45.793" lon="4.75593">
        <ele>300</ele>
        <time>2011-12-03T07:24:57Z</time>
      </trkpt>
      <trkpt lat="45.79301" lon="4.75595">
        <ele>300</ele>
        <time>2011-12-03T07:24:58Z</time>
      </trkpt>
      <trkpt lat="45.79303" lon="4.75596">
        <ele>300</ele>
        <time>2011-12-03T07:24:59Z</time>
      </trkpt>
      <trkpt lat="45.79304" lon="4.75598">
        <ele>300</ele>
        <time>2011-12-03T07:25:00Z</time>
      </trkpt>
      <trkpt lat="45.79306" lon="4.75601">
        <ele>300</ele>
        <time>2011-12-03T07:25:01Z</time>
      </trkpt>
      <trkpt lat="45.79307" lon="4.75603">
        <ele>300</ele>
        <time>2011-12-03T07:25:02Z</time>
      </trkpt>
      <trkpt lat="45.79309" lon="4.75612">
        <ele>300</ele>
        <time>2011-12-03T07:25:06Z</time>
      </trkpt>
      <trkpt lat="45.7931" lon="4.75623">
        <ele>299</ele>
        <time>2011-12-03T07:25:11Z</time>
      </trkpt>
      <trkpt lat="45.79308" lon="4.75632">
        <ele>299</ele>
        <time>2011-12-03T07:25:15Z</time>
      </trkpt>
      <trkpt lat="45.79309" lon="4.75639">
        <ele>299</ele>
        <time>2011-12-03T07:25:17Z</time>
      </trkpt>
      <trkpt lat="45.7931" lon="4.75643">
        <ele>298</ele>
        <time>2011-12-03T07:25:18Z</time>
      </trkpt>
      <trkpt lat="45.79311" lon="4.75646">
        <ele>298</ele>
        <time>2011-12-03T07:25:19Z</time>
      </trkpt>
      <trkpt lat="45.79313" lon="4.75652">
        <ele>298</ele>
        <time>2011-12-03T07:25:21Z</time>
      </trkpt>
      <trkpt lat="45.79313" lon="4.75655">
        <ele>298</ele>
        <time>2011-12-03T07:25:22Z</time>
      </trkpt>
      <trkpt lat="45.79314" lon="4.75658">
        <ele>297</ele>
        <time>2011-12-03T07:25:23Z</time>
      </trkpt>
      <trkpt lat="45.79315" lon="4.75662">
        <ele>297</ele>
        <time>2011-12-03T07:25:24Z</time>
      </trkpt>
      <trkpt lat="45.79316" lon="4.75666">
        <ele>297</ele>
        <time>2011-12-03T07:25:25Z</time>
      </trkpt>
      <trkpt lat="45.79316" lon="4.7567">
        <ele>296</ele>
        <time>2011-12-03T07:25:26Z</time>
      </trkpt>
      <trkpt lat="45.79315" lon="4.75675">
        <ele>296</ele>
        <time>2011-12-03T07:25:27Z</time>
      </trkpt>
      <trkpt lat="45.79307" lon="4.75719">
        <ele>295</ele>
        <time>2011-12-03T07:25:33Z</time>
      </trkpt>
      <trkpt lat="45.79304" lon="4.75742">
        <ele>295</ele>
        <time>2011-12-03T07:25:37Z</time>
      </trkpt>
      <trkpt lat="45.79302" lon="4.75755">
        <ele>296</ele>
        <time>2011-12-03T07:25:40Z</time>
      </trkpt>
      <trkpt lat="45.79293" lon="4.7578">
        <ele>296</ele>
        <time>2011-12-03T07:25:47Z</time>
      </trkpt>
      <trkpt lat="45.79294" lon="4.75806">
        <ele>292</ele>
        <time>2011-12-03T07:25:52Z</time>
      </trkpt>
      <trkpt lat="45.79297" lon="4.75811">
        <ele>293</ele>
        <time>2011-12-03T07:25:53Z</time>
      </trkpt>
      <trkpt lat="45.793" lon="4.75817">
        <ele>292</ele>
        <time>2011-12-03T07:25:54Z</time>
      </trkpt>
      <trkpt lat="45.79309" lon="4.75833">
        <ele>291</ele>
        <time>2011-12-03T07:25:57Z</time>
      </trkpt>
      <trkpt lat="45.79312" lon="4.75839">
        <ele>290</ele>
        <time>2011-12-03T07:25:58Z</time>
      </trkpt>
      <trkpt lat="45.79318" lon="4.75849">
        <ele>289</ele>
        <time>2011-12-03T07:26:00Z</time>
      </trkpt>
      <trkpt lat="45.79322" lon="4.75853">
        <ele>288</ele>
        <time>2011-12-03T07:26:01Z</time>
      </trkpt>
      <trkpt lat="45.79331" lon="4.75862">
        <ele>287</ele>
        <time>2011-12-03T07:26:03Z</time>
      </trkpt>
      <trkpt lat="45.79349" lon="4.75876">
        <ele>286</ele>
        <time>2011-12-03T07:26:07Z</time>
      </trkpt>
      <trkpt lat="45.79363" lon="4.75883">
        <ele>285</ele>
        <time>2011-12-03T07:26:11Z</time>
      </trkpt>
      <trkpt lat="45.79383" lon="4.75888">
        <ele>285</ele>
        <time>2011-12-03T07:26:16Z</time>
      </trkpt>
      <trkpt lat="45.79388" lon="4.75889">
        <ele>285</ele>
        <time>2011-12-03T07:26:17Z</time>
      </trkpt>
      <trkpt lat="45.79392" lon="4.75891">
        <ele>285</ele>
        <time>2011-12-03T07:26:18Z</time>
      </trkpt>
      <trkpt lat="45.79396" lon="4.75892">
        <ele>284</ele>
        <time>2011-12-03T07:26:19Z</time>
      </trkpt>
      <trkpt lat="45.79399" lon="4.75893">
        <ele>285</ele>
        <time>2011-12-03T07:26:20Z</time>
      </trkpt>
      <trkpt lat="45.79402" lon="4.75894">
        <ele>285</ele>
        <time>2011-12-03T07:26:21Z</time>
      </trkpt>
      <trkpt lat="45.79404" lon="4.75894">
        <ele>284</ele>
        <time>2011-12-03T07:26:22Z</time>
      </trkpt>
      <trkpt lat="45.79408" lon="4.75896">
        <ele>284</ele>
        <time>2011-12-03T07:26:23Z</time>
      </trkpt>
      <trkpt lat="45.79433" lon="4.75908">
        <ele>284</ele>
        <time>2011-12-03T07:26:30Z</time>
      </trkpt>
      <trkpt lat="45.79439" lon="4.7591">
        <ele>285</ele>
        <time>2011-12-03T07:26:32Z</time>
      </trkpt>
      <trkpt lat="45.79442" lon="4.7591">
        <ele>285</ele>
        <time>2011-12-03T07:26:33Z</time>
      </trkpt>
      <trkpt lat="45.79444" lon="4.7591">
        <ele>285</ele>
        <time>2011-12-03T07:26:34Z</time>
      </trkpt>
      <trkpt lat="45.79447" lon="4.7591">
        <ele>285</ele>
        <time>2011-12-03T07:26:35Z</time>
      </trkpt>
      <trkpt lat="45.79451" lon="4.7591">
        <ele>286</ele>
        <time>2011-12-03T07:26:36Z</time>
      </trkpt>
      <trkpt lat="45.79454" lon="4.7591">
        <ele>285</ele>
        <time>2011-12-03T07:26:37Z</time>
      </trkpt>
      <trkpt lat="45.79456" lon="4.75911">
        <ele>286</ele>
        <time>2011-12-03T07:26:38Z</time>
      </trkpt>
      <trkpt lat="45.79472" lon="4.75914">
        <ele>286</ele>
        <time>2011-12-03T07:26:44Z</time>
      </trkpt>
      <trkpt lat="45.7948" lon="4.75914">
        <ele>286</ele>
        <time>2011-12-03T07:26:50Z</time>
      </trkpt>
      <trkpt lat="45.79485" lon="4.75914">
        <ele>287</ele>
        <time>2011-12-03T07:26:56Z</time>
      </trkpt>
      <trkpt lat="45.79485" lon="4.75914">
        <ele>286</ele>
        <time>2011-12-03T07:27:04Z</time>
      </trkpt>
      <trkpt lat="45.79485" lon="4.75914">
        <ele>286</ele>
        <time>2011-12-03T07:27:21Z</time>
      </trkpt>
      <trkpt lat="45.79485" lon="4.75914">
        <ele>287</ele>
        <time>2011-12-03T07:27:30Z</time>
      </trkpt>
      <trkpt lat="45.79485" lon="4.75914">
        <ele>287</ele>
        <time>2011-12-03T07:27:39Z</time>
      </trkpt>
      <trkpt lat="45.79489" lon="4.75915">
        <ele>287</ele>
        <time>2011-12-03T07:27:42Z</time>
      </trkpt>
      <trkpt lat="45.79491" lon="4.75916">
        <ele>287</ele>
        <time>2011-12-03T07:27:43Z</time>
      </trkpt>
      <trkpt lat="45.79493" lon="4.75917">
        <ele>287</ele>
        <time>2011-12-03T07:27:44Z</time>
      </trkpt>
      <trkpt lat="45.79496" lon="4.75917">
        <ele>288</ele>
        <time>2011-12-03T07:27:45Z</time>
      </trkpt>
      <trkpt lat="45.79499" lon="4.75918">
        <ele>288</ele>
        <time>2011-12-03T07:27:46Z</time>
      </trkpt>
      <trkpt lat="45.79502" lon="4.75919">
        <ele>288</ele>
        <time>2011-12-03T07:27:47Z</time>
      </trkpt>
      <trkpt lat="45.79505" lon="4.75919">
        <ele>288</ele>
        <time>2011-12-03T07:27:48Z</time>
      </trkpt>
      <trkpt lat="45.79507" lon="4.7592">
        <ele>288</ele>
        <time>2011-12-03T07:27:49Z</time>
      </trkpt>
      <trkpt lat="45.79509" lon="4.7592">
        <ele>288</ele>
        <time>2011-12-03T07:27:50Z</time>
      </trkpt>
      <trkpt lat="45.79523" lon="4.75922">
        <ele>289</ele>
        <time>2011-12-03T07:27:56Z</time>
      </trkpt>
      <trkpt lat="45.79535" lon="4.75919">
        <ele>290</ele>
        <time>2011-12-03T07:28:00Z</time>
      </trkpt>
      <trkpt lat="45.79551" lon="4.75913">
        <ele>291</ele>
        <time>2011-12-03T07:28:06Z</time>
      </trkpt>
      <trkpt lat="45.79571" lon="4.75911">
        <ele>292</ele>
        <time>2011-12-03T07:28:13Z</time>
      </trkpt>
      <trkpt lat="45.79573" lon="4.7591">
        <ele>292</ele>
        <time>2011-12-03T07:28:14Z</time>
      </trkpt>
      <trkpt lat="45.79577" lon="4.75908">
        <ele>292</ele>
        <time>2011-12-03T07:28:16Z</time>
      </trkpt>
      <trkpt lat="45.79589" lon="4.75911">
        <ele>292</ele>
        <time>2011-12-03T07:28:23Z</time>
      </trkpt>
      <trkpt lat="45.79591" lon="4.75912">
        <ele>292</ele>
        <time>2011-12-03T07:28:24Z</time>
      </trkpt>
      <trkpt lat="45.79622" lon="4.75913">
        <ele>291</ele>
        <time>2011-12-03T07:28:31Z</time>
      </trkpt>
      <trkpt lat="45.79628" lon="4.75913">
        <ele>292</ele>
        <time>2011-12-03T07:28:33Z</time>
      </trkpt>
      <trkpt lat="45.79633" lon="4.75909">
        <ele>292</ele>
        <time>2011-12-03T07:28:34Z</time>
      </trkpt>
      <trkpt lat="45.79635" lon="4.75905">
        <ele>292</ele>
        <time>2011-12-03T07:28:35Z</time>
      </trkpt>
      <trkpt lat="45.79639" lon="4.75901">
        <ele>292</ele>
        <time>2011-12-03T07:28:36Z</time>
      </trkpt>
      <trkpt lat="45.7964" lon="4.75898">
        <ele>293</ele>
        <time>2011-12-03T07:28:37Z</time>
      </trkpt>
      <trkpt lat="45.79641" lon="4.75894">
        <ele>293</ele>
        <time>2011-12-03T07:28:38Z</time>
      </trkpt>
      <trkpt lat="45.79641" lon="4.75889">
        <ele>294</ele>
        <time>2011-12-03T07:28:39Z</time>
      </trkpt>
      <trkpt lat="45.7964" lon="4.75885">
        <ele>294</ele>
        <time>2011-12-03T07:28:40Z</time>
      </trkpt>
      <trkpt lat="45.7964" lon="4.75881">
        <ele>294</ele>
        <time>2011-12-03T07:28:41Z</time>
      </trkpt>
      <trkpt lat="45.79639" lon="4.75877">
        <ele>295</ele>
        <time>2011-12-03T07:28:42Z</time>
      </trkpt>
      <trkpt lat="45.79637" lon="4.75865">
        <ele>295</ele>
        <time>2011-12-03T07:28:45Z</time>
      </trkpt>
      <trkpt lat="45.79636" lon="4.75839">
        <ele>297</ele>
        <time>2011-12-03T07:28:52Z</time>
      </trkpt>
      <trkpt lat="45.79632" lon="4.75803">
        <ele>297</ele>
        <time>2011-12-03T07:29:00Z</time>
      </trkpt>
      <trkpt lat="45.79629" lon="4.75772">
        <ele>298</ele>
        <time>2011-12-03T07:29:08Z</time>
      </trkpt>
      <trkpt lat="45.79629" lon="4.7577">
        <ele>298</ele>
        <time>2011-12-03T07:29:09Z</time>
      </trkpt>
      <trkpt lat="45.79631" lon="4.75769">
        <ele>298</ele>
        <time>2011-12-03T07:29:10Z</time>
      </trkpt>
      <trkpt lat="45.79632" lon="4.75767">
        <ele>298</ele>
        <time>2011-12-03T07:29:11Z</time>
      </trkpt>
      <trkpt lat="45.79634" lon="4.75766">
        <ele>297</ele>
        <time>2011-12-03T07:29:12Z</time>
      </trkpt>
      <trkpt lat="45.79637" lon="4.75766">
        <ele>297</ele>
        <time>2011-12-03T07:29:13Z</time>
      </trkpt>
      <trkpt lat="45.7964" lon="4.75765">
        <ele>297</ele>
        <time>2011-12-03T07:29:14Z</time>
      </trkpt>
      <trkpt lat="45.79659" lon="4.75757">
        <ele>296</ele>
        <time>2011-12-03T07:29:20Z</time>
      </trkpt>
      <trkpt lat="45.79668" lon="4.75754">
        <ele>296</ele>
        <time>2011-12-03T07:29:24Z</time>
      </trkpt>
      <trkpt lat="45.79669" lon="4.75749">
        <ele>295</ele>
        <time>2011-12-03T07:29:30Z</time>
      </trkpt>
      <trkpt lat="45.79669" lon="4.75749">
        <ele>295</ele>
        <time>2011-12-03T07:29:31Z</time>
      </trkpt>
      <trkpt lat="45.79671" lon="4.75749">
        <ele>295</ele>
        <time>2011-12-03T07:29:32Z</time>
      </trkpt>
      <trkpt lat="45.79674" lon="4.7575">
        <ele>295</ele>
        <time>2011-12-03T07:29:33Z</time>
      </trkpt>
      <trkpt lat="45.79677" lon="4.75751">
        <ele>295</ele>
        <time>2011-12-03T07:29:34Z</time>
      </trkpt>
      <trkpt lat="45.7968" lon="4.75751">
        <ele>295</ele>
        <time>2011-12-03T07:29:35Z</time>
      </trkpt>
      <trkpt lat="45.79683" lon="4.7575">
        <ele>295</ele>
        <time>2011-12-03T07:29:36Z</time>
      </trkpt>
      <trkpt lat="45.79686" lon="4.75748">
        <ele>295</ele>
        <time>2011-12-03T07:29:37Z</time>
      </trkpt>
      <trkpt lat="45.79689" lon="4.75747">
        <ele>294</ele>
        <time>2011-12-03T07:29:38Z</time>
      </trkpt>
      <trkpt lat="45.79692" lon="4.75745">
        <ele>295</ele>
        <time>2011-12-03T07:29:39Z</time>
      </trkpt>
      <trkpt lat="45.79695" lon="4.75743">
        <ele>294</ele>
        <time>2011-12-03T07:29:40Z</time>
      </trkpt>
      <trkpt lat="45.79709" lon="4.7573">
        <ele>294</ele>
        <time>2011-12-03T07:29:45Z</time>
      </trkpt>
      <trkpt lat="45.79709" lon="4.75725">
        <ele>294</ele>
        <time>2011-12-03T07:29:46Z</time>
      </trkpt>
      <trkpt lat="45.79709" lon="4.7572">
        <ele>294</ele>
        <time>2011-12-03T07:29:47Z</time>
      </trkpt>
      <trkpt lat="45.79708" lon="4.75716">
        <ele>294</ele>
        <time>2011-12-03T07:29:48Z</time>
      </trkpt>
      <trkpt lat="45.79707" lon="4.75711">
        <ele>294</ele>
        <time>2011-12-03T07:29:49Z</time>
      </trkpt>
      <trkpt lat="45.79697" lon="4.75666">
        <ele>294</ele>
        <time>2011-12-03T07:29:58Z</time>
      </trkpt>
      <trkpt lat="45.79698" lon="4.75636">
        <ele>293</ele>
        <time>2011-12-03T07:30:04Z</time>
      </trkpt>
      <trkpt lat="45.79704" lon="4.75619">
        <ele>293</ele>
        <time>2011-12-03T07:30:07Z</time>
      </trkpt>
      <trkpt lat="45.79707" lon="4.75614">
        <ele>293</ele>
        <time>2011-12-03T07:30:08Z</time>
      </trkpt>
      <trkpt lat="45.7971" lon="4.75609">
        <ele>292</ele>
        <time>2011-12-03T07:30:09Z</time>
      </trkpt>
      <trkpt lat="45.79721" lon="4.75596">
        <ele>293</ele>
        <time>2011-12-03T07:30:12Z</time>
      </trkpt>
      <trkpt lat="45.79725" lon="4.75593">
        <ele>293</ele>
        <time>2011-12-03T07:30:13Z</time>
      </trkpt>
      <trkpt lat="45.79729" lon="4.7559">
        <ele>293</ele>
        <time>2011-12-03T07:30:14Z</time>
      </trkpt>
      <trkpt lat="45.79764" lon="4.75577">
        <ele>295</ele>
        <time>2011-12-03T07:30:22Z</time>
      </trkpt>
      <trkpt lat="45.79798" lon="4.75559">
        <ele>297</ele>
        <time>2011-12-03T07:30:31Z</time>
      </trkpt>
      <trkpt lat="45.79831" lon="4.75539">
        <ele>298</ele>
        <time>2011-12-03T07:30:40Z</time>
      </trkpt>
      <trkpt lat="45.79848" lon="4.75527">
        <ele>299</ele>
        <time>2011-12-03T07:30:45Z</time>
      </trkpt>
      <trkpt lat="45.7985" lon="4.75523">
        <ele>298</ele>
        <time>2011-12-03T07:30:46Z</time>
      </trkpt>
      <trkpt lat="45.79851" lon="4.75518">
        <ele>298</ele>
        <time>2011-12-03T07:30:47Z</time>
      </trkpt>
      <trkpt lat="45.79851" lon="4.75512">
        <ele>298</ele>
        <time>2011-12-03T07:30:48Z</time>
      </trkpt>
      <trkpt lat="45.79851" lon="4.75507">
        <ele>299</ele>
        <time>2011-12-03T07:30:49Z</time>
      </trkpt>
      <trkpt lat="45.7985" lon="4.75501">
        <ele>299</ele>
        <time>2011-12-03T07:30:50Z</time>
      </trkpt>
      <trkpt lat="45.79849" lon="4.7549">
        <ele>299</ele>
        <time>2011-12-03T07:30:52Z</time>
      </trkpt>
      <trkpt lat="45.7985" lon="4.75477">
        <ele>299</ele>
        <time>2011-12-03T07:30:54Z</time>
      </trkpt>
      <trkpt lat="45.79851" lon="4.75471">
        <ele>299</ele>
        <time>2011-12-03T07:30:55Z</time>
      </trkpt>
      <trkpt lat="45.79852" lon="4.75465">
        <ele>298</ele>
        <time>2011-12-03T07:30:56Z</time>
      </trkpt>
      <trkpt lat="45.79853" lon="4.75458">
        <ele>298</ele>
        <time>2011-12-03T07:30:57Z</time>
      </trkpt>
      <trkpt lat="45.79855" lon="4.75452">
        <ele>298</ele>
        <time>2011-12-03T07:30:58Z</time>
      </trkpt>
      <trkpt lat="45.79861" lon="4.75433">
        <ele>298</ele>
        <time>2011-12-03T07:31:01Z</time>
      </trkpt>
      <trkpt lat="45.79862" lon="4.75426">
        <ele>299</ele>
        <time>2011-12-03T07:31:02Z</time>
      </trkpt>
      <trkpt lat="45.79863" lon="4.75419">
        <ele>298</ele>
        <time>2011-12-03T07:31:03Z</time>
      </trkpt>
      <trkpt lat="45.79864" lon="4.75412">
        <ele>299</ele>
        <time>2011-12-03T07:31:04Z</time>
      </trkpt>
      <trkpt lat="45.79864" lon="4.75405">
        <ele>299</ele>
        <time>2011-12-03T07:31:05Z</time>
      </trkpt>
      <trkpt lat="45.79863" lon="4.75398">
        <ele>299</ele>
        <time>2011-12-03T07:31:06Z</time>
      </trkpt>
      <trkpt lat="45.79862" lon="4.75392">
        <ele>299</ele>
        <time>2011-12-03T07:31:07Z</time>
      </trkpt>
      <trkpt lat="45.79854" lon="4.75335">
        <ele>300</ele>
        <time>2011-12-03T07:31:16Z</time>
      </trkpt>
      <trkpt lat="45.79849" lon="4.75297">
        <ele>300</ele>
        <time>2011-12-03T07:31:23Z</time>
      </trkpt>
      <trkpt lat="45.79851" lon="4.75292">
        <ele>301</ele>
        <time>2011-12-03T07:31:24Z</time>
      </trkpt>
      <trkpt lat="45.79854" lon="4.75287">
        <ele>300</ele>
        <time>2011-12-03T07:31:25Z</time>
      </trkpt>
      <trkpt lat="45.79858" lon="4.75284">
        <ele>300</ele>
        <time>2011-12-03T07:31:26Z</time>
      </trkpt>
      <trkpt lat="45.79862" lon="4.75282">
        <ele>300</ele>
        <time>2011-12-03T07:31:27Z</time>
      </trkpt>
      <trkpt lat="45.79866" lon="4.75282">
        <ele>301</ele>
        <time>2011-12-03T07:31:28Z</time>
      </trkpt>
      <trkpt lat="45.79871" lon="4.75282">
        <ele>300</ele>
        <time>2011-12-03T07:31:29Z</time>
      </trkpt>
      <trkpt lat="45.79913" lon="4.75285">
        <ele>301</ele>
        <time>2011-12-03T07:31:38Z</time>
      </trkpt>
      <trkpt lat="45.79956" lon="4.75293">
        <ele>301</ele>
        <time>2011-12-03T07:31:47Z</time>
      </trkpt>
      <trkpt lat="45.79985" lon="4.75296">
        <ele>301</ele>
        <time>2011-12-03T07:31:53Z</time>
      </trkpt>
      <trkpt lat="45.79989" lon="4.75297">
        <ele>301</ele>
        <time>2011-12-03T07:31:54Z</time>
      </trkpt>
      <trkpt lat="45.79994" lon="4.75298">
        <ele>301</ele>
        <time>2011-12-03T07:31:55Z</time>
      </trkpt>
      <trkpt lat="45.80032" lon="4.75309">
        <ele>301</ele>
        <time>2011-12-03T07:32:03Z</time>
      </trkpt>
      <trkpt lat="45.80036" lon="4.75311">
        <ele>301</ele>
        <time>2011-12-03T07:32:04Z</time>
      </trkpt>
      <trkpt lat="45.8007" lon="4.75339">
        <ele>302</ele>
        <time>2011-12-03T07:32:12Z</time>
      </trkpt>
      <trkpt lat="45.80074" lon="4.75342">
        <ele>302</ele>
        <time>2011-12-03T07:32:13Z</time>
      </trkpt>
      <trkpt lat="45.80091" lon="4.75354">
        <ele>302</ele>
        <time>2011-12-03T07:32:17Z</time>
      </trkpt>
      <trkpt lat="45.80095" lon="4.75356">
        <ele>303</ele>
        <time>2011-12-03T07:32:18Z</time>
      </trkpt>
      <trkpt lat="45.801" lon="4.75357">
        <ele>301</ele>
        <time>2011-12-03T07:32:19Z</time>
      </trkpt>
      <trkpt lat="45.80105" lon="4.75357">
        <ele>300</ele>
        <time>2011-12-03T07:32:20Z</time>
      </trkpt>
      <trkpt lat="45.8011" lon="4.75356">
        <ele>307</ele>
        <time>2011-12-03T07:32:21Z</time>
      </trkpt>
      <trkpt lat="45.80114" lon="4.75355">
        <ele>300</ele>
        <time>2011-12-03T07:32:22Z</time>
      </trkpt>
      <trkpt lat="45.80118" lon="4.75353">
        <ele>303</ele>
        <time>2011-12-03T07:32:23Z</time>
      </trkpt>
      <trkpt lat="45.80155" lon="4.75343">
        <ele>303</ele>
        <time>2011-12-03T07:32:31Z</time>
      </trkpt>
      <trkpt lat="45.80191" lon="4.75335">
        <ele>305</ele>
        <time>2011-12-03T07:32:39Z</time>
      </trkpt>
      <trkpt lat="45.80232" lon="4.7533">
        <ele>306</ele>
        <time>2011-12-03T07:32:48Z</time>
      </trkpt>
      <trkpt lat="45.80267" lon="4.75332">
        <ele>307</ele>
        <time>2011-12-03T07:32:56Z</time>
      </trkpt>
      <trkpt lat="45.80278" lon="4.75336">
        <ele>308</ele>
        <time>2011-12-03T07:32:59Z</time>
      </trkpt>
      <trkpt lat="45.80281" lon="4.75333">
        <ele>308</ele>
        <time>2011-12-03T07:33:00Z</time>
      </trkpt>
      <trkpt lat="45.80283" lon="4.75327">
        <ele>309</ele>
        <time>2011-12-03T07:33:01Z</time>
      </trkpt>
      <trkpt lat="45.80286" lon="4.75322">
        <ele>309</ele>
        <time>2011-12-03T07:33:02Z</time>
      </trkpt>
      <trkpt lat="45.80288" lon="4.75316">
        <ele>309</ele>
        <time>2011-12-03T07:33:03Z</time>
      </trkpt>
      <trkpt lat="45.80306" lon="4.75273">
        <ele>309</ele>
        <time>2011-12-03T07:33:11Z</time>
      </trkpt>
      <trkpt lat="45.8033" lon="4.75225">
        <ele>310</ele>
        <time>2011-12-03T07:33:20Z</time>
      </trkpt>
      <trkpt lat="45.80336" lon="4.75216">
        <ele>311</ele>
        <time>2011-12-03T07:33:22Z</time>
      </trkpt>
      <trkpt lat="45.80365" lon="4.75181">
        <ele>312</ele>
        <time>2011-12-03T07:33:31Z</time>
      </trkpt>
      <trkpt lat="45.80377" lon="4.7516">
        <ele>311</ele>
        <time>2011-12-03T07:33:35Z</time>
      </trkpt>
      <trkpt lat="45.8038" lon="4.75155">
        <ele>311</ele>
        <time>2011-12-03T07:33:36Z</time>
      </trkpt>
      <trkpt lat="45.80394" lon="4.75118">
        <ele>310</ele>
        <time>2011-12-03T07:33:43Z</time>
      </trkpt>
      <trkpt lat="45.80392" lon="4.75113">
        <ele>309</ele>
        <time>2011-12-03T07:33:44Z</time>
      </trkpt>
      <trkpt lat="45.80389" lon="4.75109">
        <ele>309</ele>
        <time>2011-12-03T07:33:45Z</time>
      </trkpt>
      <trkpt lat="45.80368" lon="4.75084">
        <ele>307</ele>
        <time>2011-12-03T07:33:50Z</time>
      </trkpt>
      <trkpt lat="45.80358" lon="4.7507">
        <ele>306</ele>
        <time>2011-12-03T07:33:52Z</time>
      </trkpt>
      <trkpt lat="45.80353" lon="4.75062">
        <ele>306</ele>
        <time>2011-12-03T07:33:53Z</time>
      </trkpt>
      <trkpt lat="45.80344" lon="4.75045">
        <ele>305</ele>
        <time>2011-12-03T07:33:55Z</time>
      </trkpt>
      <trkpt lat="45.80327" lon="4.75009">
        <ele>304</ele>
        <time>2011-12-03T07:33:59Z</time>
      </trkpt>
      <trkpt lat="45.80322" lon="4.75">
        <ele>303</ele>
        <time>2011-12-03T07:34:00Z</time>
      </trkpt>
      <trkpt lat="45.80316" lon="4.74993">
        <ele>303</ele>
        <time>2011-12-03T07:34:01Z</time>
      </trkpt>
      <trkpt lat="45.8031" lon="4.74986">
        <ele>302</ele>
        <time>2011-12-03T07:34:02Z</time>
      </trkpt>
      <trkpt lat="45.80303" lon="4.74979">
        <ele>302</ele>
        <time>2011-12-03T07:34:03Z</time>
      </trkpt>
      <trkpt lat="45.80258" lon="4.74943">
        <ele>300</ele>
        <time>2011-12-03T07:34:10Z</time>
      </trkpt>
      <trkpt lat="45.80238" lon="4.7493">
        <ele>300</ele>
        <time>2011-12-03T07:34:13Z</time>
      </trkpt>
      <trkpt lat="45.80233" lon="4.74924">
        <ele>299</ele>
        <time>2011-12-03T07:34:14Z</time>
      </trkpt>
      <trkpt lat="45.80228" lon="4.74918">
        <ele>299</ele>
        <time>2011-12-03T07:34:15Z</time>
      </trkpt>
      <trkpt lat="45.80223" lon="4.7491">
        <ele>299</ele>
        <time>2011-12-03T07:34:16Z</time>
      </trkpt>
      <trkpt lat="45.80219" lon="4.74902">
        <ele>298</ele>
        <time>2011-12-03T07:34:17Z</time>
      </trkpt>
      <trkpt lat="45.8021" lon="4.74887">
        <ele>298</ele>
        <time>2011-12-03T07:34:19Z</time>
      </trkpt>
      <trkpt lat="45.80204" lon="4.74881">
        <ele>298</ele>
        <time>2011-12-03T07:34:20Z</time>
      </trkpt>
      <trkpt lat="45.80197" lon="4.74876">
        <ele>297</ele>
        <time>2011-12-03T07:34:21Z</time>
      </trkpt>
      <trkpt lat="45.80185" lon="4.74868">
        <ele>296</ele>
        <time>2011-12-03T07:34:23Z</time>
      </trkpt>
      <trkpt lat="45.80165" lon="4.74858">
        <ele>295</ele>
        <time>2011-12-03T07:34:26Z</time>
      </trkpt>
      <trkpt lat="45.80124" lon="4.74838">
        <ele>290</ele>
        <time>2011-12-03T07:34:31Z</time>
      </trkpt>
      <trkpt lat="45.80084" lon="4.74829">
        <ele>288</ele>
        <time>2011-12-03T07:34:35Z</time>
      </trkpt>
      <trkpt lat="45.80051" lon="4.74823">
        <ele>284</ele>
        <time>2011-12-03T07:34:38Z</time>
      </trkpt>
      <trkpt lat="45.80031" lon="4.74822">
        <ele>282</ele>
        <time>2011-12-03T07:34:40Z</time>
      </trkpt>
      <trkpt lat="45.80022" lon="4.74825">
        <ele>281</ele>
        <time>2011-12-03T07:34:41Z</time>
      </trkpt>
      <trkpt lat="45.80013" lon="4.7483">
        <ele>280</ele>
        <time>2011-12-03T07:34:42Z</time>
      </trkpt>
      <trkpt lat="45.8" lon="4.74843">
        <ele>277</ele>
        <time>2011-12-03T07:34:44Z</time>
      </trkpt>
      <trkpt lat="45.79992" lon="4.74856">
        <ele>275</ele>
        <time>2011-12-03T07:34:46Z</time>
      </trkpt>
      <trkpt lat="45.79988" lon="4.74858">
        <ele>275</ele>
        <time>2011-12-03T07:34:47Z</time>
      </trkpt>
      <trkpt lat="45.79985" lon="4.74855">
        <ele>274</ele>
        <time>2011-12-03T07:34:48Z</time>
      </trkpt>
      <trkpt lat="45.79983" lon="4.74842">
        <ele>273</ele>
        <time>2011-12-03T07:34:50Z</time>
      </trkpt>
      <trkpt lat="45.79987" lon="4.74835">
        <ele>272</ele>
        <time>2011-12-03T07:34:51Z</time>
      </trkpt>
      <trkpt lat="45.79991" lon="4.74828">
        <ele>271</ele>
        <time>2011-12-03T07:34:52Z</time>
      </trkpt>
      <trkpt lat="45.79994" lon="4.7482">
        <ele>271</ele>
        <time>2011-12-03T07:34:53Z</time>
      </trkpt>
      <trkpt lat="45.79996" lon="4.7481">
        <ele>269</ele>
        <time>2011-12-03T07:34:54Z</time>
      </trkpt>
      <trkpt lat="45.79997" lon="4.74799">
        <ele>269</ele>
        <time>2011-12-03T07:34:55Z</time>
      </trkpt>
      <trkpt lat="45.79996" lon="4.74786">
        <ele>268</ele>
        <time>2011-12-03T07:34:56Z</time>
      </trkpt>
      <trkpt lat="45.79993" lon="4.74773">
        <ele>267</ele>
        <time>2011-12-03T07:34:57Z</time>
      </trkpt>
      <trkpt lat="45.79988" lon="4.74761">
        <ele>266</ele>
        <time>2011-12-03T07:34:58Z</time>
      </trkpt>
      <trkpt lat="45.79982" lon="4.74751">
        <ele>266</ele>
        <time>2011-12-03T07:34:59Z</time>
      </trkpt>
      <trkpt lat="45.79975" lon="4.74742">
        <ele>266</ele>
        <time>2011-12-03T07:35:00Z</time>
      </trkpt>
      <trkpt lat="45.79969" lon="4.74734">
        <ele>265</ele>
        <time>2011-12-03T07:35:01Z</time>
      </trkpt>
      <trkpt lat="45.79962" lon="4.74727">
        <ele>265</ele>
        <time>2011-12-03T07:35:02Z</time>
      </trkpt>
      <trkpt lat="45.79956" lon="4.74721">
        <ele>265</ele>
        <time>2011-12-03T07:35:03Z</time>
      </trkpt>
      <trkpt lat="45.79946" lon="4.74707">
        <ele>266</ele>
        <time>2011-12-03T07:35:05Z</time>
      </trkpt>
      <trkpt lat="45.79942" lon="4.74701">
        <ele>266</ele>
        <time>2011-12-03T07:35:06Z</time>
      </trkpt>
      <trkpt lat="45.79932" lon="4.74679">
        <ele>267</ele>
        <time>2011-12-03T07:35:11Z</time>
      </trkpt>
      <trkpt lat="45.7993" lon="4.74675">
        <ele>268</ele>
        <time>2011-12-03T07:35:12Z</time>
      </trkpt>
      <trkpt lat="45.79923" lon="4.74658">
        <ele>269</ele>
        <time>2011-12-03T07:35:18Z</time>
      </trkpt>
      <trkpt lat="45.79922" lon="4.74655">
        <ele>270</ele>
        <time>2011-12-03T07:35:19Z</time>
      </trkpt>
      <trkpt lat="45.7992" lon="4.74653">
        <ele>270</ele>
        <time>2011-12-03T07:35:20Z</time>
      </trkpt>
      <trkpt lat="45.79918" lon="4.74651">
        <ele>270</ele>
        <time>2011-12-03T07:35:21Z</time>
      </trkpt>
      <trkpt lat="45.79916" lon="4.74648">
        <ele>271</ele>
        <time>2011-12-03T07:35:22Z</time>
      </trkpt>
      <trkpt lat="45.79915" lon="4.74646">
        <ele>271</ele>
        <time>2011-12-03T07:35:23Z</time>
      </trkpt>
      <trkpt lat="45.79913" lon="4.74643">
        <ele>272</ele>
        <time>2011-12-03T07:35:24Z</time>
      </trkpt>
      <trkpt lat="45.79911" lon="4.74641">
        <ele>272</ele>
        <time>2011-12-03T07:35:25Z</time>
      </trkpt>
      <trkpt lat="45.7991" lon="4.74639">
        <ele>272</ele>
        <time>2011-12-03T07:35:26Z</time>
      </trkpt>
      <trkpt lat="45.79908" lon="4.74638">
        <ele>272</ele>
        <time>2011-12-03T07:35:27Z</time>
      </trkpt>
      <trkpt lat="45.79906" lon="4.74636">
        <ele>273</ele>
        <time>2011-12-03T07:35:28Z</time>
      </trkpt>
      <trkpt lat="45.79905" lon="4.74634">
        <ele>273</ele>
        <time>2011-12-03T07:35:29Z</time>
      </trkpt>
      <trkpt lat="45.7989" lon="4.74623">
        <ele>276</ele>
        <time>2011-12-03T07:35:35Z</time>
      </trkpt>
      <trkpt lat="45.79878" lon="4.74613">
        <ele>277</ele>
        <time>2011-12-03T07:35:40Z</time>
      </trkpt>
      <trkpt lat="45.79864" lon="4.74606">
        <ele>279</ele>
        <time>2011-12-03T07:35:45Z</time>
      </trkpt>
      <trkpt lat="45.79851" lon="4.74601">
        <ele>280</ele>
        <time>2011-12-03T07:35:50Z</time>
      </trkpt>
      <trkpt lat="45.79833" lon="4.74601">
        <ele>282</ele>
        <time>2011-12-03T07:35:57Z</time>
      </trkpt>
      <trkpt lat="45.79821" lon="4.74603">
        <ele>284</ele>
        <time>2011-12-03T07:36:02Z</time>
      </trkpt>
      <trkpt lat="45.79803" lon="4.74608">
        <ele>286</ele>
        <time>2011-12-03T07:36:09Z</time>
      </trkpt>
      <trkpt lat="45.79802" lon="4.74608">
        <ele>286</ele>
        <time>2011-12-03T07:36:10Z</time>
      </trkpt>
      <trkpt lat="45.798" lon="4.74608">
        <ele>286</ele>
        <time>2011-12-03T07:36:11Z</time>
      </trkpt>
      <trkpt lat="45.79798" lon="4.74608">
        <ele>286</ele>
        <time>2011-12-03T07:36:18Z</time>
      </trkpt>
      <trkpt lat="45.79798" lon="4.74608">
        <ele>286</ele>
        <time>2011-12-03T07:36:31Z</time>
      </trkpt>
      <trkpt lat="45.79798" lon="4.74608">
        <ele>286</ele>
        <time>2011-12-03T07:36:50Z</time>
      </trkpt>
      <trkpt lat="45.79798" lon="4.74609">
        <ele>285</ele>
        <time>2011-12-03T07:37:01Z</time>
      </trkpt>
      <trkpt lat="45.79792" lon="4.74592">
        <ele>287</ele>
        <time>2011-12-03T07:37:07Z</time>
      </trkpt>
      <trkpt lat="45.79791" lon="4.74589">
        <ele>288</ele>
        <time>2011-12-03T07:37:08Z</time>
      </trkpt>
      <trkpt lat="45.79787" lon="4.74566">
        <ele>289</ele>
        <time>2011-12-03T07:37:15Z</time>
      </trkpt>
      <trkpt lat="45.79778" lon="4.74547">
        <ele>291</ele>
        <time>2011-12-03T07:37:22Z</time>
      </trkpt>
      <trkpt lat="45.79763" lon="4.74541">
        <ele>292</ele>
        <time>2011-12-03T07:37:29Z</time>
      </trkpt>
      <trkpt lat="45.79752" lon="4.74545">
        <ele>294</ele>
        <time>2011-12-03T07:37:35Z</time>
      </trkpt>
      <trkpt lat="45.79737" lon="4.74557">
        <ele>296</ele>
        <time>2011-12-03T07:37:42Z</time>
      </trkpt>
      <trkpt lat="45.79718" lon="4.74571">
        <ele>297</ele>
        <time>2011-12-03T07:37:49Z</time>
      </trkpt>
      <trkpt lat="45.7971" lon="4.74577">
        <ele>298</ele>
        <time>2011-12-03T07:37:52Z</time>
      </trkpt>
      <trkpt lat="45.79687" lon="4.74592">
        <ele>298</ele>
        <time>2011-12-03T07:38:00Z</time>
      </trkpt>
      <trkpt lat="45.79667" lon="4.74603">
        <ele>298</ele>
        <time>2011-12-03T07:38:06Z</time>
      </trkpt>
      <trkpt lat="45.79636" lon="4.74618">
        <ele>298</ele>
        <time>2011-12-03T07:38:15Z</time>
      </trkpt>
      <trkpt lat="45.79614" lon="4.74627">
        <ele>298</ele>
        <time>2011-12-03T07:38:21Z</time>
      </trkpt>
      <trkpt lat="45.796" lon="4.74612">
        <ele>297</ele>
        <time>2011-12-03T07:38:26Z</time>
      </trkpt>
      <trkpt lat="45.79598" lon="4.74601">
        <ele>297</ele>
        <time>2011-12-03T07:38:28Z</time>
      </trkpt>
      <trkpt lat="45.79596" lon="4.74561">
        <ele>297</ele>
        <time>2011-12-03T07:38:36Z</time>
      </trkpt>
      <trkpt lat="45.79591" lon="4.7452">
        <ele>297</ele>
        <time>2011-12-03T07:38:44Z</time>
      </trkpt>
      <trkpt lat="45.7958" lon="4.74463">
        <ele>297</ele>
        <time>2011-12-03T07:38:54Z</time>
      </trkpt>
      <trkpt lat="45.79567" lon="4.74411">
        <ele>298</ele>
        <time>2011-12-03T07:39:02Z</time>
      </trkpt>
      <trkpt lat="45.79556" lon="4.74372">
        <ele>298</ele>
        <time>2011-12-03T07:39:08Z</time>
      </trkpt>
      <trkpt lat="45.79554" lon="4.74365">
        <ele>297</ele>
        <time>2011-12-03T07:39:09Z</time>
      </trkpt>
      <trkpt lat="45.79537" lon="4.74304">
        <ele>298</ele>
        <time>2011-12-03T07:39:18Z</time>
      </trkpt>
      <trkpt lat="45.79535" lon="4.74293">
        <ele>298</ele>
        <time>2011-12-03T07:39:20Z</time>
      </trkpt>
      <trkpt lat="45.79534" lon="4.74287">
        <ele>299</ele>
        <time>2011-12-03T07:39:21Z</time>
      </trkpt>
      <trkpt lat="45.79533" lon="4.74281">
        <ele>299</ele>
        <time>2011-12-03T07:39:22Z</time>
      </trkpt>
      <trkpt lat="45.79515" lon="4.74236">
        <ele>299</ele>
        <time>2011-12-03T07:39:30Z</time>
      </trkpt>
      <trkpt lat="45.79512" lon="4.74231">
        <ele>299</ele>
        <time>2011-12-03T07:39:31Z</time>
      </trkpt>
      <trkpt lat="45.7951" lon="4.74225">
        <ele>300</ele>
        <time>2011-12-03T07:39:32Z</time>
      </trkpt>
      <trkpt lat="45.79508" lon="4.74219">
        <ele>299</ele>
        <time>2011-12-03T07:39:33Z</time>
      </trkpt>
      <trkpt lat="45.79506" lon="4.74213">
        <ele>300</ele>
        <time>2011-12-03T07:39:34Z</time>
      </trkpt>
      <trkpt lat="45.79504" lon="4.74208">
        <ele>300</ele>
        <time>2011-12-03T07:39:35Z</time>
      </trkpt>
      <trkpt lat="45.79502" lon="4.74202">
        <ele>300</ele>
        <time>2011-12-03T07:39:36Z</time>
      </trkpt>
      <trkpt lat="45.79487" lon="4.74169">
        <ele>300</ele>
        <time>2011-12-03T07:39:43Z</time>
      </trkpt>
      <trkpt lat="45.79483" lon="4.74148">
        <ele>300</ele>
        <time>2011-12-03T07:39:48Z</time>
      </trkpt>
      <trkpt lat="45.79474" lon="4.74125">
        <ele>299</ele>
        <time>2011-12-03T07:39:53Z</time>
      </trkpt>
      <trkpt lat="45.79452" lon="4.74082">
        <ele>298</ele>
        <time>2011-12-03T07:40:00Z</time>
      </trkpt>
      <trkpt lat="45.79429" lon="4.74014">
        <ele>297</ele>
        <time>2011-12-03T07:40:09Z</time>
      </trkpt>
      <trkpt lat="45.79412" lon="4.73946">
        <ele>294</ele>
        <time>2011-12-03T07:40:16Z</time>
      </trkpt>
      <trkpt lat="45.79394" lon="4.73879">
        <ele>290</ele>
        <time>2011-12-03T07:40:22Z</time>
      </trkpt>
      <trkpt lat="45.79381" lon="4.73829">
        <ele>288</ele>
        <time>2011-12-03T07:40:26Z</time>
      </trkpt>
      <trkpt lat="45.79366" lon="4.73779">
        <ele>286</ele>
        <time>2011-12-03T07:40:30Z</time>
      </trkpt>
      <trkpt lat="45.79361" lon="4.73768">
        <ele>285</ele>
        <time>2011-12-03T07:40:31Z</time>
      </trkpt>
      <trkpt lat="45.79347" lon="4.73741">
        <ele>283</ele>
        <time>2011-12-03T07:40:34Z</time>
      </trkpt>
      <trkpt lat="45.79337" lon="4.73725">
        <ele>281</ele>
        <time>2011-12-03T07:40:36Z</time>
      </trkpt>
      <trkpt lat="45.793" lon="4.73676">
        <ele>277</ele>
        <time>2011-12-03T07:40:43Z</time>
      </trkpt>
      <trkpt lat="45.79282" lon="4.73648">
        <ele>274</ele>
        <time>2011-12-03T07:40:47Z</time>
      </trkpt>
      <trkpt lat="45.7928" lon="4.73645">
        <ele>274</ele>
        <time>2011-12-03T07:40:48Z</time>
      </trkpt>
      <trkpt lat="45.79278" lon="4.73639">
        <ele>274</ele>
        <time>2011-12-03T07:40:50Z</time>
      </trkpt>
      <trkpt lat="45.7928" lon="4.73632">
        <ele>272</ele>
        <time>2011-12-03T07:40:53Z</time>
      </trkpt>
      <trkpt lat="45.7928" lon="4.73629">
        <ele>271</ele>
        <time>2011-12-03T07:40:55Z</time>
      </trkpt>
      <trkpt lat="45.79281" lon="4.73625">
        <ele>269</ele>
        <time>2011-12-03T07:40:58Z</time>
      </trkpt>
      <trkpt lat="45.79282" lon="4.73623">
        <ele>269</ele>
        <time>2011-12-03T07:41:04Z</time>
      </trkpt>
      <trkpt lat="45.79283" lon="4.73615">
        <ele>268</ele>
        <time>2011-12-03T07:41:11Z</time>
      </trkpt>
      <trkpt lat="45.79283" lon="4.73615">
        <ele>268</ele>
        <time>2011-12-03T07:41:18Z</time>
      </trkpt>
      <trkpt lat="45.7928" lon="4.73599">
        <ele>266</ele>
        <time>2011-12-03T07:41:25Z</time>
      </trkpt>
      <trkpt lat="45.79277" lon="4.73586">
        <ele>264</ele>
        <time>2011-12-03T07:41:29Z</time>
      </trkpt>
      <trkpt lat="45.79272" lon="4.73579">
        <ele>263</ele>
        <time>2011-12-03T07:41:33Z</time>
      </trkpt>
      <trkpt lat="45.79267" lon="4.73569">
        <ele>262</ele>
        <time>2011-12-03T07:41:38Z</time>
      </trkpt>
      <trkpt lat="45.79264" lon="4.73558">
        <ele>259</ele>
        <time>2011-12-03T07:41:46Z</time>
      </trkpt>
      <trkpt lat="45.79264" lon="4.73555">
        <ele>259</ele>
        <time>2011-12-03T07:41:52Z</time>
      </trkpt>
      <trkpt lat="45.79264" lon="4.73553">
        <ele>258</ele>
        <time>2011-12-03T07:41:58Z</time>
      </trkpt>
      <trkpt lat="45.79266" lon="4.73542">
        <ele>259</ele>
        <time>2011-12-03T07:42:05Z</time>
      </trkpt>
      <trkpt lat="45.79264" lon="4.73536">
        <ele>258</ele>
        <time>2011-12-03T07:42:11Z</time>
      </trkpt>
      <trkpt lat="45.79264" lon="4.73536">
        <ele>258</ele>
        <time>2011-12-03T07:42:22Z</time>
      </trkpt>
      <trkpt lat="45.79261" lon="4.73536">
        <ele>258</ele>
        <time>2011-12-03T07:42:29Z</time>
      </trkpt>
      <trkpt lat="45.79261" lon="4.73537">
        <ele>258</ele>
        <time>2011-12-03T07:42:37Z</time>
      </trkpt>
      <trkpt lat="45.79261" lon="4.73537">
        <ele>258</ele>
        <time>2011-12-03T07:42:45Z</time>
      </trkpt>
      <trkpt lat="45.79261" lon="4.73537">
        <ele>258</ele>
        <time>2011-12-03T07:42:56Z</time>
      </trkpt>
      <trkpt lat="45.79261" lon="4.73536">
        <ele>258</ele>
        <time>2011-12-03T07:42:58Z</time>
      </trkpt>
      <trkpt lat="45.79265" lon="4.73532">
        <ele>258</ele>
        <time>2011-12-03T07:43:04Z</time>
      </trkpt>
      <trkpt lat="45.79267" lon="4.73526">
        <ele>258</ele>
        <time>2011-12-03T07:43:11Z</time>
      </trkpt>
      <trkpt lat="45.79266" lon="4.73522">
        <ele>258</ele>
        <time>2011-12-03T07:43:17Z</time>
      </trkpt>
      <trkpt lat="45.79266" lon="4.73522">
        <ele>257</ele>
        <time>2011-12-03T07:43:28Z</time>
      </trkpt>
      <trkpt lat="45.79263" lon="4.7352">
        <ele>258</ele>
        <time>2011-12-03T07:43:35Z</time>
      </trkpt>
      <trkpt lat="45.79262" lon="4.73519">
        <ele>258</ele>
        <time>2011-12-03T07:43:41Z</time>
      </trkpt>
      <trkpt lat="45.79261" lon="4.73519">
        <ele>258</ele>
        <time>2011-12-03T07:43:47Z</time>
      </trkpt>
      <trkpt lat="45.79261" lon="4.73519">
        <ele>258</ele>
        <time>2011-12-03T07:44:02Z</time>
      </trkpt>
      <trkpt lat="45.79261" lon="4.73519">
        <ele>257</ele>
        <time>2011-12-03T07:44:16Z</time>
      </trkpt>
      <trkpt lat="45.79259" lon="4.73518">
        <ele>258</ele>
        <time>2011-12-03T07:44:17Z</time>
      </trkpt>
      <trkpt lat="45.79252" lon="4.73516">
        <ele>257</ele>
        <time>2011-12-03T07:44:21Z</time>
      </trkpt>
      <trkpt lat="45.79251" lon="4.73515">
        <ele>257</ele>
        <time>2011-12-03T07:44:22Z</time>
      </trkpt>
      <trkpt lat="45.79248" lon="4.73509">
        <ele>257</ele>
        <time>2011-12-03T07:44:25Z</time>
      </trkpt>
      <trkpt lat="45.7924" lon="4.73501">
        <ele>257</ele>
        <time>2011-12-03T07:44:31Z</time>
      </trkpt>
      <trkpt lat="45.79237" lon="4.73499">
        <ele>257</ele>
        <time>2011-12-03T07:44:33Z</time>
      </trkpt>
      <trkpt lat="45.79235" lon="4.73495">
        <ele>258</ele>
        <time>2011-12-03T07:44:35Z</time>
      </trkpt>
      <trkpt lat="45.79228" lon="4.73489">
        <ele>260</ele>
        <time>2011-12-03T07:44:42Z</time>
      </trkpt>
      <trkpt lat="45.79226" lon="4.73486">
        <ele>260</ele>
        <time>2011-12-03T07:44:44Z</time>
      </trkpt>
      <trkpt lat="45.7922" lon="4.73477">
        <ele>261</ele>
        <time>2011-12-03T07:44:49Z</time>
      </trkpt>
      <trkpt lat="45.79213" lon="4.73469">
        <ele>261</ele>
        <time>2011-12-03T07:44:53Z</time>
      </trkpt>
      <trkpt lat="45.79204" lon="4.73462">
        <ele>261</ele>
        <time>2011-12-03T07:44:58Z</time>
      </trkpt>
      <trkpt lat="45.79196" lon="4.73454">
        <ele>262</ele>
        <time>2011-12-03T07:45:03Z</time>
      </trkpt>
      <trkpt lat="45.79184" lon="4.73442">
        <ele>263</ele>
        <time>2011-12-03T07:45:10Z</time>
      </trkpt>
      <trkpt lat="45.79169" lon="4.73431">
        <ele>264</ele>
        <time>2011-12-03T07:45:17Z</time>
      </trkpt>
      <trkpt lat="45.79157" lon="4.73417">
        <ele>266</ele>
        <time>2011-12-03T07:45:23Z</time>
      </trkpt>
      <trkpt lat="45.79147" lon="4.73405">
        <ele>268</ele>
        <time>2011-12-03T07:45:30Z</time>
      </trkpt>
      <trkpt lat="45.79156" lon="4.734">
        <ele>268</ele>
        <time>2011-12-03T07:45:37Z</time>
      </trkpt>
      <trkpt lat="45.79159" lon="4.73399">
        <ele>268</ele>
        <time>2011-12-03T07:45:39Z</time>
      </trkpt>
      <trkpt lat="45.79171" lon="4.73389">
        <ele>268</ele>
        <time>2011-12-03T07:45:47Z</time>
      </trkpt>
      <trkpt lat="45.79185" lon="4.73379">
        <ele>268</ele>
        <time>2011-12-03T07:45:52Z</time>
      </trkpt>
      <trkpt lat="45.79188" lon="4.73376">
        <ele>268</ele>
        <time>2011-12-03T07:45:53Z</time>
      </trkpt>
      <trkpt lat="45.79192" lon="4.73373">
        <ele>267</ele>
        <time>2011-12-03T07:45:54Z</time>
      </trkpt>
      <trkpt lat="45.792" lon="4.73367">
        <ele>267</ele>
        <time>2011-12-03T07:45:56Z</time>
      </trkpt>
      <trkpt lat="45.79219" lon="4.73358">
        <ele>267</ele>
        <time>2011-12-03T07:46:02Z</time>
      </trkpt>
      <trkpt lat="45.79236" lon="4.73353">
        <ele>267</ele>
        <time>2011-12-03T07:46:08Z</time>
      </trkpt>
      <trkpt lat="45.79254" lon="4.73353">
        <ele>269</ele>
        <time>2011-12-03T07:46:14Z</time>
      </trkpt>
      <trkpt lat="45.7927" lon="4.73351">
        <ele>271</ele>
        <time>2011-12-03T07:46:20Z</time>
      </trkpt>
      <trkpt lat="45.79284" lon="4.73351">
        <ele>271</ele>
        <time>2011-12-03T07:46:26Z</time>
      </trkpt>
      <trkpt lat="45.79298" lon="4.73351">
        <ele>270</ele>
        <time>2011-12-03T07:46:32Z</time>
      </trkpt>
      <trkpt lat="45.79308" lon="4.73352">
        <ele>271</ele>
        <time>2011-12-03T07:46:37Z</time>
      </trkpt>
      <trkpt lat="45.7932" lon="4.73352">
        <ele>272</ele>
        <time>2011-12-03T07:46:42Z</time>
      </trkpt>
      <trkpt lat="45.7934" lon="4.7335">
        <ele>273</ele>
        <time>2011-12-03T07:46:48Z</time>
      </trkpt>
      <trkpt lat="45.79343" lon="4.73349">
        <ele>274</ele>
        <time>2011-12-03T07:46:49Z</time>
      </trkpt>
      <trkpt lat="45.79346" lon="4.73347">
        <ele>273</ele>
        <time>2011-12-03T07:46:50Z</time>
      </trkpt>
      <trkpt lat="45.79349" lon="4.73346">
        <ele>273</ele>
        <time>2011-12-03T07:46:51Z</time>
      </trkpt>
      <trkpt lat="45.79352" lon="4.73345">
        <ele>274</ele>
        <time>2011-12-03T07:46:52Z</time>
      </trkpt>
      <trkpt lat="45.79355" lon="4.73344">
        <ele>273</ele>
        <time>2011-12-03T07:46:53Z</time>
      </trkpt>
      <trkpt lat="45.79358" lon="4.73343">
        <ele>274</ele>
        <time>2011-12-03T07:46:54Z</time>
      </trkpt>
      <trkpt lat="45.79361" lon="4.73343">
        <ele>274</ele>
        <time>2011-12-03T07:46:55Z</time>
      </trkpt>
      <trkpt lat="45.79364" lon="4.73343">
        <ele>274</ele>
        <time>2011-12-03T07:46:56Z</time>
      </trkpt>
      <trkpt lat="45.79366" lon="4.73342">
        <ele>274</ele>
        <time>2011-12-03T07:46:57Z</time>
      </trkpt>
      <trkpt lat="45.79369" lon="4.73341">
        <ele>274</ele>
        <time>2011-12-03T07:46:58Z</time>
      </trkpt>
      <trkpt lat="45.79372" lon="4.73341">
        <ele>274</ele>
        <time>2011-12-03T07:46:59Z</time>
      </trkpt>
      <trkpt lat="45.79375" lon="4.7334">
        <ele>274</ele>
        <time>2011-12-03T07:47:00Z</time>
      </trkpt>
      <trkpt lat="45.79378" lon="4.73338">
        <ele>274</ele>
        <time>2011-12-03T07:47:02Z</time>
      </trkpt>
      <trkpt lat="45.79386" lon="4.73328">
        <ele>269</ele>
        <time>2011-12-03T07:47:08Z</time>
      </trkpt>
      <trkpt lat="45.79394" lon="4.73324">
        <ele>267</ele>
        <time>2011-12-03T07:47:11Z</time>
      </trkpt>
      <trkpt lat="45.79397" lon="4.73322">
        <ele>265</ele>
        <time>2011-12-03T07:47:13Z</time>
      </trkpt>
      <trkpt lat="45.79399" lon="4.7332">
        <ele>265</ele>
        <time>2011-12-03T07:47:14Z</time>
      </trkpt>
      <trkpt lat="45.79412" lon="4.7331">
        <ele>263</ele>
        <time>2011-12-03T07:47:20Z</time>
      </trkpt>
      <trkpt lat="45.79419" lon="4.73304">
        <ele>261</ele>
        <time>2011-12-03T07:47:23Z</time>
      </trkpt>
      <trkpt lat="45.7942" lon="4.73302">
        <ele>261</ele>
        <time>2011-12-03T07:47:24Z</time>
      </trkpt>
      <trkpt lat="45.7942" lon="4.73298">
        <ele>258</ele>
        <time>2011-12-03T07:47:29Z</time>
      </trkpt>
      <trkpt lat="45.7942" lon="4.73298">
        <ele>257</ele>
        <time>2011-12-03T07:47:31Z</time>
      </trkpt>
      <trkpt lat="45.7942" lon="4.73297">
        <ele>256</ele>
        <time>2011-12-03T07:47:32Z</time>
      </trkpt>
      <trkpt lat="45.79424" lon="4.73276">
        <ele>254</ele>
        <time>2011-12-03T07:47:36Z</time>
      </trkpt>
      <trkpt lat="45.79425" lon="4.73265">
        <ele>253</ele>
        <time>2011-12-03T07:47:38Z</time>
      </trkpt>
      <trkpt lat="45.79424" lon="4.73258">
        <ele>252</ele>
        <time>2011-12-03T07:47:40Z</time>
      </trkpt>
      <trkpt lat="45.79429" lon="4.73242">
        <ele>251</ele>
        <time>2011-12-03T07:47:44Z</time>
      </trkpt>
      <trkpt lat="45.79435" lon="4.73238">
        <ele>251</ele>
        <time>2011-12-03T07:47:48Z</time>
      </trkpt>
      <trkpt lat="45.79444" lon="4.73228">
        <ele>251</ele>
        <time>2011-12-03T07:47:54Z</time>
      </trkpt>
      <trkpt lat="45.79444" lon="4.73226">
        <ele>251</ele>
        <time>2011-12-03T07:47:59Z</time>
      </trkpt>
      <trkpt lat="45.79446" lon="4.73225">
        <ele>251</ele>
        <time>2011-12-03T07:48:05Z</time>
      </trkpt>
      <trkpt lat="45.79457" lon="4.73212">
        <ele>252</ele>
        <time>2011-12-03T07:48:11Z</time>
      </trkpt>
      <trkpt lat="45.79467" lon="4.73206">
        <ele>252</ele>
        <time>2011-12-03T07:48:16Z</time>
      </trkpt>
      <trkpt lat="45.79469" lon="4.73205">
        <ele>252</ele>
        <time>2011-12-03T07:48:17Z</time>
      </trkpt>
      <trkpt lat="45.79481" lon="4.73202">
        <ele>253</ele>
        <time>2011-12-03T07:48:22Z</time>
      </trkpt>
      <trkpt lat="45.79501" lon="4.7319">
        <ele>254</ele>
        <time>2011-12-03T07:48:30Z</time>
      </trkpt>
      <trkpt lat="45.79505" lon="4.73183">
        <ele>254</ele>
        <time>2011-12-03T07:48:32Z</time>
      </trkpt>
      <trkpt lat="45.79507" lon="4.73181">
        <ele>253</ele>
        <time>2011-12-03T07:48:34Z</time>
      </trkpt>
      <trkpt lat="45.79516" lon="4.73163">
        <ele>253</ele>
        <time>2011-12-03T07:48:39Z</time>
      </trkpt>
      <trkpt lat="45.79527" lon="4.73147">
        <ele>254</ele>
        <time>2011-12-03T07:48:44Z</time>
      </trkpt>
      <trkpt lat="45.79541" lon="4.73129">
        <ele>256</ele>
        <time>2011-12-03T07:48:50Z</time>
      </trkpt>
      <trkpt lat="45.79555" lon="4.73114">
        <ele>256</ele>
        <time>2011-12-03T07:48:56Z</time>
      </trkpt>
      <trkpt lat="45.7957" lon="4.73107">
        <ele>256</ele>
        <time>2011-12-03T07:49:03Z</time>
      </trkpt>
      <trkpt lat="45.79572" lon="4.73106">
        <ele>256</ele>
        <time>2011-12-03T07:49:04Z</time>
      </trkpt>
      <trkpt lat="45.79581" lon="4.73104">
        <ele>256</ele>
        <time>2011-12-03T07:49:08Z</time>
      </trkpt>
      <trkpt lat="45.79585" lon="4.73103">
        <ele>256</ele>
        <time>2011-12-03T07:49:10Z</time>
      </trkpt>
      <trkpt lat="45.79589" lon="4.73102">
        <ele>256</ele>
        <time>2011-12-03T07:49:12Z</time>
      </trkpt>
      <trkpt lat="45.79598" lon="4.73103">
        <ele>256</ele>
        <time>2011-12-03T07:49:16Z</time>
      </trkpt>
      <trkpt lat="45.79613" lon="4.73099">
        <ele>255</ele>
        <time>2011-12-03T07:49:22Z</time>
      </trkpt>
      <trkpt lat="45.79626" lon="4.73091">
        <ele>258</ele>
        <time>2011-12-03T07:49:27Z</time>
      </trkpt>
      <trkpt lat="45.7963" lon="4.73085">
        <ele>258</ele>
        <time>2011-12-03T07:49:30Z</time>
      </trkpt>
      <trkpt lat="45.79638" lon="4.73077">
        <ele>259</ele>
        <time>2011-12-03T07:49:34Z</time>
      </trkpt>
      <trkpt lat="45.7965" lon="4.73062">
        <ele>260</ele>
        <time>2011-12-03T07:49:40Z</time>
      </trkpt>
      <trkpt lat="45.79664" lon="4.7305">
        <ele>261</ele>
        <time>2011-12-03T07:49:46Z</time>
      </trkpt>
      <trkpt lat="45.79668" lon="4.73047">
        <ele>261</ele>
        <time>2011-12-03T07:49:48Z</time>
      </trkpt>
      <trkpt lat="45.79683" lon="4.73033">
        <ele>262</ele>
        <time>2011-12-03T07:49:56Z</time>
      </trkpt>
      <trkpt lat="45.79697" lon="4.73022">
        <ele>263</ele>
        <time>2011-12-03T07:50:02Z</time>
      </trkpt>
      <trkpt lat="45.79701" lon="4.7302">
        <ele>263</ele>
        <time>2011-12-03T07:50:04Z</time>
      </trkpt>
      <trkpt lat="45.79712" lon="4.73022">
        <ele>264</ele>
        <time>2011-12-03T07:50:11Z</time>
      </trkpt>
      <trkpt lat="45.79713" lon="4.73021">
        <ele>264</ele>
        <time>2011-12-03T07:50:12Z</time>
      </trkpt>
      <trkpt lat="45.79726" lon="4.73008">
        <ele>264</ele>
        <time>2011-12-03T07:50:19Z</time>
      </trkpt>
      <trkpt lat="45.79728" lon="4.73006">
        <ele>265</ele>
        <time>2011-12-03T07:50:20Z</time>
      </trkpt>
      <trkpt lat="45.79739" lon="4.72994">
        <ele>266</ele>
        <time>2011-12-03T07:50:28Z</time>
      </trkpt>
      <trkpt lat="45.79751" lon="4.72981">
        <ele>266</ele>
        <time>2011-12-03T07:50:35Z</time>
      </trkpt>
      <trkpt lat="45.79766" lon="4.72966">
        <ele>265</ele>
        <time>2011-12-03T07:50:40Z</time>
      </trkpt>
      <trkpt lat="45.79777" lon="4.72957">
        <ele>266</ele>
        <time>2011-12-03T07:50:45Z</time>
      </trkpt>
      <trkpt lat="45.79788" lon="4.72954">
        <ele>268</ele>
        <time>2011-12-03T07:50:49Z</time>
      </trkpt>
      <trkpt lat="45.79798" lon="4.7294">
        <ele>268</ele>
        <time>2011-12-03T07:50:54Z</time>
      </trkpt>
      <trkpt lat="45.79805" lon="4.7293">
        <ele>268</ele>
        <time>2011-12-03T07:50:57Z</time>
      </trkpt>
      <trkpt lat="45.7982" lon="4.72914">
        <ele>269</ele>
        <time>2011-12-03T07:51:04Z</time>
      </trkpt>
      <trkpt lat="45.79832" lon="4.72902">
        <ele>270</ele>
        <time>2011-12-03T07:51:10Z</time>
      </trkpt>
      <trkpt lat="45.79839" lon="4.72896">
        <ele>270</ele>
        <time>2011-12-03T07:51:13Z</time>
      </trkpt>
      <trkpt lat="45.79856" lon="4.72887">
        <ele>272</ele>
        <time>2011-12-03T07:51:20Z</time>
      </trkpt>
      <trkpt lat="45.79863" lon="4.72884">
        <ele>272</ele>
        <time>2011-12-03T07:51:24Z</time>
      </trkpt>
      <trkpt lat="45.79878" lon="4.72879">
        <ele>274</ele>
        <time>2011-12-03T07:51:31Z</time>
      </trkpt>
      <trkpt lat="45.79883" lon="4.72878">
        <ele>275</ele>
        <time>2011-12-03T07:51:34Z</time>
      </trkpt>
      <trkpt lat="45.79891" lon="4.72875">
        <ele>276</ele>
        <time>2011-12-03T07:51:38Z</time>
      </trkpt>
      <trkpt lat="45.79901" lon="4.72873">
        <ele>277</ele>
        <time>2011-12-03T07:51:45Z</time>
      </trkpt>
      <trkpt lat="45.79902" lon="4.72873">
        <ele>277</ele>
        <time>2011-12-03T07:51:46Z</time>
      </trkpt>
      <trkpt lat="45.79908" lon="4.72874">
        <ele>279</ele>
        <time>2011-12-03T07:51:50Z</time>
      </trkpt>
      <trkpt lat="45.79918" lon="4.72875">
        <ele>279</ele>
        <time>2011-12-03T07:51:56Z</time>
      </trkpt>
      <trkpt lat="45.79932" lon="4.72876">
        <ele>281</ele>
        <time>2011-12-03T07:52:04Z</time>
      </trkpt>
      <trkpt lat="45.79944" lon="4.72883">
        <ele>284</ele>
        <time>2011-12-03T07:52:11Z</time>
      </trkpt>
      <trkpt lat="45.79947" lon="4.72883">
        <ele>284</ele>
        <time>2011-12-03T07:52:13Z</time>
      </trkpt>
      <trkpt lat="45.7996" lon="4.72889">
        <ele>285</ele>
        <time>2011-12-03T07:52:21Z</time>
      </trkpt>
      <trkpt lat="45.79968" lon="4.72895">
        <ele>285</ele>
        <time>2011-12-03T07:52:24Z</time>
      </trkpt>
      <trkpt lat="45.79981" lon="4.72904">
        <ele>287</ele>
        <time>2011-12-03T07:52:30Z</time>
      </trkpt>
      <trkpt lat="45.79984" lon="4.72906">
        <ele>287</ele>
        <time>2011-12-03T07:52:32Z</time>
      </trkpt>
      <trkpt lat="45.79992" lon="4.72925">
        <ele>290</ele>
        <time>2011-12-03T07:52:40Z</time>
      </trkpt>
      <trkpt lat="45.79993" lon="4.72932">
        <ele>290</ele>
        <time>2011-12-03T07:52:44Z</time>
      </trkpt>
      <trkpt lat="45.80002" lon="4.7294">
        <ele>292</ele>
        <time>2011-12-03T07:52:50Z</time>
      </trkpt>
      <trkpt lat="45.80012" lon="4.72951">
        <ele>293</ele>
        <time>2011-12-03T07:52:56Z</time>
      </trkpt>
      <trkpt lat="45.80023" lon="4.72955">
        <ele>294</ele>
        <time>2011-12-03T07:53:02Z</time>
      </trkpt>
      <trkpt lat="45.80039" lon="4.72957">
        <ele>294</ele>
        <time>2011-12-03T07:53:09Z</time>
      </trkpt>
      <trkpt lat="45.80041" lon="4.72956">
        <ele>295</ele>
        <time>2011-12-03T07:53:10Z</time>
      </trkpt>
      <trkpt lat="45.80055" lon="4.72961">
        <ele>294</ele>
        <time>2011-12-03T07:53:17Z</time>
      </trkpt>
      <trkpt lat="45.80063" lon="4.72963">
        <ele>295</ele>
        <time>2011-12-03T07:53:21Z</time>
      </trkpt>
      <trkpt lat="45.80085" lon="4.72955">
        <ele>296</ele>
        <time>2011-12-03T07:53:30Z</time>
      </trkpt>
      <trkpt lat="45.80089" lon="4.72954">
        <ele>297</ele>
        <time>2011-12-03T07:53:32Z</time>
      </trkpt>
      <trkpt lat="45.80093" lon="4.72955">
        <ele>297</ele>
        <time>2011-12-03T07:53:34Z</time>
      </trkpt>
      <trkpt lat="45.801" lon="4.72952">
        <ele>297</ele>
        <time>2011-12-03T07:53:38Z</time>
      </trkpt>
      <trkpt lat="45.80107" lon="4.72952">
        <ele>297</ele>
        <time>2011-12-03T07:53:46Z</time>
      </trkpt>
      <trkpt lat="45.80107" lon="4.72952">
        <ele>297</ele>
        <time>2011-12-03T07:53:59Z</time>
      </trkpt>
      <trkpt lat="45.80107" lon="4.72952">
        <ele>297</ele>
        <time>2011-12-03T07:54:17Z</time>
      </trkpt>
      <trkpt lat="45.80107" lon="4.72952">
        <ele>297</ele>
        <time>2011-12-03T07:54:33Z</time>
      </trkpt>
      <trkpt lat="45.80107" lon="4.72952">
        <ele>297</ele>
        <time>2011-12-03T07:54:52Z</time>
      </trkpt>
      <trkpt lat="45.80107" lon="4.72953">
        <ele>297</ele>
        <time>2011-12-03T07:55:06Z</time>
      </trkpt>
      <trkpt lat="45.80113" lon="4.72967">
        <ele>297</ele>
        <time>2011-12-03T07:55:12Z</time>
      </trkpt>
      <trkpt lat="45.80122" lon="4.7297">
        <ele>298</ele>
        <time>2011-12-03T07:55:16Z</time>
      </trkpt>
      <trkpt lat="45.80138" lon="4.72976">
        <ele>299</ele>
        <time>2011-12-03T07:55:23Z</time>
      </trkpt>
      <trkpt lat="45.80164" lon="4.7299">
        <ele>300</ele>
        <time>2011-12-03T07:55:32Z</time>
      </trkpt>
      <trkpt lat="45.80192" lon="4.73004">
        <ele>301</ele>
        <time>2011-12-03T07:55:41Z</time>
      </trkpt>
      <trkpt lat="45.80217" lon="4.73013">
        <ele>303</ele>
        <time>2011-12-03T07:55:49Z</time>
      </trkpt>
      <trkpt lat="45.80244" lon="4.73011">
        <ele>304</ele>
        <time>2011-12-03T07:55:57Z</time>
      </trkpt>
      <trkpt lat="45.80268" lon="4.73006">
        <ele>304</ele>
        <time>2011-12-03T07:56:04Z</time>
      </trkpt>
      <trkpt lat="45.8029" lon="4.73">
        <ele>306</ele>
        <time>2011-12-03T07:56:11Z</time>
      </trkpt>
      <trkpt lat="45.80311" lon="4.72987">
        <ele>306</ele>
        <time>2011-12-03T07:56:18Z</time>
      </trkpt>
      <trkpt lat="45.80317" lon="4.72984">
        <ele>307</ele>
        <time>2011-12-03T07:56:20Z</time>
      </trkpt>
      <trkpt lat="45.80343" lon="4.7297">
        <ele>308</ele>
        <time>2011-12-03T07:56:28Z</time>
      </trkpt>
      <trkpt lat="45.80366" lon="4.72956">
        <ele>308</ele>
        <time>2011-12-03T07:56:35Z</time>
      </trkpt>
      <trkpt lat="45.80396" lon="4.72936">
        <ele>311</ele>
        <time>2011-12-03T07:56:45Z</time>
      </trkpt>
      <trkpt lat="45.80419" lon="4.72921">
        <ele>312</ele>
        <time>2011-12-03T07:56:52Z</time>
      </trkpt>
      <trkpt lat="45.80444" lon="4.72904">
        <ele>312</ele>
        <time>2011-12-03T07:57:00Z</time>
      </trkpt>
      <trkpt lat="45.80469" lon="4.72888">
        <ele>312</ele>
        <time>2011-12-03T07:57:08Z</time>
      </trkpt>
      <trkpt lat="45.80493" lon="4.72873">
        <ele>312</ele>
        <time>2011-12-03T07:57:15Z</time>
      </trkpt>
      <trkpt lat="45.80521" lon="4.72855">
        <ele>311</ele>
        <time>2011-12-03T07:57:23Z</time>
      </trkpt>
      <trkpt lat="45.8053" lon="4.7285">
        <ele>311</ele>
        <time>2011-12-03T07:57:26Z</time>
      </trkpt>
      <trkpt lat="45.80532" lon="4.72847">
        <ele>311</ele>
        <time>2011-12-03T07:57:27Z</time>
      </trkpt>
      <trkpt lat="45.80533" lon="4.72843">
        <ele>310</ele>
        <time>2011-12-03T07:57:28Z</time>
      </trkpt>
      <trkpt lat="45.80533" lon="4.72838">
        <ele>310</ele>
        <time>2011-12-03T07:57:29Z</time>
      </trkpt>
      <trkpt lat="45.80532" lon="4.72833">
        <ele>310</ele>
        <time>2011-12-03T07:57:30Z</time>
      </trkpt>
      <trkpt lat="45.8053" lon="4.72828">
        <ele>310</ele>
        <time>2011-12-03T07:57:31Z</time>
      </trkpt>
      <trkpt lat="45.80528" lon="4.72822">
        <ele>309</ele>
        <time>2011-12-03T07:57:32Z</time>
      </trkpt>
      <trkpt lat="45.80526" lon="4.72817">
        <ele>309</ele>
        <time>2011-12-03T07:57:33Z</time>
      </trkpt>
      <trkpt lat="45.8051" lon="4.72777">
        <ele>306</ele>
        <time>2011-12-03T07:57:39Z</time>
      </trkpt>
      <trkpt lat="45.80507" lon="4.72768">
        <ele>306</ele>
        <time>2011-12-03T07:57:40Z</time>
      </trkpt>
      <trkpt lat="45.80499" lon="4.72753">
        <ele>304</ele>
        <time>2011-12-03T07:57:42Z</time>
      </trkpt>
      <trkpt lat="45.80494" lon="4.72746">
        <ele>304</ele>
        <time>2011-12-03T07:57:43Z</time>
      </trkpt>
      <trkpt lat="45.80488" lon="4.72738">
        <ele>304</ele>
        <time>2011-12-03T07:57:44Z</time>
      </trkpt>
      <trkpt lat="45.80469" lon="4.72715">
        <ele>301</ele>
        <time>2011-12-03T07:57:47Z</time>
      </trkpt>
      <trkpt lat="45.8045" lon="4.72693">
        <ele>299</ele>
        <time>2011-12-03T07:57:50Z</time>
      </trkpt>
      <trkpt lat="45.80412" lon="4.72667">
        <ele>294</ele>
        <time>2011-12-03T07:57:55Z</time>
      </trkpt>
      <trkpt lat="45.80382" lon="4.72653">
        <ele>290</ele>
        <time>2011-12-03T07:57:59Z</time>
      </trkpt>
      <trkpt lat="45.80366" lon="4.72645">
        <ele>288</ele>
        <time>2011-12-03T07:58:02Z</time>
      </trkpt>
      <trkpt lat="45.80362" lon="4.72643">
        <ele>288</ele>
        <time>2011-12-03T07:58:03Z</time>
      </trkpt>
      <trkpt lat="45.80344" lon="4.72634">
        <ele>285</ele>
        <time>2011-12-03T07:58:07Z</time>
      </trkpt>
      <trkpt lat="45.80335" lon="4.72622">
        <ele>283</ele>
        <time>2011-12-03T07:58:11Z</time>
      </trkpt>
      <trkpt lat="45.80334" lon="4.7262">
        <ele>282</ele>
        <time>2011-12-03T07:58:12Z</time>
      </trkpt>
      <trkpt lat="45.8032" lon="4.7261">
        <ele>280</ele>
        <time>2011-12-03T07:58:18Z</time>
      </trkpt>
      <trkpt lat="45.80316" lon="4.72607">
        <ele>280</ele>
        <time>2011-12-03T07:58:24Z</time>
      </trkpt>
      <trkpt lat="45.80315" lon="4.72606">
        <ele>279</ele>
        <time>2011-12-03T07:58:32Z</time>
      </trkpt>
      <trkpt lat="45.80313" lon="4.72603">
        <ele>280</ele>
        <time>2011-12-03T07:58:38Z</time>
      </trkpt>
      <trkpt lat="45.80308" lon="4.72598">
        <ele>280</ele>
        <time>2011-12-03T07:58:41Z</time>
      </trkpt>
      <trkpt lat="45.80294" lon="4.72586">
        <ele>281</ele>
        <time>2011-12-03T07:58:48Z</time>
      </trkpt>
      <trkpt lat="45.80294" lon="4.72586">
        <ele>282</ele>
        <time>2011-12-03T07:58:49Z</time>
      </trkpt>
      <trkpt lat="45.80289" lon="4.72583">
        <ele>282</ele>
        <time>2011-12-03T07:58:53Z</time>
      </trkpt>
      <trkpt lat="45.80283" lon="4.72577">
        <ele>284</ele>
        <time>2011-12-03T07:58:57Z</time>
      </trkpt>
      <trkpt lat="45.80269" lon="4.72565">
        <ele>286</ele>
        <time>2011-12-03T07:59:05Z</time>
      </trkpt>
      <trkpt lat="45.8026" lon="4.72557">
        <ele>288</ele>
        <time>2011-12-03T07:59:11Z</time>
      </trkpt>
      <trkpt lat="45.80249" lon="4.72552">
        <ele>289</ele>
        <time>2011-12-03T07:59:17Z</time>
      </trkpt>
      <trkpt lat="45.80238" lon="4.72544">
        <ele>291</ele>
        <time>2011-12-03T07:59:24Z</time>
      </trkpt>
      <trkpt lat="45.80226" lon="4.72537">
        <ele>291</ele>
        <time>2011-12-03T07:59:30Z</time>
      </trkpt>
      <trkpt lat="45.80215" lon="4.72533">
        <ele>293</ele>
        <time>2011-12-03T07:59:36Z</time>
      </trkpt>
      <trkpt lat="45.80207" lon="4.72523">
        <ele>294</ele>
        <time>2011-12-03T07:59:41Z</time>
      </trkpt>
      <trkpt lat="45.80206" lon="4.72514">
        <ele>294</ele>
        <time>2011-12-03T07:59:45Z</time>
      </trkpt>
      <trkpt lat="45.80202" lon="4.72494">
        <ele>295</ele>
        <time>2011-12-03T07:59:53Z</time>
      </trkpt>
      <trkpt lat="45.80198" lon="4.72476">
        <ele>296</ele>
        <time>2011-12-03T07:59:59Z</time>
      </trkpt>
      <trkpt lat="45.80197" lon="4.72459">
        <ele>297</ele>
        <time>2011-12-03T08:00:05Z</time>
      </trkpt>
      <trkpt lat="45.802" lon="4.72449">
        <ele>297</ele>
        <time>2011-12-03T08:00:11Z</time>
      </trkpt>
      <trkpt lat="45.80201" lon="4.72446">
        <ele>297</ele>
        <time>2011-12-03T08:00:13Z</time>
      </trkpt>
      <trkpt lat="45.80199" lon="4.72439">
        <ele>298</ele>
        <time>2011-12-03T08:00:20Z</time>
      </trkpt>
      <trkpt lat="45.80197" lon="4.72435">
        <ele>299</ele>
        <time>2011-12-03T08:00:27Z</time>
      </trkpt>
      <trkpt lat="45.80197" lon="4.72435">
        <ele>300</ele>
        <time>2011-12-03T08:00:31Z</time>
      </trkpt>
      <trkpt lat="45.80205" lon="4.72431">
        <ele>300</ele>
        <time>2011-12-03T08:00:37Z</time>
      </trkpt>
      <trkpt lat="45.80219" lon="4.72424">
        <ele>300</ele>
        <time>2011-12-03T08:00:44Z</time>
      </trkpt>
      <trkpt lat="45.80237" lon="4.72415">
        <ele>301</ele>
        <time>2011-12-03T08:00:50Z</time>
      </trkpt>
      <trkpt lat="45.80263" lon="4.72402">
        <ele>301</ele>
        <time>2011-12-03T08:00:58Z</time>
      </trkpt>
      <trkpt lat="45.80283" lon="4.72394">
        <ele>301</ele>
        <time>2011-12-03T08:01:04Z</time>
      </trkpt>
      <trkpt lat="45.80306" lon="4.72382">
        <ele>301</ele>
        <time>2011-12-03T08:01:11Z</time>
      </trkpt>
      <trkpt lat="45.80332" lon="4.72369">
        <ele>301</ele>
        <time>2011-12-03T08:01:18Z</time>
      </trkpt>
      <trkpt lat="45.80356" lon="4.72358">
        <ele>302</ele>
        <time>2011-12-03T08:01:25Z</time>
      </trkpt>
      <trkpt lat="45.80379" lon="4.72348">
        <ele>302</ele>
        <time>2011-12-03T08:01:32Z</time>
      </trkpt>
      <trkpt lat="45.80398" lon="4.72339">
        <ele>302</ele>
        <time>2011-12-03T08:01:38Z</time>
      </trkpt>
      <trkpt lat="45.80426" lon="4.72325">
        <ele>303</ele>
        <time>2011-12-03T08:01:46Z</time>
      </trkpt>
      <trkpt lat="45.80452" lon="4.72312">
        <ele>304</ele>
        <time>2011-12-03T08:01:54Z</time>
      </trkpt>
      <trkpt lat="45.80475" lon="4.72302">
        <ele>304</ele>
        <time>2011-12-03T08:02:01Z</time>
      </trkpt>
      <trkpt lat="45.80494" lon="4.72292">
        <ele>305</ele>
        <time>2011-12-03T08:02:07Z</time>
      </trkpt>
      <trkpt lat="45.80524" lon="4.72278">
        <ele>306</ele>
        <time>2011-12-03T08:02:16Z</time>
      </trkpt>
      <trkpt lat="45.80545" lon="4.72268">
        <ele>306</ele>
        <time>2011-12-03T08:02:23Z</time>
      </trkpt>
      <trkpt lat="45.80571" lon="4.72254">
        <ele>307</ele>
        <time>2011-12-03T08:02:31Z</time>
      </trkpt>
      <trkpt lat="45.80594" lon="4.72243">
        <ele>308</ele>
        <time>2011-12-03T08:02:38Z</time>
      </trkpt>
      <trkpt lat="45.8061" lon="4.72235">
        <ele>309</ele>
        <time>2011-12-03T08:02:43Z</time>
      </trkpt>
      <trkpt lat="45.80629" lon="4.72215">
        <ele>310</ele>
        <time>2011-12-03T08:02:50Z</time>
      </trkpt>
      <trkpt lat="45.80643" lon="4.72204">
        <ele>311</ele>
        <time>2011-12-03T08:02:55Z</time>
      </trkpt>
      <trkpt lat="45.80658" lon="4.72184">
        <ele>311</ele>
        <time>2011-12-03T08:03:01Z</time>
      </trkpt>
      <trkpt lat="45.80666" lon="4.72156">
        <ele>311</ele>
        <time>2011-12-03T08:03:08Z</time>
      </trkpt>
      <trkpt lat="45.80672" lon="4.72126">
        <ele>312</ele>
        <time>2011-12-03T08:03:15Z</time>
      </trkpt>
      <trkpt lat="45.80667" lon="4.72102">
        <ele>312</ele>
        <time>2011-12-03T08:03:22Z</time>
      </trkpt>
      <trkpt lat="45.80663" lon="4.72083">
        <ele>312</ele>
        <time>2011-12-03T08:03:28Z</time>
      </trkpt>
      <trkpt lat="45.80655" lon="4.72068">
        <ele>312</ele>
        <time>2011-12-03T08:03:34Z</time>
      </trkpt>
      <trkpt lat="45.80653" lon="4.72066">
        <ele>312</ele>
        <time>2011-12-03T08:03:36Z</time>
      </trkpt>
      <trkpt lat="45.80646" lon="4.72057">
        <ele>313</ele>
        <time>2011-12-03T08:03:41Z</time>
      </trkpt>
      <trkpt lat="45.80629" lon="4.72039">
        <ele>313</ele>
        <time>2011-12-03T08:03:51Z</time>
      </trkpt>
      <trkpt lat="45.80629" lon="4.72038">
        <ele>313</ele>
        <time>2011-12-03T08:03:59Z</time>
      </trkpt>
      <trkpt lat="45.80629" lon="4.72038">
        <ele>313</ele>
        <time>2011-12-03T08:04:14Z</time>
      </trkpt>
      <trkpt lat="45.80629" lon="4.72038">
        <ele>313</ele>
        <time>2011-12-03T08:04:28Z</time>
      </trkpt>
      <trkpt lat="45.80629" lon="4.72038">
        <ele>312</ele>
        <time>2011-12-03T08:04:41Z</time>
      </trkpt>
      <trkpt lat="45.80629" lon="4.72038">
        <ele>312</ele>
        <time>2011-12-03T08:04:58Z</time>
      </trkpt>
      <trkpt lat="45.80629" lon="4.72038">
        <ele>312</ele>
        <time>2011-12-03T08:05:10Z</time>
      </trkpt>
      <trkpt lat="45.80629" lon="4.72038">
        <ele>312</ele>
        <time>2011-12-03T08:05:26Z</time>
      </trkpt>
      <trkpt lat="45.80629" lon="4.72038">
        <ele>312</ele>
        <time>2011-12-03T08:05:33Z</time>
      </trkpt>
      <trkpt lat="45.80627" lon="4.7204">
        <ele>312</ele>
        <time>2011-12-03T08:05:36Z</time>
      </trkpt>
      <trkpt lat="45.80615" lon="4.72029">
        <ele>313</ele>
        <time>2011-12-03T08:05:43Z</time>
      </trkpt>
      <trkpt lat="45.80607" lon="4.72018">
        <ele>312</ele>
        <time>2011-12-03T08:05:47Z</time>
      </trkpt>
      <trkpt lat="45.80592" lon="4.7201">
        <ele>312</ele>
        <time>2011-12-03T08:05:53Z</time>
      </trkpt>
      <trkpt lat="45.80588" lon="4.72003">
        <ele>312</ele>
        <time>2011-12-03T08:05:58Z</time>
      </trkpt>
      <trkpt lat="45.80588" lon="4.72003">
        <ele>312</ele>
        <time>2011-12-03T08:06:13Z</time>
      </trkpt>
      <trkpt lat="45.80586" lon="4.71998">
        <ele>312</ele>
        <time>2011-12-03T08:06:23Z</time>
      </trkpt>
      <trkpt lat="45.80599" lon="4.71988">
        <ele>313</ele>
        <time>2011-12-03T08:06:28Z</time>
      </trkpt>
      <trkpt lat="45.80625" lon="4.71979">
        <ele>313</ele>
        <time>2011-12-03T08:06:35Z</time>
      </trkpt>
      <trkpt lat="45.80662" lon="4.7197">
        <ele>314</ele>
        <time>2011-12-03T08:06:44Z</time>
      </trkpt>
      <trkpt lat="45.8068" lon="4.71965">
        <ele>314</ele>
        <time>2011-12-03T08:06:49Z</time>
      </trkpt>
      <trkpt lat="45.80713" lon="4.71956">
        <ele>314</ele>
        <time>2011-12-03T08:06:57Z</time>
      </trkpt>
      <trkpt lat="45.80749" lon="4.71948">
        <ele>315</ele>
        <time>2011-12-03T08:07:06Z</time>
      </trkpt>
      <trkpt lat="45.80772" lon="4.71936">
        <ele>316</ele>
        <time>2011-12-03T08:07:12Z</time>
      </trkpt>
      <trkpt lat="45.80775" lon="4.71932">
        <ele>317</ele>
        <time>2011-12-03T08:07:13Z</time>
      </trkpt>
      <trkpt lat="45.80777" lon="4.71927">
        <ele>316</ele>
        <time>2011-12-03T08:07:14Z</time>
      </trkpt>
      <trkpt lat="45.8078" lon="4.71921">
        <ele>317</ele>
        <time>2011-12-03T08:07:15Z</time>
      </trkpt>
      <trkpt lat="45.80781" lon="4.71915">
        <ele>317</ele>
        <time>2011-12-03T08:07:16Z</time>
      </trkpt>
      <trkpt lat="45.80782" lon="4.71908">
        <ele>317</ele>
        <time>2011-12-03T08:07:17Z</time>
      </trkpt>
      <trkpt lat="45.80788" lon="4.71878">
        <ele>318</ele>
        <time>2011-12-03T08:07:22Z</time>
      </trkpt>
      <trkpt lat="45.80788" lon="4.71872">
        <ele>318</ele>
        <time>2011-12-03T08:07:23Z</time>
      </trkpt>
      <trkpt lat="45.80784" lon="4.71811">
        <ele>319</ele>
        <time>2011-12-03T08:07:33Z</time>
      </trkpt>
      <trkpt lat="45.80784" lon="4.71787">
        <ele>320</ele>
        <time>2011-12-03T08:07:37Z</time>
      </trkpt>
      <trkpt lat="45.80786" lon="4.71781">
        <ele>320</ele>
        <time>2011-12-03T08:07:38Z</time>
      </trkpt>
      <trkpt lat="45.80788" lon="4.71776">
        <ele>321</ele>
        <time>2011-12-03T08:07:39Z</time>
      </trkpt>
      <trkpt lat="45.8079" lon="4.71771">
        <ele>321</ele>
        <time>2011-12-03T08:07:40Z</time>
      </trkpt>
      <trkpt lat="45.80793" lon="4.71766">
        <ele>321</ele>
        <time>2011-12-03T08:07:41Z</time>
      </trkpt>
      <trkpt lat="45.80802" lon="4.71751">
        <ele>322</ele>
        <time>2011-12-03T08:07:44Z</time>
      </trkpt>
      <trkpt lat="45.80818" lon="4.71714">
        <ele>324</ele>
        <time>2011-12-03T08:07:52Z</time>
      </trkpt>
      <trkpt lat="45.80832" lon="4.7168">
        <ele>325</ele>
        <time>2011-12-03T08:08:00Z</time>
      </trkpt>
      <trkpt lat="45.80853" lon="4.71654">
        <ele>326</ele>
        <time>2011-12-03T08:08:08Z</time>
      </trkpt>
      <trkpt lat="45.80871" lon="4.71639">
        <ele>328</ele>
        <time>2011-12-03T08:08:14Z</time>
      </trkpt>
      <trkpt lat="45.80895" lon="4.71619">
        <ele>329</ele>
        <time>2011-12-03T08:08:22Z</time>
      </trkpt>
      <trkpt lat="45.80913" lon="4.71607">
        <ele>331</ele>
        <time>2011-12-03T08:08:28Z</time>
      </trkpt>
      <trkpt lat="45.80938" lon="4.71592">
        <ele>332</ele>
        <time>2011-12-03T08:08:36Z</time>
      </trkpt>
      <trkpt lat="45.80966" lon="4.71586">
        <ele>334</ele>
        <time>2011-12-03T08:08:45Z</time>
      </trkpt>
      <trkpt lat="45.80989" lon="4.71584">
        <ele>336</ele>
        <time>2011-12-03T08:08:53Z</time>
      </trkpt>
      <trkpt lat="45.81006" lon="4.71575">
        <ele>337</ele>
        <time>2011-12-03T08:09:00Z</time>
      </trkpt>
      <trkpt lat="45.81022" lon="4.71561">
        <ele>338</ele>
        <time>2011-12-03T08:09:07Z</time>
      </trkpt>
      <trkpt lat="45.81049" lon="4.7154">
        <ele>341</ele>
        <time>2011-12-03T08:09:19Z</time>
      </trkpt>
      <trkpt lat="45.81065" lon="4.71527">
        <ele>342</ele>
        <time>2011-12-03T08:09:26Z</time>
      </trkpt>
      <trkpt lat="45.81084" lon="4.71511">
        <ele>344</ele>
        <time>2011-12-03T08:09:34Z</time>
      </trkpt>
      <trkpt lat="45.81104" lon="4.71492">
        <ele>346</ele>
        <time>2011-12-03T08:09:43Z</time>
      </trkpt>
      <trkpt lat="45.81118" lon="4.71471">
        <ele>347</ele>
        <time>2011-12-03T08:09:51Z</time>
      </trkpt>
      <trkpt lat="45.81119" lon="4.71467">
        <ele>347</ele>
        <time>2011-12-03T08:09:52Z</time>
      </trkpt>
      <trkpt lat="45.81118" lon="4.71463">
        <ele>347</ele>
        <time>2011-12-03T08:09:53Z</time>
      </trkpt>
      <trkpt lat="45.81117" lon="4.71458">
        <ele>347</ele>
        <time>2011-12-03T08:09:54Z</time>
      </trkpt>
      <trkpt lat="45.81115" lon="4.71453">
        <ele>347</ele>
        <time>2011-12-03T08:09:55Z</time>
      </trkpt>
      <trkpt lat="45.81112" lon="4.71446">
        <ele>347</ele>
        <time>2011-12-03T08:09:56Z</time>
      </trkpt>
      <trkpt lat="45.81091" lon="4.71397">
        <ele>345</ele>
        <time>2011-12-03T08:10:03Z</time>
      </trkpt>
      <trkpt lat="45.81074" lon="4.71364">
        <ele>344</ele>
        <time>2011-12-03T08:10:07Z</time>
      </trkpt>
      <trkpt lat="45.81066" lon="4.71347">
        <ele>343</ele>
        <time>2011-12-03T08:10:09Z</time>
      </trkpt>
      <trkpt lat="45.81056" lon="4.71334">
        <ele>342</ele>
        <time>2011-12-03T08:10:11Z</time>
      </trkpt>
      <trkpt lat="45.81037" lon="4.7131">
        <ele>342</ele>
        <time>2011-12-03T08:10:15Z</time>
      </trkpt>
      <trkpt lat="45.81032" lon="4.71304">
        <ele>342</ele>
        <time>2011-12-03T08:10:16Z</time>
      </trkpt>
      <trkpt lat="45.81028" lon="4.71298">
        <ele>341</ele>
        <time>2011-12-03T08:10:17Z</time>
      </trkpt>
      <trkpt lat="45.81024" lon="4.71292">
        <ele>341</ele>
        <time>2011-12-03T08:10:18Z</time>
      </trkpt>
      <trkpt lat="45.81019" lon="4.71286">
        <ele>341</ele>
        <time>2011-12-03T08:10:19Z</time>
      </trkpt>
      <trkpt lat="45.81015" lon="4.7128">
        <ele>341</ele>
        <time>2011-12-03T08:10:20Z</time>
      </trkpt>
      <trkpt lat="45.81012" lon="4.71274">
        <ele>340</ele>
        <time>2011-12-03T08:10:21Z</time>
      </trkpt>
      <trkpt lat="45.81009" lon="4.71267">
        <ele>341</ele>
        <time>2011-12-03T08:10:22Z</time>
      </trkpt>
      <trkpt lat="45.81006" lon="4.71261">
        <ele>341</ele>
        <time>2011-12-03T08:10:23Z</time>
      </trkpt>
      <trkpt lat="45.8099" lon="4.71226">
        <ele>341</ele>
        <time>2011-12-03T08:10:29Z</time>
      </trkpt>
      <trkpt lat="45.80986" lon="4.71222">
        <ele>341</ele>
        <time>2011-12-03T08:10:30Z</time>
      </trkpt>
      <trkpt lat="45.80983" lon="4.71217">
        <ele>341</ele>
        <time>2011-12-03T08:10:31Z</time>
      </trkpt>
      <trkpt lat="45.80961" lon="4.71167">
        <ele>341</ele>
        <time>2011-12-03T08:10:39Z</time>
      </trkpt>
      <trkpt lat="45.8094" lon="4.71109">
        <ele>340</ele>
        <time>2011-12-03T08:10:47Z</time>
      </trkpt>
      <trkpt lat="45.80938" lon="4.71102">
        <ele>340</ele>
        <time>2011-12-03T08:10:48Z</time>
      </trkpt>
      <trkpt lat="45.80923" lon="4.71047">
        <ele>338</ele>
        <time>2011-12-03T08:10:55Z</time>
      </trkpt>
      <trkpt lat="45.80911" lon="4.70992">
        <ele>337</ele>
        <time>2011-12-03T08:11:01Z</time>
      </trkpt>
      <trkpt lat="45.80907" lon="4.70961">
        <ele>336</ele>
        <time>2011-12-03T08:11:04Z</time>
      </trkpt>
      <trkpt lat="45.80907" lon="4.7095">
        <ele>335</ele>
        <time>2011-12-03T08:11:05Z</time>
      </trkpt>
      <trkpt lat="45.80908" lon="4.70939">
        <ele>335</ele>
        <time>2011-12-03T08:11:06Z</time>
      </trkpt>
      <trkpt lat="45.80909" lon="4.70928">
        <ele>335</ele>
        <time>2011-12-03T08:11:07Z</time>
      </trkpt>
      <trkpt lat="45.80911" lon="4.70917">
        <ele>334</ele>
        <time>2011-12-03T08:11:08Z</time>
      </trkpt>
      <trkpt lat="45.8092" lon="4.70876">
        <ele>333</ele>
        <time>2011-12-03T08:11:12Z</time>
      </trkpt>
      <trkpt lat="45.80923" lon="4.70867">
        <ele>332</ele>
        <time>2011-12-03T08:11:13Z</time>
      </trkpt>
      <trkpt lat="45.80927" lon="4.7086">
        <ele>332</ele>
        <time>2011-12-03T08:11:14Z</time>
      </trkpt>
      <trkpt lat="45.80932" lon="4.70854">
        <ele>331</ele>
        <time>2011-12-03T08:11:15Z</time>
      </trkpt>
      <trkpt lat="45.80934" lon="4.70846">
        <ele>331</ele>
        <time>2011-12-03T08:11:16Z</time>
      </trkpt>
      <trkpt lat="45.80935" lon="4.70837">
        <ele>330</ele>
        <time>2011-12-03T08:11:17Z</time>
      </trkpt>
      <trkpt lat="45.80935" lon="4.70827">
        <ele>330</ele>
        <time>2011-12-03T08:11:18Z</time>
      </trkpt>
      <trkpt lat="45.80935" lon="4.70816">
        <ele>329</ele>
        <time>2011-12-03T08:11:19Z</time>
      </trkpt>
      <trkpt lat="45.80934" lon="4.70805">
        <ele>329</ele>
        <time>2011-12-03T08:11:20Z</time>
      </trkpt>
      <trkpt lat="45.80928" lon="4.70758">
        <ele>327</ele>
        <time>2011-12-03T08:11:24Z</time>
      </trkpt>
      <trkpt lat="45.80916" lon="4.70714">
        <ele>326</ele>
        <time>2011-12-03T08:11:28Z</time>
      </trkpt>
      <trkpt lat="45.80902" lon="4.70684">
        <ele>324</ele>
        <time>2011-12-03T08:11:31Z</time>
      </trkpt>
      <trkpt lat="45.80882" lon="4.70646">
        <ele>322</ele>
        <time>2011-12-03T08:11:35Z</time>
      </trkpt>
      <trkpt lat="45.80878" lon="4.70635">
        <ele>321</ele>
        <time>2011-12-03T08:11:36Z</time>
      </trkpt>
      <trkpt lat="45.80876" lon="4.70622">
        <ele>320</ele>
        <time>2011-12-03T08:11:37Z</time>
      </trkpt>
      <trkpt lat="45.80876" lon="4.70608">
        <ele>319</ele>
        <time>2011-12-03T08:11:38Z</time>
      </trkpt>
      <trkpt lat="45.80876" lon="4.70595">
        <ele>319</ele>
        <time>2011-12-03T08:11:39Z</time>
      </trkpt>
      <trkpt lat="45.80877" lon="4.70553">
        <ele>315</ele>
        <time>2011-12-03T08:11:42Z</time>
      </trkpt>
      <trkpt lat="45.80877" lon="4.70512">
        <ele>312</ele>
        <time>2011-12-03T08:11:45Z</time>
      </trkpt>
      <trkpt lat="45.80878" lon="4.70472">
        <ele>307</ele>
        <time>2011-12-03T08:11:48Z</time>
      </trkpt>
      <trkpt lat="45.80878" lon="4.7046">
        <ele>305</ele>
        <time>2011-12-03T08:11:49Z</time>
      </trkpt>
      <trkpt lat="45.80877" lon="4.70448">
        <ele>304</ele>
        <time>2011-12-03T08:11:50Z</time>
      </trkpt>
      <trkpt lat="45.80874" lon="4.70437">
        <ele>303</ele>
        <time>2011-12-03T08:11:51Z</time>
      </trkpt>
      <trkpt lat="45.80869" lon="4.70426">
        <ele>301</ele>
        <time>2011-12-03T08:11:52Z</time>
      </trkpt>
      <trkpt lat="45.80862" lon="4.70416">
        <ele>300</ele>
        <time>2011-12-03T08:11:53Z</time>
      </trkpt>
      <trkpt lat="45.80854" lon="4.70407">
        <ele>299</ele>
        <time>2011-12-03T08:11:54Z</time>
      </trkpt>
      <trkpt lat="45.80845" lon="4.70399">
        <ele>298</ele>
        <time>2011-12-03T08:11:55Z</time>
      </trkpt>
      <trkpt lat="45.80836" lon="4.70393">
        <ele>297</ele>
        <time>2011-12-03T08:11:56Z</time>
      </trkpt>
      <trkpt lat="45.80828" lon="4.70389">
        <ele>295</ele>
        <time>2011-12-03T08:11:57Z</time>
      </trkpt>
      <trkpt lat="45.8082" lon="4.70387">
        <ele>294</ele>
        <time>2011-12-03T08:11:58Z</time>
      </trkpt>
      <trkpt lat="45.80803" lon="4.70381">
        <ele>291</ele>
        <time>2011-12-03T08:12:01Z</time>
      </trkpt>
      <trkpt lat="45.80799" lon="4.70377">
        <ele>290</ele>
        <time>2011-12-03T08:12:02Z</time>
      </trkpt>
      <trkpt lat="45.80799" lon="4.70369">
        <ele>290</ele>
        <time>2011-12-03T08:12:03Z</time>
      </trkpt>
      <trkpt lat="45.80802" lon="4.70361">
        <ele>288</ele>
        <time>2011-12-03T08:12:04Z</time>
      </trkpt>
      <trkpt lat="45.80807" lon="4.70354">
        <ele>287</ele>
        <time>2011-12-03T08:12:05Z</time>
      </trkpt>
      <trkpt lat="45.80812" lon="4.70349">
        <ele>286</ele>
        <time>2011-12-03T08:12:06Z</time>
      </trkpt>
      <trkpt lat="45.80816" lon="4.70345">
        <ele>286</ele>
        <time>2011-12-03T08:12:07Z</time>
      </trkpt>
      <trkpt lat="45.80818" lon="4.7034">
        <ele>285</ele>
        <time>2011-12-03T08:12:08Z</time>
      </trkpt>
      <trkpt lat="45.8082" lon="4.70334">
        <ele>284</ele>
        <time>2011-12-03T08:12:09Z</time>
      </trkpt>
      <trkpt lat="45.8082" lon="4.70328">
        <ele>284</ele>
        <time>2011-12-03T08:12:10Z</time>
      </trkpt>
      <trkpt lat="45.80817" lon="4.70322">
        <ele>284</ele>
        <time>2011-12-03T08:12:11Z</time>
      </trkpt>
      <trkpt lat="45.80814" lon="4.70317">
        <ele>283</ele>
        <time>2011-12-03T08:12:12Z</time>
      </trkpt>
      <trkpt lat="45.80811" lon="4.70313">
        <ele>283</ele>
        <time>2011-12-03T08:12:13Z</time>
      </trkpt>
      <trkpt lat="45.80804" lon="4.70305">
        <ele>283</ele>
        <time>2011-12-03T08:12:15Z</time>
      </trkpt>
      <trkpt lat="45.80801" lon="4.70299">
        <ele>282</ele>
        <time>2011-12-03T08:12:16Z</time>
      </trkpt>
      <trkpt lat="45.80801" lon="4.70293">
        <ele>282</ele>
        <time>2011-12-03T08:12:17Z</time>
      </trkpt>
      <trkpt lat="45.80801" lon="4.70286">
        <ele>282</ele>
        <time>2011-12-03T08:12:18Z</time>
      </trkpt>
      <trkpt lat="45.80802" lon="4.70279">
        <ele>282</ele>
        <time>2011-12-03T08:12:19Z</time>
      </trkpt>
      <trkpt lat="45.80807" lon="4.70249">
        <ele>282</ele>
        <time>2011-12-03T08:12:24Z</time>
      </trkpt>
      <trkpt lat="45.80808" lon="4.70243">
        <ele>282</ele>
        <time>2011-12-03T08:12:25Z</time>
      </trkpt>
      <trkpt lat="45.80812" lon="4.70213">
        <ele>281</ele>
        <time>2011-12-03T08:12:31Z</time>
      </trkpt>
      <trkpt lat="45.80813" lon="4.70197">
        <ele>281</ele>
        <time>2011-12-03T08:12:34Z</time>
      </trkpt>
      <trkpt lat="45.80812" lon="4.70184">
        <ele>281</ele>
        <time>2011-12-03T08:12:36Z</time>
      </trkpt>
      <trkpt lat="45.80811" lon="4.70171">
        <ele>280</ele>
        <time>2011-12-03T08:12:38Z</time>
      </trkpt>
      <trkpt lat="45.8081" lon="4.70164">
        <ele>280</ele>
        <time>2011-12-03T08:12:39Z</time>
      </trkpt>
      <trkpt lat="45.8081" lon="4.70158">
        <ele>280</ele>
        <time>2011-12-03T08:12:40Z</time>
      </trkpt>
      <trkpt lat="45.80809" lon="4.70145">
        <ele>280</ele>
        <time>2011-12-03T08:12:42Z</time>
      </trkpt>
      <trkpt lat="45.80809" lon="4.70138">
        <ele>279</ele>
        <time>2011-12-03T08:12:43Z</time>
      </trkpt>
      <trkpt lat="45.8081" lon="4.70132">
        <ele>280</ele>
        <time>2011-12-03T08:12:44Z</time>
      </trkpt>
      <trkpt lat="45.8081" lon="4.70126">
        <ele>280</ele>
        <time>2011-12-03T08:12:45Z</time>
      </trkpt>
      <trkpt lat="45.80811" lon="4.70121">
        <ele>280</ele>
        <time>2011-12-03T08:12:46Z</time>
      </trkpt>
      <trkpt lat="45.80814" lon="4.70104">
        <ele>280</ele>
        <time>2011-12-03T08:12:50Z</time>
      </trkpt>
      <trkpt lat="45.80813" lon="4.701">
        <ele>281</ele>
        <time>2011-12-03T08:12:51Z</time>
      </trkpt>
      <trkpt lat="45.80812" lon="4.70097">
        <ele>281</ele>
        <time>2011-12-03T08:12:52Z</time>
      </trkpt>
      <trkpt lat="45.8081" lon="4.70095">
        <ele>281</ele>
        <time>2011-12-03T08:12:53Z</time>
      </trkpt>
      <trkpt lat="45.80809" lon="4.70093">
        <ele>281</ele>
        <time>2011-12-03T08:12:54Z</time>
      </trkpt>
      <trkpt lat="45.80806" lon="4.70091">
        <ele>281</ele>
        <time>2011-12-03T08:12:55Z</time>
      </trkpt>
      <trkpt lat="45.80804" lon="4.7009">
        <ele>281</ele>
        <time>2011-12-03T08:12:56Z</time>
      </trkpt>
      <trkpt lat="45.80794" lon="4.70095">
        <ele>280</ele>
        <time>2011-12-03T08:13:00Z</time>
      </trkpt>
      <trkpt lat="45.80791" lon="4.70108">
        <ele>279</ele>
        <time>2011-12-03T08:13:03Z</time>
      </trkpt>
      <trkpt lat="45.80785" lon="4.70126">
        <ele>279</ele>
        <time>2011-12-03T08:13:07Z</time>
      </trkpt>
      <trkpt lat="45.80776" lon="4.70143">
        <ele>279</ele>
        <time>2011-12-03T08:13:13Z</time>
      </trkpt>
      <trkpt lat="45.80775" lon="4.70169">
        <ele>279</ele>
        <time>2011-12-03T08:13:19Z</time>
      </trkpt>
      <trkpt lat="45.80769" lon="4.70191">
        <ele>278</ele>
        <time>2011-12-03T08:13:24Z</time>
      </trkpt>
      <trkpt lat="45.80759" lon="4.70211">
        <ele>278</ele>
        <time>2011-12-03T08:13:29Z</time>
      </trkpt>
      <trkpt lat="45.80747" lon="4.70229">
        <ele>278</ele>
        <time>2011-12-03T08:13:35Z</time>
      </trkpt>
      <trkpt lat="45.80744" lon="4.70231">
        <ele>278</ele>
        <time>2011-12-03T08:13:36Z</time>
      </trkpt>
      <trkpt lat="45.80731" lon="4.70235">
        <ele>278</ele>
        <time>2011-12-03T08:13:42Z</time>
      </trkpt>
      <trkpt lat="45.80724" lon="4.70242">
        <ele>280</ele>
        <time>2011-12-03T08:13:46Z</time>
      </trkpt>
      <trkpt lat="45.80712" lon="4.70259">
        <ele>280</ele>
        <time>2011-12-03T08:13:52Z</time>
      </trkpt>
      <trkpt lat="45.80711" lon="4.70264">
        <ele>282</ele>
        <time>2011-12-03T08:13:54Z</time>
      </trkpt>
      <trkpt lat="45.8071" lon="4.70276">
        <ele>280</ele>
        <time>2011-12-03T08:13:58Z</time>
      </trkpt>
      <trkpt lat="45.80712" lon="4.70286">
        <ele>279</ele>
        <time>2011-12-03T08:14:01Z</time>
      </trkpt>
      <trkpt lat="45.80712" lon="4.70303">
        <ele>278</ele>
        <time>2011-12-03T08:14:06Z</time>
      </trkpt>
      <trkpt lat="45.80711" lon="4.70306">
        <ele>278</ele>
        <time>2011-12-03T08:14:07Z</time>
      </trkpt>
      <trkpt lat="45.80704" lon="4.70314">
        <ele>280</ele>
        <time>2011-12-03T08:14:11Z</time>
      </trkpt>
      <trkpt lat="45.80691" lon="4.70326">
        <ele>282</ele>
        <time>2011-12-03T08:14:19Z</time>
      </trkpt>
      <trkpt lat="45.80682" lon="4.70337">
        <ele>283</ele>
        <time>2011-12-03T08:14:25Z</time>
      </trkpt>
      <trkpt lat="45.80673" lon="4.7035">
        <ele>283</ele>
        <time>2011-12-03T08:14:32Z</time>
      </trkpt>
      <trkpt lat="45.80669" lon="4.70354">
        <ele>284</ele>
        <time>2011-12-03T08:14:35Z</time>
      </trkpt>
      <trkpt lat="45.80656" lon="4.70366">
        <ele>286</ele>
        <time>2011-12-03T08:14:42Z</time>
      </trkpt>
      <trkpt lat="45.80649" lon="4.70375">
        <ele>287</ele>
        <time>2011-12-03T08:14:47Z</time>
      </trkpt>
      <trkpt lat="45.80642" lon="4.70386">
        <ele>287</ele>
        <time>2011-12-03T08:14:52Z</time>
      </trkpt>
      <trkpt lat="45.8064" lon="4.70395">
        <ele>288</ele>
        <time>2011-12-03T08:14:56Z</time>
      </trkpt>
      <trkpt lat="45.80638" lon="4.70402">
        <ele>288</ele>
        <time>2011-12-03T08:14:59Z</time>
      </trkpt>
      <trkpt lat="45.80631" lon="4.70408">
        <ele>289</ele>
        <time>2011-12-03T08:15:04Z</time>
      </trkpt>
      <trkpt lat="45.8062" lon="4.70416">
        <ele>289</ele>
        <time>2011-12-03T08:15:11Z</time>
      </trkpt>
      <trkpt lat="45.80619" lon="4.70417">
        <ele>289</ele>
        <time>2011-12-03T08:15:12Z</time>
      </trkpt>
      <trkpt lat="45.80616" lon="4.70426">
        <ele>289</ele>
        <time>2011-12-03T08:15:16Z</time>
      </trkpt>
      <trkpt lat="45.80611" lon="4.70448">
        <ele>289</ele>
        <time>2011-12-03T08:15:22Z</time>
      </trkpt>
      <trkpt lat="45.8061" lon="4.70456">
        <ele>288</ele>
        <time>2011-12-03T08:15:26Z</time>
      </trkpt>
      <trkpt lat="45.80619" lon="4.7047">
        <ele>288</ele>
        <time>2011-12-03T08:15:31Z</time>
      </trkpt>
      <trkpt lat="45.80617" lon="4.70487">
        <ele>288</ele>
        <time>2011-12-03T08:15:37Z</time>
      </trkpt>
      <trkpt lat="45.80615" lon="4.70489">
        <ele>287</ele>
        <time>2011-12-03T08:15:38Z</time>
      </trkpt>
      <trkpt lat="45.80615" lon="4.70502">
        <ele>287</ele>
        <time>2011-12-03T08:15:43Z</time>
      </trkpt>
      <trkpt lat="45.80614" lon="4.70523">
        <ele>285</ele>
        <time>2011-12-03T08:15:47Z</time>
      </trkpt>
      <trkpt lat="45.80614" lon="4.70546">
        <ele>282</ele>
        <time>2011-12-03T08:15:51Z</time>
      </trkpt>
      <trkpt lat="45.80614" lon="4.70568">
        <ele>280</ele>
        <time>2011-12-03T08:15:55Z</time>
      </trkpt>
      <trkpt lat="45.80614" lon="4.70576">
        <ele>278</ele>
        <time>2011-12-03T08:15:56Z</time>
      </trkpt>
      <trkpt lat="45.80613" lon="4.70585">
        <ele>277</ele>
        <time>2011-12-03T08:15:57Z</time>
      </trkpt>
      <trkpt lat="45.80611" lon="4.70593">
        <ele>277</ele>
        <time>2011-12-03T08:15:58Z</time>
      </trkpt>
      <trkpt lat="45.80611" lon="4.70601">
        <ele>276</ele>
        <time>2011-12-03T08:15:59Z</time>
      </trkpt>
      <trkpt lat="45.80611" lon="4.70609">
        <ele>275</ele>
        <time>2011-12-03T08:16:00Z</time>
      </trkpt>
      <trkpt lat="45.80612" lon="4.70615">
        <ele>276</ele>
        <time>2011-12-03T08:16:01Z</time>
      </trkpt>
      <trkpt lat="45.80617" lon="4.70639">
        <ele>274</ele>
        <time>2011-12-03T08:16:05Z</time>
      </trkpt>
      <trkpt lat="45.80616" lon="4.70644">
        <ele>274</ele>
        <time>2011-12-03T08:16:06Z</time>
      </trkpt>
      <trkpt lat="45.80614" lon="4.70647">
        <ele>274</ele>
        <time>2011-12-03T08:16:07Z</time>
      </trkpt>
      <trkpt lat="45.80613" lon="4.70648">
        <ele>274</ele>
        <time>2011-12-03T08:16:08Z</time>
      </trkpt>
      <trkpt lat="45.80608" lon="4.7065">
        <ele>274</ele>
        <time>2011-12-03T08:16:10Z</time>
      </trkpt>
      <trkpt lat="45.80602" lon="4.70656">
        <ele>274</ele>
        <time>2011-12-03T08:16:13Z</time>
      </trkpt>
      <trkpt lat="45.80587" lon="4.70672">
        <ele>276</ele>
        <time>2011-12-03T08:16:20Z</time>
      </trkpt>
      <trkpt lat="45.80584" lon="4.70676">
        <ele>275</ele>
        <time>2011-12-03T08:16:22Z</time>
      </trkpt>
      <trkpt lat="45.80568" lon="4.70689">
        <ele>275</ele>
        <time>2011-12-03T08:16:29Z</time>
      </trkpt>
      <trkpt lat="45.80559" lon="4.70694">
        <ele>275</ele>
        <time>2011-12-03T08:16:34Z</time>
      </trkpt>
      <trkpt lat="45.80553" lon="4.70704">
        <ele>272</ele>
        <time>2011-12-03T08:16:39Z</time>
      </trkpt>
      <trkpt lat="45.8055" lon="4.70707">
        <ele>272</ele>
        <time>2011-12-03T08:16:43Z</time>
      </trkpt>
      <trkpt lat="45.80542" lon="4.70721">
        <ele>271</ele>
        <time>2011-12-03T08:16:48Z</time>
      </trkpt>
      <trkpt lat="45.80527" lon="4.70734">
        <ele>271</ele>
        <time>2011-12-03T08:16:54Z</time>
      </trkpt>
      <trkpt lat="45.80518" lon="4.70747">
        <ele>270</ele>
        <time>2011-12-03T08:16:58Z</time>
      </trkpt>
      <trkpt lat="45.80502" lon="4.70758">
        <ele>270</ele>
        <time>2011-12-03T08:17:03Z</time>
      </trkpt>
      <trkpt lat="45.80486" lon="4.70779">
        <ele>269</ele>
        <time>2011-12-03T08:17:10Z</time>
      </trkpt>
      <trkpt lat="45.80472" lon="4.70789">
        <ele>269</ele>
        <time>2011-12-03T08:17:15Z</time>
      </trkpt>
      <trkpt lat="45.80456" lon="4.70802">
        <ele>268</ele>
        <time>2011-12-03T08:17:19Z</time>
      </trkpt>
      <trkpt lat="45.80439" lon="4.70812">
        <ele>269</ele>
        <time>2011-12-03T08:17:24Z</time>
      </trkpt>
      <trkpt lat="45.80429" lon="4.70814">
        <ele>271</ele>
        <time>2011-12-03T08:17:31Z</time>
      </trkpt>
      <trkpt lat="45.80429" lon="4.70814">
        <ele>270</ele>
        <time>2011-12-03T08:17:41Z</time>
      </trkpt>
      <trkpt lat="45.80429" lon="4.70814">
        <ele>270</ele>
        <time>2011-12-03T08:17:54Z</time>
      </trkpt>
      <trkpt lat="45.80427" lon="4.70815">
        <ele>271</ele>
        <time>2011-12-03T08:18:07Z</time>
      </trkpt>
      <trkpt lat="45.80423" lon="4.70819">
        <ele>271</ele>
        <time>2011-12-03T08:18:15Z</time>
      </trkpt>
      <trkpt lat="45.80423" lon="4.70819">
        <ele>272</ele>
        <time>2011-12-03T08:18:24Z</time>
      </trkpt>
      <trkpt lat="45.80423" lon="4.70819">
        <ele>272</ele>
        <time>2011-12-03T08:18:39Z</time>
      </trkpt>
      <trkpt lat="45.80423" lon="4.70818">
        <ele>272</ele>
        <time>2011-12-03T08:18:53Z</time>
      </trkpt>
      <trkpt lat="45.80423" lon="4.70818">
        <ele>273</ele>
        <time>2011-12-03T08:19:00Z</time>
      </trkpt>
      <trkpt lat="45.80415" lon="4.70824">
        <ele>273</ele>
        <time>2011-12-03T08:19:05Z</time>
      </trkpt>
      <trkpt lat="45.80404" lon="4.70836">
        <ele>276</ele>
        <time>2011-12-03T08:19:13Z</time>
      </trkpt>
      <trkpt lat="45.80394" lon="4.70842">
        <ele>277</ele>
        <time>2011-12-03T08:19:18Z</time>
      </trkpt>
      <trkpt lat="45.80378" lon="4.70861">
        <ele>278</ele>
        <time>2011-12-03T08:19:26Z</time>
      </trkpt>
      <trkpt lat="45.80361" lon="4.70883">
        <ele>278</ele>
        <time>2011-12-03T08:19:33Z</time>
      </trkpt>
      <trkpt lat="45.8035" lon="4.70901">
        <ele>279</ele>
        <time>2011-12-03T08:19:39Z</time>
      </trkpt>
      <trkpt lat="45.80332" lon="4.70918">
        <ele>281</ele>
        <time>2011-12-03T08:19:46Z</time>
      </trkpt>
      <trkpt lat="45.80319" lon="4.70927">
        <ele>282</ele>
        <time>2011-12-03T08:19:52Z</time>
      </trkpt>
      <trkpt lat="45.80309" lon="4.70937">
        <ele>283</ele>
        <time>2011-12-03T08:19:57Z</time>
      </trkpt>
      <trkpt lat="45.80295" lon="4.70951">
        <ele>285</ele>
        <time>2011-12-03T08:20:04Z</time>
      </trkpt>
      <trkpt lat="45.80279" lon="4.7096">
        <ele>286</ele>
        <time>2011-12-03T08:20:11Z</time>
      </trkpt>
      <trkpt lat="45.8026" lon="4.70958">
        <ele>287</ele>
        <time>2011-12-03T08:20:19Z</time>
      </trkpt>
      <trkpt lat="45.80239" lon="4.70954">
        <ele>289</ele>
        <time>2011-12-03T08:20:26Z</time>
      </trkpt>
      <trkpt lat="45.80217" lon="4.70948">
        <ele>290</ele>
        <time>2011-12-03T08:20:34Z</time>
      </trkpt>
      <trkpt lat="45.80198" lon="4.70946">
        <ele>292</ele>
        <time>2011-12-03T08:20:43Z</time>
      </trkpt>
      <trkpt lat="45.80177" lon="4.70945">
        <ele>294</ele>
        <time>2011-12-03T08:20:51Z</time>
      </trkpt>
      <trkpt lat="45.80153" lon="4.70943">
        <ele>295</ele>
        <time>2011-12-03T08:21:00Z</time>
      </trkpt>
      <trkpt lat="45.8013" lon="4.70939">
        <ele>297</ele>
        <time>2011-12-03T08:21:09Z</time>
      </trkpt>
      <trkpt lat="45.80117" lon="4.70937">
        <ele>298</ele>
        <time>2011-12-03T08:21:15Z</time>
      </trkpt>
      <trkpt lat="45.80102" lon="4.70936">
        <ele>299</ele>
        <time>2011-12-03T08:21:22Z</time>
      </trkpt>
      <trkpt lat="45.80087" lon="4.70933">
        <ele>300</ele>
        <time>2011-12-03T08:21:28Z</time>
      </trkpt>
      <trkpt lat="45.80069" lon="4.70931">
        <ele>301</ele>
        <time>2011-12-03T08:21:35Z</time>
      </trkpt>
      <trkpt lat="45.80061" lon="4.7093">
        <ele>302</ele>
        <time>2011-12-03T08:21:38Z</time>
      </trkpt>
      <trkpt lat="45.80061" lon="4.70919">
        <ele>302</ele>
        <time>2011-12-03T08:21:42Z</time>
      </trkpt>
      <trkpt lat="45.80076" lon="4.70892">
        <ele>303</ele>
        <time>2011-12-03T08:21:50Z</time>
      </trkpt>
      <trkpt lat="45.80085" lon="4.70859">
        <ele>304</ele>
        <time>2011-12-03T08:21:57Z</time>
      </trkpt>
      <trkpt lat="45.80092" lon="4.70814">
        <ele>304</ele>
        <time>2011-12-03T08:22:06Z</time>
      </trkpt>
      <trkpt lat="45.80099" lon="4.70764">
        <ele>305</ele>
        <time>2011-12-03T08:22:15Z</time>
      </trkpt>
      <trkpt lat="45.80099" lon="4.70758">
        <ele>305</ele>
        <time>2011-12-03T08:22:16Z</time>
      </trkpt>
      <trkpt lat="45.80094" lon="4.70714">
        <ele>305</ele>
        <time>2011-12-03T08:22:24Z</time>
      </trkpt>
      <trkpt lat="45.80088" lon="4.70688">
        <ele>304</ele>
        <time>2011-12-03T08:22:31Z</time>
      </trkpt>
      <trkpt lat="45.80082" lon="4.70675">
        <ele>305</ele>
        <time>2011-12-03T08:22:37Z</time>
      </trkpt>
      <trkpt lat="45.80078" lon="4.70661">
        <ele>305</ele>
        <time>2011-12-03T08:22:42Z</time>
      </trkpt>
      <trkpt lat="45.80076" lon="4.70653">
        <ele>305</ele>
        <time>2011-12-03T08:22:44Z</time>
      </trkpt>
      <trkpt lat="45.80076" lon="4.70649">
        <ele>305</ele>
        <time>2011-12-03T08:22:45Z</time>
      </trkpt>
      <trkpt lat="45.80077" lon="4.70645">
        <ele>305</ele>
        <time>2011-12-03T08:22:46Z</time>
      </trkpt>
      <trkpt lat="45.80079" lon="4.7064">
        <ele>305</ele>
        <time>2011-12-03T08:22:47Z</time>
      </trkpt>
      <trkpt lat="45.80081" lon="4.70635">
        <ele>305</ele>
        <time>2011-12-03T08:22:48Z</time>
      </trkpt>
      <trkpt lat="45.80083" lon="4.70631">
        <ele>305</ele>
        <time>2011-12-03T08:22:49Z</time>
      </trkpt>
      <trkpt lat="45.80085" lon="4.70626">
        <ele>305</ele>
        <time>2011-12-03T08:22:50Z</time>
      </trkpt>
      <trkpt lat="45.80087" lon="4.70621">
        <ele>305</ele>
        <time>2011-12-03T08:22:51Z</time>
      </trkpt>
      <trkpt lat="45.80089" lon="4.70615">
        <ele>305</ele>
        <time>2011-12-03T08:22:52Z</time>
      </trkpt>
      <trkpt lat="45.80091" lon="4.70609">
        <ele>305</ele>
        <time>2011-12-03T08:22:53Z</time>
      </trkpt>
      <trkpt lat="45.80093" lon="4.70604">
        <ele>305</ele>
        <time>2011-12-03T08:22:54Z</time>
      </trkpt>
      <trkpt lat="45.80109" lon="4.70562">
        <ele>305</ele>
        <time>2011-12-03T08:23:02Z</time>
      </trkpt>
      <trkpt lat="45.80126" lon="4.70517">
        <ele>306</ele>
        <time>2011-12-03T08:23:11Z</time>
      </trkpt>
      <trkpt lat="45.80141" lon="4.70496">
        <ele>306</ele>
        <time>2011-12-03T08:23:17Z</time>
      </trkpt>
      <trkpt lat="45.80151" lon="4.70473">
        <ele>307</ele>
        <time>2011-12-03T08:23:23Z</time>
      </trkpt>
      <trkpt lat="45.80161" lon="4.70459">
        <ele>307</ele>
        <time>2011-12-03T08:23:29Z</time>
      </trkpt>
      <trkpt lat="45.80171" lon="4.70439">
        <ele>307</ele>
        <time>2011-12-03T08:23:36Z</time>
      </trkpt>
      <trkpt lat="45.80183" lon="4.70426">
        <ele>306</ele>
        <time>2011-12-03T08:23:41Z</time>
      </trkpt>
      <trkpt lat="45.80192" lon="4.70421">
        <ele>307</ele>
        <time>2011-12-03T08:23:46Z</time>
      </trkpt>
      <trkpt lat="45.80194" lon="4.70421">
        <ele>307</ele>
        <time>2011-12-03T08:23:47Z</time>
      </trkpt>
      <trkpt lat="45.80196" lon="4.7042">
        <ele>307</ele>
        <time>2011-12-03T08:23:48Z</time>
      </trkpt>
      <trkpt lat="45.80198" lon="4.7042">
        <ele>307</ele>
        <time>2011-12-03T08:23:49Z</time>
      </trkpt>
      <trkpt lat="45.80201" lon="4.7042">
        <ele>307</ele>
        <time>2011-12-03T08:23:50Z</time>
      </trkpt>
      <trkpt lat="45.80211" lon="4.70421">
        <ele>308</ele>
        <time>2011-12-03T08:23:55Z</time>
      </trkpt>
      <trkpt lat="45.80217" lon="4.70422">
        <ele>308</ele>
        <time>2011-12-03T08:24:02Z</time>
      </trkpt>
      <trkpt lat="45.80219" lon="4.70423">
        <ele>308</ele>
        <time>2011-12-03T08:24:08Z</time>
      </trkpt>
      <trkpt lat="45.80221" lon="4.70425">
        <ele>308</ele>
        <time>2011-12-03T08:24:18Z</time>
      </trkpt>
      <trkpt lat="45.80231" lon="4.70427">
        <ele>309</ele>
        <time>2011-12-03T08:24:24Z</time>
      </trkpt>
      <trkpt lat="45.80237" lon="4.7043">
        <ele>309</ele>
        <time>2011-12-03T08:24:30Z</time>
      </trkpt>
      <trkpt lat="45.80241" lon="4.70434">
        <ele>309</ele>
        <time>2011-12-03T08:24:36Z</time>
      </trkpt>
      <trkpt lat="45.80249" lon="4.70434">
        <ele>309</ele>
        <time>2011-12-03T08:24:43Z</time>
      </trkpt>
      <trkpt lat="45.80252" lon="4.70438">
        <ele>309</ele>
        <time>2011-12-03T08:24:49Z</time>
      </trkpt>
      <trkpt lat="45.80253" lon="4.70442">
        <ele>309</ele>
        <time>2011-12-03T08:24:55Z</time>
      </trkpt>
      <trkpt lat="45.80255" lon="4.70445">
        <ele>308</ele>
        <time>2011-12-03T08:25:01Z</time>
      </trkpt>
      <trkpt lat="45.80255" lon="4.70445">
        <ele>309</ele>
        <time>2011-12-03T08:25:02Z</time>
      </trkpt>
      <trkpt lat="45.80263" lon="4.70452">
        <ele>308</ele>
        <time>2011-12-03T08:25:08Z</time>
      </trkpt>
      <trkpt lat="45.80267" lon="4.70455">
        <ele>307</ele>
        <time>2011-12-03T08:25:13Z</time>
      </trkpt>
      <trkpt lat="45.80272" lon="4.70456">
        <ele>308</ele>
        <time>2011-12-03T08:25:18Z</time>
      </trkpt>
      <trkpt lat="45.80272" lon="4.70455">
        <ele>308</ele>
        <time>2011-12-03T08:25:28Z</time>
      </trkpt>
      <trkpt lat="45.80278" lon="4.70454">
        <ele>308</ele>
        <time>2011-12-03T08:25:40Z</time>
      </trkpt>
      <trkpt lat="45.80283" lon="4.70452">
        <ele>308</ele>
        <time>2011-12-03T08:25:47Z</time>
      </trkpt>
      <trkpt lat="45.80294" lon="4.70443">
        <ele>308</ele>
        <time>2011-12-03T08:25:54Z</time>
      </trkpt>
      <trkpt lat="45.80296" lon="4.70442">
        <ele>309</ele>
        <time>2011-12-03T08:25:55Z</time>
      </trkpt>
      <trkpt lat="45.80298" lon="4.7044">
        <ele>308</ele>
        <time>2011-12-03T08:25:56Z</time>
      </trkpt>
      <trkpt lat="45.80308" lon="4.70426">
        <ele>309</ele>
        <time>2011-12-03T08:26:02Z</time>
      </trkpt>
      <trkpt lat="45.80319" lon="4.70413">
        <ele>309</ele>
        <time>2011-12-03T08:26:08Z</time>
      </trkpt>
      <trkpt lat="45.80323" lon="4.70413">
        <ele>309</ele>
        <time>2011-12-03T08:26:10Z</time>
      </trkpt>
      <trkpt lat="45.80323" lon="4.70415">
        <ele>308</ele>
        <time>2011-12-03T08:26:11Z</time>
      </trkpt>
      <trkpt lat="45.80331" lon="4.70421">
        <ele>308</ele>
        <time>2011-12-03T08:26:15Z</time>
      </trkpt>
      <trkpt lat="45.80348" lon="4.70423">
        <ele>307</ele>
        <time>2011-12-03T08:26:22Z</time>
      </trkpt>
      <trkpt lat="45.80359" lon="4.70415">
        <ele>307</ele>
        <time>2011-12-03T08:26:26Z</time>
      </trkpt>
      <trkpt lat="45.80384" lon="4.70391">
        <ele>307</ele>
        <time>2011-12-03T08:26:34Z</time>
      </trkpt>
      <trkpt lat="45.8039" lon="4.70386">
        <ele>307</ele>
        <time>2011-12-03T08:26:36Z</time>
      </trkpt>
      <trkpt lat="45.80401" lon="4.70378">
        <ele>306</ele>
        <time>2011-12-03T08:26:40Z</time>
      </trkpt>
      <trkpt lat="45.80428" lon="4.70356">
        <ele>305</ele>
        <time>2011-12-03T08:26:49Z</time>
      </trkpt>
      <trkpt lat="45.80447" lon="4.70335">
        <ele>305</ele>
        <time>2011-12-03T08:26:55Z</time>
      </trkpt>
      <trkpt lat="45.80461" lon="4.70318">
        <ele>304</ele>
        <time>2011-12-03T08:27:00Z</time>
      </trkpt>
      <trkpt lat="45.80479" lon="4.70304">
        <ele>304</ele>
        <time>2011-12-03T08:27:06Z</time>
      </trkpt>
      <trkpt lat="45.80502" lon="4.70288">
        <ele>303</ele>
        <time>2011-12-03T08:27:13Z</time>
      </trkpt>
      <trkpt lat="45.80523" lon="4.70271">
        <ele>304</ele>
        <time>2011-12-03T08:27:19Z</time>
      </trkpt>
      <trkpt lat="45.80542" lon="4.7025">
        <ele>304</ele>
        <time>2011-12-03T08:27:25Z</time>
      </trkpt>
      <trkpt lat="45.80555" lon="4.70235">
        <ele>304</ele>
        <time>2011-12-03T08:27:30Z</time>
      </trkpt>
      <trkpt lat="45.80568" lon="4.70217">
        <ele>304</ele>
        <time>2011-12-03T08:27:36Z</time>
      </trkpt>
      <trkpt lat="45.80566" lon="4.70213">
        <ele>304</ele>
        <time>2011-12-03T08:27:43Z</time>
      </trkpt>
      <trkpt lat="45.80566" lon="4.70209">
        <ele>305</ele>
        <time>2011-12-03T08:27:50Z</time>
      </trkpt>
      <trkpt lat="45.80567" lon="4.70206">
        <ele>304</ele>
        <time>2011-12-03T08:27:54Z</time>
      </trkpt>
      <trkpt lat="45.80569" lon="4.70203">
        <ele>305</ele>
        <time>2011-12-03T08:28:00Z</time>
      </trkpt>
      <trkpt lat="45.80572" lon="4.70201">
        <ele>304</ele>
        <time>2011-12-03T08:28:08Z</time>
      </trkpt>
      <trkpt lat="45.80572" lon="4.702">
        <ele>304</ele>
        <time>2011-12-03T08:28:13Z</time>
      </trkpt>
      <trkpt lat="45.80572" lon="4.70199">
        <ele>304</ele>
        <time>2011-12-03T08:28:15Z</time>
      </trkpt>
      <trkpt lat="45.80565" lon="4.7019">
        <ele>304</ele>
        <time>2011-12-03T08:28:20Z</time>
      </trkpt>
      <trkpt lat="45.80549" lon="4.70173">
        <ele>305</ele>
        <time>2011-12-03T08:28:26Z</time>
      </trkpt>
      <trkpt lat="45.80535" lon="4.70157">
        <ele>306</ele>
        <time>2011-12-03T08:28:32Z</time>
      </trkpt>
      <trkpt lat="45.8052" lon="4.70139">
        <ele>308</ele>
        <time>2011-12-03T08:28:38Z</time>
      </trkpt>
      <trkpt lat="45.80505" lon="4.70126">
        <ele>309</ele>
        <time>2011-12-03T08:28:44Z</time>
      </trkpt>
      <trkpt lat="45.80491" lon="4.70123">
        <ele>309</ele>
        <time>2011-12-03T08:28:49Z</time>
      </trkpt>
      <trkpt lat="45.80466" lon="4.7011">
        <ele>310</ele>
        <time>2011-12-03T08:28:57Z</time>
      </trkpt>
      <trkpt lat="45.8045" lon="4.70098">
        <ele>312</ele>
        <time>2011-12-03T08:29:03Z</time>
      </trkpt>
      <trkpt lat="45.80448" lon="4.70095">
        <ele>312</ele>
        <time>2011-12-03T08:29:04Z</time>
      </trkpt>
      <trkpt lat="45.80446" lon="4.70092">
        <ele>312</ele>
        <time>2011-12-03T08:29:05Z</time>
      </trkpt>
      <trkpt lat="45.80443" lon="4.70089">
        <ele>312</ele>
        <time>2011-12-03T08:29:06Z</time>
      </trkpt>
      <trkpt lat="45.80441" lon="4.70086">
        <ele>312</ele>
        <time>2011-12-03T08:29:07Z</time>
      </trkpt>
      <trkpt lat="45.8043" lon="4.70077">
        <ele>312</ele>
        <time>2011-12-03T08:29:11Z</time>
      </trkpt>
      <trkpt lat="45.80427" lon="4.70077">
        <ele>312</ele>
        <time>2011-12-03T08:29:12Z</time>
      </trkpt>
      <trkpt lat="45.80424" lon="4.70076">
        <ele>312</ele>
        <time>2011-12-03T08:29:13Z</time>
      </trkpt>
      <trkpt lat="45.80421" lon="4.70074">
        <ele>313</ele>
        <time>2011-12-03T08:29:14Z</time>
      </trkpt>
      <trkpt lat="45.80418" lon="4.70073">
        <ele>312</ele>
        <time>2011-12-03T08:29:15Z</time>
      </trkpt>
      <trkpt lat="45.80415" lon="4.70072">
        <ele>313</ele>
        <time>2011-12-03T08:29:16Z</time>
      </trkpt>
      <trkpt lat="45.80412" lon="4.70071">
        <ele>313</ele>
        <time>2011-12-03T08:29:17Z</time>
      </trkpt>
      <trkpt lat="45.80408" lon="4.7007">
        <ele>313</ele>
        <time>2011-12-03T08:29:18Z</time>
      </trkpt>
      <trkpt lat="45.80394" lon="4.70065">
        <ele>313</ele>
        <time>2011-12-03T08:29:23Z</time>
      </trkpt>
      <trkpt lat="45.80368" lon="4.70045">
        <ele>314</ele>
        <time>2011-12-03T08:29:30Z</time>
      </trkpt>
      <trkpt lat="45.80355" lon="4.7004">
        <ele>314</ele>
        <time>2011-12-03T08:29:34Z</time>
      </trkpt>
      <trkpt lat="45.80338" lon="4.70036">
        <ele>314</ele>
        <time>2011-12-03T08:29:40Z</time>
      </trkpt>
      <trkpt lat="45.80332" lon="4.70034">
        <ele>314</ele>
        <time>2011-12-03T08:29:42Z</time>
      </trkpt>
      <trkpt lat="45.80309" lon="4.70037">
        <ele>314</ele>
        <time>2011-12-03T08:29:48Z</time>
      </trkpt>
      <trkpt lat="45.80305" lon="4.70041">
        <ele>314</ele>
        <time>2011-12-03T08:29:49Z</time>
      </trkpt>
      <trkpt lat="45.80302" lon="4.70044">
        <ele>314</ele>
        <time>2011-12-03T08:29:50Z</time>
      </trkpt>
      <trkpt lat="45.80299" lon="4.70047">
        <ele>314</ele>
        <time>2011-12-03T08:29:51Z</time>
      </trkpt>
      <trkpt lat="45.80287" lon="4.70054">
        <ele>314</ele>
        <time>2011-12-03T08:29:56Z</time>
      </trkpt>
      <trkpt lat="45.80288" lon="4.70057">
        <ele>314</ele>
        <time>2011-12-03T08:29:59Z</time>
      </trkpt>
      <trkpt lat="45.80289" lon="4.70056">
        <ele>314</ele>
        <time>2011-12-03T08:30:00Z</time>
      </trkpt>
      <trkpt lat="45.80291" lon="4.70054">
        <ele>314</ele>
        <time>2011-12-03T08:30:01Z</time>
      </trkpt>
      <trkpt lat="45.80305" lon="4.70038">
        <ele>314</ele>
        <time>2011-12-03T08:30:07Z</time>
      </trkpt>
      <trkpt lat="45.80305" lon="4.70033">
        <ele>314</ele>
        <time>2011-12-03T08:30:08Z</time>
      </trkpt>
      <trkpt lat="45.80304" lon="4.70027">
        <ele>314</ele>
        <time>2011-12-03T08:30:11Z</time>
      </trkpt>
      <trkpt lat="45.80302" lon="4.70025">
        <ele>314</ele>
        <time>2011-12-03T08:30:12Z</time>
      </trkpt>
      <trkpt lat="45.80295" lon="4.70021">
        <ele>314</ele>
        <time>2011-12-03T08:30:17Z</time>
      </trkpt>
      <trkpt lat="45.80294" lon="4.70021">
        <ele>313</ele>
        <time>2011-12-03T08:30:18Z</time>
      </trkpt>
      <trkpt lat="45.80293" lon="4.7002">
        <ele>313</ele>
        <time>2011-12-03T08:30:19Z</time>
      </trkpt>
      <trkpt lat="45.80292" lon="4.70018">
        <ele>313</ele>
        <time>2011-12-03T08:30:20Z</time>
      </trkpt>
      <trkpt lat="45.8029" lon="4.70017">
        <ele>314</ele>
        <time>2011-12-03T08:30:21Z</time>
      </trkpt>
      <trkpt lat="45.80288" lon="4.70015">
        <ele>313</ele>
        <time>2011-12-03T08:30:22Z</time>
      </trkpt>
      <trkpt lat="45.80277" lon="4.70008">
        <ele>313</ele>
        <time>2011-12-03T08:30:30Z</time>
      </trkpt>
      <trkpt lat="45.80274" lon="4.70006">
        <ele>313</ele>
        <time>2011-12-03T08:30:31Z</time>
      </trkpt>
      <trkpt lat="45.80261" lon="4.69992">
        <ele>313</ele>
        <time>2011-12-03T08:30:38Z</time>
      </trkpt>
      <trkpt lat="45.80256" lon="4.69984">
        <ele>313</ele>
        <time>2011-12-03T08:30:43Z</time>
      </trkpt>
      <trkpt lat="45.80252" lon="4.69979">
        <ele>314</ele>
        <time>2011-12-03T08:30:49Z</time>
      </trkpt>
      <trkpt lat="45.80251" lon="4.6998">
        <ele>314</ele>
        <time>2011-12-03T08:30:57Z</time>
      </trkpt>
      <trkpt lat="45.80252" lon="4.69982">
        <ele>313</ele>
        <time>2011-12-03T08:30:58Z</time>
      </trkpt>
      <trkpt lat="45.80253" lon="4.69983">
        <ele>313</ele>
        <time>2011-12-03T08:30:59Z</time>
      </trkpt>
      <trkpt lat="45.80254" lon="4.69984">
        <ele>314</ele>
        <time>2011-12-03T08:31:00Z</time>
      </trkpt>
      <trkpt lat="45.80256" lon="4.69986">
        <ele>314</ele>
        <time>2011-12-03T08:31:01Z</time>
      </trkpt>
      <trkpt lat="45.80257" lon="4.69989">
        <ele>313</ele>
        <time>2011-12-03T08:31:02Z</time>
      </trkpt>
      <trkpt lat="45.80258" lon="4.69991">
        <ele>313</ele>
        <time>2011-12-03T08:31:03Z</time>
      </trkpt>
      <trkpt lat="45.80265" lon="4.70002">
        <ele>313</ele>
        <time>2011-12-03T08:31:08Z</time>
      </trkpt>
      <trkpt lat="45.80265" lon="4.70007">
        <ele>314</ele>
        <time>2011-12-03T08:31:11Z</time>
      </trkpt>
      <trkpt lat="45.80263" lon="4.70009">
        <ele>314</ele>
        <time>2011-12-03T08:31:13Z</time>
      </trkpt>
      <trkpt lat="45.80261" lon="4.70009">
        <ele>314</ele>
        <time>2011-12-03T08:31:15Z</time>
      </trkpt>
      <trkpt lat="45.8026" lon="4.70008">
        <ele>314</ele>
        <time>2011-12-03T08:31:16Z</time>
      </trkpt>
      <trkpt lat="45.80256" lon="4.70008">
        <ele>314</ele>
        <time>2011-12-03T08:31:18Z</time>
      </trkpt>
      <trkpt lat="45.80253" lon="4.70011">
        <ele>314</ele>
        <time>2011-12-03T08:31:20Z</time>
      </trkpt>
      <trkpt lat="45.8025" lon="4.70015">
        <ele>314</ele>
        <time>2011-12-03T08:31:23Z</time>
      </trkpt>
      <trkpt lat="45.80248" lon="4.70015">
        <ele>314</ele>
        <time>2011-12-03T08:31:24Z</time>
      </trkpt>
      <trkpt lat="45.80247" lon="4.70014">
        <ele>314</ele>
        <time>2011-12-03T08:31:26Z</time>
      </trkpt>
      <trkpt lat="45.80243" lon="4.70011">
        <ele>314</ele>
        <time>2011-12-03T08:31:30Z</time>
      </trkpt>
      <trkpt lat="45.8024" lon="4.70005">
        <ele>314</ele>
        <time>2011-12-03T08:31:34Z</time>
      </trkpt>
      <trkpt lat="45.80233" lon="4.69997">
        <ele>314</ele>
        <time>2011-12-03T08:31:38Z</time>
      </trkpt>
      <trkpt lat="45.80227" lon="4.69994">
        <ele>314</ele>
        <time>2011-12-03T08:31:46Z</time>
      </trkpt>
      <trkpt lat="45.80224" lon="4.69994">
        <ele>314</ele>
        <time>2011-12-03T08:31:52Z</time>
      </trkpt>
      <trkpt lat="45.80219" lon="4.69993">
        <ele>314</ele>
        <time>2011-12-03T08:31:58Z</time>
      </trkpt>
      <trkpt lat="45.80218" lon="4.69993">
        <ele>314</ele>
        <time>2011-12-03T08:31:59Z</time>
      </trkpt>
      <trkpt lat="45.80217" lon="4.69989">
        <ele>314</ele>
        <time>2011-12-03T08:32:01Z</time>
      </trkpt>
      <trkpt lat="45.80202" lon="4.69976">
        <ele>314</ele>
        <time>2011-12-03T08:32:09Z</time>
      </trkpt>
      <trkpt lat="45.80191" lon="4.69969">
        <ele>314</ele>
        <time>2011-12-03T08:32:14Z</time>
      </trkpt>
      <trkpt lat="45.80183" lon="4.69973">
        <ele>314</ele>
        <time>2011-12-03T08:32:20Z</time>
      </trkpt>
      <trkpt lat="45.80174" lon="4.69965">
        <ele>315</ele>
        <time>2011-12-03T08:32:25Z</time>
      </trkpt>
      <trkpt lat="45.80157" lon="4.69955">
        <ele>315</ele>
        <time>2011-12-03T08:32:31Z</time>
      </trkpt>
      <trkpt lat="45.80144" lon="4.69948">
        <ele>316</ele>
        <time>2011-12-03T08:32:35Z</time>
      </trkpt>
      <trkpt lat="45.80135" lon="4.69943">
        <ele>316</ele>
        <time>2011-12-03T08:32:43Z</time>
      </trkpt>
      <trkpt lat="45.80133" lon="4.69944">
        <ele>316</ele>
        <time>2011-12-03T08:32:44Z</time>
      </trkpt>
      <trkpt lat="45.80122" lon="4.69947">
        <ele>316</ele>
        <time>2011-12-03T08:32:49Z</time>
      </trkpt>
      <trkpt lat="45.80116" lon="4.69937">
        <ele>316</ele>
        <time>2011-12-03T08:32:53Z</time>
      </trkpt>
      <trkpt lat="45.80114" lon="4.69934">
        <ele>316</ele>
        <time>2011-12-03T08:32:54Z</time>
      </trkpt>
      <trkpt lat="45.80107" lon="4.6992">
        <ele>317</ele>
        <time>2011-12-03T08:32:58Z</time>
      </trkpt>
      <trkpt lat="45.80095" lon="4.69913">
        <ele>318</ele>
        <time>2011-12-03T08:33:03Z</time>
      </trkpt>
      <trkpt lat="45.80075" lon="4.6991">
        <ele>318</ele>
        <time>2011-12-03T08:33:12Z</time>
      </trkpt>
      <trkpt lat="45.80074" lon="4.6991">
        <ele>318</ele>
        <time>2011-12-03T08:33:13Z</time>
      </trkpt>
      <trkpt lat="45.80061" lon="4.69897">
        <ele>319</ele>
        <time>2011-12-03T08:33:19Z</time>
      </trkpt>
      <trkpt lat="45.80047" lon="4.69891">
        <ele>319</ele>
        <time>2011-12-03T08:33:24Z</time>
      </trkpt>
      <trkpt lat="45.80031" lon="4.6989">
        <ele>319</ele>
        <time>2011-12-03T08:33:31Z</time>
      </trkpt>
      <trkpt lat="45.80029" lon="4.6989">
        <ele>319</ele>
        <time>2011-12-03T08:33:32Z</time>
      </trkpt>
      <trkpt lat="45.80027" lon="4.69888">
        <ele>320</ele>
        <time>2011-12-03T08:33:33Z</time>
      </trkpt>
      <trkpt lat="45.80024" lon="4.69878">
        <ele>320</ele>
        <time>2011-12-03T08:33:35Z</time>
      </trkpt>
      <trkpt lat="45.80011" lon="4.69869">
        <ele>319</ele>
        <time>2011-12-03T08:33:40Z</time>
      </trkpt>
      <trkpt lat="45.80011" lon="4.69869">
        <ele>319</ele>
        <time>2011-12-03T08:33:41Z</time>
      </trkpt>
      <trkpt lat="45.80002" lon="4.69867">
        <ele>319</ele>
        <time>2011-12-03T08:33:43Z</time>
      </trkpt>
      <trkpt lat="45.79991" lon="4.69856">
        <ele>320</ele>
        <time>2011-12-03T08:33:49Z</time>
      </trkpt>
      <trkpt lat="45.79987" lon="4.69846">
        <ele>320</ele>
        <time>2011-12-03T08:33:53Z</time>
      </trkpt>
      <trkpt lat="45.79977" lon="4.69836">
        <ele>320</ele>
        <time>2011-12-03T08:33:59Z</time>
      </trkpt>
      <trkpt lat="45.79968" lon="4.69815">
        <ele>320</ele>
        <time>2011-12-03T08:34:06Z</time>
      </trkpt>
      <trkpt lat="45.79967" lon="4.69811">
        <ele>320</ele>
        <time>2011-12-03T08:34:07Z</time>
      </trkpt>
      <trkpt lat="45.79952" lon="4.69793">
        <ele>321</ele>
        <time>2011-12-03T08:34:13Z</time>
      </trkpt>
      <trkpt lat="45.79946" lon="4.69791">
        <ele>321</ele>
        <time>2011-12-03T08:34:15Z</time>
      </trkpt>
      <trkpt lat="45.79944" lon="4.6979">
        <ele>321</ele>
        <time>2011-12-03T08:34:16Z</time>
      </trkpt>
      <trkpt lat="45.79937" lon="4.69799">
        <ele>321</ele>
        <time>2011-12-03T08:34:19Z</time>
      </trkpt>
      <trkpt lat="45.79929" lon="4.6981">
        <ele>320</ele>
        <time>2011-12-03T08:34:25Z</time>
      </trkpt>
      <trkpt lat="45.79926" lon="4.69809">
        <ele>320</ele>
        <time>2011-12-03T08:34:28Z</time>
      </trkpt>
      <trkpt lat="45.79926" lon="4.69792">
        <ele>320</ele>
        <time>2011-12-03T08:34:34Z</time>
      </trkpt>
      <trkpt lat="45.79927" lon="4.69786">
        <ele>320</ele>
        <time>2011-12-03T08:34:36Z</time>
      </trkpt>
      <trkpt lat="45.7993" lon="4.69764">
        <ele>321</ele>
        <time>2011-12-03T08:34:42Z</time>
      </trkpt>
      <trkpt lat="45.79929" lon="4.69727">
        <ele>321</ele>
        <time>2011-12-03T08:34:49Z</time>
      </trkpt>
      <trkpt lat="45.7993" lon="4.69675">
        <ele>322</ele>
        <time>2011-12-03T08:34:58Z</time>
      </trkpt>
      <trkpt lat="45.79928" lon="4.69648">
        <ele>323</ele>
        <time>2011-12-03T08:35:03Z</time>
      </trkpt>
      <trkpt lat="45.79931" lon="4.69607">
        <ele>324</ele>
        <time>2011-12-03T08:35:11Z</time>
      </trkpt>
      <trkpt lat="45.79938" lon="4.6956">
        <ele>325</ele>
        <time>2011-12-03T08:35:20Z</time>
      </trkpt>
      <trkpt lat="45.79941" lon="4.69527">
        <ele>326</ele>
        <time>2011-12-03T08:35:26Z</time>
      </trkpt>
      <trkpt lat="45.79945" lon="4.69475">
        <ele>326</ele>
        <time>2011-12-03T08:35:35Z</time>
      </trkpt>
      <trkpt lat="45.79946" lon="4.69443">
        <ele>327</ele>
        <time>2011-12-03T08:35:42Z</time>
      </trkpt>
      <trkpt lat="45.7994" lon="4.69425">
        <ele>327</ele>
        <time>2011-12-03T08:35:46Z</time>
      </trkpt>
      <trkpt lat="45.79919" lon="4.69412">
        <ele>327</ele>
        <time>2011-12-03T08:35:52Z</time>
      </trkpt>
      <trkpt lat="45.79895" lon="4.69386">
        <ele>328</ele>
        <time>2011-12-03T08:36:00Z</time>
      </trkpt>
      <trkpt lat="45.7987" lon="4.69351">
        <ele>329</ele>
        <time>2011-12-03T08:36:09Z</time>
      </trkpt>
      <trkpt lat="45.79852" lon="4.69322">
        <ele>330</ele>
        <time>2011-12-03T08:36:17Z</time>
      </trkpt>
      <trkpt lat="45.79836" lon="4.69293">
        <ele>331</ele>
        <time>2011-12-03T08:36:24Z</time>
      </trkpt>
      <trkpt lat="45.79816" lon="4.69255">
        <ele>333</ele>
        <time>2011-12-03T08:36:33Z</time>
      </trkpt>
      <trkpt lat="45.798" lon="4.69224">
        <ele>334</ele>
        <time>2011-12-03T08:36:41Z</time>
      </trkpt>
      <trkpt lat="45.79779" lon="4.69191">
        <ele>335</ele>
        <time>2011-12-03T08:36:50Z</time>
      </trkpt>
      <trkpt lat="45.79749" lon="4.6917">
        <ele>335</ele>
        <time>2011-12-03T08:37:00Z</time>
      </trkpt>
      <trkpt lat="45.79733" lon="4.69169">
        <ele>336</ele>
        <time>2011-12-03T08:37:07Z</time>
      </trkpt>
      <trkpt lat="45.7973" lon="4.69167">
        <ele>336</ele>
        <time>2011-12-03T08:37:14Z</time>
      </trkpt>
      <trkpt lat="45.7973" lon="4.69167">
        <ele>335</ele>
        <time>2011-12-03T08:37:23Z</time>
      </trkpt>
      <trkpt lat="45.7973" lon="4.69167">
        <ele>335</ele>
        <time>2011-12-03T08:37:38Z</time>
      </trkpt>
      <trkpt lat="45.7973" lon="4.69167">
        <ele>335</ele>
        <time>2011-12-03T08:37:48Z</time>
      </trkpt>
      <trkpt lat="45.7973" lon="4.69167">
        <ele>335</ele>
        <time>2011-12-03T08:38:07Z</time>
      </trkpt>
      <trkpt lat="45.7973" lon="4.69167">
        <ele>335</ele>
        <time>2011-12-03T08:38:27Z</time>
      </trkpt>
      <trkpt lat="45.7973" lon="4.69167">
        <ele>334</ele>
        <time>2011-12-03T08:38:47Z</time>
      </trkpt>
      <trkpt lat="45.79729" lon="4.69167">
        <ele>335</ele>
        <time>2011-12-03T08:39:12Z</time>
      </trkpt>
      <trkpt lat="45.79729" lon="4.69167">
        <ele>335</ele>
        <time>2011-12-03T08:39:26Z</time>
      </trkpt>
      <trkpt lat="45.79729" lon="4.69167">
        <ele>335</ele>
        <time>2011-12-03T08:39:46Z</time>
      </trkpt>
      <trkpt lat="45.79729" lon="4.69167">
        <ele>334</ele>
        <time>2011-12-03T08:40:07Z</time>
      </trkpt>
      <trkpt lat="45.79729" lon="4.69167">
        <ele>334</ele>
        <time>2011-12-03T08:40:29Z</time>
      </trkpt>
      <trkpt lat="45.79729" lon="4.69167">
        <ele>334</ele>
        <time>2011-12-03T08:40:50Z</time>
      </trkpt>
      <trkpt lat="45.79729" lon="4.69167">
        <ele>334</ele>
        <time>2011-12-03T08:41:08Z</time>
      </trkpt>
      <trkpt lat="45.79729" lon="4.69167">
        <ele>334</ele>
        <time>2011-12-03T08:41:26Z</time>
      </trkpt>
      <trkpt lat="45.79729" lon="4.69167">
        <ele>334</ele>
        <time>2011-12-03T08:41:44Z</time>
      </trkpt>
      <trkpt lat="45.79729" lon="4.69167">
        <ele>334</ele>
        <time>2011-12-03T08:42:05Z</time>
      </trkpt>
      <trkpt lat="45.79729" lon="4.69167">
        <ele>334</ele>
        <time>2011-12-03T08:42:21Z</time>
      </trkpt>
      <trkpt lat="45.79729" lon="4.69167">
        <ele>334</ele>
        <time>2011-12-03T08:42:25Z</time>
      </trkpt>
      <trkpt lat="45.79723" lon="4.69155">
        <ele>334</ele>
        <time>2011-12-03T08:42:29Z</time>
      </trkpt>
      <trkpt lat="45.79719" lon="4.69152">
        <ele>334</ele>
        <time>2011-12-03T08:42:30Z</time>
      </trkpt>
      <trkpt lat="45.7971" lon="4.69146">
        <ele>334</ele>
        <time>2011-12-03T08:42:32Z</time>
      </trkpt>
      <trkpt lat="45.79707" lon="4.69144">
        <ele>334</ele>
        <time>2011-12-03T08:42:33Z</time>
      </trkpt>
      <trkpt lat="45.79702" lon="4.69141">
        <ele>334</ele>
        <time>2011-12-03T08:42:34Z</time>
      </trkpt>
      <trkpt lat="45.79698" lon="4.69137">
        <ele>334</ele>
        <time>2011-12-03T08:42:35Z</time>
      </trkpt>
      <trkpt lat="45.79694" lon="4.69134">
        <ele>334</ele>
        <time>2011-12-03T08:42:36Z</time>
      </trkpt>
      <trkpt lat="45.7969" lon="4.69131">
        <ele>335</ele>
        <time>2011-12-03T08:42:37Z</time>
      </trkpt>
      <trkpt lat="45.79686" lon="4.69129">
        <ele>334</ele>
        <time>2011-12-03T08:42:38Z</time>
      </trkpt>
      <trkpt lat="45.79682" lon="4.69126">
        <ele>334</ele>
        <time>2011-12-03T08:42:39Z</time>
      </trkpt>
      <trkpt lat="45.79678" lon="4.69124">
        <ele>334</ele>
        <time>2011-12-03T08:42:40Z</time>
      </trkpt>
      <trkpt lat="45.79652" lon="4.69105">
        <ele>333</ele>
        <time>2011-12-03T08:42:46Z</time>
      </trkpt>
      <trkpt lat="45.79644" lon="4.69098">
        <ele>333</ele>
        <time>2011-12-03T08:42:48Z</time>
      </trkpt>
      <trkpt lat="45.79634" lon="4.69085">
        <ele>333</ele>
        <time>2011-12-03T08:42:51Z</time>
      </trkpt>
      <trkpt lat="45.7962" lon="4.69065">
        <ele>333</ele>
        <time>2011-12-03T08:42:55Z</time>
      </trkpt>
      <trkpt lat="45.79618" lon="4.6906">
        <ele>333</ele>
        <time>2011-12-03T08:42:56Z</time>
      </trkpt>
      <trkpt lat="45.79608" lon="4.69045">
        <ele>333</ele>
        <time>2011-12-03T08:42:59Z</time>
      </trkpt>
      <trkpt lat="45.79601" lon="4.69037">
        <ele>334</ele>
        <time>2011-12-03T08:43:01Z</time>
      </trkpt>
      <trkpt lat="45.79597" lon="4.69033">
        <ele>334</ele>
        <time>2011-12-03T08:43:02Z</time>
      </trkpt>
      <trkpt lat="45.79589" lon="4.69027">
        <ele>335</ele>
        <time>2011-12-03T08:43:04Z</time>
      </trkpt>
      <trkpt lat="45.79576" lon="4.69021">
        <ele>336</ele>
        <time>2011-12-03T08:43:07Z</time>
      </trkpt>
      <trkpt lat="45.79539" lon="4.69017">
        <ele>338</ele>
        <time>2011-12-03T08:43:16Z</time>
      </trkpt>
      <trkpt lat="45.7951" lon="4.69014">
        <ele>339</ele>
        <time>2011-12-03T08:43:24Z</time>
      </trkpt>
      <trkpt lat="45.79479" lon="4.69008">
        <ele>340</ele>
        <time>2011-12-03T08:43:33Z</time>
      </trkpt>
      <trkpt lat="45.79471" lon="4.68989">
        <ele>341</ele>
        <time>2011-12-03T08:43:38Z</time>
      </trkpt>
      <trkpt lat="45.79473" lon="4.68945">
        <ele>341</ele>
        <time>2011-12-03T08:43:46Z</time>
      </trkpt>
      <trkpt lat="45.79475" lon="4.68892">
        <ele>343</ele>
        <time>2011-12-03T08:43:56Z</time>
      </trkpt>
      <trkpt lat="45.79481" lon="4.6887">
        <ele>343</ele>
        <time>2011-12-03T08:44:02Z</time>
      </trkpt>
      <trkpt lat="45.79484" lon="4.68865">
        <ele>344</ele>
        <time>2011-12-03T08:44:05Z</time>
      </trkpt>
      <trkpt lat="45.79485" lon="4.68864">
        <ele>344</ele>
        <time>2011-12-03T08:44:06Z</time>
      </trkpt>
      <trkpt lat="45.79486" lon="4.68862">
        <ele>344</ele>
        <time>2011-12-03T08:44:07Z</time>
      </trkpt>
      <trkpt lat="45.79486" lon="4.68859">
        <ele>344</ele>
        <time>2011-12-03T08:44:08Z</time>
      </trkpt>
      <trkpt lat="45.79484" lon="4.68855">
        <ele>344</ele>
        <time>2011-12-03T08:44:09Z</time>
      </trkpt>
      <trkpt lat="45.79483" lon="4.68852">
        <ele>345</ele>
        <time>2011-12-03T08:44:10Z</time>
      </trkpt>
      <trkpt lat="45.79482" lon="4.68847">
        <ele>345</ele>
        <time>2011-12-03T08:44:11Z</time>
      </trkpt>
      <trkpt lat="45.79481" lon="4.68842">
        <ele>345</ele>
        <time>2011-12-03T08:44:12Z</time>
      </trkpt>
      <trkpt lat="45.79481" lon="4.68837">
        <ele>344</ele>
        <time>2011-12-03T08:44:13Z</time>
      </trkpt>
      <trkpt lat="45.79481" lon="4.68832">
        <ele>344</ele>
        <time>2011-12-03T08:44:14Z</time>
      </trkpt>
      <trkpt lat="45.79484" lon="4.68786">
        <ele>346</ele>
        <time>2011-12-03T08:44:22Z</time>
      </trkpt>
      <trkpt lat="45.79493" lon="4.68751">
        <ele>346</ele>
        <time>2011-12-03T08:44:29Z</time>
      </trkpt>
      <trkpt lat="45.79509" lon="4.68714">
        <ele>347</ele>
        <time>2011-12-03T08:44:37Z</time>
      </trkpt>
      <trkpt lat="45.79526" lon="4.68679">
        <ele>348</ele>
        <time>2011-12-03T08:44:46Z</time>
      </trkpt>
      <trkpt lat="45.79547" lon="4.68637">
        <ele>350</ele>
        <time>2011-12-03T08:44:57Z</time>
      </trkpt>
      <trkpt lat="45.79564" lon="4.68603">
        <ele>351</ele>
        <time>2011-12-03T08:45:06Z</time>
      </trkpt>
      <trkpt lat="45.79574" lon="4.68577">
        <ele>353</ele>
        <time>2011-12-03T08:45:14Z</time>
      </trkpt>
      <trkpt lat="45.79581" lon="4.68548">
        <ele>355</ele>
        <time>2011-12-03T08:45:24Z</time>
      </trkpt>
      <trkpt lat="45.7959" lon="4.68522">
        <ele>357</ele>
        <time>2011-12-03T08:45:32Z</time>
      </trkpt>
      <trkpt lat="45.796" lon="4.68495">
        <ele>358</ele>
        <time>2011-12-03T08:45:41Z</time>
      </trkpt>
      <trkpt lat="45.7961" lon="4.68468">
        <ele>360</ele>
        <time>2011-12-03T08:45:50Z</time>
      </trkpt>
      <trkpt lat="45.79618" lon="4.68447">
        <ele>361</ele>
        <time>2011-12-03T08:45:57Z</time>
      </trkpt>
      <trkpt lat="45.79627" lon="4.68422">
        <ele>362</ele>
        <time>2011-12-03T08:46:05Z</time>
      </trkpt>
      <trkpt lat="45.79638" lon="4.68392">
        <ele>364</ele>
        <time>2011-12-03T08:46:15Z</time>
      </trkpt>
      <trkpt lat="45.79646" lon="4.68368">
        <ele>365</ele>
        <time>2011-12-03T08:46:23Z</time>
      </trkpt>
      <trkpt lat="45.79655" lon="4.68342">
        <ele>366</ele>
        <time>2011-12-03T08:46:31Z</time>
      </trkpt>
      <trkpt lat="45.79661" lon="4.68316">
        <ele>367</ele>
        <time>2011-12-03T08:46:39Z</time>
      </trkpt>
      <trkpt lat="45.79662" lon="4.68302">
        <ele>369</ele>
        <time>2011-12-03T08:46:43Z</time>
      </trkpt>
      <trkpt lat="45.79662" lon="4.68299">
        <ele>368</ele>
        <time>2011-12-03T08:46:44Z</time>
      </trkpt>
      <trkpt lat="45.79663" lon="4.68296">
        <ele>369</ele>
        <time>2011-12-03T08:46:45Z</time>
      </trkpt>
      <trkpt lat="45.79663" lon="4.68292">
        <ele>369</ele>
        <time>2011-12-03T08:46:46Z</time>
      </trkpt>
      <trkpt lat="45.79663" lon="4.68289">
        <ele>369</ele>
        <time>2011-12-03T08:46:47Z</time>
      </trkpt>
      <trkpt lat="45.79663" lon="4.68285">
        <ele>369</ele>
        <time>2011-12-03T08:46:48Z</time>
      </trkpt>
      <trkpt lat="45.79663" lon="4.68282">
        <ele>369</ele>
        <time>2011-12-03T08:46:49Z</time>
      </trkpt>
      <trkpt lat="45.79664" lon="4.68278">
        <ele>370</ele>
        <time>2011-12-03T08:46:50Z</time>
      </trkpt>
      <trkpt lat="45.79665" lon="4.68275">
        <ele>370</ele>
        <time>2011-12-03T08:46:51Z</time>
      </trkpt>
      <trkpt lat="45.79665" lon="4.68272">
        <ele>370</ele>
        <time>2011-12-03T08:46:52Z</time>
      </trkpt>
      <trkpt lat="45.79667" lon="4.68253">
        <ele>372</ele>
        <time>2011-12-03T08:46:59Z</time>
      </trkpt>
      <trkpt lat="45.79669" lon="4.68238">
        <ele>373</ele>
        <time>2011-12-03T08:47:04Z</time>
      </trkpt>
      <trkpt lat="45.7967" lon="4.68236">
        <ele>373</ele>
        <time>2011-12-03T08:47:05Z</time>
      </trkpt>
      <trkpt lat="45.7967" lon="4.68233">
        <ele>374</ele>
        <time>2011-12-03T08:47:06Z</time>
      </trkpt>
      <trkpt lat="45.7967" lon="4.68217">
        <ele>375</ele>
        <time>2011-12-03T08:47:13Z</time>
      </trkpt>
      <trkpt lat="45.7967" lon="4.68215">
        <ele>375</ele>
        <time>2011-12-03T08:47:14Z</time>
      </trkpt>
      <trkpt lat="45.79671" lon="4.68212">
        <ele>375</ele>
        <time>2011-12-03T08:47:15Z</time>
      </trkpt>
      <trkpt lat="45.79671" lon="4.6821">
        <ele>375</ele>
        <time>2011-12-03T08:47:16Z</time>
      </trkpt>
      <trkpt lat="45.79671" lon="4.68207">
        <ele>375</ele>
        <time>2011-12-03T08:47:17Z</time>
      </trkpt>
      <trkpt lat="45.79672" lon="4.68205">
        <ele>376</ele>
        <time>2011-12-03T08:47:18Z</time>
      </trkpt>
      <trkpt lat="45.79673" lon="4.68203">
        <ele>376</ele>
        <time>2011-12-03T08:47:19Z</time>
      </trkpt>
      <trkpt lat="45.79675" lon="4.68182">
        <ele>376</ele>
        <time>2011-12-03T08:47:27Z</time>
      </trkpt>
      <trkpt lat="45.79676" lon="4.68155">
        <ele>378</ele>
        <time>2011-12-03T08:47:36Z</time>
      </trkpt>
      <trkpt lat="45.79673" lon="4.68126">
        <ele>378</ele>
        <time>2011-12-03T08:47:44Z</time>
      </trkpt>
      <trkpt lat="45.79669" lon="4.68091">
        <ele>379</ele>
        <time>2011-12-03T08:47:52Z</time>
      </trkpt>
      <trkpt lat="45.79664" lon="4.68053">
        <ele>380</ele>
        <time>2011-12-03T08:48:00Z</time>
      </trkpt>
      <trkpt lat="45.79658" lon="4.68018">
        <ele>381</ele>
        <time>2011-12-03T08:48:07Z</time>
      </trkpt>
      <trkpt lat="45.79651" lon="4.67977">
        <ele>380</ele>
        <time>2011-12-03T08:48:15Z</time>
      </trkpt>
      <trkpt lat="45.79641" lon="4.67953">
        <ele>380</ele>
        <time>2011-12-03T08:48:20Z</time>
      </trkpt>
      <trkpt lat="45.79629" lon="4.67918">
        <ele>381</ele>
        <time>2011-12-03T08:48:27Z</time>
      </trkpt>
      <trkpt lat="45.79611" lon="4.67867">
        <ele>381</ele>
        <time>2011-12-03T08:48:37Z</time>
      </trkpt>
      <trkpt lat="45.796" lon="4.67831">
        <ele>382</ele>
        <time>2011-12-03T08:48:45Z</time>
      </trkpt>
      <trkpt lat="45.79585" lon="4.67789">
        <ele>383</ele>
        <time>2011-12-03T08:48:55Z</time>
      </trkpt>
      <trkpt lat="45.79575" lon="4.67757">
        <ele>386</ele>
        <time>2011-12-03T08:49:03Z</time>
      </trkpt>
      <trkpt lat="45.79571" lon="4.67744">
        <ele>386</ele>
        <time>2011-12-03T08:49:08Z</time>
      </trkpt>
      <trkpt lat="45.79566" lon="4.67729">
        <ele>388</ele>
        <time>2011-12-03T08:49:14Z</time>
      </trkpt>
      <trkpt lat="45.79557" lon="4.67709">
        <ele>390</ele>
        <time>2011-12-03T08:49:22Z</time>
      </trkpt>
      <trkpt lat="45.79548" lon="4.67692">
        <ele>390</ele>
        <time>2011-12-03T08:49:30Z</time>
      </trkpt>
      <trkpt lat="45.7954" lon="4.67674">
        <ele>393</ele>
        <time>2011-12-03T08:49:38Z</time>
      </trkpt>
      <trkpt lat="45.79539" lon="4.67672">
        <ele>392</ele>
        <time>2011-12-03T08:49:39Z</time>
      </trkpt>
      <trkpt lat="45.79539" lon="4.6767">
        <ele>392</ele>
        <time>2011-12-03T08:49:40Z</time>
      </trkpt>
      <trkpt lat="45.79539" lon="4.67667">
        <ele>393</ele>
        <time>2011-12-03T08:49:41Z</time>
      </trkpt>
      <trkpt lat="45.79532" lon="4.67649">
        <ele>394</ele>
        <time>2011-12-03T08:49:50Z</time>
      </trkpt>
      <trkpt lat="45.79531" lon="4.67647">
        <ele>394</ele>
        <time>2011-12-03T08:49:51Z</time>
      </trkpt>
      <trkpt lat="45.79526" lon="4.67628">
        <ele>396</ele>
        <time>2011-12-03T08:50:00Z</time>
      </trkpt>
      <trkpt lat="45.79526" lon="4.67626">
        <ele>396</ele>
        <time>2011-12-03T08:50:01Z</time>
      </trkpt>
      <trkpt lat="45.79521" lon="4.6761">
        <ele>398</ele>
        <time>2011-12-03T08:50:09Z</time>
      </trkpt>
      <trkpt lat="45.79518" lon="4.67598">
        <ele>399</ele>
        <time>2011-12-03T08:50:15Z</time>
      </trkpt>
      <trkpt lat="45.79516" lon="4.67594">
        <ele>400</ele>
        <time>2011-12-03T08:50:17Z</time>
      </trkpt>
      <trkpt lat="45.79515" lon="4.67587">
        <ele>400</ele>
        <time>2011-12-03T08:50:20Z</time>
      </trkpt>
      <trkpt lat="45.79511" lon="4.67572">
        <ele>401</ele>
        <time>2011-12-03T08:50:28Z</time>
      </trkpt>
      <trkpt lat="45.79509" lon="4.67555">
        <ele>403</ele>
        <time>2011-12-03T08:50:36Z</time>
      </trkpt>
      <trkpt lat="45.79509" lon="4.67539">
        <ele>404</ele>
        <time>2011-12-03T08:50:43Z</time>
      </trkpt>
      <trkpt lat="45.79508" lon="4.67537">
        <ele>404</ele>
        <time>2011-12-03T08:50:44Z</time>
      </trkpt>
      <trkpt lat="45.79508" lon="4.67535">
        <ele>404</ele>
        <time>2011-12-03T08:50:45Z</time>
      </trkpt>
      <trkpt lat="45.79507" lon="4.67533">
        <ele>404</ele>
        <time>2011-12-03T08:50:46Z</time>
      </trkpt>
      <trkpt lat="45.79507" lon="4.67531">
        <ele>404</ele>
        <time>2011-12-03T08:50:47Z</time>
      </trkpt>
      <trkpt lat="45.79506" lon="4.67513">
        <ele>406</ele>
        <time>2011-12-03T08:50:55Z</time>
      </trkpt>
      <trkpt lat="45.79504" lon="4.67506">
        <ele>406</ele>
        <time>2011-12-03T08:50:58Z</time>
      </trkpt>
      <trkpt lat="45.79503" lon="4.67504">
        <ele>406</ele>
        <time>2011-12-03T08:50:59Z</time>
      </trkpt>
      <trkpt lat="45.79502" lon="4.67502">
        <ele>407</ele>
        <time>2011-12-03T08:51:00Z</time>
      </trkpt>
      <trkpt lat="45.79499" lon="4.67482">
        <ele>409</ele>
        <time>2011-12-03T08:51:08Z</time>
      </trkpt>
      <trkpt lat="45.79499" lon="4.67471">
        <ele>409</ele>
        <time>2011-12-03T08:51:13Z</time>
      </trkpt>
      <trkpt lat="45.79499" lon="4.67469">
        <ele>409</ele>
        <time>2011-12-03T08:51:14Z</time>
      </trkpt>
      <trkpt lat="45.79499" lon="4.67466">
        <ele>410</ele>
        <time>2011-12-03T08:51:15Z</time>
      </trkpt>
      <trkpt lat="45.79497" lon="4.67449">
        <ele>410</ele>
        <time>2011-12-03T08:51:22Z</time>
      </trkpt>
      <trkpt lat="45.79498" lon="4.6743">
        <ele>411</ele>
        <time>2011-12-03T08:51:30Z</time>
      </trkpt>
      <trkpt lat="45.795" lon="4.67428">
        <ele>411</ele>
        <time>2011-12-03T08:51:31Z</time>
      </trkpt>
      <trkpt lat="45.79501" lon="4.67426">
        <ele>412</ele>
        <time>2011-12-03T08:51:32Z</time>
      </trkpt>
      <trkpt lat="45.79502" lon="4.67424">
        <ele>412</ele>
        <time>2011-12-03T08:51:33Z</time>
      </trkpt>
      <trkpt lat="45.79503" lon="4.67407">
        <ele>413</ele>
        <time>2011-12-03T08:51:40Z</time>
      </trkpt>
      <trkpt lat="45.79504" lon="4.67404">
        <ele>413</ele>
        <time>2011-12-03T08:51:41Z</time>
      </trkpt>
      <trkpt lat="45.79504" lon="4.67402">
        <ele>413</ele>
        <time>2011-12-03T08:51:42Z</time>
      </trkpt>
      <trkpt lat="45.79505" lon="4.674">
        <ele>413</ele>
        <time>2011-12-03T08:51:43Z</time>
      </trkpt>
      <trkpt lat="45.79505" lon="4.67398">
        <ele>414</ele>
        <time>2011-12-03T08:51:44Z</time>
      </trkpt>
      <trkpt lat="45.79506" lon="4.67396">
        <ele>414</ele>
        <time>2011-12-03T08:51:45Z</time>
      </trkpt>
      <trkpt lat="45.79507" lon="4.67394">
        <ele>414</ele>
        <time>2011-12-03T08:51:46Z</time>
      </trkpt>
      <trkpt lat="45.79508" lon="4.67392">
        <ele>415</ele>
        <time>2011-12-03T08:51:47Z</time>
      </trkpt>
      <trkpt lat="45.79512" lon="4.67379">
        <ele>415</ele>
        <time>2011-12-03T08:51:53Z</time>
      </trkpt>
      <trkpt lat="45.79516" lon="4.6736">
        <ele>416</ele>
        <time>2011-12-03T08:52:01Z</time>
      </trkpt>
      <trkpt lat="45.79519" lon="4.67349">
        <ele>416</ele>
        <time>2011-12-03T08:52:05Z</time>
      </trkpt>
      <trkpt lat="45.79519" lon="4.67347">
        <ele>417</ele>
        <time>2011-12-03T08:52:06Z</time>
      </trkpt>
      <trkpt lat="45.79517" lon="4.67332">
        <ele>418</ele>
        <time>2011-12-03T08:52:13Z</time>
      </trkpt>
      <trkpt lat="45.79517" lon="4.67329">
        <ele>418</ele>
        <time>2011-12-03T08:52:14Z</time>
      </trkpt>
      <trkpt lat="45.79518" lon="4.67327">
        <ele>419</ele>
        <time>2011-12-03T08:52:15Z</time>
      </trkpt>
      <trkpt lat="45.79523" lon="4.67318">
        <ele>419</ele>
        <time>2011-12-03T08:52:20Z</time>
      </trkpt>
      <trkpt lat="45.79532" lon="4.67303">
        <ele>420</ele>
        <time>2011-12-03T08:52:29Z</time>
      </trkpt>
      <trkpt lat="45.79535" lon="4.67297">
        <ele>421</ele>
        <time>2011-12-03T08:52:32Z</time>
      </trkpt>
      <trkpt lat="45.79539" lon="4.6729">
        <ele>421</ele>
        <time>2011-12-03T08:52:36Z</time>
      </trkpt>
      <trkpt lat="45.79543" lon="4.6728">
        <ele>422</ele>
        <time>2011-12-03T08:52:41Z</time>
      </trkpt>
      <trkpt lat="45.79549" lon="4.67266">
        <ele>423</ele>
        <time>2011-12-03T08:52:47Z</time>
      </trkpt>
      <trkpt lat="45.79551" lon="4.67262">
        <ele>423</ele>
        <time>2011-12-03T08:52:49Z</time>
      </trkpt>
      <trkpt lat="45.79552" lon="4.67257">
        <ele>424</ele>
        <time>2011-12-03T08:52:51Z</time>
      </trkpt>
      <trkpt lat="45.79558" lon="4.67247">
        <ele>424</ele>
        <time>2011-12-03T08:52:57Z</time>
      </trkpt>
      <trkpt lat="45.79561" lon="4.67241">
        <ele>425</ele>
        <time>2011-12-03T08:53:00Z</time>
      </trkpt>
      <trkpt lat="45.79566" lon="4.67235">
        <ele>425</ele>
        <time>2011-12-03T08:53:04Z</time>
      </trkpt>
      <trkpt lat="45.7957" lon="4.67231">
        <ele>426</ele>
        <time>2011-12-03T08:53:08Z</time>
      </trkpt>
      <trkpt lat="45.7958" lon="4.67217">
        <ele>427</ele>
        <time>2011-12-03T08:53:16Z</time>
      </trkpt>
      <trkpt lat="45.79584" lon="4.67209">
        <ele>428</ele>
        <time>2011-12-03T08:53:21Z</time>
      </trkpt>
      <trkpt lat="45.79588" lon="4.67196">
        <ele>429</ele>
        <time>2011-12-03T08:53:26Z</time>
      </trkpt>
      <trkpt lat="45.79591" lon="4.67187">
        <ele>429</ele>
        <time>2011-12-03T08:53:29Z</time>
      </trkpt>
      <trkpt lat="45.79593" lon="4.67176">
        <ele>430</ele>
        <time>2011-12-03T08:53:33Z</time>
      </trkpt>
      <trkpt lat="45.79592" lon="4.6717">
        <ele>430</ele>
        <time>2011-12-03T08:53:35Z</time>
      </trkpt>
      <trkpt lat="45.79593" lon="4.67163">
        <ele>431</ele>
        <time>2011-12-03T08:53:38Z</time>
      </trkpt>
      <trkpt lat="45.79596" lon="4.67149">
        <ele>433</ele>
        <time>2011-12-03T08:53:44Z</time>
      </trkpt>
      <trkpt lat="45.79595" lon="4.67143">
        <ele>433</ele>
        <time>2011-12-03T08:53:46Z</time>
      </trkpt>
      <trkpt lat="45.79596" lon="4.67127">
        <ele>435</ele>
        <time>2011-12-03T08:53:52Z</time>
      </trkpt>
      <trkpt lat="45.79599" lon="4.67114">
        <ele>435</ele>
        <time>2011-12-03T08:53:58Z</time>
      </trkpt>
      <trkpt lat="45.79599" lon="4.6711">
        <ele>435</ele>
        <time>2011-12-03T08:54:00Z</time>
      </trkpt>
      <trkpt lat="45.796" lon="4.67105">
        <ele>436</ele>
        <time>2011-12-03T08:54:08Z</time>
      </trkpt>
      <trkpt lat="45.796" lon="4.67105">
        <ele>435</ele>
        <time>2011-12-03T08:54:26Z</time>
      </trkpt>
      <trkpt lat="45.79601" lon="4.67104">
        <ele>436</ele>
        <time>2011-12-03T08:54:34Z</time>
      </trkpt>
      <trkpt lat="45.79606" lon="4.67088">
        <ele>435</ele>
        <time>2011-12-03T08:54:39Z</time>
      </trkpt>
      <trkpt lat="45.79606" lon="4.67082">
        <ele>435</ele>
        <time>2011-12-03T08:54:40Z</time>
      </trkpt>
      <trkpt lat="45.79608" lon="4.67046">
        <ele>434</ele>
        <time>2011-12-03T08:54:47Z</time>
      </trkpt>
      <trkpt lat="45.79608" lon="4.67035">
        <ele>434</ele>
        <time>2011-12-03T08:54:49Z</time>
      </trkpt>
      <trkpt lat="45.79606" lon="4.67028">
        <ele>434</ele>
        <time>2011-12-03T08:54:50Z</time>
      </trkpt>
      <trkpt lat="45.79604" lon="4.67022">
        <ele>434</ele>
        <time>2011-12-03T08:54:51Z</time>
      </trkpt>
      <trkpt lat="45.79604" lon="4.67018">
        <ele>434</ele>
        <time>2011-12-03T08:54:52Z</time>
      </trkpt>
      <trkpt lat="45.79603" lon="4.67013">
        <ele>434</ele>
        <time>2011-12-03T08:54:53Z</time>
      </trkpt>
      <trkpt lat="45.79602" lon="4.67009">
        <ele>434</ele>
        <time>2011-12-03T08:54:54Z</time>
      </trkpt>
      <trkpt lat="45.79601" lon="4.67004">
        <ele>434</ele>
        <time>2011-12-03T08:54:55Z</time>
      </trkpt>
      <trkpt lat="45.79598" lon="4.6699">
        <ele>433</ele>
        <time>2011-12-03T08:54:58Z</time>
      </trkpt>
      <trkpt lat="45.79598" lon="4.66985">
        <ele>434</ele>
        <time>2011-12-03T08:54:59Z</time>
      </trkpt>
      <trkpt lat="45.79598" lon="4.66972">
        <ele>433</ele>
        <time>2011-12-03T08:55:01Z</time>
      </trkpt>
      <trkpt lat="45.79598" lon="4.66949">
        <ele>432</ele>
        <time>2011-12-03T08:55:04Z</time>
      </trkpt>
      <trkpt lat="45.79598" lon="4.6694">
        <ele>432</ele>
        <time>2011-12-03T08:55:05Z</time>
      </trkpt>
      <trkpt lat="45.79597" lon="4.66912">
        <ele>430</ele>
        <time>2011-12-03T08:55:08Z</time>
      </trkpt>
      <trkpt lat="45.79596" lon="4.66902">
        <ele>430</ele>
        <time>2011-12-03T08:55:09Z</time>
      </trkpt>
      <trkpt lat="45.79594" lon="4.66892">
        <ele>430</ele>
        <time>2011-12-03T08:55:10Z</time>
      </trkpt>
      <trkpt lat="45.79594" lon="4.66883">
        <ele>429</ele>
        <time>2011-12-03T08:55:11Z</time>
      </trkpt>
      <trkpt lat="45.79593" lon="4.66873">
        <ele>428</ele>
        <time>2011-12-03T08:55:12Z</time>
      </trkpt>
      <trkpt lat="45.79593" lon="4.66838">
        <ele>426</ele>
        <time>2011-12-03T08:55:16Z</time>
      </trkpt>
      <trkpt lat="45.79594" lon="4.6683">
        <ele>426</ele>
        <time>2011-12-03T08:55:17Z</time>
      </trkpt>
      <trkpt lat="45.79594" lon="4.66821">
        <ele>426</ele>
        <time>2011-12-03T08:55:18Z</time>
      </trkpt>
      <trkpt lat="45.79594" lon="4.66811">
        <ele>426</ele>
        <time>2011-12-03T08:55:19Z</time>
      </trkpt>
      <trkpt lat="45.79594" lon="4.66802">
        <ele>425</ele>
        <time>2011-12-03T08:55:20Z</time>
      </trkpt>
      <trkpt lat="45.79595" lon="4.66792">
        <ele>425</ele>
        <time>2011-12-03T08:55:21Z</time>
      </trkpt>
      <trkpt lat="45.79594" lon="4.66783">
        <ele>425</ele>
        <time>2011-12-03T08:55:22Z</time>
      </trkpt>
      <trkpt lat="45.79591" lon="4.66774">
        <ele>424</ele>
        <time>2011-12-03T08:55:23Z</time>
      </trkpt>
      <trkpt lat="45.79589" lon="4.66764">
        <ele>423</ele>
        <time>2011-12-03T08:55:24Z</time>
      </trkpt>
      <trkpt lat="45.79588" lon="4.66756">
        <ele>423</ele>
        <time>2011-12-03T08:55:25Z</time>
      </trkpt>
      <trkpt lat="45.79586" lon="4.66742">
        <ele>422</ele>
        <time>2011-12-03T08:55:27Z</time>
      </trkpt>
      <trkpt lat="45.79583" lon="4.66735">
        <ele>422</ele>
        <time>2011-12-03T08:55:28Z</time>
      </trkpt>
      <trkpt lat="45.7958" lon="4.66728">
        <ele>421</ele>
        <time>2011-12-03T08:55:29Z</time>
      </trkpt>
      <trkpt lat="45.79576" lon="4.66717">
        <ele>421</ele>
        <time>2011-12-03T08:55:31Z</time>
      </trkpt>
      <trkpt lat="45.79574" lon="4.66711">
        <ele>420</ele>
        <time>2011-12-03T08:55:32Z</time>
      </trkpt>
      <trkpt lat="45.79571" lon="4.66707">
        <ele>420</ele>
        <time>2011-12-03T08:55:33Z</time>
      </trkpt>
      <trkpt lat="45.79569" lon="4.66702">
        <ele>420</ele>
        <time>2011-12-03T08:55:34Z</time>
      </trkpt>
      <trkpt lat="45.79568" lon="4.66696">
        <ele>419</ele>
        <time>2011-12-03T08:55:35Z</time>
      </trkpt>
      <trkpt lat="45.79566" lon="4.66684">
        <ele>420</ele>
        <time>2011-12-03T08:55:37Z</time>
      </trkpt>
      <trkpt lat="45.79565" lon="4.66676">
        <ele>419</ele>
        <time>2011-12-03T08:55:38Z</time>
      </trkpt>
      <trkpt lat="45.79562" lon="4.66669">
        <ele>419</ele>
        <time>2011-12-03T08:55:39Z</time>
      </trkpt>
      <trkpt lat="45.79559" lon="4.66656">
        <ele>417</ele>
        <time>2011-12-03T08:55:41Z</time>
      </trkpt>
      <trkpt lat="45.7956" lon="4.66651">
        <ele>417</ele>
        <time>2011-12-03T08:55:42Z</time>
      </trkpt>
      <trkpt lat="45.79562" lon="4.66646">
        <ele>418</ele>
        <time>2011-12-03T08:55:43Z</time>
      </trkpt>
      <trkpt lat="45.79568" lon="4.66641">
        <ele>417</ele>
        <time>2011-12-03T08:55:45Z</time>
      </trkpt>
      <trkpt lat="45.79569" lon="4.6664">
        <ele>417</ele>
        <time>2011-12-03T08:55:46Z</time>
      </trkpt>
      <trkpt lat="45.7957" lon="4.66639">
        <ele>417</ele>
        <time>2011-12-03T08:55:47Z</time>
      </trkpt>
      <trkpt lat="45.79579" lon="4.66632">
        <ele>418</ele>
        <time>2011-12-03T08:55:53Z</time>
      </trkpt>
      <trkpt lat="45.79581" lon="4.66628">
        <ele>419</ele>
        <time>2011-12-03T08:55:55Z</time>
      </trkpt>
      <trkpt lat="45.79583" lon="4.66625">
        <ele>420</ele>
        <time>2011-12-03T08:55:56Z</time>
      </trkpt>
      <trkpt lat="45.79584" lon="4.66622">
        <ele>420</ele>
        <time>2011-12-03T08:55:57Z</time>
      </trkpt>
      <trkpt lat="45.79588" lon="4.66617">
        <ele>421</ele>
        <time>2011-12-03T08:56:00Z</time>
      </trkpt>
      <trkpt lat="45.79589" lon="4.66615">
        <ele>421</ele>
        <time>2011-12-03T08:56:01Z</time>
      </trkpt>
      <trkpt lat="45.79602" lon="4.66608">
        <ele>423</ele>
        <time>2011-12-03T08:56:09Z</time>
      </trkpt>
      <trkpt lat="45.79614" lon="4.66601">
        <ele>424</ele>
        <time>2011-12-03T08:56:17Z</time>
      </trkpt>
      <trkpt lat="45.79623" lon="4.66593">
        <ele>424</ele>
        <time>2011-12-03T08:56:24Z</time>
      </trkpt>
      <trkpt lat="45.79625" lon="4.66589">
        <ele>425</ele>
        <time>2011-12-03T08:56:26Z</time>
      </trkpt>
      <trkpt lat="45.79627" lon="4.66587">
        <ele>424</ele>
        <time>2011-12-03T08:56:27Z</time>
      </trkpt>
      <trkpt lat="45.79627" lon="4.66584">
        <ele>424</ele>
        <time>2011-12-03T08:56:28Z</time>
      </trkpt>
      <trkpt lat="45.79627" lon="4.66582">
        <ele>424</ele>
        <time>2011-12-03T08:56:29Z</time>
      </trkpt>
      <trkpt lat="45.79627" lon="4.6658">
        <ele>425</ele>
        <time>2011-12-03T08:56:30Z</time>
      </trkpt>
      <trkpt lat="45.79627" lon="4.66577">
        <ele>425</ele>
        <time>2011-12-03T08:56:31Z</time>
      </trkpt>
      <trkpt lat="45.7963" lon="4.66573">
        <ele>425</ele>
        <time>2011-12-03T08:56:35Z</time>
      </trkpt>
      <trkpt lat="45.79633" lon="4.66571">
        <ele>425</ele>
        <time>2011-12-03T08:56:36Z</time>
      </trkpt>
      <trkpt lat="45.79635" lon="4.66569">
        <ele>425</ele>
        <time>2011-12-03T08:56:37Z</time>
      </trkpt>
      <trkpt lat="45.79637" lon="4.66565">
        <ele>424</ele>
        <time>2011-12-03T08:56:38Z</time>
      </trkpt>
      <trkpt lat="45.79642" lon="4.66553">
        <ele>424</ele>
        <time>2011-12-03T08:56:43Z</time>
      </trkpt>
      <trkpt lat="45.79644" lon="4.66549">
        <ele>424</ele>
        <time>2011-12-03T08:56:44Z</time>
      </trkpt>
      <trkpt lat="45.79646" lon="4.66546">
        <ele>424</ele>
        <time>2011-12-03T08:56:45Z</time>
      </trkpt>
      <trkpt lat="45.79648" lon="4.66543">
        <ele>424</ele>
        <time>2011-12-03T08:56:46Z</time>
      </trkpt>
      <trkpt lat="45.79651" lon="4.6654">
        <ele>424</ele>
        <time>2011-12-03T08:56:47Z</time>
      </trkpt>
      <trkpt lat="45.79652" lon="4.66537">
        <ele>424</ele>
        <time>2011-12-03T08:56:48Z</time>
      </trkpt>
      <trkpt lat="45.79654" lon="4.66535">
        <ele>424</ele>
        <time>2011-12-03T08:56:49Z</time>
      </trkpt>
      <trkpt lat="45.79656" lon="4.66531">
        <ele>424</ele>
        <time>2011-12-03T08:56:51Z</time>
      </trkpt>
      <trkpt lat="45.79658" lon="4.66529">
        <ele>424</ele>
        <time>2011-12-03T08:56:52Z</time>
      </trkpt>
      <trkpt lat="45.79661" lon="4.66526">
        <ele>424</ele>
        <time>2011-12-03T08:56:53Z</time>
      </trkpt>
      <trkpt lat="45.79662" lon="4.66522">
        <ele>423</ele>
        <time>2011-12-03T08:56:54Z</time>
      </trkpt>
      <trkpt lat="45.79664" lon="4.66518">
        <ele>423</ele>
        <time>2011-12-03T08:56:55Z</time>
      </trkpt>
      <trkpt lat="45.79665" lon="4.66516">
        <ele>424</ele>
        <time>2011-12-03T08:56:56Z</time>
      </trkpt>
      <trkpt lat="45.79665" lon="4.66513">
        <ele>424</ele>
        <time>2011-12-03T08:56:57Z</time>
      </trkpt>
      <trkpt lat="45.79666" lon="4.6651">
        <ele>424</ele>
        <time>2011-12-03T08:56:58Z</time>
      </trkpt>
      <trkpt lat="45.79667" lon="4.66507">
        <ele>423</ele>
        <time>2011-12-03T08:56:59Z</time>
      </trkpt>
      <trkpt lat="45.79669" lon="4.66503">
        <ele>423</ele>
        <time>2011-12-03T08:57:00Z</time>
      </trkpt>
      <trkpt lat="45.79673" lon="4.66489">
        <ele>423</ele>
        <time>2011-12-03T08:57:04Z</time>
      </trkpt>
      <trkpt lat="45.79675" lon="4.66487">
        <ele>423</ele>
        <time>2011-12-03T08:57:05Z</time>
      </trkpt>
      <trkpt lat="45.79682" lon="4.6648">
        <ele>423</ele>
        <time>2011-12-03T08:57:08Z</time>
      </trkpt>
      <trkpt lat="45.79684" lon="4.66479">
        <ele>423</ele>
        <time>2011-12-03T08:57:09Z</time>
      </trkpt>
      <trkpt lat="45.79686" lon="4.66476">
        <ele>423</ele>
        <time>2011-12-03T08:57:10Z</time>
      </trkpt>
      <trkpt lat="45.79687" lon="4.66473">
        <ele>423</ele>
        <time>2011-12-03T08:57:11Z</time>
      </trkpt>
      <trkpt lat="45.79689" lon="4.66469">
        <ele>423</ele>
        <time>2011-12-03T08:57:12Z</time>
      </trkpt>
      <trkpt lat="45.7969" lon="4.66465">
        <ele>423</ele>
        <time>2011-12-03T08:57:13Z</time>
      </trkpt>
      <trkpt lat="45.79691" lon="4.66461">
        <ele>423</ele>
        <time>2011-12-03T08:57:14Z</time>
      </trkpt>
      <trkpt lat="45.79692" lon="4.66458">
        <ele>423</ele>
        <time>2011-12-03T08:57:15Z</time>
      </trkpt>
      <trkpt lat="45.79693" lon="4.66454">
        <ele>423</ele>
        <time>2011-12-03T08:57:16Z</time>
      </trkpt>
      <trkpt lat="45.79694" lon="4.66451">
        <ele>422</ele>
        <time>2011-12-03T08:57:17Z</time>
      </trkpt>
      <trkpt lat="45.79695" lon="4.66448">
        <ele>423</ele>
        <time>2011-12-03T08:57:18Z</time>
      </trkpt>
      <trkpt lat="45.79696" lon="4.66444">
        <ele>423</ele>
        <time>2011-12-03T08:57:19Z</time>
      </trkpt>
      <trkpt lat="45.79697" lon="4.6644">
        <ele>423</ele>
        <time>2011-12-03T08:57:20Z</time>
      </trkpt>
      <trkpt lat="45.79697" lon="4.66437">
        <ele>423</ele>
        <time>2011-12-03T08:57:21Z</time>
      </trkpt>
      <trkpt lat="45.79699" lon="4.66435">
        <ele>423</ele>
        <time>2011-12-03T08:57:22Z</time>
      </trkpt>
      <trkpt lat="45.79701" lon="4.66433">
        <ele>423</ele>
        <time>2011-12-03T08:57:23Z</time>
      </trkpt>
      <trkpt lat="45.79703" lon="4.66432">
        <ele>423</ele>
        <time>2011-12-03T08:57:24Z</time>
      </trkpt>
      <trkpt lat="45.79706" lon="4.66427">
        <ele>423</ele>
        <time>2011-12-03T08:57:27Z</time>
      </trkpt>
      <trkpt lat="45.79708" lon="4.66426">
        <ele>423</ele>
        <time>2011-12-03T08:57:28Z</time>
      </trkpt>
      <trkpt lat="45.7971" lon="4.66424">
        <ele>423</ele>
        <time>2011-12-03T08:57:29Z</time>
      </trkpt>
      <trkpt lat="45.79717" lon="4.6642">
        <ele>423</ele>
        <time>2011-12-03T08:57:32Z</time>
      </trkpt>
      <trkpt lat="45.79729" lon="4.66403">
        <ele>424</ele>
        <time>2011-12-03T08:57:39Z</time>
      </trkpt>
      <trkpt lat="45.79736" lon="4.66388">
        <ele>425</ele>
        <time>2011-12-03T08:57:44Z</time>
      </trkpt>
      <trkpt lat="45.79746" lon="4.66378">
        <ele>426</ele>
        <time>2011-12-03T08:57:50Z</time>
      </trkpt>
      <trkpt lat="45.79757" lon="4.66361">
        <ele>427</ele>
        <time>2011-12-03T08:57:56Z</time>
      </trkpt>
      <trkpt lat="45.7977" lon="4.66347">
        <ele>428</ele>
        <time>2011-12-03T08:58:02Z</time>
      </trkpt>
      <trkpt lat="45.79771" lon="4.66343">
        <ele>427</ele>
        <time>2011-12-03T08:58:03Z</time>
      </trkpt>
      <trkpt lat="45.79771" lon="4.6634">
        <ele>428</ele>
        <time>2011-12-03T08:58:04Z</time>
      </trkpt>
      <trkpt lat="45.79772" lon="4.66336">
        <ele>428</ele>
        <time>2011-12-03T08:58:05Z</time>
      </trkpt>
      <trkpt lat="45.79772" lon="4.66332">
        <ele>428</ele>
        <time>2011-12-03T08:58:06Z</time>
      </trkpt>
      <trkpt lat="45.79774" lon="4.66328">
        <ele>428</ele>
        <time>2011-12-03T08:58:07Z</time>
      </trkpt>
      <trkpt lat="45.79775" lon="4.66324">
        <ele>428</ele>
        <time>2011-12-03T08:58:08Z</time>
      </trkpt>
      <trkpt lat="45.79777" lon="4.66321">
        <ele>428</ele>
        <time>2011-12-03T08:58:09Z</time>
      </trkpt>
      <trkpt lat="45.79778" lon="4.66318">
        <ele>428</ele>
        <time>2011-12-03T08:58:10Z</time>
      </trkpt>
      <trkpt lat="45.79779" lon="4.66315">
        <ele>428</ele>
        <time>2011-12-03T08:58:11Z</time>
      </trkpt>
      <trkpt lat="45.79779" lon="4.66311">
        <ele>428</ele>
        <time>2011-12-03T08:58:12Z</time>
      </trkpt>
      <trkpt lat="45.7978" lon="4.66307">
        <ele>428</ele>
        <time>2011-12-03T08:58:13Z</time>
      </trkpt>
      <trkpt lat="45.79781" lon="4.66303">
        <ele>428</ele>
        <time>2011-12-03T08:58:14Z</time>
      </trkpt>
      <trkpt lat="45.79782" lon="4.66299">
        <ele>428</ele>
        <time>2011-12-03T08:58:15Z</time>
      </trkpt>
      <trkpt lat="45.79783" lon="4.66296">
        <ele>428</ele>
        <time>2011-12-03T08:58:16Z</time>
      </trkpt>
      <trkpt lat="45.79787" lon="4.6627">
        <ele>428</ele>
        <time>2011-12-03T08:58:22Z</time>
      </trkpt>
      <trkpt lat="45.79794" lon="4.6624">
        <ele>430</ele>
        <time>2011-12-03T08:58:29Z</time>
      </trkpt>
      <trkpt lat="45.79797" lon="4.66234">
        <ele>430</ele>
        <time>2011-12-03T08:58:31Z</time>
      </trkpt>
      <trkpt lat="45.798" lon="4.66231">
        <ele>431</ele>
        <time>2011-12-03T08:58:32Z</time>
      </trkpt>
      <trkpt lat="45.79803" lon="4.66228">
        <ele>431</ele>
        <time>2011-12-03T08:58:33Z</time>
      </trkpt>
      <trkpt lat="45.79806" lon="4.66225">
        <ele>431</ele>
        <time>2011-12-03T08:58:34Z</time>
      </trkpt>
      <trkpt lat="45.79809" lon="4.66222">
        <ele>432</ele>
        <time>2011-12-03T08:58:35Z</time>
      </trkpt>
      <trkpt lat="45.79813" lon="4.6622">
        <ele>431</ele>
        <time>2011-12-03T08:58:36Z</time>
      </trkpt>
      <trkpt lat="45.79816" lon="4.66218">
        <ele>431</ele>
        <time>2011-12-03T08:58:37Z</time>
      </trkpt>
      <trkpt lat="45.7982" lon="4.66216">
        <ele>431</ele>
        <time>2011-12-03T08:58:38Z</time>
      </trkpt>
      <trkpt lat="45.79843" lon="4.66197">
        <ele>431</ele>
        <time>2011-12-03T08:58:45Z</time>
      </trkpt>
      <trkpt lat="45.7986" lon="4.66171">
        <ele>432</ele>
        <time>2011-12-03T08:58:51Z</time>
      </trkpt>
      <trkpt lat="45.7987" lon="4.66136">
        <ele>433</ele>
        <time>2011-12-03T08:58:58Z</time>
      </trkpt>
      <trkpt lat="45.79877" lon="4.66103">
        <ele>433</ele>
        <time>2011-12-03T08:59:05Z</time>
      </trkpt>
      <trkpt lat="45.79883" lon="4.66062">
        <ele>435</ele>
        <time>2011-12-03T08:59:14Z</time>
      </trkpt>
      <trkpt lat="45.79892" lon="4.6603">
        <ele>436</ele>
        <time>2011-12-03T08:59:21Z</time>
      </trkpt>
      <trkpt lat="45.79893" lon="4.66026">
        <ele>433</ele>
        <time>2011-12-03T08:59:22Z</time>
      </trkpt>
      <trkpt lat="45.79895" lon="4.66017">
        <ele>437</ele>
        <time>2011-12-03T08:59:24Z</time>
      </trkpt>
      <trkpt lat="45.79896" lon="4.66013">
        <ele>433</ele>
        <time>2011-12-03T08:59:25Z</time>
      </trkpt>
      <trkpt lat="45.79906" lon="4.65977">
        <ele>435</ele>
        <time>2011-12-03T08:59:33Z</time>
      </trkpt>
      <trkpt lat="45.79919" lon="4.65941">
        <ele>436</ele>
        <time>2011-12-03T08:59:41Z</time>
      </trkpt>
      <trkpt lat="45.79938" lon="4.65911">
        <ele>436</ele>
        <time>2011-12-03T08:59:49Z</time>
      </trkpt>
      <trkpt lat="45.79958" lon="4.65884">
        <ele>438</ele>
        <time>2011-12-03T08:59:58Z</time>
      </trkpt>
      <trkpt lat="45.79968" lon="4.65849">
        <ele>440</ele>
        <time>2011-12-03T09:00:07Z</time>
      </trkpt>
      <trkpt lat="45.7997" lon="4.65816">
        <ele>441</ele>
        <time>2011-12-03T09:00:15Z</time>
      </trkpt>
      <trkpt lat="45.79975" lon="4.65783">
        <ele>442</ele>
        <time>2011-12-03T09:00:23Z</time>
      </trkpt>
      <trkpt lat="45.79979" lon="4.65765">
        <ele>443</ele>
        <time>2011-12-03T09:00:29Z</time>
      </trkpt>
      <trkpt lat="45.79979" lon="4.65763">
        <ele>443</ele>
        <time>2011-12-03T09:00:30Z</time>
      </trkpt>
      <trkpt lat="45.79978" lon="4.65761">
        <ele>443</ele>
        <time>2011-12-03T09:00:31Z</time>
      </trkpt>
      <trkpt lat="45.79963" lon="4.65752">
        <ele>444</ele>
        <time>2011-12-03T09:00:37Z</time>
      </trkpt>
      <trkpt lat="45.79943" lon="4.65749">
        <ele>445</ele>
        <time>2011-12-03T09:00:44Z</time>
      </trkpt>
      <trkpt lat="45.79917" lon="4.6575">
        <ele>445</ele>
        <time>2011-12-03T09:00:52Z</time>
      </trkpt>
      <trkpt lat="45.79894" lon="4.65752">
        <ele>445</ele>
        <time>2011-12-03T09:00:59Z</time>
      </trkpt>
      <trkpt lat="45.79865" lon="4.65757">
        <ele>445</ele>
        <time>2011-12-03T09:01:07Z</time>
      </trkpt>
      <trkpt lat="45.79838" lon="4.6576">
        <ele>444</ele>
        <time>2011-12-03T09:01:14Z</time>
      </trkpt>
      <trkpt lat="45.7983" lon="4.65762">
        <ele>444</ele>
        <time>2011-12-03T09:01:16Z</time>
      </trkpt>
      <trkpt lat="45.79825" lon="4.65761">
        <ele>444</ele>
        <time>2011-12-03T09:01:17Z</time>
      </trkpt>
      <trkpt lat="45.79786" lon="4.6576">
        <ele>443</ele>
        <time>2011-12-03T09:01:26Z</time>
      </trkpt>
      <trkpt lat="45.79774" lon="4.65763">
        <ele>443</ele>
        <time>2011-12-03T09:01:29Z</time>
      </trkpt>
      <trkpt lat="45.7977" lon="4.65764">
        <ele>443</ele>
        <time>2011-12-03T09:01:30Z</time>
      </trkpt>
      <trkpt lat="45.79754" lon="4.65772">
        <ele>443</ele>
        <time>2011-12-03T09:01:34Z</time>
      </trkpt>
      <trkpt lat="45.79723" lon="4.65789">
        <ele>443</ele>
        <time>2011-12-03T09:01:42Z</time>
      </trkpt>
      <trkpt lat="45.79702" lon="4.658">
        <ele>444</ele>
        <time>2011-12-03T09:01:49Z</time>
      </trkpt>
      <trkpt lat="45.79685" lon="4.65807">
        <ele>444</ele>
        <time>2011-12-03T09:01:56Z</time>
      </trkpt>
      <trkpt lat="45.79667" lon="4.65816">
        <ele>444</ele>
        <time>2011-12-03T09:02:04Z</time>
      </trkpt>
      <trkpt lat="45.79648" lon="4.65824">
        <ele>445</ele>
        <time>2011-12-03T09:02:11Z</time>
      </trkpt>
      <trkpt lat="45.79627" lon="4.6583">
        <ele>446</ele>
        <time>2011-12-03T09:02:19Z</time>
      </trkpt>
      <trkpt lat="45.79615" lon="4.6583">
        <ele>446</ele>
        <time>2011-12-03T09:02:26Z</time>
      </trkpt>
      <trkpt lat="45.79603" lon="4.65831">
        <ele>447</ele>
        <time>2011-12-03T09:02:32Z</time>
      </trkpt>
      <trkpt lat="45.7959" lon="4.65832">
        <ele>448</ele>
        <time>2011-12-03T09:02:39Z</time>
      </trkpt>
      <trkpt lat="45.79579" lon="4.65828">
        <ele>449</ele>
        <time>2011-12-03T09:02:44Z</time>
      </trkpt>
      <trkpt lat="45.79569" lon="4.65826">
        <ele>450</ele>
        <time>2011-12-03T09:02:51Z</time>
      </trkpt>
      <trkpt lat="45.7956" lon="4.65823">
        <ele>450</ele>
        <time>2011-12-03T09:02:57Z</time>
      </trkpt>
      <trkpt lat="45.79553" lon="4.65818">
        <ele>451</ele>
        <time>2011-12-03T09:03:02Z</time>
      </trkpt>
      <trkpt lat="45.79541" lon="4.6581">
        <ele>452</ele>
        <time>2011-12-03T09:03:09Z</time>
      </trkpt>
      <trkpt lat="45.7953" lon="4.65804">
        <ele>453</ele>
        <time>2011-12-03T09:03:15Z</time>
      </trkpt>
      <trkpt lat="45.7952" lon="4.65797">
        <ele>454</ele>
        <time>2011-12-03T09:03:21Z</time>
      </trkpt>
      <trkpt lat="45.7951" lon="4.6579">
        <ele>454</ele>
        <time>2011-12-03T09:03:27Z</time>
      </trkpt>
      <trkpt lat="45.79509" lon="4.65789">
        <ele>454</ele>
        <time>2011-12-03T09:03:28Z</time>
      </trkpt>
      <trkpt lat="45.79507" lon="4.65788">
        <ele>454</ele>
        <time>2011-12-03T09:03:29Z</time>
      </trkpt>
      <trkpt lat="45.79506" lon="4.65787">
        <ele>455</ele>
        <time>2011-12-03T09:03:30Z</time>
      </trkpt>
      <trkpt lat="45.79504" lon="4.65786">
        <ele>455</ele>
        <time>2011-12-03T09:03:31Z</time>
      </trkpt>
      <trkpt lat="45.79502" lon="4.65784">
        <ele>455</ele>
        <time>2011-12-03T09:03:32Z</time>
      </trkpt>
      <trkpt lat="45.795" lon="4.65783">
        <ele>455</ele>
        <time>2011-12-03T09:03:33Z</time>
      </trkpt>
      <trkpt lat="45.79498" lon="4.65782">
        <ele>455</ele>
        <time>2011-12-03T09:03:34Z</time>
      </trkpt>
      <trkpt lat="45.79493" lon="4.6578">
        <ele>456</ele>
        <time>2011-12-03T09:03:36Z</time>
      </trkpt>
      <trkpt lat="45.79491" lon="4.65779">
        <ele>456</ele>
        <time>2011-12-03T09:03:37Z</time>
      </trkpt>
      <trkpt lat="45.7949" lon="4.65778">
        <ele>456</ele>
        <time>2011-12-03T09:03:38Z</time>
      </trkpt>
      <trkpt lat="45.79488" lon="4.65777">
        <ele>456</ele>
        <time>2011-12-03T09:03:39Z</time>
      </trkpt>
      <trkpt lat="45.79486" lon="4.65776">
        <ele>457</ele>
        <time>2011-12-03T09:03:40Z</time>
      </trkpt>
      <trkpt lat="45.79479" lon="4.65773">
        <ele>457</ele>
        <time>2011-12-03T09:03:43Z</time>
      </trkpt>
      <trkpt lat="45.79477" lon="4.65773">
        <ele>457</ele>
        <time>2011-12-03T09:03:44Z</time>
      </trkpt>
      <trkpt lat="45.79465" lon="4.65768">
        <ele>458</ele>
        <time>2011-12-03T09:03:51Z</time>
      </trkpt>
      <trkpt lat="45.79453" lon="4.65765">
        <ele>460</ele>
        <time>2011-12-03T09:03:57Z</time>
      </trkpt>
      <trkpt lat="45.79444" lon="4.65763">
        <ele>460</ele>
        <time>2011-12-03T09:04:03Z</time>
      </trkpt>
      <trkpt lat="45.79435" lon="4.6576">
        <ele>462</ele>
        <time>2011-12-03T09:04:09Z</time>
      </trkpt>
      <trkpt lat="45.79428" lon="4.6576">
        <ele>463</ele>
        <time>2011-12-03T09:04:14Z</time>
      </trkpt>
      <trkpt lat="45.79426" lon="4.65759">
        <ele>463</ele>
        <time>2011-12-03T09:04:15Z</time>
      </trkpt>
      <trkpt lat="45.79424" lon="4.65759">
        <ele>463</ele>
        <time>2011-12-03T09:04:17Z</time>
      </trkpt>
      <trkpt lat="45.79418" lon="4.6576">
        <ele>464</ele>
        <time>2011-12-03T09:04:22Z</time>
      </trkpt>
      <trkpt lat="45.79416" lon="4.65759">
        <ele>464</ele>
        <time>2011-12-03T09:04:23Z</time>
      </trkpt>
      <trkpt lat="45.79415" lon="4.65759">
        <ele>464</ele>
        <time>2011-12-03T09:04:24Z</time>
      </trkpt>
      <trkpt lat="45.79407" lon="4.65755">
        <ele>465</ele>
        <time>2011-12-03T09:04:30Z</time>
      </trkpt>
      <trkpt lat="45.79397" lon="4.65753">
        <ele>467</ele>
        <time>2011-12-03T09:04:37Z</time>
      </trkpt>
      <trkpt lat="45.79388" lon="4.65753">
        <ele>468</ele>
        <time>2011-12-03T09:04:42Z</time>
      </trkpt>
      <trkpt lat="45.79385" lon="4.65752">
        <ele>468</ele>
        <time>2011-12-03T09:04:44Z</time>
      </trkpt>
      <trkpt lat="45.79383" lon="4.65751">
        <ele>468</ele>
        <time>2011-12-03T09:04:45Z</time>
      </trkpt>
      <trkpt lat="45.79382" lon="4.6575">
        <ele>468</ele>
        <time>2011-12-03T09:04:46Z</time>
      </trkpt>
      <trkpt lat="45.7938" lon="4.6575">
        <ele>469</ele>
        <time>2011-12-03T09:04:47Z</time>
      </trkpt>
      <trkpt lat="45.79379" lon="4.6575">
        <ele>469</ele>
        <time>2011-12-03T09:04:48Z</time>
      </trkpt>
      <trkpt lat="45.79377" lon="4.65749">
        <ele>469</ele>
        <time>2011-12-03T09:04:49Z</time>
      </trkpt>
      <trkpt lat="45.79376" lon="4.65748">
        <ele>469</ele>
        <time>2011-12-03T09:04:50Z</time>
      </trkpt>
      <trkpt lat="45.79374" lon="4.65748">
        <ele>469</ele>
        <time>2011-12-03T09:04:51Z</time>
      </trkpt>
      <trkpt lat="45.79373" lon="4.65747">
        <ele>469</ele>
        <time>2011-12-03T09:04:52Z</time>
      </trkpt>
      <trkpt lat="45.79362" lon="4.65745">
        <ele>470</ele>
        <time>2011-12-03T09:05:00Z</time>
      </trkpt>
      <trkpt lat="45.79357" lon="4.65745">
        <ele>471</ele>
        <time>2011-12-03T09:05:04Z</time>
      </trkpt>
      <trkpt lat="45.79356" lon="4.65745">
        <ele>471</ele>
        <time>2011-12-03T09:05:05Z</time>
      </trkpt>
      <trkpt lat="45.79346" lon="4.65745">
        <ele>473</ele>
        <time>2011-12-03T09:05:11Z</time>
      </trkpt>
      <trkpt lat="45.79339" lon="4.65746">
        <ele>473</ele>
        <time>2011-12-03T09:05:16Z</time>
      </trkpt>
      <trkpt lat="45.79337" lon="4.65747">
        <ele>474</ele>
        <time>2011-12-03T09:05:18Z</time>
      </trkpt>
      <trkpt lat="45.79336" lon="4.65747">
        <ele>474</ele>
        <time>2011-12-03T09:05:19Z</time>
      </trkpt>
      <trkpt lat="45.79326" lon="4.65748">
        <ele>475</ele>
        <time>2011-12-03T09:05:26Z</time>
      </trkpt>
      <trkpt lat="45.79317" lon="4.6575">
        <ele>476</ele>
        <time>2011-12-03T09:05:33Z</time>
      </trkpt>
      <trkpt lat="45.7931" lon="4.65749">
        <ele>477</ele>
        <time>2011-12-03T09:05:39Z</time>
      </trkpt>
      <trkpt lat="45.79309" lon="4.65749">
        <ele>477</ele>
        <time>2011-12-03T09:05:40Z</time>
      </trkpt>
      <trkpt lat="45.79307" lon="4.6575">
        <ele>478</ele>
        <time>2011-12-03T09:05:41Z</time>
      </trkpt>
      <trkpt lat="45.79305" lon="4.65751">
        <ele>478</ele>
        <time>2011-12-03T09:05:42Z</time>
      </trkpt>
      <trkpt lat="45.79303" lon="4.65752">
        <ele>478</ele>
        <time>2011-12-03T09:05:43Z</time>
      </trkpt>
      <trkpt lat="45.79301" lon="4.65751">
        <ele>479</ele>
        <time>2011-12-03T09:05:45Z</time>
      </trkpt>
      <trkpt lat="45.79299" lon="4.65751">
        <ele>479</ele>
        <time>2011-12-03T09:05:46Z</time>
      </trkpt>
      <trkpt lat="45.79297" lon="4.65751">
        <ele>480</ele>
        <time>2011-12-03T09:05:47Z</time>
      </trkpt>
      <trkpt lat="45.79296" lon="4.65752">
        <ele>479</ele>
        <time>2011-12-03T09:05:48Z</time>
      </trkpt>
      <trkpt lat="45.79285" lon="4.65753">
        <ele>481</ele>
        <time>2011-12-03T09:05:55Z</time>
      </trkpt>
      <trkpt lat="45.79274" lon="4.65754">
        <ele>482</ele>
        <time>2011-12-03T09:06:02Z</time>
      </trkpt>
      <trkpt lat="45.79271" lon="4.65755">
        <ele>483</ele>
        <time>2011-12-03T09:06:04Z</time>
      </trkpt>
      <trkpt lat="45.7927" lon="4.65754">
        <ele>483</ele>
        <time>2011-12-03T09:06:05Z</time>
      </trkpt>
      <trkpt lat="45.7926" lon="4.65755">
        <ele>484</ele>
        <time>2011-12-03T09:06:11Z</time>
      </trkpt>
      <trkpt lat="45.79253" lon="4.65755">
        <ele>485</ele>
        <time>2011-12-03T09:06:17Z</time>
      </trkpt>
      <trkpt lat="45.7925" lon="4.65756">
        <ele>486</ele>
        <time>2011-12-03T09:06:21Z</time>
      </trkpt>
      <trkpt lat="45.79248" lon="4.65755">
        <ele>486</ele>
        <time>2011-12-03T09:06:22Z</time>
      </trkpt>
      <trkpt lat="45.79247" lon="4.65755">
        <ele>486</ele>
        <time>2011-12-03T09:06:23Z</time>
      </trkpt>
      <trkpt lat="45.7924" lon="4.65753">
        <ele>486</ele>
        <time>2011-12-03T09:06:27Z</time>
      </trkpt>
      <trkpt lat="45.79239" lon="4.65752">
        <ele>487</ele>
        <time>2011-12-03T09:06:28Z</time>
      </trkpt>
      <trkpt lat="45.79231" lon="4.65752">
        <ele>488</ele>
        <time>2011-12-03T09:06:34Z</time>
      </trkpt>
      <trkpt lat="45.79222" lon="4.6575">
        <ele>489</ele>
        <time>2011-12-03T09:06:41Z</time>
      </trkpt>
      <trkpt lat="45.79216" lon="4.6575">
        <ele>489</ele>
        <time>2011-12-03T09:06:46Z</time>
      </trkpt>
      <trkpt lat="45.79207" lon="4.65749">
        <ele>490</ele>
        <time>2011-12-03T09:06:51Z</time>
      </trkpt>
      <trkpt lat="45.79204" lon="4.65749">
        <ele>491</ele>
        <time>2011-12-03T09:06:53Z</time>
      </trkpt>
      <trkpt lat="45.79191" lon="4.65747">
        <ele>492</ele>
        <time>2011-12-03T09:07:02Z</time>
      </trkpt>
      <trkpt lat="45.79183" lon="4.65745">
        <ele>494</ele>
        <time>2011-12-03T09:07:09Z</time>
      </trkpt>
      <trkpt lat="45.7917" lon="4.65744">
        <ele>497</ele>
        <time>2011-12-03T09:07:17Z</time>
      </trkpt>
      <trkpt lat="45.7916" lon="4.65739">
        <ele>499</ele>
        <time>2011-12-03T09:07:24Z</time>
      </trkpt>
      <trkpt lat="45.79157" lon="4.65737">
        <ele>499</ele>
        <time>2011-12-03T09:07:26Z</time>
      </trkpt>
      <trkpt lat="45.79156" lon="4.65734">
        <ele>500</ele>
        <time>2011-12-03T09:07:28Z</time>
      </trkpt>
      <trkpt lat="45.79154" lon="4.65733">
        <ele>500</ele>
        <time>2011-12-03T09:07:29Z</time>
      </trkpt>
      <trkpt lat="45.79153" lon="4.65733">
        <ele>499</ele>
        <time>2011-12-03T09:07:30Z</time>
      </trkpt>
      <trkpt lat="45.79151" lon="4.65733">
        <ele>500</ele>
        <time>2011-12-03T09:07:31Z</time>
      </trkpt>
      <trkpt lat="45.79149" lon="4.65733">
        <ele>500</ele>
        <time>2011-12-03T09:07:32Z</time>
      </trkpt>
      <trkpt lat="45.79147" lon="4.65733">
        <ele>500</ele>
        <time>2011-12-03T09:07:33Z</time>
      </trkpt>
      <trkpt lat="45.79143" lon="4.65732">
        <ele>501</ele>
        <time>2011-12-03T09:07:37Z</time>
      </trkpt>
      <trkpt lat="45.79131" lon="4.65728">
        <ele>502</ele>
        <time>2011-12-03T09:07:45Z</time>
      </trkpt>
      <trkpt lat="45.7913" lon="4.65727">
        <ele>502</ele>
        <time>2011-12-03T09:07:46Z</time>
      </trkpt>
      <trkpt lat="45.79128" lon="4.65725">
        <ele>503</ele>
        <time>2011-12-03T09:07:48Z</time>
      </trkpt>
      <trkpt lat="45.79116" lon="4.65727">
        <ele>503</ele>
        <time>2011-12-03T09:07:56Z</time>
      </trkpt>
      <trkpt lat="45.79113" lon="4.65728">
        <ele>503</ele>
        <time>2011-12-03T09:07:58Z</time>
      </trkpt>
      <trkpt lat="45.79112" lon="4.65728">
        <ele>504</ele>
        <time>2011-12-03T09:07:59Z</time>
      </trkpt>
      <trkpt lat="45.79107" lon="4.65724">
        <ele>504</ele>
        <time>2011-12-03T09:08:05Z</time>
      </trkpt>
      <trkpt lat="45.79104" lon="4.65722">
        <ele>505</ele>
        <time>2011-12-03T09:08:09Z</time>
      </trkpt>
      <trkpt lat="45.79104" lon="4.65723">
        <ele>504</ele>
        <time>2011-12-03T09:08:15Z</time>
      </trkpt>
      <trkpt lat="45.79103" lon="4.65724">
        <ele>504</ele>
        <time>2011-12-03T09:08:26Z</time>
      </trkpt>
      <trkpt lat="45.79103" lon="4.65724">
        <ele>504</ele>
        <time>2011-12-03T09:08:41Z</time>
      </trkpt>
      <trkpt lat="45.79103" lon="4.65723">
        <ele>503</ele>
        <time>2011-12-03T09:09:02Z</time>
      </trkpt>
      <trkpt lat="45.79103" lon="4.65723">
        <ele>504</ele>
        <time>2011-12-03T09:09:24Z</time>
      </trkpt>
      <trkpt lat="45.79103" lon="4.65723">
        <ele>505</ele>
        <time>2011-12-03T09:09:43Z</time>
      </trkpt>
      <trkpt lat="45.79103" lon="4.65723">
        <ele>504</ele>
        <time>2011-12-03T09:10:01Z</time>
      </trkpt>
      <trkpt lat="45.79103" lon="4.65724">
        <ele>504</ele>
        <time>2011-12-03T09:10:21Z</time>
      </trkpt>
      <trkpt lat="45.79103" lon="4.65724">
        <ele>504</ele>
        <time>2011-12-03T09:10:43Z</time>
      </trkpt>
      <trkpt lat="45.79104" lon="4.65723">
        <ele>504</ele>
        <time>2011-12-03T09:11:00Z</time>
      </trkpt>
      <trkpt lat="45.79104" lon="4.65723">
        <ele>504</ele>
        <time>2011-12-03T09:11:18Z</time>
      </trkpt>
      <trkpt lat="45.79104" lon="4.65723">
        <ele>503</ele>
        <time>2011-12-03T09:11:38Z</time>
      </trkpt>
      <trkpt lat="45.79104" lon="4.65723">
        <ele>504</ele>
        <time>2011-12-03T09:11:53Z</time>
      </trkpt>
      <trkpt lat="45.79104" lon="4.65723">
        <ele>503</ele>
        <time>2011-12-03T09:12:11Z</time>
      </trkpt>
      <trkpt lat="45.79104" lon="4.65723">
        <ele>504</ele>
        <time>2011-12-03T09:12:29Z</time>
      </trkpt>
      <trkpt lat="45.79104" lon="4.65723">
        <ele>504</ele>
        <time>2011-12-03T09:12:52Z</time>
      </trkpt>
      <trkpt lat="45.79104" lon="4.65724">
        <ele>504</ele>
        <time>2011-12-03T09:13:09Z</time>
      </trkpt>
      <trkpt lat="45.79104" lon="4.65724">
        <ele>504</ele>
        <time>2011-12-03T09:13:30Z</time>
      </trkpt>
      <trkpt lat="45.79104" lon="4.65724">
        <ele>504</ele>
        <time>2011-12-03T09:13:48Z</time>
      </trkpt>
      <trkpt lat="45.79104" lon="4.65724">
        <ele>504</ele>
        <time>2011-12-03T09:14:09Z</time>
      </trkpt>
      <trkpt lat="45.79104" lon="4.65724">
        <ele>504</ele>
        <time>2011-12-03T09:14:29Z</time>
      </trkpt>
      <trkpt lat="45.79104" lon="4.65724">
        <ele>504</ele>
        <time>2011-12-03T09:14:44Z</time>
      </trkpt>
      <trkpt lat="45.79104" lon="4.65725">
        <ele>504</ele>
        <time>2011-12-03T09:15:04Z</time>
      </trkpt>
      <trkpt lat="45.79104" lon="4.65725">
        <ele>504</ele>
        <time>2011-12-03T09:15:26Z</time>
      </trkpt>
      <trkpt lat="45.79104" lon="4.65724">
        <ele>504</ele>
        <time>2011-12-03T09:15:49Z</time>
      </trkpt>
      <trkpt lat="45.79104" lon="4.65724">
        <ele>504</ele>
        <time>2011-12-03T09:16:11Z</time>
      </trkpt>
      <trkpt lat="45.79104" lon="4.65724">
        <ele>504</ele>
        <time>2011-12-03T09:16:30Z</time>
      </trkpt>
      <trkpt lat="45.79104" lon="4.65724">
        <ele>504</ele>
        <time>2011-12-03T09:16:53Z</time>
      </trkpt>
      <trkpt lat="45.79105" lon="4.65724">
        <ele>504</ele>
        <time>2011-12-03T09:17:12Z</time>
      </trkpt>
      <trkpt lat="45.79105" lon="4.65724">
        <ele>504</ele>
        <time>2011-12-03T09:17:28Z</time>
      </trkpt>
      <trkpt lat="45.79105" lon="4.65724">
        <ele>504</ele>
        <time>2011-12-03T09:17:42Z</time>
      </trkpt>
      <trkpt lat="45.79105" lon="4.65724">
        <ele>504</ele>
        <time>2011-12-03T09:18:02Z</time>
      </trkpt>
      <trkpt lat="45.79105" lon="4.65724">
        <ele>504</ele>
        <time>2011-12-03T09:18:15Z</time>
      </trkpt>
      <trkpt lat="45.79105" lon="4.65724">
        <ele>504</ele>
        <time>2011-12-03T09:18:38Z</time>
      </trkpt>
      <trkpt lat="45.79105" lon="4.65724">
        <ele>503</ele>
        <time>2011-12-03T09:18:55Z</time>
      </trkpt>
      <trkpt lat="45.79104" lon="4.65724">
        <ele>504</ele>
        <time>2011-12-03T09:19:12Z</time>
      </trkpt>
      <trkpt lat="45.79104" lon="4.65724">
        <ele>504</ele>
        <time>2011-12-03T09:19:33Z</time>
      </trkpt>
      <trkpt lat="45.79105" lon="4.65724">
        <ele>503</ele>
        <time>2011-12-03T09:19:56Z</time>
      </trkpt>
      <trkpt lat="45.79105" lon="4.65724">
        <ele>503</ele>
        <time>2011-12-03T09:20:03Z</time>
      </trkpt>
      <trkpt lat="45.79103" lon="4.65727">
        <ele>503</ele>
        <time>2011-12-03T09:20:11Z</time>
      </trkpt>
      <trkpt lat="45.79101" lon="4.65729">
        <ele>504</ele>
        <time>2011-12-03T09:20:12Z</time>
      </trkpt>
      <trkpt lat="45.791" lon="4.6573">
        <ele>504</ele>
        <time>2011-12-03T09:20:13Z</time>
      </trkpt>
      <trkpt lat="45.79098" lon="4.65731">
        <ele>504</ele>
        <time>2011-12-03T09:20:14Z</time>
      </trkpt>
      <trkpt lat="45.79089" lon="4.65736">
        <ele>504</ele>
        <time>2011-12-03T09:20:21Z</time>
      </trkpt>
      <trkpt lat="45.79073" lon="4.65736">
        <ele>504</ele>
        <time>2011-12-03T09:20:28Z</time>
      </trkpt>
      <trkpt lat="45.79054" lon="4.6574">
        <ele>502</ele>
        <time>2011-12-03T09:20:34Z</time>
      </trkpt>
      <trkpt lat="45.79046" lon="4.65743">
        <ele>502</ele>
        <time>2011-12-03T09:20:36Z</time>
      </trkpt>
      <trkpt lat="45.79041" lon="4.65745">
        <ele>501</ele>
        <time>2011-12-03T09:20:37Z</time>
      </trkpt>
      <trkpt lat="45.79037" lon="4.65749">
        <ele>501</ele>
        <time>2011-12-03T09:20:38Z</time>
      </trkpt>
      <trkpt lat="45.79015" lon="4.6576">
        <ele>499</ele>
        <time>2011-12-03T09:20:42Z</time>
      </trkpt>
      <trkpt lat="45.79003" lon="4.65764">
        <ele>497</ele>
        <time>2011-12-03T09:20:44Z</time>
      </trkpt>
      <trkpt lat="45.78999" lon="4.65766">
        <ele>497</ele>
        <time>2011-12-03T09:20:45Z</time>
      </trkpt>
      <trkpt lat="45.78994" lon="4.65769">
        <ele>496</ele>
        <time>2011-12-03T09:20:46Z</time>
      </trkpt>
      <trkpt lat="45.78989" lon="4.65773">
        <ele>495</ele>
        <time>2011-12-03T09:20:47Z</time>
      </trkpt>
      <trkpt lat="45.78984" lon="4.65777">
        <ele>494</ele>
        <time>2011-12-03T09:20:48Z</time>
      </trkpt>
      <trkpt lat="45.78978" lon="4.6578">
        <ele>493</ele>
        <time>2011-12-03T09:20:49Z</time>
      </trkpt>
      <trkpt lat="45.78974" lon="4.65782">
        <ele>493</ele>
        <time>2011-12-03T09:20:50Z</time>
      </trkpt>
      <trkpt lat="45.78969" lon="4.65782">
        <ele>492</ele>
        <time>2011-12-03T09:20:51Z</time>
      </trkpt>
      <trkpt lat="45.78964" lon="4.65783">
        <ele>491</ele>
        <time>2011-12-03T09:20:52Z</time>
      </trkpt>
      <trkpt lat="45.78959" lon="4.65784">
        <ele>490</ele>
        <time>2011-12-03T09:20:53Z</time>
      </trkpt>
      <trkpt lat="45.78955" lon="4.65786">
        <ele>490</ele>
        <time>2011-12-03T09:20:54Z</time>
      </trkpt>
      <trkpt lat="45.78951" lon="4.65788">
        <ele>489</ele>
        <time>2011-12-03T09:20:55Z</time>
      </trkpt>
      <trkpt lat="45.78947" lon="4.6579">
        <ele>488</ele>
        <time>2011-12-03T09:20:56Z</time>
      </trkpt>
      <trkpt lat="45.78943" lon="4.65794">
        <ele>488</ele>
        <time>2011-12-03T09:20:57Z</time>
      </trkpt>
      <trkpt lat="45.7894" lon="4.65798">
        <ele>486</ele>
        <time>2011-12-03T09:20:58Z</time>
      </trkpt>
      <trkpt lat="45.78937" lon="4.65802">
        <ele>486</ele>
        <time>2011-12-03T09:20:59Z</time>
      </trkpt>
      <trkpt lat="45.78934" lon="4.65806">
        <ele>486</ele>
        <time>2011-12-03T09:21:00Z</time>
      </trkpt>
      <trkpt lat="45.7893" lon="4.65811">
        <ele>485</ele>
        <time>2011-12-03T09:21:01Z</time>
      </trkpt>
      <trkpt lat="45.78927" lon="4.65816">
        <ele>484</ele>
        <time>2011-12-03T09:21:02Z</time>
      </trkpt>
      <trkpt lat="45.78913" lon="4.65842">
        <ele>482</ele>
        <time>2011-12-03T09:21:08Z</time>
      </trkpt>
      <trkpt lat="45.78912" lon="4.65847">
        <ele>481</ele>
        <time>2011-12-03T09:21:09Z</time>
      </trkpt>
      <trkpt lat="45.7891" lon="4.65851">
        <ele>481</ele>
        <time>2011-12-03T09:21:10Z</time>
      </trkpt>
      <trkpt lat="45.78908" lon="4.65857">
        <ele>480</ele>
        <time>2011-12-03T09:21:11Z</time>
      </trkpt>
      <trkpt lat="45.78906" lon="4.65864">
        <ele>480</ele>
        <time>2011-12-03T09:21:12Z</time>
      </trkpt>
      <trkpt lat="45.78904" lon="4.65869">
        <ele>479</ele>
        <time>2011-12-03T09:21:13Z</time>
      </trkpt>
      <trkpt lat="45.78903" lon="4.65875">
        <ele>479</ele>
        <time>2011-12-03T09:21:14Z</time>
      </trkpt>
      <trkpt lat="45.78896" lon="4.659">
        <ele>476</ele>
        <time>2011-12-03T09:21:19Z</time>
      </trkpt>
      <trkpt lat="45.78893" lon="4.65907">
        <ele>475</ele>
        <time>2011-12-03T09:21:21Z</time>
      </trkpt>
      <trkpt lat="45.78891" lon="4.6591">
        <ele>474</ele>
        <time>2011-12-03T09:21:22Z</time>
      </trkpt>
      <trkpt lat="45.7889" lon="4.65914">
        <ele>474</ele>
        <time>2011-12-03T09:21:23Z</time>
      </trkpt>
      <trkpt lat="45.78889" lon="4.65919">
        <ele>473</ele>
        <time>2011-12-03T09:21:24Z</time>
      </trkpt>
      <trkpt lat="45.78887" lon="4.65924">
        <ele>473</ele>
        <time>2011-12-03T09:21:25Z</time>
      </trkpt>
      <trkpt lat="45.78885" lon="4.6593">
        <ele>472</ele>
        <time>2011-12-03T09:21:26Z</time>
      </trkpt>
      <trkpt lat="45.78883" lon="4.65936">
        <ele>471</ele>
        <time>2011-12-03T09:21:27Z</time>
      </trkpt>
      <trkpt lat="45.7888" lon="4.65942">
        <ele>471</ele>
        <time>2011-12-03T09:21:28Z</time>
      </trkpt>
      <trkpt lat="45.78878" lon="4.65947">
        <ele>470</ele>
        <time>2011-12-03T09:21:29Z</time>
      </trkpt>
      <trkpt lat="45.78876" lon="4.65951">
        <ele>470</ele>
        <time>2011-12-03T09:21:30Z</time>
      </trkpt>
      <trkpt lat="45.78872" lon="4.65958">
        <ele>469</ele>
        <time>2011-12-03T09:21:32Z</time>
      </trkpt>
      <trkpt lat="45.78871" lon="4.65961">
        <ele>469</ele>
        <time>2011-12-03T09:21:33Z</time>
      </trkpt>
      <trkpt lat="45.78866" lon="4.65978">
        <ele>468</ele>
        <time>2011-12-03T09:21:38Z</time>
      </trkpt>
      <trkpt lat="45.78861" lon="4.65992">
        <ele>466</ele>
        <time>2011-12-03T09:21:42Z</time>
      </trkpt>
      <trkpt lat="45.78857" lon="4.66002">
        <ele>465</ele>
        <time>2011-12-03T09:21:44Z</time>
      </trkpt>
      <trkpt lat="45.78852" lon="4.6602">
        <ele>463</ele>
        <time>2011-12-03T09:21:48Z</time>
      </trkpt>
      <trkpt lat="45.78851" lon="4.66025">
        <ele>463</ele>
        <time>2011-12-03T09:21:50Z</time>
      </trkpt>
      <trkpt lat="45.78844" lon="4.66028">
        <ele>462</ele>
        <time>2011-12-03T09:21:53Z</time>
      </trkpt>
      <trkpt lat="45.78838" lon="4.6603">
        <ele>460</ele>
        <time>2011-12-03T09:21:55Z</time>
      </trkpt>
      <trkpt lat="45.78828" lon="4.66039">
        <ele>457</ele>
        <time>2011-12-03T09:22:00Z</time>
      </trkpt>
      <trkpt lat="45.78816" lon="4.66048">
        <ele>455</ele>
        <time>2011-12-03T09:22:04Z</time>
      </trkpt>
      <trkpt lat="45.78807" lon="4.66056">
        <ele>453</ele>
        <time>2011-12-03T09:22:07Z</time>
      </trkpt>
      <trkpt lat="45.78798" lon="4.66063">
        <ele>450</ele>
        <time>2011-12-03T09:22:11Z</time>
      </trkpt>
      <trkpt lat="45.78786" lon="4.66071">
        <ele>449</ele>
        <time>2011-12-03T09:22:15Z</time>
      </trkpt>
      <trkpt lat="45.78781" lon="4.66078">
        <ele>448</ele>
        <time>2011-12-03T09:22:17Z</time>
      </trkpt>
      <trkpt lat="45.78776" lon="4.66097">
        <ele>446</ele>
        <time>2011-12-03T09:22:22Z</time>
      </trkpt>
      <trkpt lat="45.78777" lon="4.66114">
        <ele>444</ele>
        <time>2011-12-03T09:22:26Z</time>
      </trkpt>
      <trkpt lat="45.78773" lon="4.66126">
        <ele>442</ele>
        <time>2011-12-03T09:22:29Z</time>
      </trkpt>
      <trkpt lat="45.78767" lon="4.66135">
        <ele>441</ele>
        <time>2011-12-03T09:22:32Z</time>
      </trkpt>
      <trkpt lat="45.78763" lon="4.66146">
        <ele>441</ele>
        <time>2011-12-03T09:22:37Z</time>
      </trkpt>
      <trkpt lat="45.7876" lon="4.6615">
        <ele>441</ele>
        <time>2011-12-03T09:22:45Z</time>
      </trkpt>
      <trkpt lat="45.78759" lon="4.6615">
        <ele>440</ele>
        <time>2011-12-03T09:22:53Z</time>
      </trkpt>
      <trkpt lat="45.78753" lon="4.66153">
        <ele>439</ele>
        <time>2011-12-03T09:23:00Z</time>
      </trkpt>
      <trkpt lat="45.78734" lon="4.66159">
        <ele>438</ele>
        <time>2011-12-03T09:23:07Z</time>
      </trkpt>
      <trkpt lat="45.78723" lon="4.66163">
        <ele>437</ele>
        <time>2011-12-03T09:23:12Z</time>
      </trkpt>
      <trkpt lat="45.7872" lon="4.66164">
        <ele>436</ele>
        <time>2011-12-03T09:23:23Z</time>
      </trkpt>
      <trkpt lat="45.78715" lon="4.66166">
        <ele>434</ele>
        <time>2011-12-03T09:23:29Z</time>
      </trkpt>
      <trkpt lat="45.78713" lon="4.66166">
        <ele>434</ele>
        <time>2011-12-03T09:23:36Z</time>
      </trkpt>
      <trkpt lat="45.78712" lon="4.66165">
        <ele>434</ele>
        <time>2011-12-03T09:23:37Z</time>
      </trkpt>
      <trkpt lat="45.787" lon="4.66164">
        <ele>432</ele>
        <time>2011-12-03T09:23:42Z</time>
      </trkpt>
      <trkpt lat="45.78698" lon="4.66163">
        <ele>432</ele>
        <time>2011-12-03T09:23:43Z</time>
      </trkpt>
      <trkpt lat="45.78684" lon="4.66168">
        <ele>429</ele>
        <time>2011-12-03T09:23:50Z</time>
      </trkpt>
      <trkpt lat="45.78675" lon="4.66175">
        <ele>428</ele>
        <time>2011-12-03T09:23:53Z</time>
      </trkpt>
      <trkpt lat="45.7866" lon="4.66186">
        <ele>426</ele>
        <time>2011-12-03T09:23:58Z</time>
      </trkpt>
      <trkpt lat="45.78635" lon="4.66201">
        <ele>424</ele>
        <time>2011-12-03T09:24:06Z</time>
      </trkpt>
      <trkpt lat="45.7862" lon="4.66226">
        <ele>421</ele>
        <time>2011-12-03T09:24:12Z</time>
      </trkpt>
      <trkpt lat="45.78618" lon="4.66231">
        <ele>421</ele>
        <time>2011-12-03T09:24:13Z</time>
      </trkpt>
      <trkpt lat="45.78613" lon="4.66242">
        <ele>420</ele>
        <time>2011-12-03T09:24:15Z</time>
      </trkpt>
      <trkpt lat="45.78611" lon="4.66248">
        <ele>419</ele>
        <time>2011-12-03T09:24:16Z</time>
      </trkpt>
      <trkpt lat="45.78609" lon="4.66254">
        <ele>418</ele>
        <time>2011-12-03T09:24:17Z</time>
      </trkpt>
      <trkpt lat="45.78599" lon="4.66279">
        <ele>416</ele>
        <time>2011-12-03T09:24:22Z</time>
      </trkpt>
      <trkpt lat="45.78594" lon="4.66289">
        <ele>414</ele>
        <time>2011-12-03T09:24:24Z</time>
      </trkpt>
      <trkpt lat="45.78591" lon="4.663">
        <ele>413</ele>
        <time>2011-12-03T09:24:26Z</time>
      </trkpt>
      <trkpt lat="45.78589" lon="4.66306">
        <ele>412</ele>
        <time>2011-12-03T09:24:27Z</time>
      </trkpt>
      <trkpt lat="45.78587" lon="4.66314">
        <ele>411</ele>
        <time>2011-12-03T09:24:28Z</time>
      </trkpt>
      <trkpt lat="45.78581" lon="4.66342">
        <ele>407</ele>
        <time>2011-12-03T09:24:32Z</time>
      </trkpt>
      <trkpt lat="45.78578" lon="4.6635">
        <ele>406</ele>
        <time>2011-12-03T09:24:34Z</time>
      </trkpt>
      <trkpt lat="45.78574" lon="4.66361">
        <ele>405</ele>
        <time>2011-12-03T09:24:36Z</time>
      </trkpt>
      <trkpt lat="45.78573" lon="4.66368">
        <ele>404</ele>
        <time>2011-12-03T09:24:37Z</time>
      </trkpt>
      <trkpt lat="45.78571" lon="4.66382">
        <ele>402</ele>
        <time>2011-12-03T09:24:39Z</time>
      </trkpt>
      <trkpt lat="45.78569" lon="4.66388">
        <ele>402</ele>
        <time>2011-12-03T09:24:40Z</time>
      </trkpt>
      <trkpt lat="45.78566" lon="4.66392">
        <ele>401</ele>
        <time>2011-12-03T09:24:41Z</time>
      </trkpt>
      <trkpt lat="45.78557" lon="4.66399">
        <ele>401</ele>
        <time>2011-12-03T09:24:43Z</time>
      </trkpt>
      <trkpt lat="45.78552" lon="4.664">
        <ele>401</ele>
        <time>2011-12-03T09:24:44Z</time>
      </trkpt>
      <trkpt lat="45.78548" lon="4.664">
        <ele>401</ele>
        <time>2011-12-03T09:24:45Z</time>
      </trkpt>
      <trkpt lat="45.7854" lon="4.664">
        <ele>401</ele>
        <time>2011-12-03T09:24:47Z</time>
      </trkpt>
      <trkpt lat="45.78535" lon="4.66402">
        <ele>400</ele>
        <time>2011-12-03T09:24:48Z</time>
      </trkpt>
      <trkpt lat="45.78532" lon="4.66405">
        <ele>400</ele>
        <time>2011-12-03T09:24:49Z</time>
      </trkpt>
      <trkpt lat="45.78513" lon="4.66423">
        <ele>400</ele>
        <time>2011-12-03T09:24:55Z</time>
      </trkpt>
      <trkpt lat="45.7851" lon="4.66426">
        <ele>400</ele>
        <time>2011-12-03T09:25:01Z</time>
      </trkpt>
      <trkpt lat="45.7851" lon="4.66426">
        <ele>400</ele>
        <time>2011-12-03T09:25:18Z</time>
      </trkpt>
      <trkpt lat="45.78509" lon="4.66428">
        <ele>400</ele>
        <time>2011-12-03T09:25:22Z</time>
      </trkpt>
      <trkpt lat="45.78509" lon="4.6643">
        <ele>400</ele>
        <time>2011-12-03T09:25:23Z</time>
      </trkpt>
      <trkpt lat="45.78507" lon="4.66432">
        <ele>400</ele>
        <time>2011-12-03T09:25:24Z</time>
      </trkpt>
      <trkpt lat="45.78506" lon="4.66433">
        <ele>400</ele>
        <time>2011-12-03T09:25:25Z</time>
      </trkpt>
      <trkpt lat="45.78503" lon="4.66433">
        <ele>400</ele>
        <time>2011-12-03T09:25:26Z</time>
      </trkpt>
      <trkpt lat="45.78501" lon="4.66433">
        <ele>400</ele>
        <time>2011-12-03T09:25:27Z</time>
      </trkpt>
      <trkpt lat="45.78499" lon="4.66435">
        <ele>400</ele>
        <time>2011-12-03T09:25:28Z</time>
      </trkpt>
      <trkpt lat="45.78497" lon="4.66437">
        <ele>400</ele>
        <time>2011-12-03T09:25:29Z</time>
      </trkpt>
      <trkpt lat="45.78482" lon="4.66453">
        <ele>400</ele>
        <time>2011-12-03T09:25:35Z</time>
      </trkpt>
      <trkpt lat="45.78465" lon="4.66471">
        <ele>400</ele>
        <time>2011-12-03T09:25:41Z</time>
      </trkpt>
      <trkpt lat="45.78431" lon="4.665">
        <ele>402</ele>
        <time>2011-12-03T09:25:51Z</time>
      </trkpt>
      <trkpt lat="45.78406" lon="4.66526">
        <ele>403</ele>
        <time>2011-12-03T09:26:00Z</time>
      </trkpt>
      <trkpt lat="45.78393" lon="4.66543">
        <ele>404</ele>
        <time>2011-12-03T09:26:06Z</time>
      </trkpt>
      <trkpt lat="45.78377" lon="4.66566">
        <ele>406</ele>
        <time>2011-12-03T09:26:13Z</time>
      </trkpt>
      <trkpt lat="45.78366" lon="4.66587">
        <ele>407</ele>
        <time>2011-12-03T09:26:19Z</time>
      </trkpt>
      <trkpt lat="45.7835" lon="4.66618">
        <ele>408</ele>
        <time>2011-12-03T09:26:27Z</time>
      </trkpt>
      <trkpt lat="45.78336" lon="4.66649">
        <ele>408</ele>
        <time>2011-12-03T09:26:35Z</time>
      </trkpt>
      <trkpt lat="45.78334" lon="4.6666">
        <ele>408</ele>
        <time>2011-12-03T09:26:39Z</time>
      </trkpt>
      <trkpt lat="45.78335" lon="4.66662">
        <ele>408</ele>
        <time>2011-12-03T09:26:40Z</time>
      </trkpt>
      <trkpt lat="45.78336" lon="4.66664">
        <ele>407</ele>
        <time>2011-12-03T09:26:41Z</time>
      </trkpt>
      <trkpt lat="45.78338" lon="4.66669">
        <ele>406</ele>
        <time>2011-12-03T09:26:42Z</time>
      </trkpt>
      <trkpt lat="45.7834" lon="4.66674">
        <ele>405</ele>
        <time>2011-12-03T09:26:43Z</time>
      </trkpt>
      <trkpt lat="45.78342" lon="4.66679">
        <ele>405</ele>
        <time>2011-12-03T09:26:44Z</time>
      </trkpt>
      <trkpt lat="45.78344" lon="4.66685">
        <ele>403</ele>
        <time>2011-12-03T09:26:45Z</time>
      </trkpt>
      <trkpt lat="45.78354" lon="4.6671">
        <ele>400</ele>
        <time>2011-12-03T09:26:49Z</time>
      </trkpt>
      <trkpt lat="45.78359" lon="4.66745">
        <ele>397</ele>
        <time>2011-12-03T09:26:53Z</time>
      </trkpt>
      <trkpt lat="45.78361" lon="4.66762">
        <ele>395</ele>
        <time>2011-12-03T09:26:55Z</time>
      </trkpt>
      <trkpt lat="45.78365" lon="4.66782">
        <ele>393</ele>
        <time>2011-12-03T09:26:58Z</time>
      </trkpt>
      <trkpt lat="45.78366" lon="4.66788">
        <ele>392</ele>
        <time>2011-12-03T09:26:59Z</time>
      </trkpt>
      <trkpt lat="45.78367" lon="4.66794">
        <ele>392</ele>
        <time>2011-12-03T09:27:00Z</time>
      </trkpt>
      <trkpt lat="45.78368" lon="4.66801">
        <ele>392</ele>
        <time>2011-12-03T09:27:01Z</time>
      </trkpt>
      <trkpt lat="45.78368" lon="4.66808">
        <ele>391</ele>
        <time>2011-12-03T09:27:02Z</time>
      </trkpt>
      <trkpt lat="45.78369" lon="4.66816">
        <ele>391</ele>
        <time>2011-12-03T09:27:03Z</time>
      </trkpt>
      <trkpt lat="45.78372" lon="4.66836">
        <ele>389</ele>
        <time>2011-12-03T09:27:06Z</time>
      </trkpt>
      <trkpt lat="45.78374" lon="4.66857">
        <ele>388</ele>
        <time>2011-12-03T09:27:09Z</time>
      </trkpt>
      <trkpt lat="45.78375" lon="4.66864">
        <ele>388</ele>
        <time>2011-12-03T09:27:10Z</time>
      </trkpt>
      <trkpt lat="45.78375" lon="4.66893">
        <ele>384</ele>
        <time>2011-12-03T09:27:15Z</time>
      </trkpt>
      <trkpt lat="45.78376" lon="4.66909">
        <ele>381</ele>
        <time>2011-12-03T09:27:18Z</time>
      </trkpt>
      <trkpt lat="45.78378" lon="4.66927">
        <ele>379</ele>
        <time>2011-12-03T09:27:22Z</time>
      </trkpt>
      <trkpt lat="45.78381" lon="4.6694">
        <ele>377</ele>
        <time>2011-12-03T09:27:25Z</time>
      </trkpt>
      <trkpt lat="45.78381" lon="4.66943">
        <ele>377</ele>
        <time>2011-12-03T09:27:26Z</time>
      </trkpt>
      <trkpt lat="45.78385" lon="4.66963">
        <ele>374</ele>
        <time>2011-12-03T09:27:31Z</time>
      </trkpt>
      <trkpt lat="45.78391" lon="4.66985">
        <ele>370</ele>
        <time>2011-12-03T09:27:36Z</time>
      </trkpt>
      <trkpt lat="45.78395" lon="4.67006">
        <ele>368</ele>
        <time>2011-12-03T09:27:42Z</time>
      </trkpt>
      <trkpt lat="45.78396" lon="4.67009">
        <ele>368</ele>
        <time>2011-12-03T09:27:43Z</time>
      </trkpt>
      <trkpt lat="45.78396" lon="4.67013">
        <ele>367</ele>
        <time>2011-12-03T09:27:44Z</time>
      </trkpt>
      <trkpt lat="45.78395" lon="4.67041">
        <ele>364</ele>
        <time>2011-12-03T09:27:50Z</time>
      </trkpt>
      <trkpt lat="45.78395" lon="4.6705">
        <ele>362</ele>
        <time>2011-12-03T09:27:52Z</time>
      </trkpt>
      <trkpt lat="45.78396" lon="4.67055">
        <ele>362</ele>
        <time>2011-12-03T09:27:53Z</time>
      </trkpt>
      <trkpt lat="45.78396" lon="4.67059">
        <ele>361</ele>
        <time>2011-12-03T09:27:54Z</time>
      </trkpt>
      <trkpt lat="45.78396" lon="4.67062">
        <ele>361</ele>
        <time>2011-12-03T09:27:55Z</time>
      </trkpt>
      <trkpt lat="45.78397" lon="4.67065">
        <ele>361</ele>
        <time>2011-12-03T09:27:56Z</time>
      </trkpt>
      <trkpt lat="45.78398" lon="4.67069">
        <ele>360</ele>
        <time>2011-12-03T09:27:57Z</time>
      </trkpt>
      <trkpt lat="45.78403" lon="4.67078">
        <ele>360</ele>
        <time>2011-12-03T09:28:01Z</time>
      </trkpt>
      <trkpt lat="45.78405" lon="4.67092">
        <ele>359</ele>
        <time>2011-12-03T09:28:06Z</time>
      </trkpt>
      <trkpt lat="45.78406" lon="4.67094">
        <ele>360</ele>
        <time>2011-12-03T09:28:07Z</time>
      </trkpt>
      <trkpt lat="45.78407" lon="4.67096">
        <ele>360</ele>
        <time>2011-12-03T09:28:08Z</time>
      </trkpt>
      <trkpt lat="45.78412" lon="4.67114">
        <ele>360</ele>
        <time>2011-12-03T09:28:14Z</time>
      </trkpt>
      <trkpt lat="45.78419" lon="4.6714">
        <ele>360</ele>
        <time>2011-12-03T09:28:21Z</time>
      </trkpt>
      <trkpt lat="45.78425" lon="4.67164">
        <ele>359</ele>
        <time>2011-12-03T09:28:27Z</time>
      </trkpt>
      <trkpt lat="45.78428" lon="4.67171">
        <ele>359</ele>
        <time>2011-12-03T09:28:29Z</time>
      </trkpt>
      <trkpt lat="45.78429" lon="4.67175">
        <ele>359</ele>
        <time>2011-12-03T09:28:30Z</time>
      </trkpt>
      <trkpt lat="45.78429" lon="4.67178">
        <ele>359</ele>
        <time>2011-12-03T09:28:31Z</time>
      </trkpt>
      <trkpt lat="45.7843" lon="4.67182">
        <ele>359</ele>
        <time>2011-12-03T09:28:32Z</time>
      </trkpt>
      <trkpt lat="45.78431" lon="4.67184">
        <ele>359</ele>
        <time>2011-12-03T09:28:33Z</time>
      </trkpt>
      <trkpt lat="45.78432" lon="4.67187">
        <ele>360</ele>
        <time>2011-12-03T09:28:34Z</time>
      </trkpt>
      <trkpt lat="45.78433" lon="4.6719">
        <ele>359</ele>
        <time>2011-12-03T09:28:35Z</time>
      </trkpt>
      <trkpt lat="45.78434" lon="4.67195">
        <ele>359</ele>
        <time>2011-12-03T09:28:36Z</time>
      </trkpt>
      <trkpt lat="45.78434" lon="4.67198">
        <ele>360</ele>
        <time>2011-12-03T09:28:37Z</time>
      </trkpt>
      <trkpt lat="45.78434" lon="4.67202">
        <ele>359</ele>
        <time>2011-12-03T09:28:38Z</time>
      </trkpt>
      <trkpt lat="45.78435" lon="4.67207">
        <ele>360</ele>
        <time>2011-12-03T09:28:39Z</time>
      </trkpt>
      <trkpt lat="45.78435" lon="4.67212">
        <ele>359</ele>
        <time>2011-12-03T09:28:40Z</time>
      </trkpt>
      <trkpt lat="45.78436" lon="4.67216">
        <ele>360</ele>
        <time>2011-12-03T09:28:41Z</time>
      </trkpt>
      <trkpt lat="45.78442" lon="4.6724">
        <ele>360</ele>
        <time>2011-12-03T09:28:47Z</time>
      </trkpt>
      <trkpt lat="45.78449" lon="4.67271">
        <ele>359</ele>
        <time>2011-12-03T09:28:54Z</time>
      </trkpt>
      <trkpt lat="45.7845" lon="4.67284">
        <ele>359</ele>
        <time>2011-12-03T09:28:57Z</time>
      </trkpt>
      <trkpt lat="45.7845" lon="4.67288">
        <ele>358</ele>
        <time>2011-12-03T09:28:58Z</time>
      </trkpt>
      <trkpt lat="45.7845" lon="4.67293">
        <ele>358</ele>
        <time>2011-12-03T09:28:59Z</time>
      </trkpt>
      <trkpt lat="45.78451" lon="4.67307">
        <ele>358</ele>
        <time>2011-12-03T09:29:01Z</time>
      </trkpt>
      <trkpt lat="45.78453" lon="4.67314">
        <ele>357</ele>
        <time>2011-12-03T09:29:02Z</time>
      </trkpt>
      <trkpt lat="45.78465" lon="4.67367">
        <ele>356</ele>
        <time>2011-12-03T09:29:09Z</time>
      </trkpt>
      <trkpt lat="45.78474" lon="4.67399">
        <ele>355</ele>
        <time>2011-12-03T09:29:13Z</time>
      </trkpt>
      <trkpt lat="45.78476" lon="4.67407">
        <ele>355</ele>
        <time>2011-12-03T09:29:14Z</time>
      </trkpt>
      <trkpt lat="45.78483" lon="4.6743">
        <ele>354</ele>
        <time>2011-12-03T09:29:17Z</time>
      </trkpt>
      <trkpt lat="45.78494" lon="4.67472">
        <ele>353</ele>
        <time>2011-12-03T09:29:23Z</time>
      </trkpt>
      <trkpt lat="45.78497" lon="4.67479">
        <ele>353</ele>
        <time>2011-12-03T09:29:24Z</time>
      </trkpt>
      <trkpt lat="45.78501" lon="4.67494">
        <ele>354</ele>
        <time>2011-12-03T09:29:26Z</time>
      </trkpt>
      <trkpt lat="45.78504" lon="4.67501">
        <ele>353</ele>
        <time>2011-12-03T09:29:27Z</time>
      </trkpt>
      <trkpt lat="45.78512" lon="4.67516">
        <ele>353</ele>
        <time>2011-12-03T09:29:29Z</time>
      </trkpt>
      <trkpt lat="45.78517" lon="4.67523">
        <ele>353</ele>
        <time>2011-12-03T09:29:30Z</time>
      </trkpt>
      <trkpt lat="45.78522" lon="4.6753">
        <ele>353</ele>
        <time>2011-12-03T09:29:31Z</time>
      </trkpt>
      <trkpt lat="45.78539" lon="4.67559">
        <ele>351</ele>
        <time>2011-12-03T09:29:35Z</time>
      </trkpt>
      <trkpt lat="45.78546" lon="4.67574">
        <ele>351</ele>
        <time>2011-12-03T09:29:37Z</time>
      </trkpt>
      <trkpt lat="45.7855" lon="4.67582">
        <ele>351</ele>
        <time>2011-12-03T09:29:38Z</time>
      </trkpt>
      <trkpt lat="45.78566" lon="4.67619">
        <ele>348</ele>
        <time>2011-12-03T09:29:43Z</time>
      </trkpt>
      <trkpt lat="45.78569" lon="4.67626">
        <ele>348</ele>
        <time>2011-12-03T09:29:44Z</time>
      </trkpt>
      <trkpt lat="45.7859" lon="4.67663">
        <ele>347</ele>
        <time>2011-12-03T09:29:49Z</time>
      </trkpt>
      <trkpt lat="45.78613" lon="4.67709">
        <ele>345</ele>
        <time>2011-12-03T09:29:55Z</time>
      </trkpt>
      <trkpt lat="45.78618" lon="4.67715">
        <ele>345</ele>
        <time>2011-12-03T09:29:56Z</time>
      </trkpt>
      <trkpt lat="45.7863" lon="4.67736">
        <ele>345</ele>
        <time>2011-12-03T09:30:00Z</time>
      </trkpt>
      <trkpt lat="45.78634" lon="4.67747">
        <ele>343</ele>
        <time>2011-12-03T09:30:02Z</time>
      </trkpt>
      <trkpt lat="45.78641" lon="4.67759">
        <ele>342</ele>
        <time>2011-12-03T09:30:04Z</time>
      </trkpt>
      <trkpt lat="45.78643" lon="4.67767">
        <ele>342</ele>
        <time>2011-12-03T09:30:05Z</time>
      </trkpt>
      <trkpt lat="45.78647" lon="4.67774">
        <ele>340</ele>
        <time>2011-12-03T09:30:06Z</time>
      </trkpt>
      <trkpt lat="45.78654" lon="4.67787">
        <ele>340</ele>
        <time>2011-12-03T09:30:08Z</time>
      </trkpt>
      <trkpt lat="45.78655" lon="4.67796">
        <ele>340</ele>
        <time>2011-12-03T09:30:09Z</time>
      </trkpt>
      <trkpt lat="45.78654" lon="4.67802">
        <ele>340</ele>
        <time>2011-12-03T09:30:10Z</time>
      </trkpt>
      <trkpt lat="45.78649" lon="4.67827">
        <ele>341</ele>
        <time>2011-12-03T09:30:14Z</time>
      </trkpt>
      <trkpt lat="45.7865" lon="4.67832">
        <ele>341</ele>
        <time>2011-12-03T09:30:15Z</time>
      </trkpt>
      <trkpt lat="45.78654" lon="4.67844">
        <ele>342</ele>
        <time>2011-12-03T09:30:19Z</time>
      </trkpt>
      <trkpt lat="45.78656" lon="4.67846">
        <ele>342</ele>
        <time>2011-12-03T09:30:20Z</time>
      </trkpt>
      <trkpt lat="45.78657" lon="4.67847">
        <ele>342</ele>
        <time>2011-12-03T09:30:21Z</time>
      </trkpt>
      <trkpt lat="45.78665" lon="4.67857">
        <ele>344</ele>
        <time>2011-12-03T09:30:27Z</time>
      </trkpt>
      <trkpt lat="45.78665" lon="4.67858">
        <ele>344</ele>
        <time>2011-12-03T09:30:28Z</time>
      </trkpt>
      <trkpt lat="45.78672" lon="4.67866">
        <ele>346</ele>
        <time>2011-12-03T09:30:34Z</time>
      </trkpt>
      <trkpt lat="45.78683" lon="4.67881">
        <ele>347</ele>
        <time>2011-12-03T09:30:42Z</time>
      </trkpt>
      <trkpt lat="45.78687" lon="4.67886">
        <ele>348</ele>
        <time>2011-12-03T09:30:45Z</time>
      </trkpt>
      <trkpt lat="45.78688" lon="4.67888">
        <ele>348</ele>
        <time>2011-12-03T09:30:46Z</time>
      </trkpt>
      <trkpt lat="45.78689" lon="4.67889">
        <ele>349</ele>
        <time>2011-12-03T09:30:47Z</time>
      </trkpt>
      <trkpt lat="45.78689" lon="4.67891">
        <ele>349</ele>
        <time>2011-12-03T09:30:48Z</time>
      </trkpt>
      <trkpt lat="45.7869" lon="4.67893">
        <ele>349</ele>
        <time>2011-12-03T09:30:49Z</time>
      </trkpt>
      <trkpt lat="45.78698" lon="4.67908">
        <ele>350</ele>
        <time>2011-12-03T09:30:57Z</time>
      </trkpt>
      <trkpt lat="45.78704" lon="4.67918">
        <ele>352</ele>
        <time>2011-12-03T09:31:03Z</time>
      </trkpt>
      <trkpt lat="45.78705" lon="4.67919">
        <ele>351</ele>
        <time>2011-12-03T09:31:04Z</time>
      </trkpt>
      <trkpt lat="45.78706" lon="4.67921">
        <ele>352</ele>
        <time>2011-12-03T09:31:05Z</time>
      </trkpt>
      <trkpt lat="45.78707" lon="4.67922">
        <ele>352</ele>
        <time>2011-12-03T09:31:06Z</time>
      </trkpt>
      <trkpt lat="45.78708" lon="4.67923">
        <ele>352</ele>
        <time>2011-12-03T09:31:07Z</time>
      </trkpt>
      <trkpt lat="45.78717" lon="4.67934">
        <ele>354</ele>
        <time>2011-12-03T09:31:14Z</time>
      </trkpt>
      <trkpt lat="45.78719" lon="4.67936">
        <ele>355</ele>
        <time>2011-12-03T09:31:16Z</time>
      </trkpt>
      <trkpt lat="45.7872" lon="4.67938">
        <ele>354</ele>
        <time>2011-12-03T09:31:17Z</time>
      </trkpt>
      <trkpt lat="45.78727" lon="4.67947">
        <ele>356</ele>
        <time>2011-12-03T09:31:23Z</time>
      </trkpt>
      <trkpt lat="45.78734" lon="4.67956">
        <ele>357</ele>
        <time>2011-12-03T09:31:30Z</time>
      </trkpt>
      <trkpt lat="45.78742" lon="4.67964">
        <ele>358</ele>
        <time>2011-12-03T09:31:36Z</time>
      </trkpt>
      <trkpt lat="45.78749" lon="4.67972">
        <ele>360</ele>
        <time>2011-12-03T09:31:42Z</time>
      </trkpt>
      <trkpt lat="45.78754" lon="4.67978">
        <ele>361</ele>
        <time>2011-12-03T09:31:47Z</time>
      </trkpt>
      <trkpt lat="45.78761" lon="4.67985">
        <ele>362</ele>
        <time>2011-12-03T09:31:53Z</time>
      </trkpt>
      <trkpt lat="45.7877" lon="4.67996">
        <ele>363</ele>
        <time>2011-12-03T09:32:01Z</time>
      </trkpt>
      <trkpt lat="45.78779" lon="4.68005">
        <ele>364</ele>
        <time>2011-12-03T09:32:08Z</time>
      </trkpt>
      <trkpt lat="45.78788" lon="4.68016">
        <ele>365</ele>
        <time>2011-12-03T09:32:15Z</time>
      </trkpt>
      <trkpt lat="45.7879" lon="4.68018">
        <ele>365</ele>
        <time>2011-12-03T09:32:16Z</time>
      </trkpt>
      <trkpt lat="45.78791" lon="4.68019">
        <ele>365</ele>
        <time>2011-12-03T09:32:17Z</time>
      </trkpt>
      <trkpt lat="45.78803" lon="4.68031">
        <ele>367</ele>
        <time>2011-12-03T09:32:25Z</time>
      </trkpt>
      <trkpt lat="45.78809" lon="4.68038">
        <ele>368</ele>
        <time>2011-12-03T09:32:30Z</time>
      </trkpt>
      <trkpt lat="45.78819" lon="4.68048">
        <ele>369</ele>
        <time>2011-12-03T09:32:37Z</time>
      </trkpt>
      <trkpt lat="45.78821" lon="4.6805">
        <ele>369</ele>
        <time>2011-12-03T09:32:38Z</time>
      </trkpt>
      <trkpt lat="45.78823" lon="4.68052">
        <ele>369</ele>
        <time>2011-12-03T09:32:39Z</time>
      </trkpt>
      <trkpt lat="45.78825" lon="4.68054">
        <ele>369</ele>
        <time>2011-12-03T09:32:40Z</time>
      </trkpt>
      <trkpt lat="45.78826" lon="4.68056">
        <ele>370</ele>
        <time>2011-12-03T09:32:41Z</time>
      </trkpt>
      <trkpt lat="45.78842" lon="4.68076">
        <ele>371</ele>
        <time>2011-12-03T09:32:50Z</time>
      </trkpt>
      <trkpt lat="45.78856" lon="4.68092">
        <ele>372</ele>
        <time>2011-12-03T09:32:58Z</time>
      </trkpt>
      <trkpt lat="45.7886" lon="4.68098">
        <ele>371</ele>
        <time>2011-12-03T09:33:02Z</time>
      </trkpt>
      <trkpt lat="45.78859" lon="4.681">
        <ele>371</ele>
        <time>2011-12-03T09:33:03Z</time>
      </trkpt>
      <trkpt lat="45.78858" lon="4.68102">
        <ele>371</ele>
        <time>2011-12-03T09:33:04Z</time>
      </trkpt>
      <trkpt lat="45.78857" lon="4.68107">
        <ele>370</ele>
        <time>2011-12-03T09:33:05Z</time>
      </trkpt>
      <trkpt lat="45.78857" lon="4.68113">
        <ele>369</ele>
        <time>2011-12-03T09:33:06Z</time>
      </trkpt>
      <trkpt lat="45.78859" lon="4.68117">
        <ele>369</ele>
        <time>2011-12-03T09:33:07Z</time>
      </trkpt>
      <trkpt lat="45.78862" lon="4.6812">
        <ele>368</ele>
        <time>2011-12-03T09:33:08Z</time>
      </trkpt>
      <trkpt lat="45.78863" lon="4.68125">
        <ele>368</ele>
        <time>2011-12-03T09:33:09Z</time>
      </trkpt>
      <trkpt lat="45.78864" lon="4.68131">
        <ele>367</ele>
        <time>2011-12-03T09:33:10Z</time>
      </trkpt>
      <trkpt lat="45.78865" lon="4.68137">
        <ele>367</ele>
        <time>2011-12-03T09:33:11Z</time>
      </trkpt>
      <trkpt lat="45.78865" lon="4.68145">
        <ele>366</ele>
        <time>2011-12-03T09:33:12Z</time>
      </trkpt>
      <trkpt lat="45.78865" lon="4.68152">
        <ele>366</ele>
        <time>2011-12-03T09:33:13Z</time>
      </trkpt>
      <trkpt lat="45.78864" lon="4.68161">
        <ele>365</ele>
        <time>2011-12-03T09:33:14Z</time>
      </trkpt>
      <trkpt lat="45.78862" lon="4.68168">
        <ele>365</ele>
        <time>2011-12-03T09:33:15Z</time>
      </trkpt>
      <trkpt lat="45.78862" lon="4.68174">
        <ele>364</ele>
        <time>2011-12-03T09:33:16Z</time>
      </trkpt>
      <trkpt lat="45.78861" lon="4.68181">
        <ele>364</ele>
        <time>2011-12-03T09:33:17Z</time>
      </trkpt>
      <trkpt lat="45.78859" lon="4.68186">
        <ele>362</ele>
        <time>2011-12-03T09:33:18Z</time>
      </trkpt>
      <trkpt lat="45.78855" lon="4.68188">
        <ele>362</ele>
        <time>2011-12-03T09:33:19Z</time>
      </trkpt>
      <trkpt lat="45.7885" lon="4.68188">
        <ele>361</ele>
        <time>2011-12-03T09:33:20Z</time>
      </trkpt>
      <trkpt lat="45.78846" lon="4.68187">
        <ele>360</ele>
        <time>2011-12-03T09:33:21Z</time>
      </trkpt>
      <trkpt lat="45.78842" lon="4.68188">
        <ele>359</ele>
        <time>2011-12-03T09:33:22Z</time>
      </trkpt>
      <trkpt lat="45.78838" lon="4.68189">
        <ele>358</ele>
        <time>2011-12-03T09:33:23Z</time>
      </trkpt>
      <trkpt lat="45.78834" lon="4.68189">
        <ele>357</ele>
        <time>2011-12-03T09:33:24Z</time>
      </trkpt>
      <trkpt lat="45.7883" lon="4.68188">
        <ele>356</ele>
        <time>2011-12-03T09:33:25Z</time>
      </trkpt>
      <trkpt lat="45.78826" lon="4.68189">
        <ele>355</ele>
        <time>2011-12-03T09:33:26Z</time>
      </trkpt>
      <trkpt lat="45.78824" lon="4.6819">
        <ele>354</ele>
        <time>2011-12-03T09:33:27Z</time>
      </trkpt>
      <trkpt lat="45.78822" lon="4.68192">
        <ele>353</ele>
        <time>2011-12-03T09:33:28Z</time>
      </trkpt>
      <trkpt lat="45.7882" lon="4.68195">
        <ele>353</ele>
        <time>2011-12-03T09:33:29Z</time>
      </trkpt>
      <trkpt lat="45.78817" lon="4.68199">
        <ele>353</ele>
        <time>2011-12-03T09:33:30Z</time>
      </trkpt>
      <trkpt lat="45.78814" lon="4.68201">
        <ele>351</ele>
        <time>2011-12-03T09:33:31Z</time>
      </trkpt>
      <trkpt lat="45.78812" lon="4.68201">
        <ele>351</ele>
        <time>2011-12-03T09:33:32Z</time>
      </trkpt>
      <trkpt lat="45.78809" lon="4.682">
        <ele>350</ele>
        <time>2011-12-03T09:33:33Z</time>
      </trkpt>
      <trkpt lat="45.78807" lon="4.68199">
        <ele>349</ele>
        <time>2011-12-03T09:33:34Z</time>
      </trkpt>
      <trkpt lat="45.78806" lon="4.68201">
        <ele>349</ele>
        <time>2011-12-03T09:33:36Z</time>
      </trkpt>
      <trkpt lat="45.78803" lon="4.68208">
        <ele>347</ele>
        <time>2011-12-03T09:33:39Z</time>
      </trkpt>
      <trkpt lat="45.78793" lon="4.68208">
        <ele>344</ele>
        <time>2011-12-03T09:33:44Z</time>
      </trkpt>
      <trkpt lat="45.78789" lon="4.68197">
        <ele>343</ele>
        <time>2011-12-03T09:33:48Z</time>
      </trkpt>
      <trkpt lat="45.78786" lon="4.68173">
        <ele>340</ele>
        <time>2011-12-03T09:33:54Z</time>
      </trkpt>
      <trkpt lat="45.78777" lon="4.6816">
        <ele>339</ele>
        <time>2011-12-03T09:33:57Z</time>
      </trkpt>
      <trkpt lat="45.78773" lon="4.68156">
        <ele>339</ele>
        <time>2011-12-03T09:33:58Z</time>
      </trkpt>
      <trkpt lat="45.78768" lon="4.68152">
        <ele>338</ele>
        <time>2011-12-03T09:33:59Z</time>
      </trkpt>
      <trkpt lat="45.78765" lon="4.68149">
        <ele>338</ele>
        <time>2011-12-03T09:34:00Z</time>
      </trkpt>
      <trkpt lat="45.78761" lon="4.68146">
        <ele>338</ele>
        <time>2011-12-03T09:34:01Z</time>
      </trkpt>
      <trkpt lat="45.78757" lon="4.68144">
        <ele>337</ele>
        <time>2011-12-03T09:34:02Z</time>
      </trkpt>
      <trkpt lat="45.78753" lon="4.68142">
        <ele>337</ele>
        <time>2011-12-03T09:34:03Z</time>
      </trkpt>
      <trkpt lat="45.78747" lon="4.68139">
        <ele>336</ele>
        <time>2011-12-03T09:34:04Z</time>
      </trkpt>
      <trkpt lat="45.78741" lon="4.68135">
        <ele>335</ele>
        <time>2011-12-03T09:34:05Z</time>
      </trkpt>
      <trkpt lat="45.78723" lon="4.68124">
        <ele>334</ele>
        <time>2011-12-03T09:34:08Z</time>
      </trkpt>
      <trkpt lat="45.78717" lon="4.6812">
        <ele>333</ele>
        <time>2011-12-03T09:34:09Z</time>
      </trkpt>
      <trkpt lat="45.787" lon="4.68105">
        <ele>330</ele>
        <time>2011-12-03T09:34:13Z</time>
      </trkpt>
      <trkpt lat="45.78695" lon="4.68101">
        <ele>329</ele>
        <time>2011-12-03T09:34:14Z</time>
      </trkpt>
      <trkpt lat="45.78677" lon="4.6809">
        <ele>326</ele>
        <time>2011-12-03T09:34:17Z</time>
      </trkpt>
      <trkpt lat="45.78653" lon="4.68083">
        <ele>323</ele>
        <time>2011-12-03T09:34:21Z</time>
      </trkpt>
      <trkpt lat="45.78652" lon="4.68086">
        <ele>323</ele>
        <time>2011-12-03T09:34:22Z</time>
      </trkpt>
      <trkpt lat="45.7865" lon="4.68091">
        <ele>323</ele>
        <time>2011-12-03T09:34:24Z</time>
      </trkpt>
      <trkpt lat="45.78651" lon="4.6811">
        <ele>324</ele>
        <time>2011-12-03T09:34:31Z</time>
      </trkpt>
      <trkpt lat="45.78653" lon="4.68118">
        <ele>325</ele>
        <time>2011-12-03T09:34:34Z</time>
      </trkpt>
      <trkpt lat="45.78662" lon="4.68138">
        <ele>324</ele>
        <time>2011-12-03T09:34:41Z</time>
      </trkpt>
      <trkpt lat="45.78663" lon="4.6815">
        <ele>325</ele>
        <time>2011-12-03T09:34:45Z</time>
      </trkpt>
      <trkpt lat="45.78665" lon="4.68157">
        <ele>324</ele>
        <time>2011-12-03T09:34:47Z</time>
      </trkpt>
      <trkpt lat="45.78667" lon="4.6817">
        <ele>325</ele>
        <time>2011-12-03T09:34:53Z</time>
      </trkpt>
      <trkpt lat="45.78671" lon="4.68177">
        <ele>325</ele>
        <time>2011-12-03T09:34:56Z</time>
      </trkpt>
      <trkpt lat="45.78678" lon="4.68191">
        <ele>326</ele>
        <time>2011-12-03T09:35:02Z</time>
      </trkpt>
      <trkpt lat="45.78678" lon="4.68192">
        <ele>326</ele>
        <time>2011-12-03T09:35:03Z</time>
      </trkpt>
      <trkpt lat="45.78681" lon="4.68205">
        <ele>326</ele>
        <time>2011-12-03T09:35:06Z</time>
      </trkpt>
      <trkpt lat="45.78683" lon="4.68226">
        <ele>326</ele>
        <time>2011-12-03T09:35:11Z</time>
      </trkpt>
      <trkpt lat="45.78674" lon="4.68253">
        <ele>327</ele>
        <time>2011-12-03T09:35:19Z</time>
      </trkpt>
      <trkpt lat="45.78673" lon="4.68265">
        <ele>328</ele>
        <time>2011-12-03T09:35:23Z</time>
      </trkpt>
      <trkpt lat="45.78669" lon="4.68272">
        <ele>329</ele>
        <time>2011-12-03T09:35:26Z</time>
      </trkpt>
      <trkpt lat="45.78665" lon="4.68284">
        <ele>329</ele>
        <time>2011-12-03T09:35:30Z</time>
      </trkpt>
      <trkpt lat="45.78655" lon="4.6829">
        <ele>330</ele>
        <time>2011-12-03T09:35:37Z</time>
      </trkpt>
      <trkpt lat="45.7865" lon="4.68294">
        <ele>331</ele>
        <time>2011-12-03T09:35:42Z</time>
      </trkpt>
      <trkpt lat="45.78641" lon="4.68297">
        <ele>333</ele>
        <time>2011-12-03T09:35:49Z</time>
      </trkpt>
      <trkpt lat="45.78638" lon="4.68298">
        <ele>333</ele>
        <time>2011-12-03T09:35:51Z</time>
      </trkpt>
      <trkpt lat="45.78625" lon="4.68299">
        <ele>335</ele>
        <time>2011-12-03T09:35:59Z</time>
      </trkpt>
      <trkpt lat="45.78618" lon="4.683">
        <ele>337</ele>
        <time>2011-12-03T09:36:05Z</time>
      </trkpt>
      <trkpt lat="45.78608" lon="4.68301">
        <ele>338</ele>
        <time>2011-12-03T09:36:12Z</time>
      </trkpt>
      <trkpt lat="45.786" lon="4.68301">
        <ele>339</ele>
        <time>2011-12-03T09:36:19Z</time>
      </trkpt>
      <trkpt lat="45.78599" lon="4.68301">
        <ele>339</ele>
        <time>2011-12-03T09:36:20Z</time>
      </trkpt>
      <trkpt lat="45.78592" lon="4.68301">
        <ele>340</ele>
        <time>2011-12-03T09:36:25Z</time>
      </trkpt>
      <trkpt lat="45.7858" lon="4.68301">
        <ele>342</ele>
        <time>2011-12-03T09:36:33Z</time>
      </trkpt>
      <trkpt lat="45.78578" lon="4.68302">
        <ele>342</ele>
        <time>2011-12-03T09:36:34Z</time>
      </trkpt>
      <trkpt lat="45.78571" lon="4.68302">
        <ele>343</ele>
        <time>2011-12-03T09:36:39Z</time>
      </trkpt>
      <trkpt lat="45.78566" lon="4.68303">
        <ele>343</ele>
        <time>2011-12-03T09:36:42Z</time>
      </trkpt>
      <trkpt lat="45.78557" lon="4.68306">
        <ele>345</ele>
        <time>2011-12-03T09:36:49Z</time>
      </trkpt>
      <trkpt lat="45.78541" lon="4.68308">
        <ele>346</ele>
        <time>2011-12-03T09:36:59Z</time>
      </trkpt>
      <trkpt lat="45.7853" lon="4.6831">
        <ele>348</ele>
        <time>2011-12-03T09:37:07Z</time>
      </trkpt>
      <trkpt lat="45.78516" lon="4.68311">
        <ele>350</ele>
        <time>2011-12-03T09:37:17Z</time>
      </trkpt>
      <trkpt lat="45.78506" lon="4.68312">
        <ele>351</ele>
        <time>2011-12-03T09:37:24Z</time>
      </trkpt>
      <trkpt lat="45.78492" lon="4.68314">
        <ele>353</ele>
        <time>2011-12-03T09:37:34Z</time>
      </trkpt>
      <trkpt lat="45.78488" lon="4.68313">
        <ele>353</ele>
        <time>2011-12-03T09:37:37Z</time>
      </trkpt>
      <trkpt lat="45.78476" lon="4.68313">
        <ele>356</ele>
        <time>2011-12-03T09:37:45Z</time>
      </trkpt>
      <trkpt lat="45.78472" lon="4.68316">
        <ele>356</ele>
        <time>2011-12-03T09:37:52Z</time>
      </trkpt>
      <trkpt lat="45.78472" lon="4.68317">
        <ele>355</ele>
        <time>2011-12-03T09:38:00Z</time>
      </trkpt>
      <trkpt lat="45.78472" lon="4.68317">
        <ele>351</ele>
        <time>2011-12-03T09:38:02Z</time>
      </trkpt>
      <trkpt lat="45.78472" lon="4.68317">
        <ele>356</ele>
        <time>2011-12-03T09:38:03Z</time>
      </trkpt>
      <trkpt lat="45.78472" lon="4.68317">
        <ele>356</ele>
        <time>2011-12-03T09:38:11Z</time>
      </trkpt>
      <trkpt lat="45.78471" lon="4.6832">
        <ele>356</ele>
        <time>2011-12-03T09:38:20Z</time>
      </trkpt>
      <trkpt lat="45.78471" lon="4.68342">
        <ele>354</ele>
        <time>2011-12-03T09:38:27Z</time>
      </trkpt>
      <trkpt lat="45.78471" lon="4.68346">
        <ele>354</ele>
        <time>2011-12-03T09:38:28Z</time>
      </trkpt>
      <trkpt lat="45.78476" lon="4.68357">
        <ele>354</ele>
        <time>2011-12-03T09:38:31Z</time>
      </trkpt>
      <trkpt lat="45.78482" lon="4.68364">
        <ele>352</ele>
        <time>2011-12-03T09:38:33Z</time>
      </trkpt>
      <trkpt lat="45.78485" lon="4.68369">
        <ele>352</ele>
        <time>2011-12-03T09:38:34Z</time>
      </trkpt>
      <trkpt lat="45.78489" lon="4.68374">
        <ele>352</ele>
        <time>2011-12-03T09:38:35Z</time>
      </trkpt>
      <trkpt lat="45.78492" lon="4.68379">
        <ele>351</ele>
        <time>2011-12-03T09:38:36Z</time>
      </trkpt>
      <trkpt lat="45.78496" lon="4.68384">
        <ele>351</ele>
        <time>2011-12-03T09:38:37Z</time>
      </trkpt>
      <trkpt lat="45.78501" lon="4.6839">
        <ele>351</ele>
        <time>2011-12-03T09:38:38Z</time>
      </trkpt>
      <trkpt lat="45.78506" lon="4.68396">
        <ele>350</ele>
        <time>2011-12-03T09:38:39Z</time>
      </trkpt>
      <trkpt lat="45.7851" lon="4.68402">
        <ele>349</ele>
        <time>2011-12-03T09:38:40Z</time>
      </trkpt>
      <trkpt lat="45.78515" lon="4.68408">
        <ele>348</ele>
        <time>2011-12-03T09:38:41Z</time>
      </trkpt>
      <trkpt lat="45.78524" lon="4.68418">
        <ele>346</ele>
        <time>2011-12-03T09:38:43Z</time>
      </trkpt>
      <trkpt lat="45.78534" lon="4.68426">
        <ele>344</ele>
        <time>2011-12-03T09:38:47Z</time>
      </trkpt>
      <trkpt lat="45.78535" lon="4.68429">
        <ele>343</ele>
        <time>2011-12-03T09:38:48Z</time>
      </trkpt>
      <trkpt lat="45.78535" lon="4.68436">
        <ele>342</ele>
        <time>2011-12-03T09:38:50Z</time>
      </trkpt>
      <trkpt lat="45.78533" lon="4.68439">
        <ele>341</ele>
        <time>2011-12-03T09:38:51Z</time>
      </trkpt>
      <trkpt lat="45.78531" lon="4.68442">
        <ele>340</ele>
        <time>2011-12-03T09:38:52Z</time>
      </trkpt>
      <trkpt lat="45.78528" lon="4.68445">
        <ele>340</ele>
        <time>2011-12-03T09:38:53Z</time>
      </trkpt>
      <trkpt lat="45.78526" lon="4.68448">
        <ele>339</ele>
        <time>2011-12-03T09:38:54Z</time>
      </trkpt>
      <trkpt lat="45.78523" lon="4.68451">
        <ele>339</ele>
        <time>2011-12-03T09:38:55Z</time>
      </trkpt>
      <trkpt lat="45.78519" lon="4.68456">
        <ele>338</ele>
        <time>2011-12-03T09:38:56Z</time>
      </trkpt>
      <trkpt lat="45.78515" lon="4.68462">
        <ele>339</ele>
        <time>2011-12-03T09:38:57Z</time>
      </trkpt>
      <trkpt lat="45.78512" lon="4.68468">
        <ele>338</ele>
        <time>2011-12-03T09:38:58Z</time>
      </trkpt>
      <trkpt lat="45.78511" lon="4.68475">
        <ele>338</ele>
        <time>2011-12-03T09:38:59Z</time>
      </trkpt>
      <trkpt lat="45.78511" lon="4.68482">
        <ele>338</ele>
        <time>2011-12-03T09:39:00Z</time>
      </trkpt>
      <trkpt lat="45.78512" lon="4.68489">
        <ele>338</ele>
        <time>2011-12-03T09:39:01Z</time>
      </trkpt>
      <trkpt lat="45.78514" lon="4.68494">
        <ele>338</ele>
        <time>2011-12-03T09:39:02Z</time>
      </trkpt>
      <trkpt lat="45.78515" lon="4.68497">
        <ele>338</ele>
        <time>2011-12-03T09:39:03Z</time>
      </trkpt>
      <trkpt lat="45.78517" lon="4.685">
        <ele>338</ele>
        <time>2011-12-03T09:39:04Z</time>
      </trkpt>
      <trkpt lat="45.78518" lon="4.68502">
        <ele>338</ele>
        <time>2011-12-03T09:39:05Z</time>
      </trkpt>
      <trkpt lat="45.78519" lon="4.68505">
        <ele>338</ele>
        <time>2011-12-03T09:39:06Z</time>
      </trkpt>
      <trkpt lat="45.7852" lon="4.68507">
        <ele>338</ele>
        <time>2011-12-03T09:39:07Z</time>
      </trkpt>
      <trkpt lat="45.78526" lon="4.68526">
        <ele>339</ele>
        <time>2011-12-03T09:39:15Z</time>
      </trkpt>
      <trkpt lat="45.78531" lon="4.68543">
        <ele>341</ele>
        <time>2011-12-03T09:39:22Z</time>
      </trkpt>
      <trkpt lat="45.78536" lon="4.68563">
        <ele>342</ele>
        <time>2011-12-03T09:39:29Z</time>
      </trkpt>
      <trkpt lat="45.78539" lon="4.68581">
        <ele>342</ele>
        <time>2011-12-03T09:39:34Z</time>
      </trkpt>
      <trkpt lat="45.7854" lon="4.68585">
        <ele>342</ele>
        <time>2011-12-03T09:39:35Z</time>
      </trkpt>
      <trkpt lat="45.78541" lon="4.68588">
        <ele>342</ele>
        <time>2011-12-03T09:39:36Z</time>
      </trkpt>
      <trkpt lat="45.78542" lon="4.68593">
        <ele>342</ele>
        <time>2011-12-03T09:39:37Z</time>
      </trkpt>
      <trkpt lat="45.78542" lon="4.68598">
        <ele>342</ele>
        <time>2011-12-03T09:39:38Z</time>
      </trkpt>
      <trkpt lat="45.78542" lon="4.68604">
        <ele>342</ele>
        <time>2011-12-03T09:39:39Z</time>
      </trkpt>
      <trkpt lat="45.78542" lon="4.68609">
        <ele>342</ele>
        <time>2011-12-03T09:39:40Z</time>
      </trkpt>
      <trkpt lat="45.78542" lon="4.68614">
        <ele>342</ele>
        <time>2011-12-03T09:39:41Z</time>
      </trkpt>
      <trkpt lat="45.78542" lon="4.6862">
        <ele>342</ele>
        <time>2011-12-03T09:39:42Z</time>
      </trkpt>
      <trkpt lat="45.78542" lon="4.68625">
        <ele>342</ele>
        <time>2011-12-03T09:39:43Z</time>
      </trkpt>
      <trkpt lat="45.78541" lon="4.68664">
        <ele>342</ele>
        <time>2011-12-03T09:39:51Z</time>
      </trkpt>
      <trkpt lat="45.78541" lon="4.68675">
        <ele>341</ele>
        <time>2011-12-03T09:39:53Z</time>
      </trkpt>
      <trkpt lat="45.78541" lon="4.68717">
        <ele>340</ele>
        <time>2011-12-03T09:39:59Z</time>
      </trkpt>
      <trkpt lat="45.7854" lon="4.68725">
        <ele>339</ele>
        <time>2011-12-03T09:40:00Z</time>
      </trkpt>
      <trkpt lat="45.78535" lon="4.68766">
        <ele>335</ele>
        <time>2011-12-03T09:40:05Z</time>
      </trkpt>
      <trkpt lat="45.78534" lon="4.6878">
        <ele>331</ele>
        <time>2011-12-03T09:40:09Z</time>
      </trkpt>
      <trkpt lat="45.78535" lon="4.68783">
        <ele>332</ele>
        <time>2011-12-03T09:40:10Z</time>
      </trkpt>
      <trkpt lat="45.78537" lon="4.68785">
        <ele>331</ele>
        <time>2011-12-03T09:40:11Z</time>
      </trkpt>
      <trkpt lat="45.78539" lon="4.68785">
        <ele>332</ele>
        <time>2011-12-03T09:40:12Z</time>
      </trkpt>
      <trkpt lat="45.78542" lon="4.68784">
        <ele>332</ele>
        <time>2011-12-03T09:40:13Z</time>
      </trkpt>
      <trkpt lat="45.78545" lon="4.68784">
        <ele>332</ele>
        <time>2011-12-03T09:40:14Z</time>
      </trkpt>
      <trkpt lat="45.78568" lon="4.68771">
        <ele>333</ele>
        <time>2011-12-03T09:40:20Z</time>
      </trkpt>
      <trkpt lat="45.78606" lon="4.68749">
        <ele>333</ele>
        <time>2011-12-03T09:40:29Z</time>
      </trkpt>
      <trkpt lat="45.78638" lon="4.6873">
        <ele>333</ele>
        <time>2011-12-03T09:40:36Z</time>
      </trkpt>
      <trkpt lat="45.78642" lon="4.68728">
        <ele>332</ele>
        <time>2011-12-03T09:40:37Z</time>
      </trkpt>
      <trkpt lat="45.78648" lon="4.68725">
        <ele>332</ele>
        <time>2011-12-03T09:40:38Z</time>
      </trkpt>
      <trkpt lat="45.78663" lon="4.68713">
        <ele>332</ele>
        <time>2011-12-03T09:40:41Z</time>
      </trkpt>
      <trkpt lat="45.78691" lon="4.68675">
        <ele>329</ele>
        <time>2011-12-03T09:40:47Z</time>
      </trkpt>
      <trkpt lat="45.78709" lon="4.68649">
        <ele>326</ele>
        <time>2011-12-03T09:40:50Z</time>
      </trkpt>
      <trkpt lat="45.78716" lon="4.68639">
        <ele>325</ele>
        <time>2011-12-03T09:40:51Z</time>
      </trkpt>
      <trkpt lat="45.78722" lon="4.68631">
        <ele>324</ele>
        <time>2011-12-03T09:40:52Z</time>
      </trkpt>
      <trkpt lat="45.78733" lon="4.68619">
        <ele>320</ele>
        <time>2011-12-03T09:40:54Z</time>
      </trkpt>
      <trkpt lat="45.78738" lon="4.68614">
        <ele>318</ele>
        <time>2011-12-03T09:40:55Z</time>
      </trkpt>
      <trkpt lat="45.7874" lon="4.68608">
        <ele>316</ele>
        <time>2011-12-03T09:40:56Z</time>
      </trkpt>
      <trkpt lat="45.78739" lon="4.68601">
        <ele>316</ele>
        <time>2011-12-03T09:40:57Z</time>
      </trkpt>
      <trkpt lat="45.78734" lon="4.68598">
        <ele>315</ele>
        <time>2011-12-03T09:40:58Z</time>
      </trkpt>
      <trkpt lat="45.78729" lon="4.68595">
        <ele>314</ele>
        <time>2011-12-03T09:40:59Z</time>
      </trkpt>
      <trkpt lat="45.78725" lon="4.6859">
        <ele>313</ele>
        <time>2011-12-03T09:41:00Z</time>
      </trkpt>
      <trkpt lat="45.78725" lon="4.68578">
        <ele>312</ele>
        <time>2011-12-03T09:41:02Z</time>
      </trkpt>
      <trkpt lat="45.78729" lon="4.68574">
        <ele>311</ele>
        <time>2011-12-03T09:41:03Z</time>
      </trkpt>
      <trkpt lat="45.78734" lon="4.68572">
        <ele>311</ele>
        <time>2011-12-03T09:41:04Z</time>
      </trkpt>
      <trkpt lat="45.7874" lon="4.68571">
        <ele>311</ele>
        <time>2011-12-03T09:41:05Z</time>
      </trkpt>
      <trkpt lat="45.78747" lon="4.6857">
        <ele>311</ele>
        <time>2011-12-03T09:41:06Z</time>
      </trkpt>
      <trkpt lat="45.78753" lon="4.68569">
        <ele>310</ele>
        <time>2011-12-03T09:41:07Z</time>
      </trkpt>
      <trkpt lat="45.78758" lon="4.68568">
        <ele>309</ele>
        <time>2011-12-03T09:41:08Z</time>
      </trkpt>
      <trkpt lat="45.78764" lon="4.68568">
        <ele>309</ele>
        <time>2011-12-03T09:41:09Z</time>
      </trkpt>
      <trkpt lat="45.7877" lon="4.6857">
        <ele>309</ele>
        <time>2011-12-03T09:41:10Z</time>
      </trkpt>
      <trkpt lat="45.78774" lon="4.68573">
        <ele>309</ele>
        <time>2011-12-03T09:41:11Z</time>
      </trkpt>
      <trkpt lat="45.78788" lon="4.68586">
        <ele>311</ele>
        <time>2011-12-03T09:41:16Z</time>
      </trkpt>
      <trkpt lat="45.788" lon="4.68597">
        <ele>312</ele>
        <time>2011-12-03T09:41:22Z</time>
      </trkpt>
      <trkpt lat="45.78813" lon="4.68613">
        <ele>314</ele>
        <time>2011-12-03T09:41:31Z</time>
      </trkpt>
      <trkpt lat="45.78825" lon="4.68627">
        <ele>316</ele>
        <time>2011-12-03T09:41:39Z</time>
      </trkpt>
      <trkpt lat="45.78833" lon="4.68637">
        <ele>318</ele>
        <time>2011-12-03T09:41:46Z</time>
      </trkpt>
      <trkpt lat="45.78834" lon="4.68639">
        <ele>318</ele>
        <time>2011-12-03T09:41:47Z</time>
      </trkpt>
      <trkpt lat="45.78835" lon="4.6864">
        <ele>318</ele>
        <time>2011-12-03T09:41:48Z</time>
      </trkpt>
      <trkpt lat="45.78839" lon="4.68644">
        <ele>319</ele>
        <time>2011-12-03T09:41:51Z</time>
      </trkpt>
      <trkpt lat="45.7884" lon="4.68645">
        <ele>319</ele>
        <time>2011-12-03T09:41:52Z</time>
      </trkpt>
      <trkpt lat="45.78842" lon="4.68646">
        <ele>320</ele>
        <time>2011-12-03T09:41:53Z</time>
      </trkpt>
      <trkpt lat="45.78843" lon="4.68647">
        <ele>320</ele>
        <time>2011-12-03T09:41:54Z</time>
      </trkpt>
      <trkpt lat="45.78845" lon="4.68648">
        <ele>321</ele>
        <time>2011-12-03T09:41:55Z</time>
      </trkpt>
      <trkpt lat="45.78846" lon="4.68649">
        <ele>321</ele>
        <time>2011-12-03T09:41:56Z</time>
      </trkpt>
      <trkpt lat="45.78848" lon="4.6865">
        <ele>321</ele>
        <time>2011-12-03T09:41:57Z</time>
      </trkpt>
      <trkpt lat="45.78849" lon="4.6865">
        <ele>321</ele>
        <time>2011-12-03T09:41:58Z</time>
      </trkpt>
      <trkpt lat="45.78861" lon="4.68658">
        <ele>323</ele>
        <time>2011-12-03T09:42:06Z</time>
      </trkpt>
      <trkpt lat="45.78871" lon="4.68669">
        <ele>325</ele>
        <time>2011-12-03T09:42:15Z</time>
      </trkpt>
      <trkpt lat="45.78881" lon="4.68683">
        <ele>327</ele>
        <time>2011-12-03T09:42:25Z</time>
      </trkpt>
      <trkpt lat="45.78888" lon="4.68695">
        <ele>327</ele>
        <time>2011-12-03T09:42:32Z</time>
      </trkpt>
      <trkpt lat="45.78901" lon="4.68712">
        <ele>329</ele>
        <time>2011-12-03T09:42:41Z</time>
      </trkpt>
      <trkpt lat="45.78913" lon="4.68722">
        <ele>330</ele>
        <time>2011-12-03T09:42:49Z</time>
      </trkpt>
      <trkpt lat="45.78919" lon="4.68732">
        <ele>331</ele>
        <time>2011-12-03T09:42:55Z</time>
      </trkpt>
      <trkpt lat="45.7893" lon="4.68751">
        <ele>332</ele>
        <time>2011-12-03T09:43:03Z</time>
      </trkpt>
      <trkpt lat="45.78943" lon="4.68762">
        <ele>333</ele>
        <time>2011-12-03T09:43:10Z</time>
      </trkpt>
      <trkpt lat="45.78959" lon="4.6877">
        <ele>335</ele>
        <time>2011-12-03T09:43:18Z</time>
      </trkpt>
      <trkpt lat="45.78972" lon="4.68772">
        <ele>337</ele>
        <time>2011-12-03T09:43:25Z</time>
      </trkpt>
      <trkpt lat="45.78989" lon="4.68781">
        <ele>337</ele>
        <time>2011-12-03T09:43:33Z</time>
      </trkpt>
      <trkpt lat="45.79011" lon="4.68791">
        <ele>338</ele>
        <time>2011-12-03T09:43:41Z</time>
      </trkpt>
      <trkpt lat="45.79032" lon="4.68799">
        <ele>337</ele>
        <time>2011-12-03T09:43:47Z</time>
      </trkpt>
      <trkpt lat="45.7905" lon="4.68797">
        <ele>338</ele>
        <time>2011-12-03T09:43:52Z</time>
      </trkpt>
      <trkpt lat="45.79053" lon="4.68793">
        <ele>338</ele>
        <time>2011-12-03T09:43:53Z</time>
      </trkpt>
      <trkpt lat="45.79055" lon="4.68789">
        <ele>338</ele>
        <time>2011-12-03T09:43:54Z</time>
      </trkpt>
      <trkpt lat="45.79066" lon="4.68757">
        <ele>339</ele>
        <time>2011-12-03T09:44:01Z</time>
      </trkpt>
      <trkpt lat="45.7908" lon="4.6874">
        <ele>339</ele>
        <time>2011-12-03T09:44:07Z</time>
      </trkpt>
      <trkpt lat="45.79093" lon="4.68728">
        <ele>338</ele>
        <time>2011-12-03T09:44:11Z</time>
      </trkpt>
      <trkpt lat="45.791" lon="4.6872">
        <ele>338</ele>
        <time>2011-12-03T09:44:13Z</time>
      </trkpt>
      <trkpt lat="45.79104" lon="4.68715">
        <ele>338</ele>
        <time>2011-12-03T09:44:14Z</time>
      </trkpt>
      <trkpt lat="45.79112" lon="4.68706">
        <ele>336</ele>
        <time>2011-12-03T09:44:16Z</time>
      </trkpt>
      <trkpt lat="45.79117" lon="4.68702">
        <ele>336</ele>
        <time>2011-12-03T09:44:17Z</time>
      </trkpt>
      <trkpt lat="45.79121" lon="4.68698">
        <ele>336</ele>
        <time>2011-12-03T09:44:18Z</time>
      </trkpt>
      <trkpt lat="45.7914" lon="4.68679">
        <ele>332</ele>
        <time>2011-12-03T09:44:23Z</time>
      </trkpt>
      <trkpt lat="45.79145" lon="4.68666">
        <ele>329</ele>
        <time>2011-12-03T09:44:27Z</time>
      </trkpt>
      <trkpt lat="45.79155" lon="4.68647">
        <ele>326</ele>
        <time>2011-12-03T09:44:32Z</time>
      </trkpt>
      <trkpt lat="45.79158" lon="4.68642">
        <ele>326</ele>
        <time>2011-12-03T09:44:33Z</time>
      </trkpt>
      <trkpt lat="45.7916" lon="4.68635">
        <ele>326</ele>
        <time>2011-12-03T09:44:34Z</time>
      </trkpt>
      <trkpt lat="45.79162" lon="4.68628">
        <ele>325</ele>
        <time>2011-12-03T09:44:35Z</time>
      </trkpt>
      <trkpt lat="45.79164" lon="4.6862">
        <ele>325</ele>
        <time>2011-12-03T09:44:36Z</time>
      </trkpt>
      <trkpt lat="45.79165" lon="4.68613">
        <ele>325</ele>
        <time>2011-12-03T09:44:37Z</time>
      </trkpt>
      <trkpt lat="45.79166" lon="4.68605">
        <ele>325</ele>
        <time>2011-12-03T09:44:38Z</time>
      </trkpt>
      <trkpt lat="45.79168" lon="4.68598">
        <ele>324</ele>
        <time>2011-12-03T09:44:39Z</time>
      </trkpt>
      <trkpt lat="45.79168" lon="4.68591">
        <ele>325</ele>
        <time>2011-12-03T09:44:40Z</time>
      </trkpt>
      <trkpt lat="45.79168" lon="4.68585">
        <ele>324</ele>
        <time>2011-12-03T09:44:41Z</time>
      </trkpt>
      <trkpt lat="45.79169" lon="4.68579">
        <ele>324</ele>
        <time>2011-12-03T09:44:42Z</time>
      </trkpt>
      <trkpt lat="45.79169" lon="4.68557">
        <ele>324</ele>
        <time>2011-12-03T09:44:46Z</time>
      </trkpt>
      <trkpt lat="45.79169" lon="4.68553">
        <ele>324</ele>
        <time>2011-12-03T09:44:47Z</time>
      </trkpt>
      <trkpt lat="45.79169" lon="4.68549">
        <ele>324</ele>
        <time>2011-12-03T09:44:48Z</time>
      </trkpt>
      <trkpt lat="45.7917" lon="4.68546">
        <ele>324</ele>
        <time>2011-12-03T09:44:49Z</time>
      </trkpt>
      <trkpt lat="45.7917" lon="4.68542">
        <ele>324</ele>
        <time>2011-12-03T09:44:50Z</time>
      </trkpt>
      <trkpt lat="45.79171" lon="4.68539">
        <ele>324</ele>
        <time>2011-12-03T09:44:51Z</time>
      </trkpt>
      <trkpt lat="45.79173" lon="4.68524">
        <ele>325</ele>
        <time>2011-12-03T09:44:55Z</time>
      </trkpt>
      <trkpt lat="45.79173" lon="4.68521">
        <ele>325</ele>
        <time>2011-12-03T09:44:56Z</time>
      </trkpt>
      <trkpt lat="45.79174" lon="4.68518">
        <ele>325</ele>
        <time>2011-12-03T09:44:57Z</time>
      </trkpt>
      <trkpt lat="45.79174" lon="4.68514">
        <ele>325</ele>
        <time>2011-12-03T09:44:58Z</time>
      </trkpt>
      <trkpt lat="45.79175" lon="4.6851">
        <ele>325</ele>
        <time>2011-12-03T09:44:59Z</time>
      </trkpt>
      <trkpt lat="45.79175" lon="4.68506">
        <ele>325</ele>
        <time>2011-12-03T09:45:00Z</time>
      </trkpt>
      <trkpt lat="45.79182" lon="4.68486">
        <ele>325</ele>
        <time>2011-12-03T09:45:06Z</time>
      </trkpt>
      <trkpt lat="45.79184" lon="4.68472">
        <ele>325</ele>
        <time>2011-12-03T09:45:10Z</time>
      </trkpt>
      <trkpt lat="45.79196" lon="4.68449">
        <ele>324</ele>
        <time>2011-12-03T09:45:16Z</time>
      </trkpt>
      <trkpt lat="45.79201" lon="4.68439">
        <ele>323</ele>
        <time>2011-12-03T09:45:18Z</time>
      </trkpt>
      <trkpt lat="45.79204" lon="4.68433">
        <ele>322</ele>
        <time>2011-12-03T09:45:19Z</time>
      </trkpt>
      <trkpt lat="45.79206" lon="4.68428">
        <ele>322</ele>
        <time>2011-12-03T09:45:20Z</time>
      </trkpt>
      <trkpt lat="45.79209" lon="4.68424">
        <ele>321</ele>
        <time>2011-12-03T09:45:21Z</time>
      </trkpt>
      <trkpt lat="45.7921" lon="4.68419">
        <ele>322</ele>
        <time>2011-12-03T09:45:22Z</time>
      </trkpt>
      <trkpt lat="45.79212" lon="4.68414">
        <ele>321</ele>
        <time>2011-12-03T09:45:23Z</time>
      </trkpt>
      <trkpt lat="45.79213" lon="4.68409">
        <ele>321</ele>
        <time>2011-12-03T09:45:24Z</time>
      </trkpt>
      <trkpt lat="45.79216" lon="4.68404">
        <ele>320</ele>
        <time>2011-12-03T09:45:25Z</time>
      </trkpt>
      <trkpt lat="45.79226" lon="4.68388">
        <ele>320</ele>
        <time>2011-12-03T09:45:29Z</time>
      </trkpt>
      <trkpt lat="45.79236" lon="4.68373">
        <ele>320</ele>
        <time>2011-12-03T09:45:35Z</time>
      </trkpt>
      <trkpt lat="45.79241" lon="4.68368">
        <ele>320</ele>
        <time>2011-12-03T09:45:40Z</time>
      </trkpt>
      <trkpt lat="45.79253" lon="4.68365">
        <ele>319</ele>
        <time>2011-12-03T09:45:44Z</time>
      </trkpt>
      <trkpt lat="45.79269" lon="4.68366">
        <ele>319</ele>
        <time>2011-12-03T09:45:49Z</time>
      </trkpt>
      <trkpt lat="45.79282" lon="4.68372">
        <ele>321</ele>
        <time>2011-12-03T09:45:55Z</time>
      </trkpt>
      <trkpt lat="45.7929" lon="4.68374">
        <ele>323</ele>
        <time>2011-12-03T09:46:00Z</time>
      </trkpt>
      <trkpt lat="45.79292" lon="4.68375">
        <ele>323</ele>
        <time>2011-12-03T09:46:01Z</time>
      </trkpt>
      <trkpt lat="45.79296" lon="4.68379">
        <ele>323</ele>
        <time>2011-12-03T09:46:04Z</time>
      </trkpt>
      <trkpt lat="45.79297" lon="4.68381">
        <ele>324</ele>
        <time>2011-12-03T09:46:05Z</time>
      </trkpt>
      <trkpt lat="45.793" lon="4.68385">
        <ele>325</ele>
        <time>2011-12-03T09:46:08Z</time>
      </trkpt>
      <trkpt lat="45.793" lon="4.68387">
        <ele>325</ele>
        <time>2011-12-03T09:46:09Z</time>
      </trkpt>
      <trkpt lat="45.79301" lon="4.68402">
        <ele>327</ele>
        <time>2011-12-03T09:46:16Z</time>
      </trkpt>
      <trkpt lat="45.79304" lon="4.68416">
        <ele>328</ele>
        <time>2011-12-03T09:46:24Z</time>
      </trkpt>
      <trkpt lat="45.79305" lon="4.68422">
        <ele>329</ele>
        <time>2011-12-03T09:46:28Z</time>
      </trkpt>
      <trkpt lat="45.79306" lon="4.68424">
        <ele>330</ele>
        <time>2011-12-03T09:46:29Z</time>
      </trkpt>
      <trkpt lat="45.79307" lon="4.68425">
        <ele>330</ele>
        <time>2011-12-03T09:46:30Z</time>
      </trkpt>
      <trkpt lat="45.79307" lon="4.68427">
        <ele>330</ele>
        <time>2011-12-03T09:46:31Z</time>
      </trkpt>
      <trkpt lat="45.79314" lon="4.68443">
        <ele>332</ele>
        <time>2011-12-03T09:46:40Z</time>
      </trkpt>
      <trkpt lat="45.79315" lon="4.68446">
        <ele>333</ele>
        <time>2011-12-03T09:46:42Z</time>
      </trkpt>
      <trkpt lat="45.79316" lon="4.68447">
        <ele>333</ele>
        <time>2011-12-03T09:46:43Z</time>
      </trkpt>
      <trkpt lat="45.79325" lon="4.6846">
        <ele>334</ele>
        <time>2011-12-03T09:46:52Z</time>
      </trkpt>
      <trkpt lat="45.79333" lon="4.68471">
        <ele>336</ele>
        <time>2011-12-03T09:47:00Z</time>
      </trkpt>
      <trkpt lat="45.7934" lon="4.68481">
        <ele>338</ele>
        <time>2011-12-03T09:47:07Z</time>
      </trkpt>
      <trkpt lat="45.79342" lon="4.68484">
        <ele>338</ele>
        <time>2011-12-03T09:47:09Z</time>
      </trkpt>
      <trkpt lat="45.79343" lon="4.68485">
        <ele>338</ele>
        <time>2011-12-03T09:47:10Z</time>
      </trkpt>
      <trkpt lat="45.79348" lon="4.68496">
        <ele>339</ele>
        <time>2011-12-03T09:47:16Z</time>
      </trkpt>
      <trkpt lat="45.79358" lon="4.68507">
        <ele>340</ele>
        <time>2011-12-03T09:47:23Z</time>
      </trkpt>
      <trkpt lat="45.79368" lon="4.68517">
        <ele>341</ele>
        <time>2011-12-03T09:47:30Z</time>
      </trkpt>
      <trkpt lat="45.79376" lon="4.68525">
        <ele>342</ele>
        <time>2011-12-03T09:47:36Z</time>
      </trkpt>
      <trkpt lat="45.7939" lon="4.68536">
        <ele>343</ele>
        <time>2011-12-03T09:47:43Z</time>
      </trkpt>
      <trkpt lat="45.79412" lon="4.68556">
        <ele>343</ele>
        <time>2011-12-03T09:47:53Z</time>
      </trkpt>
      <trkpt lat="45.79439" lon="4.68575">
        <ele>344</ele>
        <time>2011-12-03T09:48:03Z</time>
      </trkpt>
      <trkpt lat="45.79457" lon="4.68584">
        <ele>345</ele>
        <time>2011-12-03T09:48:10Z</time>
      </trkpt>
      <trkpt lat="45.7948" lon="4.68595">
        <ele>346</ele>
        <time>2011-12-03T09:48:18Z</time>
      </trkpt>
      <trkpt lat="45.79502" lon="4.68609">
        <ele>347</ele>
        <time>2011-12-03T09:48:26Z</time>
      </trkpt>
      <trkpt lat="45.79531" lon="4.68625">
        <ele>347</ele>
        <time>2011-12-03T09:48:35Z</time>
      </trkpt>
      <trkpt lat="45.79543" lon="4.68635">
        <ele>347</ele>
        <time>2011-12-03T09:48:39Z</time>
      </trkpt>
      <trkpt lat="45.79544" lon="4.68641">
        <ele>347</ele>
        <time>2011-12-03T09:48:40Z</time>
      </trkpt>
      <trkpt lat="45.79543" lon="4.68647">
        <ele>346</ele>
        <time>2011-12-03T09:48:41Z</time>
      </trkpt>
      <trkpt lat="45.79541" lon="4.68653">
        <ele>346</ele>
        <time>2011-12-03T09:48:42Z</time>
      </trkpt>
      <trkpt lat="45.79538" lon="4.68659">
        <ele>346</ele>
        <time>2011-12-03T09:48:43Z</time>
      </trkpt>
      <trkpt lat="45.79535" lon="4.68665">
        <ele>345</ele>
        <time>2011-12-03T09:48:44Z</time>
      </trkpt>
      <trkpt lat="45.79532" lon="4.6867">
        <ele>345</ele>
        <time>2011-12-03T09:48:45Z</time>
      </trkpt>
      <trkpt lat="45.79528" lon="4.68676">
        <ele>345</ele>
        <time>2011-12-03T09:48:46Z</time>
      </trkpt>
      <trkpt lat="45.79503" lon="4.68729">
        <ele>343</ele>
        <time>2011-12-03T09:48:54Z</time>
      </trkpt>
      <trkpt lat="45.79488" lon="4.68768">
        <ele>342</ele>
        <time>2011-12-03T09:48:59Z</time>
      </trkpt>
      <trkpt lat="45.79481" lon="4.68823">
        <ele>341</ele>
        <time>2011-12-03T09:49:06Z</time>
      </trkpt>
      <trkpt lat="45.79481" lon="4.6883">
        <ele>341</ele>
        <time>2011-12-03T09:49:07Z</time>
      </trkpt>
      <trkpt lat="45.79481" lon="4.68837">
        <ele>341</ele>
        <time>2011-12-03T09:49:08Z</time>
      </trkpt>
      <trkpt lat="45.7948" lon="4.6885">
        <ele>341</ele>
        <time>2011-12-03T09:49:10Z</time>
      </trkpt>
      <trkpt lat="45.7948" lon="4.68855">
        <ele>340</ele>
        <time>2011-12-03T09:49:11Z</time>
      </trkpt>
      <trkpt lat="45.79479" lon="4.68858">
        <ele>340</ele>
        <time>2011-12-03T09:49:12Z</time>
      </trkpt>
      <trkpt lat="45.79475" lon="4.68865">
        <ele>340</ele>
        <time>2011-12-03T09:49:18Z</time>
      </trkpt>
      <trkpt lat="45.79474" lon="4.68868">
        <ele>339</ele>
        <time>2011-12-03T09:49:19Z</time>
      </trkpt>
      <trkpt lat="45.79474" lon="4.68873">
        <ele>339</ele>
        <time>2011-12-03T09:49:20Z</time>
      </trkpt>
      <trkpt lat="45.79472" lon="4.6891">
        <ele>339</ele>
        <time>2011-12-03T09:49:26Z</time>
      </trkpt>
      <trkpt lat="45.79471" lon="4.68959">
        <ele>338</ele>
        <time>2011-12-03T09:49:33Z</time>
      </trkpt>
      <trkpt lat="45.7947" lon="4.69022">
        <ele>337</ele>
        <time>2011-12-03T09:49:42Z</time>
      </trkpt>
      <trkpt lat="45.7947" lon="4.69104">
        <ele>334</ele>
        <time>2011-12-03T09:49:52Z</time>
      </trkpt>
      <trkpt lat="45.79469" lon="4.69122">
        <ele>334</ele>
        <time>2011-12-03T09:49:54Z</time>
      </trkpt>
      <trkpt lat="45.79457" lon="4.69204">
        <ele>331</ele>
        <time>2011-12-03T09:50:03Z</time>
      </trkpt>
      <trkpt lat="45.79443" lon="4.69287">
        <ele>328</ele>
        <time>2011-12-03T09:50:11Z</time>
      </trkpt>
      <trkpt lat="45.79435" lon="4.69352">
        <ele>326</ele>
        <time>2011-12-03T09:50:18Z</time>
      </trkpt>
      <trkpt lat="45.79434" lon="4.69361">
        <ele>326</ele>
        <time>2011-12-03T09:50:19Z</time>
      </trkpt>
      <trkpt lat="45.79434" lon="4.6939">
        <ele>325</ele>
        <time>2011-12-03T09:50:22Z</time>
      </trkpt>
      <trkpt lat="45.79421" lon="4.69468">
        <ele>322</ele>
        <time>2011-12-03T09:50:30Z</time>
      </trkpt>
      <trkpt lat="45.79407" lon="4.69539">
        <ele>319</ele>
        <time>2011-12-03T09:50:37Z</time>
      </trkpt>
      <trkpt lat="45.794" lon="4.69578">
        <ele>317</ele>
        <time>2011-12-03T09:50:42Z</time>
      </trkpt>
      <trkpt lat="45.79398" lon="4.69594">
        <ele>317</ele>
        <time>2011-12-03T09:50:44Z</time>
      </trkpt>
      <trkpt lat="45.79392" lon="4.69633">
        <ele>316</ele>
        <time>2011-12-03T09:50:49Z</time>
      </trkpt>
      <trkpt lat="45.79391" lon="4.69641">
        <ele>315</ele>
        <time>2011-12-03T09:50:50Z</time>
      </trkpt>
      <trkpt lat="45.7939" lon="4.69649">
        <ele>315</ele>
        <time>2011-12-03T09:50:51Z</time>
      </trkpt>
      <trkpt lat="45.79388" lon="4.69666">
        <ele>314</ele>
        <time>2011-12-03T09:50:53Z</time>
      </trkpt>
      <trkpt lat="45.79387" lon="4.69674">
        <ele>314</ele>
        <time>2011-12-03T09:50:54Z</time>
      </trkpt>
      <trkpt lat="45.79386" lon="4.69682">
        <ele>314</ele>
        <time>2011-12-03T09:50:55Z</time>
      </trkpt>
      <trkpt lat="45.79386" lon="4.6969">
        <ele>313</ele>
        <time>2011-12-03T09:50:56Z</time>
      </trkpt>
      <trkpt lat="45.79387" lon="4.69698">
        <ele>313</ele>
        <time>2011-12-03T09:50:57Z</time>
      </trkpt>
      <trkpt lat="45.79387" lon="4.69706">
        <ele>313</ele>
        <time>2011-12-03T09:50:58Z</time>
      </trkpt>
      <trkpt lat="45.79385" lon="4.69714">
        <ele>312</ele>
        <time>2011-12-03T09:50:59Z</time>
      </trkpt>
      <trkpt lat="45.79374" lon="4.6977">
        <ele>309</ele>
        <time>2011-12-03T09:51:05Z</time>
      </trkpt>
      <trkpt lat="45.79369" lon="4.69789">
        <ele>309</ele>
        <time>2011-12-03T09:51:07Z</time>
      </trkpt>
      <trkpt lat="45.79367" lon="4.69799">
        <ele>308</ele>
        <time>2011-12-03T09:51:08Z</time>
      </trkpt>
      <trkpt lat="45.79365" lon="4.69809">
        <ele>307</ele>
        <time>2011-12-03T09:51:09Z</time>
      </trkpt>
      <trkpt lat="45.7936" lon="4.69846">
        <ele>307</ele>
        <time>2011-12-03T09:51:13Z</time>
      </trkpt>
      <trkpt lat="45.79359" lon="4.69854">
        <ele>306</ele>
        <time>2011-12-03T09:51:14Z</time>
      </trkpt>
      <trkpt lat="45.79358" lon="4.69863">
        <ele>306</ele>
        <time>2011-12-03T09:51:15Z</time>
      </trkpt>
      <trkpt lat="45.79354" lon="4.69895">
        <ele>305</ele>
        <time>2011-12-03T09:51:19Z</time>
      </trkpt>
      <trkpt lat="45.79354" lon="4.69903">
        <ele>305</ele>
        <time>2011-12-03T09:51:20Z</time>
      </trkpt>
      <trkpt lat="45.79354" lon="4.69911">
        <ele>305</ele>
        <time>2011-12-03T09:51:21Z</time>
      </trkpt>
      <trkpt lat="45.79353" lon="4.69936">
        <ele>304</ele>
        <time>2011-12-03T09:51:25Z</time>
      </trkpt>
      <trkpt lat="45.79352" lon="4.69942">
        <ele>304</ele>
        <time>2011-12-03T09:51:26Z</time>
      </trkpt>
      <trkpt lat="45.7935" lon="4.69948">
        <ele>303</ele>
        <time>2011-12-03T09:51:27Z</time>
      </trkpt>
      <trkpt lat="45.79348" lon="4.69955">
        <ele>303</ele>
        <time>2011-12-03T09:51:28Z</time>
      </trkpt>
      <trkpt lat="45.79346" lon="4.69962">
        <ele>302</ele>
        <time>2011-12-03T09:51:29Z</time>
      </trkpt>
      <trkpt lat="45.79345" lon="4.69969">
        <ele>302</ele>
        <time>2011-12-03T09:51:30Z</time>
      </trkpt>
      <trkpt lat="45.79343" lon="4.69975">
        <ele>302</ele>
        <time>2011-12-03T09:51:31Z</time>
      </trkpt>
      <trkpt lat="45.79342" lon="4.69981">
        <ele>302</ele>
        <time>2011-12-03T09:51:32Z</time>
      </trkpt>
      <trkpt lat="45.79338" lon="4.70009">
        <ele>301</ele>
        <time>2011-12-03T09:51:38Z</time>
      </trkpt>
      <trkpt lat="45.79349" lon="4.70028">
        <ele>301</ele>
        <time>2011-12-03T09:51:45Z</time>
      </trkpt>
      <trkpt lat="45.79358" lon="4.70043">
        <ele>301</ele>
        <time>2011-12-03T09:51:50Z</time>
      </trkpt>
      <trkpt lat="45.79369" lon="4.7005">
        <ele>301</ele>
        <time>2011-12-03T09:51:54Z</time>
      </trkpt>
      <trkpt lat="45.79371" lon="4.70066">
        <ele>301</ele>
        <time>2011-12-03T09:51:58Z</time>
      </trkpt>
      <trkpt lat="45.79366" lon="4.70085">
        <ele>301</ele>
        <time>2011-12-03T09:52:02Z</time>
      </trkpt>
      <trkpt lat="45.79364" lon="4.70091">
        <ele>300</ele>
        <time>2011-12-03T09:52:03Z</time>
      </trkpt>
      <trkpt lat="45.7936" lon="4.70105">
        <ele>300</ele>
        <time>2011-12-03T09:52:05Z</time>
      </trkpt>
      <trkpt lat="45.79353" lon="4.70146">
        <ele>298</ele>
        <time>2011-12-03T09:52:10Z</time>
      </trkpt>
      <trkpt lat="45.79355" lon="4.70154">
        <ele>298</ele>
        <time>2011-12-03T09:52:11Z</time>
      </trkpt>
      <trkpt lat="45.79358" lon="4.7016">
        <ele>297</ele>
        <time>2011-12-03T09:52:12Z</time>
      </trkpt>
      <trkpt lat="45.79364" lon="4.7017">
        <ele>297</ele>
        <time>2011-12-03T09:52:14Z</time>
      </trkpt>
      <trkpt lat="45.79366" lon="4.70175">
        <ele>297</ele>
        <time>2011-12-03T09:52:15Z</time>
      </trkpt>
      <trkpt lat="45.79369" lon="4.70178">
        <ele>297</ele>
        <time>2011-12-03T09:52:16Z</time>
      </trkpt>
      <trkpt lat="45.79372" lon="4.7018">
        <ele>297</ele>
        <time>2011-12-03T09:52:17Z</time>
      </trkpt>
      <trkpt lat="45.79375" lon="4.70181">
        <ele>297</ele>
        <time>2011-12-03T09:52:18Z</time>
      </trkpt>
      <trkpt lat="45.79378" lon="4.70182">
        <ele>296</ele>
        <time>2011-12-03T09:52:19Z</time>
      </trkpt>
      <trkpt lat="45.79381" lon="4.70184">
        <ele>296</ele>
        <time>2011-12-03T09:52:20Z</time>
      </trkpt>
      <trkpt lat="45.79383" lon="4.70187">
        <ele>296</ele>
        <time>2011-12-03T09:52:21Z</time>
      </trkpt>
      <trkpt lat="45.79395" lon="4.70209">
        <ele>296</ele>
        <time>2011-12-03T09:52:27Z</time>
      </trkpt>
      <trkpt lat="45.79406" lon="4.70225">
        <ele>295</ele>
        <time>2011-12-03T09:52:31Z</time>
      </trkpt>
      <trkpt lat="45.79413" lon="4.70239">
        <ele>295</ele>
        <time>2011-12-03T09:52:34Z</time>
      </trkpt>
      <trkpt lat="45.79415" lon="4.70244">
        <ele>294</ele>
        <time>2011-12-03T09:52:35Z</time>
      </trkpt>
      <trkpt lat="45.79415" lon="4.70251">
        <ele>294</ele>
        <time>2011-12-03T09:52:36Z</time>
      </trkpt>
      <trkpt lat="45.79416" lon="4.70257">
        <ele>294</ele>
        <time>2011-12-03T09:52:37Z</time>
      </trkpt>
      <trkpt lat="45.79416" lon="4.70264">
        <ele>294</ele>
        <time>2011-12-03T09:52:38Z</time>
      </trkpt>
      <trkpt lat="45.79416" lon="4.70271">
        <ele>293</ele>
        <time>2011-12-03T09:52:39Z</time>
      </trkpt>
      <trkpt lat="45.79416" lon="4.70278">
        <ele>293</ele>
        <time>2011-12-03T09:52:40Z</time>
      </trkpt>
      <trkpt lat="45.79415" lon="4.70293">
        <ele>293</ele>
        <time>2011-12-03T09:52:42Z</time>
      </trkpt>
      <trkpt lat="45.79414" lon="4.70301">
        <ele>292</ele>
        <time>2011-12-03T09:52:43Z</time>
      </trkpt>
      <trkpt lat="45.79413" lon="4.70316">
        <ele>291</ele>
        <time>2011-12-03T09:52:45Z</time>
      </trkpt>
      <trkpt lat="45.79412" lon="4.70324">
        <ele>291</ele>
        <time>2011-12-03T09:52:46Z</time>
      </trkpt>
      <trkpt lat="45.79411" lon="4.70333">
        <ele>290</ele>
        <time>2011-12-03T09:52:47Z</time>
      </trkpt>
      <trkpt lat="45.79409" lon="4.70342">
        <ele>289</ele>
        <time>2011-12-03T09:52:48Z</time>
      </trkpt>
      <trkpt lat="45.79406" lon="4.70349">
        <ele>289</ele>
        <time>2011-12-03T09:52:49Z</time>
      </trkpt>
      <trkpt lat="45.79403" lon="4.70355">
        <ele>289</ele>
        <time>2011-12-03T09:52:50Z</time>
      </trkpt>
      <trkpt lat="45.79398" lon="4.70359">
        <ele>288</ele>
        <time>2011-12-03T09:52:51Z</time>
      </trkpt>
      <trkpt lat="45.79392" lon="4.7036">
        <ele>288</ele>
        <time>2011-12-03T09:52:52Z</time>
      </trkpt>
      <trkpt lat="45.79386" lon="4.7036">
        <ele>288</ele>
        <time>2011-12-03T09:52:53Z</time>
      </trkpt>
      <trkpt lat="45.79381" lon="4.7036">
        <ele>287</ele>
        <time>2011-12-03T09:52:54Z</time>
      </trkpt>
      <trkpt lat="45.79355" lon="4.70364">
        <ele>285</ele>
        <time>2011-12-03T09:52:59Z</time>
      </trkpt>
      <trkpt lat="45.79351" lon="4.70363">
        <ele>284</ele>
        <time>2011-12-03T09:53:00Z</time>
      </trkpt>
      <trkpt lat="45.79346" lon="4.70363">
        <ele>283</ele>
        <time>2011-12-03T09:53:01Z</time>
      </trkpt>
      <trkpt lat="45.79343" lon="4.70365">
        <ele>283</ele>
        <time>2011-12-03T09:53:02Z</time>
      </trkpt>
      <trkpt lat="45.79339" lon="4.70368">
        <ele>283</ele>
        <time>2011-12-03T09:53:03Z</time>
      </trkpt>
      <trkpt lat="45.79336" lon="4.70372">
        <ele>280</ele>
        <time>2011-12-03T09:53:04Z</time>
      </trkpt>
      <trkpt lat="45.79333" lon="4.70376">
        <ele>280</ele>
        <time>2011-12-03T09:53:05Z</time>
      </trkpt>
      <trkpt lat="45.7933" lon="4.70379">
        <ele>279</ele>
        <time>2011-12-03T09:53:06Z</time>
      </trkpt>
      <trkpt lat="45.79327" lon="4.70382">
        <ele>278</ele>
        <time>2011-12-03T09:53:07Z</time>
      </trkpt>
      <trkpt lat="45.79324" lon="4.70388">
        <ele>278</ele>
        <time>2011-12-03T09:53:08Z</time>
      </trkpt>
      <trkpt lat="45.7932" lon="4.70395">
        <ele>276</ele>
        <time>2011-12-03T09:53:09Z</time>
      </trkpt>
      <trkpt lat="45.79315" lon="4.70401">
        <ele>275</ele>
        <time>2011-12-03T09:53:10Z</time>
      </trkpt>
      <trkpt lat="45.79309" lon="4.70406">
        <ele>274</ele>
        <time>2011-12-03T09:53:11Z</time>
      </trkpt>
      <trkpt lat="45.79305" lon="4.70409">
        <ele>274</ele>
        <time>2011-12-03T09:53:12Z</time>
      </trkpt>
      <trkpt lat="45.79301" lon="4.70411">
        <ele>274</ele>
        <time>2011-12-03T09:53:13Z</time>
      </trkpt>
      <trkpt lat="45.79299" lon="4.70412">
        <ele>273</ele>
        <time>2011-12-03T09:53:14Z</time>
      </trkpt>
      <trkpt lat="45.79293" lon="4.70417">
        <ele>273</ele>
        <time>2011-12-03T09:53:20Z</time>
      </trkpt>
      <trkpt lat="45.79293" lon="4.70417">
        <ele>273</ele>
        <time>2011-12-03T09:53:34Z</time>
      </trkpt>
      <trkpt lat="45.79293" lon="4.70418">
        <ele>273</ele>
        <time>2011-12-03T09:53:41Z</time>
      </trkpt>
      <trkpt lat="45.79292" lon="4.70417">
        <ele>273</ele>
        <time>2011-12-03T09:53:47Z</time>
      </trkpt>
      <trkpt lat="45.79284" lon="4.70419">
        <ele>272</ele>
        <time>2011-12-03T09:53:55Z</time>
      </trkpt>
      <trkpt lat="45.79279" lon="4.70423">
        <ele>273</ele>
        <time>2011-12-03T09:54:00Z</time>
      </trkpt>
      <trkpt lat="45.79275" lon="4.70425">
        <ele>273</ele>
        <time>2011-12-03T09:54:05Z</time>
      </trkpt>
      <trkpt lat="45.79273" lon="4.70426">
        <ele>273</ele>
        <time>2011-12-03T09:54:12Z</time>
      </trkpt>
      <trkpt lat="45.79273" lon="4.70431">
        <ele>274</ele>
        <time>2011-12-03T09:54:16Z</time>
      </trkpt>
      <trkpt lat="45.79273" lon="4.70432">
        <ele>274</ele>
        <time>2011-12-03T09:54:17Z</time>
      </trkpt>
      <trkpt lat="45.79277" lon="4.70446">
        <ele>274</ele>
        <time>2011-12-03T09:54:23Z</time>
      </trkpt>
      <trkpt lat="45.79278" lon="4.70449">
        <ele>274</ele>
        <time>2011-12-03T09:54:24Z</time>
      </trkpt>
      <trkpt lat="45.7928" lon="4.70451">
        <ele>274</ele>
        <time>2011-12-03T09:54:25Z</time>
      </trkpt>
      <trkpt lat="45.7928" lon="4.70454">
        <ele>275</ele>
        <time>2011-12-03T09:54:26Z</time>
      </trkpt>
      <trkpt lat="45.79289" lon="4.70473">
        <ele>275</ele>
        <time>2011-12-03T09:54:33Z</time>
      </trkpt>
      <trkpt lat="45.793" lon="4.7049">
        <ele>274</ele>
        <time>2011-12-03T09:54:39Z</time>
      </trkpt>
      <trkpt lat="45.79309" lon="4.70509">
        <ele>273</ele>
        <time>2011-12-03T09:54:45Z</time>
      </trkpt>
      <trkpt lat="45.79319" lon="4.70529">
        <ele>273</ele>
        <time>2011-12-03T09:54:50Z</time>
      </trkpt>
      <trkpt lat="45.79323" lon="4.70533">
        <ele>273</ele>
        <time>2011-12-03T09:54:51Z</time>
      </trkpt>
      <trkpt lat="45.79328" lon="4.70537">
        <ele>273</ele>
        <time>2011-12-03T09:54:52Z</time>
      </trkpt>
      <trkpt lat="45.79338" lon="4.70544">
        <ele>272</ele>
        <time>2011-12-03T09:54:54Z</time>
      </trkpt>
      <trkpt lat="45.79342" lon="4.70547">
        <ele>272</ele>
        <time>2011-12-03T09:54:55Z</time>
      </trkpt>
      <trkpt lat="45.79348" lon="4.70549">
        <ele>272</ele>
        <time>2011-12-03T09:54:56Z</time>
      </trkpt>
      <trkpt lat="45.79353" lon="4.70552">
        <ele>272</ele>
        <time>2011-12-03T09:54:57Z</time>
      </trkpt>
      <trkpt lat="45.79358" lon="4.70553">
        <ele>271</ele>
        <time>2011-12-03T09:54:58Z</time>
      </trkpt>
      <trkpt lat="45.79362" lon="4.70554">
        <ele>272</ele>
        <time>2011-12-03T09:54:59Z</time>
      </trkpt>
      <trkpt lat="45.79379" lon="4.70564">
        <ele>270</ele>
        <time>2011-12-03T09:55:04Z</time>
      </trkpt>
      <trkpt lat="45.79382" lon="4.70568">
        <ele>271</ele>
        <time>2011-12-03T09:55:05Z</time>
      </trkpt>
      <trkpt lat="45.79384" lon="4.70572">
        <ele>270</ele>
        <time>2011-12-03T09:55:06Z</time>
      </trkpt>
      <trkpt lat="45.79388" lon="4.70576">
        <ele>270</ele>
        <time>2011-12-03T09:55:07Z</time>
      </trkpt>
      <trkpt lat="45.79397" lon="4.70599">
        <ele>270</ele>
        <time>2011-12-03T09:55:12Z</time>
      </trkpt>
      <trkpt lat="45.79399" lon="4.70604">
        <ele>270</ele>
        <time>2011-12-03T09:55:13Z</time>
      </trkpt>
      <trkpt lat="45.79401" lon="4.7061">
        <ele>271</ele>
        <time>2011-12-03T09:55:14Z</time>
      </trkpt>
      <trkpt lat="45.79403" lon="4.70615">
        <ele>270</ele>
        <time>2011-12-03T09:55:15Z</time>
      </trkpt>
      <trkpt lat="45.79404" lon="4.7062">
        <ele>270</ele>
        <time>2011-12-03T09:55:16Z</time>
      </trkpt>
      <trkpt lat="45.79406" lon="4.70624">
        <ele>270</ele>
        <time>2011-12-03T09:55:17Z</time>
      </trkpt>
      <trkpt lat="45.79416" lon="4.70647">
        <ele>272</ele>
        <time>2011-12-03T09:55:23Z</time>
      </trkpt>
      <trkpt lat="45.79418" lon="4.70651">
        <ele>272</ele>
        <time>2011-12-03T09:55:24Z</time>
      </trkpt>
      <trkpt lat="45.79419" lon="4.70654">
        <ele>271</ele>
        <time>2011-12-03T09:55:25Z</time>
      </trkpt>
      <trkpt lat="45.7942" lon="4.70658">
        <ele>271</ele>
        <time>2011-12-03T09:55:26Z</time>
      </trkpt>
      <trkpt lat="45.79421" lon="4.70661">
        <ele>272</ele>
        <time>2011-12-03T09:55:27Z</time>
      </trkpt>
      <trkpt lat="45.79423" lon="4.70664">
        <ele>271</ele>
        <time>2011-12-03T09:55:28Z</time>
      </trkpt>
      <trkpt lat="45.79426" lon="4.70671">
        <ele>272</ele>
        <time>2011-12-03T09:55:32Z</time>
      </trkpt>
      <trkpt lat="45.79429" lon="4.70679">
        <ele>272</ele>
        <time>2011-12-03T09:55:36Z</time>
      </trkpt>
      <trkpt lat="45.7943" lon="4.7068">
        <ele>273</ele>
        <time>2011-12-03T09:55:37Z</time>
      </trkpt>
      <trkpt lat="45.7943" lon="4.70682">
        <ele>273</ele>
        <time>2011-12-03T09:55:38Z</time>
      </trkpt>
      <trkpt lat="45.79437" lon="4.70697">
        <ele>274</ele>
        <time>2011-12-03T09:55:45Z</time>
      </trkpt>
      <trkpt lat="45.79441" lon="4.70711">
        <ele>274</ele>
        <time>2011-12-03T09:55:51Z</time>
      </trkpt>
      <trkpt lat="45.79443" lon="4.70718">
        <ele>275</ele>
        <time>2011-12-03T09:55:54Z</time>
      </trkpt>
      <trkpt lat="45.79444" lon="4.7072">
        <ele>275</ele>
        <time>2011-12-03T09:55:55Z</time>
      </trkpt>
      <trkpt lat="45.79445" lon="4.70723">
        <ele>275</ele>
        <time>2011-12-03T09:55:56Z</time>
      </trkpt>
      <trkpt lat="45.79446" lon="4.70725">
        <ele>276</ele>
        <time>2011-12-03T09:55:57Z</time>
      </trkpt>
      <trkpt lat="45.79446" lon="4.70727">
        <ele>276</ele>
        <time>2011-12-03T09:55:58Z</time>
      </trkpt>
      <trkpt lat="45.79447" lon="4.7073">
        <ele>276</ele>
        <time>2011-12-03T09:55:59Z</time>
      </trkpt>
      <trkpt lat="45.79449" lon="4.70732">
        <ele>276</ele>
        <time>2011-12-03T09:56:00Z</time>
      </trkpt>
      <trkpt lat="45.7945" lon="4.70735">
        <ele>276</ele>
        <time>2011-12-03T09:56:01Z</time>
      </trkpt>
      <trkpt lat="45.79451" lon="4.70737">
        <ele>277</ele>
        <time>2011-12-03T09:56:02Z</time>
      </trkpt>
      <trkpt lat="45.79454" lon="4.70741">
        <ele>277</ele>
        <time>2011-12-03T09:56:04Z</time>
      </trkpt>
      <trkpt lat="45.79463" lon="4.70752">
        <ele>277</ele>
        <time>2011-12-03T09:56:11Z</time>
      </trkpt>
      <trkpt lat="45.79467" lon="4.70759">
        <ele>277</ele>
        <time>2011-12-03T09:56:14Z</time>
      </trkpt>
      <trkpt lat="45.79467" lon="4.70762">
        <ele>277</ele>
        <time>2011-12-03T09:56:15Z</time>
      </trkpt>
      <trkpt lat="45.7947" lon="4.70774">
        <ele>279</ele>
        <time>2011-12-03T09:56:20Z</time>
      </trkpt>
      <trkpt lat="45.7947" lon="4.70777">
        <ele>279</ele>
        <time>2011-12-03T09:56:21Z</time>
      </trkpt>
      <trkpt lat="45.7947" lon="4.70779">
        <ele>279</ele>
        <time>2011-12-03T09:56:22Z</time>
      </trkpt>
      <trkpt lat="45.79469" lon="4.70792">
        <ele>281</ele>
        <time>2011-12-03T09:56:29Z</time>
      </trkpt>
      <trkpt lat="45.79469" lon="4.70794">
        <ele>281</ele>
        <time>2011-12-03T09:56:30Z</time>
      </trkpt>
      <trkpt lat="45.79465" lon="4.70804">
        <ele>284</ele>
        <time>2011-12-03T09:56:36Z</time>
      </trkpt>
      <trkpt lat="45.79464" lon="4.70814">
        <ele>286</ele>
        <time>2011-12-03T09:56:43Z</time>
      </trkpt>
      <trkpt lat="45.79461" lon="4.7082">
        <ele>286</ele>
        <time>2011-12-03T09:56:47Z</time>
      </trkpt>
      <trkpt lat="45.79461" lon="4.70822">
        <ele>287</ele>
        <time>2011-12-03T09:56:48Z</time>
      </trkpt>
      <trkpt lat="45.79457" lon="4.70835">
        <ele>289</ele>
        <time>2011-12-03T09:56:54Z</time>
      </trkpt>
      <trkpt lat="45.79456" lon="4.70837">
        <ele>288</ele>
        <time>2011-12-03T09:56:55Z</time>
      </trkpt>
      <trkpt lat="45.79449" lon="4.70851">
        <ele>289</ele>
        <time>2011-12-03T09:57:04Z</time>
      </trkpt>
      <trkpt lat="45.79445" lon="4.70862">
        <ele>290</ele>
        <time>2011-12-03T09:57:11Z</time>
      </trkpt>
      <trkpt lat="45.79445" lon="4.70864">
        <ele>291</ele>
        <time>2011-12-03T09:57:12Z</time>
      </trkpt>
      <trkpt lat="45.79444" lon="4.70866">
        <ele>290</ele>
        <time>2011-12-03T09:57:13Z</time>
      </trkpt>
      <trkpt lat="45.79444" lon="4.70867">
        <ele>290</ele>
        <time>2011-12-03T09:57:14Z</time>
      </trkpt>
      <trkpt lat="45.79443" lon="4.70869">
        <ele>291</ele>
        <time>2011-12-03T09:57:15Z</time>
      </trkpt>
      <trkpt lat="45.79442" lon="4.70871">
        <ele>291</ele>
        <time>2011-12-03T09:57:16Z</time>
      </trkpt>
      <trkpt lat="45.79441" lon="4.70872">
        <ele>291</ele>
        <time>2011-12-03T09:57:17Z</time>
      </trkpt>
      <trkpt lat="45.79438" lon="4.70874">
        <ele>291</ele>
        <time>2011-12-03T09:57:20Z</time>
      </trkpt>
      <trkpt lat="45.79429" lon="4.70874">
        <ele>292</ele>
        <time>2011-12-03T09:57:28Z</time>
      </trkpt>
      <trkpt lat="45.79427" lon="4.70873">
        <ele>293</ele>
        <time>2011-12-03T09:57:29Z</time>
      </trkpt>
      <trkpt lat="45.79426" lon="4.70872">
        <ele>293</ele>
        <time>2011-12-03T09:57:30Z</time>
      </trkpt>
      <trkpt lat="45.79424" lon="4.70872">
        <ele>294</ele>
        <time>2011-12-03T09:57:31Z</time>
      </trkpt>
      <trkpt lat="45.79423" lon="4.70871">
        <ele>293</ele>
        <time>2011-12-03T09:57:32Z</time>
      </trkpt>
      <trkpt lat="45.79421" lon="4.70871">
        <ele>294</ele>
        <time>2011-12-03T09:57:33Z</time>
      </trkpt>
      <trkpt lat="45.79419" lon="4.70869">
        <ele>295</ele>
        <time>2011-12-03T09:57:34Z</time>
      </trkpt>
      <trkpt lat="45.79418" lon="4.70868">
        <ele>294</ele>
        <time>2011-12-03T09:57:35Z</time>
      </trkpt>
      <trkpt lat="45.79416" lon="4.70868">
        <ele>295</ele>
        <time>2011-12-03T09:57:36Z</time>
      </trkpt>
      <trkpt lat="45.79415" lon="4.70866">
        <ele>295</ele>
        <time>2011-12-03T09:57:37Z</time>
      </trkpt>
      <trkpt lat="45.79413" lon="4.70865">
        <ele>295</ele>
        <time>2011-12-03T09:57:38Z</time>
      </trkpt>
      <trkpt lat="45.79408" lon="4.70863">
        <ele>295</ele>
        <time>2011-12-03T09:57:41Z</time>
      </trkpt>
      <trkpt lat="45.79406" lon="4.70864">
        <ele>295</ele>
        <time>2011-12-03T09:57:42Z</time>
      </trkpt>
      <trkpt lat="45.79404" lon="4.70865">
        <ele>295</ele>
        <time>2011-12-03T09:57:43Z</time>
      </trkpt>
      <trkpt lat="45.79403" lon="4.70866">
        <ele>295</ele>
        <time>2011-12-03T09:57:44Z</time>
      </trkpt>
      <trkpt lat="45.79401" lon="4.70866">
        <ele>295</ele>
        <time>2011-12-03T09:57:45Z</time>
      </trkpt>
      <trkpt lat="45.79385" lon="4.70864">
        <ele>295</ele>
        <time>2011-12-03T09:57:52Z</time>
      </trkpt>
      <trkpt lat="45.79366" lon="4.70871">
        <ele>295</ele>
        <time>2011-12-03T09:58:00Z</time>
      </trkpt>
      <trkpt lat="45.79362" lon="4.70888">
        <ele>295</ele>
        <time>2011-12-03T09:58:07Z</time>
      </trkpt>
      <trkpt lat="45.79363" lon="4.70901">
        <ele>294</ele>
        <time>2011-12-03T09:58:12Z</time>
      </trkpt>
      <trkpt lat="45.79362" lon="4.709">
        <ele>295</ele>
        <time>2011-12-03T09:58:22Z</time>
      </trkpt>
      <trkpt lat="45.79362" lon="4.70904">
        <ele>295</ele>
        <time>2011-12-03T09:58:31Z</time>
      </trkpt>
      <trkpt lat="45.79359" lon="4.70925">
        <ele>295</ele>
        <time>2011-12-03T09:58:38Z</time>
      </trkpt>
      <trkpt lat="45.79351" lon="4.70961">
        <ele>294</ele>
        <time>2011-12-03T09:58:45Z</time>
      </trkpt>
      <trkpt lat="45.79349" lon="4.70965">
        <ele>294</ele>
        <time>2011-12-03T09:58:46Z</time>
      </trkpt>
      <trkpt lat="45.79343" lon="4.70973">
        <ele>294</ele>
        <time>2011-12-03T09:58:48Z</time>
      </trkpt>
      <trkpt lat="45.79339" lon="4.70976">
        <ele>294</ele>
        <time>2011-12-03T09:58:49Z</time>
      </trkpt>
      <trkpt lat="45.79335" lon="4.70979">
        <ele>294</ele>
        <time>2011-12-03T09:58:50Z</time>
      </trkpt>
      <trkpt lat="45.79331" lon="4.70981">
        <ele>294</ele>
        <time>2011-12-03T09:58:51Z</time>
      </trkpt>
      <trkpt lat="45.79327" lon="4.70983">
        <ele>294</ele>
        <time>2011-12-03T09:58:52Z</time>
      </trkpt>
      <trkpt lat="45.79324" lon="4.70983">
        <ele>294</ele>
        <time>2011-12-03T09:58:53Z</time>
      </trkpt>
      <trkpt lat="45.7932" lon="4.70984">
        <ele>294</ele>
        <time>2011-12-03T09:58:54Z</time>
      </trkpt>
      <trkpt lat="45.79316" lon="4.70984">
        <ele>294</ele>
        <time>2011-12-03T09:58:55Z</time>
      </trkpt>
      <trkpt lat="45.79313" lon="4.70983">
        <ele>294</ele>
        <time>2011-12-03T09:58:56Z</time>
      </trkpt>
      <trkpt lat="45.79283" lon="4.70983">
        <ele>295</ele>
        <time>2011-12-03T09:59:04Z</time>
      </trkpt>
      <trkpt lat="45.79242" lon="4.70982">
        <ele>295</ele>
        <time>2011-12-03T09:59:14Z</time>
      </trkpt>
      <trkpt lat="45.79197" lon="4.70975">
        <ele>294</ele>
        <time>2011-12-03T09:59:23Z</time>
      </trkpt>
      <trkpt lat="45.79181" lon="4.70971">
        <ele>294</ele>
        <time>2011-12-03T09:59:26Z</time>
      </trkpt>
      <trkpt lat="45.79176" lon="4.70967">
        <ele>293</ele>
        <time>2011-12-03T09:59:27Z</time>
      </trkpt>
      <trkpt lat="45.79172" lon="4.70962">
        <ele>293</ele>
        <time>2011-12-03T09:59:28Z</time>
      </trkpt>
      <trkpt lat="45.79169" lon="4.70957">
        <ele>293</ele>
        <time>2011-12-03T09:59:29Z</time>
      </trkpt>
      <trkpt lat="45.79166" lon="4.70951">
        <ele>293</ele>
        <time>2011-12-03T09:59:30Z</time>
      </trkpt>
      <trkpt lat="45.79142" lon="4.70896">
        <ele>292</ele>
        <time>2011-12-03T09:59:39Z</time>
      </trkpt>
      <trkpt lat="45.7914" lon="4.7089">
        <ele>292</ele>
        <time>2011-12-03T09:59:40Z</time>
      </trkpt>
      <trkpt lat="45.79139" lon="4.70883">
        <ele>293</ele>
        <time>2011-12-03T09:59:41Z</time>
      </trkpt>
      <trkpt lat="45.79138" lon="4.70863">
        <ele>293</ele>
        <time>2011-12-03T09:59:44Z</time>
      </trkpt>
      <trkpt lat="45.7914" lon="4.7085">
        <ele>293</ele>
        <time>2011-12-03T09:59:46Z</time>
      </trkpt>
      <trkpt lat="45.7914" lon="4.70843">
        <ele>293</ele>
        <time>2011-12-03T09:59:47Z</time>
      </trkpt>
      <trkpt lat="45.79139" lon="4.70838">
        <ele>294</ele>
        <time>2011-12-03T09:59:48Z</time>
      </trkpt>
      <trkpt lat="45.79136" lon="4.70834">
        <ele>293</ele>
        <time>2011-12-03T09:59:49Z</time>
      </trkpt>
      <trkpt lat="45.79133" lon="4.70832">
        <ele>294</ele>
        <time>2011-12-03T09:59:50Z</time>
      </trkpt>
      <trkpt lat="45.79129" lon="4.70832">
        <ele>294</ele>
        <time>2011-12-03T09:59:51Z</time>
      </trkpt>
      <trkpt lat="45.79125" lon="4.70836">
        <ele>293</ele>
        <time>2011-12-03T09:59:52Z</time>
      </trkpt>
      <trkpt lat="45.79122" lon="4.70841">
        <ele>294</ele>
        <time>2011-12-03T09:59:53Z</time>
      </trkpt>
      <trkpt lat="45.7912" lon="4.70847">
        <ele>294</ele>
        <time>2011-12-03T09:59:54Z</time>
      </trkpt>
      <trkpt lat="45.79116" lon="4.70853">
        <ele>293</ele>
        <time>2011-12-03T09:59:55Z</time>
      </trkpt>
      <trkpt lat="45.79112" lon="4.70857">
        <ele>293</ele>
        <time>2011-12-03T09:59:56Z</time>
      </trkpt>
      <trkpt lat="45.79108" lon="4.70861">
        <ele>293</ele>
        <time>2011-12-03T09:59:57Z</time>
      </trkpt>
      <trkpt lat="45.79104" lon="4.70866">
        <ele>293</ele>
        <time>2011-12-03T09:59:58Z</time>
      </trkpt>
      <trkpt lat="45.79101" lon="4.70871">
        <ele>293</ele>
        <time>2011-12-03T09:59:59Z</time>
      </trkpt>
      <trkpt lat="45.79097" lon="4.70877">
        <ele>293</ele>
        <time>2011-12-03T10:00:00Z</time>
      </trkpt>
      <trkpt lat="45.79094" lon="4.70883">
        <ele>292</ele>
        <time>2011-12-03T10:00:01Z</time>
      </trkpt>
      <trkpt lat="45.79089" lon="4.70887">
        <ele>292</ele>
        <time>2011-12-03T10:00:02Z</time>
      </trkpt>
      <trkpt lat="45.79084" lon="4.70889">
        <ele>292</ele>
        <time>2011-12-03T10:00:03Z</time>
      </trkpt>
      <trkpt lat="45.79079" lon="4.70888">
        <ele>292</ele>
        <time>2011-12-03T10:00:04Z</time>
      </trkpt>
      <trkpt lat="45.79075" lon="4.70885">
        <ele>292</ele>
        <time>2011-12-03T10:00:05Z</time>
      </trkpt>
      <trkpt lat="45.79072" lon="4.7088">
        <ele>292</ele>
        <time>2011-12-03T10:00:06Z</time>
      </trkpt>
      <trkpt lat="45.79064" lon="4.70873">
        <ele>292</ele>
        <time>2011-12-03T10:00:08Z</time>
      </trkpt>
      <trkpt lat="45.7906" lon="4.70871">
        <ele>293</ele>
        <time>2011-12-03T10:00:09Z</time>
      </trkpt>
      <trkpt lat="45.79055" lon="4.7087">
        <ele>293</ele>
        <time>2011-12-03T10:00:10Z</time>
      </trkpt>
      <trkpt lat="45.79051" lon="4.70871">
        <ele>293</ele>
        <time>2011-12-03T10:00:11Z</time>
      </trkpt>
      <trkpt lat="45.79047" lon="4.70873">
        <ele>293</ele>
        <time>2011-12-03T10:00:12Z</time>
      </trkpt>
      <trkpt lat="45.79043" lon="4.70877">
        <ele>293</ele>
        <time>2011-12-03T10:00:13Z</time>
      </trkpt>
      <trkpt lat="45.79039" lon="4.70882">
        <ele>292</ele>
        <time>2011-12-03T10:00:14Z</time>
      </trkpt>
      <trkpt lat="45.79035" lon="4.70887">
        <ele>292</ele>
        <time>2011-12-03T10:00:15Z</time>
      </trkpt>
      <trkpt lat="45.79033" lon="4.70894">
        <ele>292</ele>
        <time>2011-12-03T10:00:16Z</time>
      </trkpt>
      <trkpt lat="45.79031" lon="4.70902">
        <ele>292</ele>
        <time>2011-12-03T10:00:17Z</time>
      </trkpt>
      <trkpt lat="45.79032" lon="4.7091">
        <ele>292</ele>
        <time>2011-12-03T10:00:18Z</time>
      </trkpt>
      <trkpt lat="45.79033" lon="4.70919">
        <ele>291</ele>
        <time>2011-12-03T10:00:19Z</time>
      </trkpt>
      <trkpt lat="45.79035" lon="4.70927">
        <ele>291</ele>
        <time>2011-12-03T10:00:20Z</time>
      </trkpt>
      <trkpt lat="45.79037" lon="4.70936">
        <ele>290</ele>
        <time>2011-12-03T10:00:21Z</time>
      </trkpt>
      <trkpt lat="45.79037" lon="4.70946">
        <ele>291</ele>
        <time>2011-12-03T10:00:22Z</time>
      </trkpt>
      <trkpt lat="45.79036" lon="4.70955">
        <ele>291</ele>
        <time>2011-12-03T10:00:23Z</time>
      </trkpt>
      <trkpt lat="45.79034" lon="4.70964">
        <ele>290</ele>
        <time>2011-12-03T10:00:24Z</time>
      </trkpt>
      <trkpt lat="45.79031" lon="4.70974">
        <ele>289</ele>
        <time>2011-12-03T10:00:25Z</time>
      </trkpt>
      <trkpt lat="45.79012" lon="4.7104">
        <ele>288</ele>
        <time>2011-12-03T10:00:32Z</time>
      </trkpt>
      <trkpt lat="45.7899" lon="4.71099">
        <ele>287</ele>
        <time>2011-12-03T10:00:39Z</time>
      </trkpt>
      <trkpt lat="45.78975" lon="4.71132">
        <ele>288</ele>
        <time>2011-12-03T10:00:45Z</time>
      </trkpt>
      <trkpt lat="45.78972" lon="4.71136">
        <ele>287</ele>
        <time>2011-12-03T10:00:46Z</time>
      </trkpt>
      <trkpt lat="45.7897" lon="4.71141">
        <ele>288</ele>
        <time>2011-12-03T10:00:47Z</time>
      </trkpt>
      <trkpt lat="45.78967" lon="4.71145">
        <ele>288</ele>
        <time>2011-12-03T10:00:48Z</time>
      </trkpt>
      <trkpt lat="45.78965" lon="4.71149">
        <ele>289</ele>
        <time>2011-12-03T10:00:49Z</time>
      </trkpt>
      <trkpt lat="45.78944" lon="4.71181">
        <ele>290</ele>
        <time>2011-12-03T10:00:57Z</time>
      </trkpt>
      <trkpt lat="45.78919" lon="4.71213">
        <ele>292</ele>
        <time>2011-12-03T10:01:06Z</time>
      </trkpt>
      <trkpt lat="45.78892" lon="4.71243">
        <ele>294</ele>
        <time>2011-12-03T10:01:15Z</time>
      </trkpt>
      <trkpt lat="45.78859" lon="4.7127">
        <ele>296</ele>
        <time>2011-12-03T10:01:25Z</time>
      </trkpt>
      <trkpt lat="45.78831" lon="4.71291">
        <ele>298</ele>
        <time>2011-12-03T10:01:34Z</time>
      </trkpt>
      <trkpt lat="45.78793" lon="4.71319">
        <ele>298</ele>
        <time>2011-12-03T10:01:46Z</time>
      </trkpt>
      <trkpt lat="45.78767" lon="4.71343">
        <ele>299</ele>
        <time>2011-12-03T10:01:54Z</time>
      </trkpt>
      <trkpt lat="45.78728" lon="4.71377">
        <ele>299</ele>
        <time>2011-12-03T10:02:06Z</time>
      </trkpt>
      <trkpt lat="45.78693" lon="4.71408">
        <ele>299</ele>
        <time>2011-12-03T10:02:16Z</time>
      </trkpt>
      <trkpt lat="45.7866" lon="4.71438">
        <ele>298</ele>
        <time>2011-12-03T10:02:24Z</time>
      </trkpt>
      <trkpt lat="45.78621" lon="4.71473">
        <ele>298</ele>
        <time>2011-12-03T10:02:33Z</time>
      </trkpt>
      <trkpt lat="45.78588" lon="4.71511">
        <ele>299</ele>
        <time>2011-12-03T10:02:41Z</time>
      </trkpt>
      <trkpt lat="45.78554" lon="4.71562">
        <ele>298</ele>
        <time>2011-12-03T10:02:50Z</time>
      </trkpt>
      <trkpt lat="45.78539" lon="4.71586">
        <ele>298</ele>
        <time>2011-12-03T10:02:54Z</time>
      </trkpt>
      <trkpt lat="45.78535" lon="4.71591">
        <ele>298</ele>
        <time>2011-12-03T10:02:55Z</time>
      </trkpt>
      <trkpt lat="45.78506" lon="4.71638">
        <ele>298</ele>
        <time>2011-12-03T10:03:03Z</time>
      </trkpt>
      <trkpt lat="45.78485" lon="4.71672">
        <ele>296</ele>
        <time>2011-12-03T10:03:09Z</time>
      </trkpt>
      <trkpt lat="45.78473" lon="4.71692">
        <ele>297</ele>
        <time>2011-12-03T10:03:13Z</time>
      </trkpt>
      <trkpt lat="45.78468" lon="4.71703">
        <ele>296</ele>
        <time>2011-12-03T10:03:15Z</time>
      </trkpt>
      <trkpt lat="45.78463" lon="4.71713">
        <ele>296</ele>
        <time>2011-12-03T10:03:17Z</time>
      </trkpt>
      <trkpt lat="45.7845" lon="4.71743">
        <ele>296</ele>
        <time>2011-12-03T10:03:22Z</time>
      </trkpt>
      <trkpt lat="45.78446" lon="4.71748">
        <ele>297</ele>
        <time>2011-12-03T10:03:23Z</time>
      </trkpt>
      <trkpt lat="45.78438" lon="4.71758">
        <ele>296</ele>
        <time>2011-12-03T10:03:25Z</time>
      </trkpt>
      <trkpt lat="45.78435" lon="4.71763">
        <ele>296</ele>
        <time>2011-12-03T10:03:26Z</time>
      </trkpt>
      <trkpt lat="45.78432" lon="4.71769">
        <ele>296</ele>
        <time>2011-12-03T10:03:27Z</time>
      </trkpt>
      <trkpt lat="45.78431" lon="4.71777">
        <ele>297</ele>
        <time>2011-12-03T10:03:28Z</time>
      </trkpt>
      <trkpt lat="45.78432" lon="4.71784">
        <ele>296</ele>
        <time>2011-12-03T10:03:29Z</time>
      </trkpt>
      <trkpt lat="45.78435" lon="4.71791">
        <ele>296</ele>
        <time>2011-12-03T10:03:30Z</time>
      </trkpt>
      <trkpt lat="45.78439" lon="4.71797">
        <ele>296</ele>
        <time>2011-12-03T10:03:31Z</time>
      </trkpt>
      <trkpt lat="45.78442" lon="4.71803">
        <ele>296</ele>
        <time>2011-12-03T10:03:32Z</time>
      </trkpt>
      <trkpt lat="45.78444" lon="4.71811">
        <ele>296</ele>
        <time>2011-12-03T10:03:33Z</time>
      </trkpt>
      <trkpt lat="45.78446" lon="4.71818">
        <ele>296</ele>
        <time>2011-12-03T10:03:34Z</time>
      </trkpt>
      <trkpt lat="45.78448" lon="4.71826">
        <ele>295</ele>
        <time>2011-12-03T10:03:35Z</time>
      </trkpt>
      <trkpt lat="45.78448" lon="4.71834">
        <ele>295</ele>
        <time>2011-12-03T10:03:36Z</time>
      </trkpt>
      <trkpt lat="45.78454" lon="4.71898">
        <ele>293</ele>
        <time>2011-12-03T10:03:44Z</time>
      </trkpt>
      <trkpt lat="45.78462" lon="4.71985">
        <ele>293</ele>
        <time>2011-12-03T10:03:55Z</time>
      </trkpt>
      <trkpt lat="45.78468" lon="4.72052">
        <ele>292</ele>
        <time>2011-12-03T10:04:04Z</time>
      </trkpt>
      <trkpt lat="45.78472" lon="4.72106">
        <ele>292</ele>
        <time>2011-12-03T10:04:12Z</time>
      </trkpt>
      <trkpt lat="45.78474" lon="4.72119">
        <ele>292</ele>
        <time>2011-12-03T10:04:14Z</time>
      </trkpt>
      <trkpt lat="45.78475" lon="4.72126">
        <ele>292</ele>
        <time>2011-12-03T10:04:15Z</time>
      </trkpt>
      <trkpt lat="45.7848" lon="4.72181">
        <ele>292</ele>
        <time>2011-12-03T10:04:23Z</time>
      </trkpt>
      <trkpt lat="45.78484" lon="4.72231">
        <ele>292</ele>
        <time>2011-12-03T10:04:30Z</time>
      </trkpt>
      <trkpt lat="45.78485" lon="4.72279">
        <ele>292</ele>
        <time>2011-12-03T10:04:37Z</time>
      </trkpt>
      <trkpt lat="45.78484" lon="4.72286">
        <ele>293</ele>
        <time>2011-12-03T10:04:38Z</time>
      </trkpt>
      <trkpt lat="45.78482" lon="4.72292">
        <ele>292</ele>
        <time>2011-12-03T10:04:39Z</time>
      </trkpt>
      <trkpt lat="45.78466" lon="4.72334">
        <ele>292</ele>
        <time>2011-12-03T10:04:46Z</time>
      </trkpt>
      <trkpt lat="45.78464" lon="4.72339">
        <ele>292</ele>
        <time>2011-12-03T10:04:47Z</time>
      </trkpt>
      <trkpt lat="45.78461" lon="4.72345">
        <ele>292</ele>
        <time>2011-12-03T10:04:48Z</time>
      </trkpt>
      <trkpt lat="45.78453" lon="4.72362">
        <ele>291</ele>
        <time>2011-12-03T10:04:51Z</time>
      </trkpt>
      <trkpt lat="45.78442" lon="4.72386">
        <ele>292</ele>
        <time>2011-12-03T10:04:55Z</time>
      </trkpt>
      <trkpt lat="45.78422" lon="4.72434">
        <ele>290</ele>
        <time>2011-12-03T10:05:02Z</time>
      </trkpt>
      <trkpt lat="45.78409" lon="4.72484">
        <ele>289</ele>
        <time>2011-12-03T10:05:08Z</time>
      </trkpt>
      <trkpt lat="45.78408" lon="4.72495">
        <ele>288</ele>
        <time>2011-12-03T10:05:09Z</time>
      </trkpt>
      <trkpt lat="45.78407" lon="4.72505">
        <ele>288</ele>
        <time>2011-12-03T10:05:10Z</time>
      </trkpt>
      <trkpt lat="45.78406" lon="4.72517">
        <ele>287</ele>
        <time>2011-12-03T10:05:11Z</time>
      </trkpt>
      <trkpt lat="45.78405" lon="4.72528">
        <ele>287</ele>
        <time>2011-12-03T10:05:12Z</time>
      </trkpt>
      <trkpt lat="45.78403" lon="4.72565">
        <ele>284</ele>
        <time>2011-12-03T10:05:15Z</time>
      </trkpt>
      <trkpt lat="45.78396" lon="4.72632">
        <ele>281</ele>
        <time>2011-12-03T10:05:20Z</time>
      </trkpt>
      <trkpt lat="45.78391" lon="4.72659">
        <ele>280</ele>
        <time>2011-12-03T10:05:22Z</time>
      </trkpt>
      <trkpt lat="45.78388" lon="4.72672">
        <ele>279</ele>
        <time>2011-12-03T10:05:23Z</time>
      </trkpt>
      <trkpt lat="45.78384" lon="4.72728">
        <ele>276</ele>
        <time>2011-12-03T10:05:27Z</time>
      </trkpt>
      <trkpt lat="45.78381" lon="4.72772">
        <ele>274</ele>
        <time>2011-12-03T10:05:30Z</time>
      </trkpt>
      <trkpt lat="45.78378" lon="4.72865">
        <ele>271</ele>
        <time>2011-12-03T10:05:37Z</time>
      </trkpt>
      <trkpt lat="45.78377" lon="4.7294">
        <ele>269</ele>
        <time>2011-12-03T10:05:43Z</time>
      </trkpt>
      <trkpt lat="45.78373" lon="4.73005">
        <ele>265</ele>
        <time>2011-12-03T10:05:48Z</time>
      </trkpt>
      <trkpt lat="45.78371" lon="4.73019">
        <ele>265</ele>
        <time>2011-12-03T10:05:49Z</time>
      </trkpt>
      <trkpt lat="45.78372" lon="4.73076">
        <ele>262</ele>
        <time>2011-12-03T10:05:53Z</time>
      </trkpt>
      <trkpt lat="45.78379" lon="4.73118">
        <ele>260</ele>
        <time>2011-12-03T10:05:56Z</time>
      </trkpt>
      <trkpt lat="45.78383" lon="4.73131">
        <ele>260</ele>
        <time>2011-12-03T10:05:57Z</time>
      </trkpt>
      <trkpt lat="45.78388" lon="4.73144">
        <ele>259</ele>
        <time>2011-12-03T10:05:58Z</time>
      </trkpt>
      <trkpt lat="45.78394" lon="4.73156">
        <ele>257</ele>
        <time>2011-12-03T10:05:59Z</time>
      </trkpt>
      <trkpt lat="45.78401" lon="4.73167">
        <ele>256</ele>
        <time>2011-12-03T10:06:00Z</time>
      </trkpt>
      <trkpt lat="45.78409" lon="4.73177">
        <ele>255</ele>
        <time>2011-12-03T10:06:01Z</time>
      </trkpt>
      <trkpt lat="45.78417" lon="4.73187">
        <ele>254</ele>
        <time>2011-12-03T10:06:02Z</time>
      </trkpt>
      <trkpt lat="45.78442" lon="4.73219">
        <ele>252</ele>
        <time>2011-12-03T10:06:05Z</time>
      </trkpt>
      <trkpt lat="45.78449" lon="4.73232">
        <ele>250</ele>
        <time>2011-12-03T10:06:06Z</time>
      </trkpt>
      <trkpt lat="45.78455" lon="4.73246">
        <ele>249</ele>
        <time>2011-12-03T10:06:07Z</time>
      </trkpt>
      <trkpt lat="45.78472" lon="4.73289">
        <ele>246</ele>
        <time>2011-12-03T10:06:10Z</time>
      </trkpt>
      <trkpt lat="45.78485" lon="4.73331">
        <ele>242</ele>
        <time>2011-12-03T10:06:13Z</time>
      </trkpt>
      <trkpt lat="45.78496" lon="4.73363">
        <ele>239</ele>
        <time>2011-12-03T10:06:16Z</time>
      </trkpt>
      <trkpt lat="45.78498" lon="4.73373">
        <ele>239</ele>
        <time>2011-12-03T10:06:17Z</time>
      </trkpt>
      <trkpt lat="45.785" lon="4.73383">
        <ele>239</ele>
        <time>2011-12-03T10:06:18Z</time>
      </trkpt>
      <trkpt lat="45.78505" lon="4.73392">
        <ele>238</ele>
        <time>2011-12-03T10:06:19Z</time>
      </trkpt>
      <trkpt lat="45.78511" lon="4.734">
        <ele>237</ele>
        <time>2011-12-03T10:06:20Z</time>
      </trkpt>
      <trkpt lat="45.78517" lon="4.73408">
        <ele>236</ele>
        <time>2011-12-03T10:06:21Z</time>
      </trkpt>
      <trkpt lat="45.78538" lon="4.73437">
        <ele>234</ele>
        <time>2011-12-03T10:06:26Z</time>
      </trkpt>
      <trkpt lat="45.78539" lon="4.73441">
        <ele>234</ele>
        <time>2011-12-03T10:06:27Z</time>
      </trkpt>
      <trkpt lat="45.78537" lon="4.73457">
        <ele>233</ele>
        <time>2011-12-03T10:06:32Z</time>
      </trkpt>
      <trkpt lat="45.78536" lon="4.73458">
        <ele>230</ele>
        <time>2011-12-03T10:06:37Z</time>
      </trkpt>
      <trkpt lat="45.78536" lon="4.73458">
        <ele>233</ele>
        <time>2011-12-03T10:06:38Z</time>
      </trkpt>
      <trkpt lat="45.78536" lon="4.73458">
        <ele>234</ele>
        <time>2011-12-03T10:06:40Z</time>
      </trkpt>
      <trkpt lat="45.78536" lon="4.73458">
        <ele>233</ele>
        <time>2011-12-03T10:06:42Z</time>
      </trkpt>
      <trkpt lat="45.78536" lon="4.73458">
        <ele>229</ele>
        <time>2011-12-03T10:06:53Z</time>
      </trkpt>
    </trkseg>
  </trk>
</gpx>